<?xml version="1.0" encoding="UTF-8"?>
<gpx xmlns="http://www.topografix.com/GPX/1/1"
     creator="GpsDumpMac 0.36"
     version="1.1"
     xmlns:xsi="http://www.w3.org/2001/XMLSchema-instance"
     xsi:schemaLocation="http://www.topografix.com/GPX/1/1 http://www.topografix.com/GPX/1/1/gpx.xsd">
  <metadata>
    <link href="http://www.gethome.no/stein.sorensen/">
      <text>GPS dump for www.flightlog.org</text>
    </link>
    <time>2015-08-29T11:54:33Z</time>
    <bounds minlat="40.238850" minlon="-4.923533" maxlat="40.334033" maxlon="-4.565350"/>
  </metadata>
  <trk>
    <name>Track 001</name>
    <trkseg>
      <trkpt lat="40.256383" lon="-4.905850">
        <ele>1257.0</ele>
        <time>2015-08-02T11:13:41Z</time>
      </trkpt>
      <trkpt lat="40.256300" lon="-4.905983">
        <ele>1254.0</ele>
        <time>2015-08-02T11:13:43Z</time>
      </trkpt>
      <trkpt lat="40.256250" lon="-4.906133">
        <ele>1253.0</ele>
        <time>2015-08-02T11:13:45Z</time>
      </trkpt>
      <trkpt lat="40.256200" lon="-4.906300">
        <ele>1252.0</ele>
        <time>2015-08-02T11:13:47Z</time>
      </trkpt>
      <trkpt lat="40.256183" lon="-4.906500">
        <ele>1251.0</ele>
        <time>2015-08-02T11:13:49Z</time>
      </trkpt>
      <trkpt lat="40.256150" lon="-4.906700">
        <ele>1252.0</ele>
        <time>2015-08-02T11:13:51Z</time>
      </trkpt>
      <trkpt lat="40.256083" lon="-4.906833">
        <ele>1257.0</ele>
        <time>2015-08-02T11:13:53Z</time>
      </trkpt>
      <trkpt lat="40.256033" lon="-4.906933">
        <ele>1259.0</ele>
        <time>2015-08-02T11:13:55Z</time>
      </trkpt>
      <trkpt lat="40.255917" lon="-4.907067">
        <ele>1261.0</ele>
        <time>2015-08-02T11:13:57Z</time>
      </trkpt>
      <trkpt lat="40.255783" lon="-4.907167">
        <ele>1264.0</ele>
        <time>2015-08-02T11:13:59Z</time>
      </trkpt>
      <trkpt lat="40.255750" lon="-4.907317">
        <ele>1266.0</ele>
        <time>2015-08-02T11:14:01Z</time>
      </trkpt>
      <trkpt lat="40.255750" lon="-4.907500">
        <ele>1263.0</ele>
        <time>2015-08-02T11:14:03Z</time>
      </trkpt>
      <trkpt lat="40.255717" lon="-4.907650">
        <ele>1263.0</ele>
        <time>2015-08-02T11:14:05Z</time>
      </trkpt>
      <trkpt lat="40.255667" lon="-4.907800">
        <ele>1263.0</ele>
        <time>2015-08-02T11:14:07Z</time>
      </trkpt>
      <trkpt lat="40.255583" lon="-4.907883">
        <ele>1262.0</ele>
        <time>2015-08-02T11:14:09Z</time>
      </trkpt>
      <trkpt lat="40.255450" lon="-4.907983">
        <ele>1260.0</ele>
        <time>2015-08-02T11:14:11Z</time>
      </trkpt>
      <trkpt lat="40.255367" lon="-4.908150">
        <ele>1257.0</ele>
        <time>2015-08-02T11:14:13Z</time>
      </trkpt>
      <trkpt lat="40.255300" lon="-4.908317">
        <ele>1256.0</ele>
        <time>2015-08-02T11:14:15Z</time>
      </trkpt>
      <trkpt lat="40.255250" lon="-4.908483">
        <ele>1253.0</ele>
        <time>2015-08-02T11:14:17Z</time>
      </trkpt>
      <trkpt lat="40.255183" lon="-4.908700">
        <ele>1251.0</ele>
        <time>2015-08-02T11:14:19Z</time>
      </trkpt>
      <trkpt lat="40.255150" lon="-4.908900">
        <ele>1250.0</ele>
        <time>2015-08-02T11:14:21Z</time>
      </trkpt>
      <trkpt lat="40.255117" lon="-4.909083">
        <ele>1248.0</ele>
        <time>2015-08-02T11:14:23Z</time>
      </trkpt>
      <trkpt lat="40.255083" lon="-4.909333">
        <ele>1246.0</ele>
        <time>2015-08-02T11:14:25Z</time>
      </trkpt>
      <trkpt lat="40.255067" lon="-4.909567">
        <ele>1247.0</ele>
        <time>2015-08-02T11:14:27Z</time>
      </trkpt>
      <trkpt lat="40.255033" lon="-4.909783">
        <ele>1247.0</ele>
        <time>2015-08-02T11:14:29Z</time>
      </trkpt>
      <trkpt lat="40.255000" lon="-4.910017">
        <ele>1245.0</ele>
        <time>2015-08-02T11:14:31Z</time>
      </trkpt>
      <trkpt lat="40.254950" lon="-4.910267">
        <ele>1244.0</ele>
        <time>2015-08-02T11:14:33Z</time>
      </trkpt>
      <trkpt lat="40.254917" lon="-4.910467">
        <ele>1245.0</ele>
        <time>2015-08-02T11:14:35Z</time>
      </trkpt>
      <trkpt lat="40.254867" lon="-4.910633">
        <ele>1242.0</ele>
        <time>2015-08-02T11:14:37Z</time>
      </trkpt>
      <trkpt lat="40.254817" lon="-4.910850">
        <ele>1239.0</ele>
        <time>2015-08-02T11:14:39Z</time>
      </trkpt>
      <trkpt lat="40.254750" lon="-4.911133">
        <ele>1240.0</ele>
        <time>2015-08-02T11:14:41Z</time>
      </trkpt>
      <trkpt lat="40.254700" lon="-4.911333">
        <ele>1242.0</ele>
        <time>2015-08-02T11:14:43Z</time>
      </trkpt>
      <trkpt lat="40.254650" lon="-4.911550">
        <ele>1242.0</ele>
        <time>2015-08-02T11:14:45Z</time>
      </trkpt>
      <trkpt lat="40.254633" lon="-4.911817">
        <ele>1241.0</ele>
        <time>2015-08-02T11:14:47Z</time>
      </trkpt>
      <trkpt lat="40.254633" lon="-4.912083">
        <ele>1241.0</ele>
        <time>2015-08-02T11:14:49Z</time>
      </trkpt>
      <trkpt lat="40.254617" lon="-4.912317">
        <ele>1241.0</ele>
        <time>2015-08-02T11:14:51Z</time>
      </trkpt>
      <trkpt lat="40.254617" lon="-4.912583">
        <ele>1240.0</ele>
        <time>2015-08-02T11:14:53Z</time>
      </trkpt>
      <trkpt lat="40.254583" lon="-4.912783">
        <ele>1241.0</ele>
        <time>2015-08-02T11:14:55Z</time>
      </trkpt>
      <trkpt lat="40.254550" lon="-4.912950">
        <ele>1238.0</ele>
        <time>2015-08-02T11:14:57Z</time>
      </trkpt>
      <trkpt lat="40.254450" lon="-4.913133">
        <ele>1232.0</ele>
        <time>2015-08-02T11:14:59Z</time>
      </trkpt>
      <trkpt lat="40.254317" lon="-4.913367">
        <ele>1233.0</ele>
        <time>2015-08-02T11:15:01Z</time>
      </trkpt>
      <trkpt lat="40.254267" lon="-4.913533">
        <ele>1236.0</ele>
        <time>2015-08-02T11:15:03Z</time>
      </trkpt>
      <trkpt lat="40.254233" lon="-4.913700">
        <ele>1231.0</ele>
        <time>2015-08-02T11:15:05Z</time>
      </trkpt>
      <trkpt lat="40.254150" lon="-4.913917">
        <ele>1225.0</ele>
        <time>2015-08-02T11:15:07Z</time>
      </trkpt>
      <trkpt lat="40.254050" lon="-4.914133">
        <ele>1230.0</ele>
        <time>2015-08-02T11:15:09Z</time>
      </trkpt>
      <trkpt lat="40.254017" lon="-4.914267">
        <ele>1235.0</ele>
        <time>2015-08-02T11:15:11Z</time>
      </trkpt>
      <trkpt lat="40.253983" lon="-4.914417">
        <ele>1235.0</ele>
        <time>2015-08-02T11:15:13Z</time>
      </trkpt>
      <trkpt lat="40.253917" lon="-4.914633">
        <ele>1236.0</ele>
        <time>2015-08-02T11:15:15Z</time>
      </trkpt>
      <trkpt lat="40.253967" lon="-4.914867">
        <ele>1240.0</ele>
        <time>2015-08-02T11:15:17Z</time>
      </trkpt>
      <trkpt lat="40.254133" lon="-4.915067">
        <ele>1240.0</ele>
        <time>2015-08-02T11:15:19Z</time>
      </trkpt>
      <trkpt lat="40.254383" lon="-4.915017">
        <ele>1236.0</ele>
        <time>2015-08-02T11:15:21Z</time>
      </trkpt>
      <trkpt lat="40.254533" lon="-4.914783">
        <ele>1234.0</ele>
        <time>2015-08-02T11:15:23Z</time>
      </trkpt>
      <trkpt lat="40.254567" lon="-4.914583">
        <ele>1236.0</ele>
        <time>2015-08-02T11:15:25Z</time>
      </trkpt>
      <trkpt lat="40.254550" lon="-4.914400">
        <ele>1234.0</ele>
        <time>2015-08-02T11:15:27Z</time>
      </trkpt>
      <trkpt lat="40.254450" lon="-4.914250">
        <ele>1234.0</ele>
        <time>2015-08-02T11:15:29Z</time>
      </trkpt>
      <trkpt lat="40.254333" lon="-4.914250">
        <ele>1236.0</ele>
        <time>2015-08-02T11:15:31Z</time>
      </trkpt>
      <trkpt lat="40.254200" lon="-4.914350">
        <ele>1237.0</ele>
        <time>2015-08-02T11:15:33Z</time>
      </trkpt>
      <trkpt lat="40.254050" lon="-4.914450">
        <ele>1239.0</ele>
        <time>2015-08-02T11:15:35Z</time>
      </trkpt>
      <trkpt lat="40.253917" lon="-4.914600">
        <ele>1244.0</ele>
        <time>2015-08-02T11:15:37Z</time>
      </trkpt>
      <trkpt lat="40.253850" lon="-4.914767">
        <ele>1248.0</ele>
        <time>2015-08-02T11:15:39Z</time>
      </trkpt>
      <trkpt lat="40.253817" lon="-4.914967">
        <ele>1248.0</ele>
        <time>2015-08-02T11:15:41Z</time>
      </trkpt>
      <trkpt lat="40.253867" lon="-4.915250">
        <ele>1249.0</ele>
        <time>2015-08-02T11:15:43Z</time>
      </trkpt>
      <trkpt lat="40.253933" lon="-4.915483">
        <ele>1257.0</ele>
        <time>2015-08-02T11:15:45Z</time>
      </trkpt>
      <trkpt lat="40.253950" lon="-4.915650">
        <ele>1259.0</ele>
        <time>2015-08-02T11:15:47Z</time>
      </trkpt>
      <trkpt lat="40.253850" lon="-4.915783">
        <ele>1259.0</ele>
        <time>2015-08-02T11:15:49Z</time>
      </trkpt>
      <trkpt lat="40.253750" lon="-4.915717">
        <ele>1260.0</ele>
        <time>2015-08-02T11:15:51Z</time>
      </trkpt>
      <trkpt lat="40.253767" lon="-4.915550">
        <ele>1261.0</ele>
        <time>2015-08-02T11:15:53Z</time>
      </trkpt>
      <trkpt lat="40.253850" lon="-4.915383">
        <ele>1262.0</ele>
        <time>2015-08-02T11:15:55Z</time>
      </trkpt>
      <trkpt lat="40.254033" lon="-4.915217">
        <ele>1263.0</ele>
        <time>2015-08-02T11:15:57Z</time>
      </trkpt>
      <trkpt lat="40.254200" lon="-4.915067">
        <ele>1265.0</ele>
        <time>2015-08-02T11:15:59Z</time>
      </trkpt>
      <trkpt lat="40.254333" lon="-4.914917">
        <ele>1267.0</ele>
        <time>2015-08-02T11:16:01Z</time>
      </trkpt>
      <trkpt lat="40.254450" lon="-4.914750">
        <ele>1268.0</ele>
        <time>2015-08-02T11:16:03Z</time>
      </trkpt>
      <trkpt lat="40.254517" lon="-4.914567">
        <ele>1268.0</ele>
        <time>2015-08-02T11:16:05Z</time>
      </trkpt>
      <trkpt lat="40.254533" lon="-4.914417">
        <ele>1271.0</ele>
        <time>2015-08-02T11:16:07Z</time>
      </trkpt>
      <trkpt lat="40.254450" lon="-4.914350">
        <ele>1272.0</ele>
        <time>2015-08-02T11:16:09Z</time>
      </trkpt>
      <trkpt lat="40.254333" lon="-4.914400">
        <ele>1273.0</ele>
        <time>2015-08-02T11:16:11Z</time>
      </trkpt>
      <trkpt lat="40.254217" lon="-4.914533">
        <ele>1275.0</ele>
        <time>2015-08-02T11:16:13Z</time>
      </trkpt>
      <trkpt lat="40.254167" lon="-4.914733">
        <ele>1277.0</ele>
        <time>2015-08-02T11:16:15Z</time>
      </trkpt>
      <trkpt lat="40.254167" lon="-4.914983">
        <ele>1277.0</ele>
        <time>2015-08-02T11:16:17Z</time>
      </trkpt>
      <trkpt lat="40.254300" lon="-4.915200">
        <ele>1276.0</ele>
        <time>2015-08-02T11:16:19Z</time>
      </trkpt>
      <trkpt lat="40.254533" lon="-4.915283">
        <ele>1275.0</ele>
        <time>2015-08-02T11:16:21Z</time>
      </trkpt>
      <trkpt lat="40.254750" lon="-4.915183">
        <ele>1274.0</ele>
        <time>2015-08-02T11:16:23Z</time>
      </trkpt>
      <trkpt lat="40.254883" lon="-4.914967">
        <ele>1274.0</ele>
        <time>2015-08-02T11:16:25Z</time>
      </trkpt>
      <trkpt lat="40.254983" lon="-4.914717">
        <ele>1275.0</ele>
        <time>2015-08-02T11:16:27Z</time>
      </trkpt>
      <trkpt lat="40.255050" lon="-4.914517">
        <ele>1279.0</ele>
        <time>2015-08-02T11:16:29Z</time>
      </trkpt>
      <trkpt lat="40.255133" lon="-4.914350">
        <ele>1282.0</ele>
        <time>2015-08-02T11:16:31Z</time>
      </trkpt>
      <trkpt lat="40.255267" lon="-4.914183">
        <ele>1283.0</ele>
        <time>2015-08-02T11:16:33Z</time>
      </trkpt>
      <trkpt lat="40.255417" lon="-4.913983">
        <ele>1286.0</ele>
        <time>2015-08-02T11:16:35Z</time>
      </trkpt>
      <trkpt lat="40.255467" lon="-4.913783">
        <ele>1290.0</ele>
        <time>2015-08-02T11:16:37Z</time>
      </trkpt>
      <trkpt lat="40.255483" lon="-4.913600">
        <ele>1295.0</ele>
        <time>2015-08-02T11:16:39Z</time>
      </trkpt>
      <trkpt lat="40.255433" lon="-4.913450">
        <ele>1300.0</ele>
        <time>2015-08-02T11:16:41Z</time>
      </trkpt>
      <trkpt lat="40.255333" lon="-4.913383">
        <ele>1303.0</ele>
        <time>2015-08-02T11:16:43Z</time>
      </trkpt>
      <trkpt lat="40.255200" lon="-4.913367">
        <ele>1306.0</ele>
        <time>2015-08-02T11:16:45Z</time>
      </trkpt>
      <trkpt lat="40.255050" lon="-4.913400">
        <ele>1309.0</ele>
        <time>2015-08-02T11:16:47Z</time>
      </trkpt>
      <trkpt lat="40.254950" lon="-4.913567">
        <ele>1310.0</ele>
        <time>2015-08-02T11:16:49Z</time>
      </trkpt>
      <trkpt lat="40.254900" lon="-4.913800">
        <ele>1313.0</ele>
        <time>2015-08-02T11:16:51Z</time>
      </trkpt>
      <trkpt lat="40.254867" lon="-4.914000">
        <ele>1315.0</ele>
        <time>2015-08-02T11:16:53Z</time>
      </trkpt>
      <trkpt lat="40.254783" lon="-4.914133">
        <ele>1316.0</ele>
        <time>2015-08-02T11:16:55Z</time>
      </trkpt>
      <trkpt lat="40.254667" lon="-4.914167">
        <ele>1317.0</ele>
        <time>2015-08-02T11:16:57Z</time>
      </trkpt>
      <trkpt lat="40.254600" lon="-4.914067">
        <ele>1316.0</ele>
        <time>2015-08-02T11:16:59Z</time>
      </trkpt>
      <trkpt lat="40.254567" lon="-4.913917">
        <ele>1312.0</ele>
        <time>2015-08-02T11:17:01Z</time>
      </trkpt>
      <trkpt lat="40.254450" lon="-4.913767">
        <ele>1306.0</ele>
        <time>2015-08-02T11:17:03Z</time>
      </trkpt>
      <trkpt lat="40.254300" lon="-4.913700">
        <ele>1306.0</ele>
        <time>2015-08-02T11:17:05Z</time>
      </trkpt>
      <trkpt lat="40.254183" lon="-4.913717">
        <ele>1307.0</ele>
        <time>2015-08-02T11:17:07Z</time>
      </trkpt>
      <trkpt lat="40.254067" lon="-4.913817">
        <ele>1307.0</ele>
        <time>2015-08-02T11:17:09Z</time>
      </trkpt>
      <trkpt lat="40.253967" lon="-4.913967">
        <ele>1307.0</ele>
        <time>2015-08-02T11:17:11Z</time>
      </trkpt>
      <trkpt lat="40.253900" lon="-4.914100">
        <ele>1307.0</ele>
        <time>2015-08-02T11:17:13Z</time>
      </trkpt>
      <trkpt lat="40.253850" lon="-4.914267">
        <ele>1305.0</ele>
        <time>2015-08-02T11:17:15Z</time>
      </trkpt>
      <trkpt lat="40.253800" lon="-4.914500">
        <ele>1303.0</ele>
        <time>2015-08-02T11:17:17Z</time>
      </trkpt>
      <trkpt lat="40.253733" lon="-4.914683">
        <ele>1304.0</ele>
        <time>2015-08-02T11:17:19Z</time>
      </trkpt>
      <trkpt lat="40.253667" lon="-4.914817">
        <ele>1304.0</ele>
        <time>2015-08-02T11:17:21Z</time>
      </trkpt>
      <trkpt lat="40.253583" lon="-4.914983">
        <ele>1303.0</ele>
        <time>2015-08-02T11:17:23Z</time>
      </trkpt>
      <trkpt lat="40.253500" lon="-4.915117">
        <ele>1305.0</ele>
        <time>2015-08-02T11:17:25Z</time>
      </trkpt>
      <trkpt lat="40.253433" lon="-4.915250">
        <ele>1304.0</ele>
        <time>2015-08-02T11:17:27Z</time>
      </trkpt>
      <trkpt lat="40.253333" lon="-4.915400">
        <ele>1300.0</ele>
        <time>2015-08-02T11:17:29Z</time>
      </trkpt>
      <trkpt lat="40.253200" lon="-4.915500">
        <ele>1300.0</ele>
        <time>2015-08-02T11:17:31Z</time>
      </trkpt>
      <trkpt lat="40.253100" lon="-4.915517">
        <ele>1303.0</ele>
        <time>2015-08-02T11:17:33Z</time>
      </trkpt>
      <trkpt lat="40.252983" lon="-4.915467">
        <ele>1302.0</ele>
        <time>2015-08-02T11:17:35Z</time>
      </trkpt>
      <trkpt lat="40.252850" lon="-4.915433">
        <ele>1301.0</ele>
        <time>2015-08-02T11:17:37Z</time>
      </trkpt>
      <trkpt lat="40.252733" lon="-4.915433">
        <ele>1304.0</ele>
        <time>2015-08-02T11:17:39Z</time>
      </trkpt>
      <trkpt lat="40.252633" lon="-4.915500">
        <ele>1302.0</ele>
        <time>2015-08-02T11:17:41Z</time>
      </trkpt>
      <trkpt lat="40.252500" lon="-4.915650">
        <ele>1298.0</ele>
        <time>2015-08-02T11:17:43Z</time>
      </trkpt>
      <trkpt lat="40.252367" lon="-4.915850">
        <ele>1300.0</ele>
        <time>2015-08-02T11:17:45Z</time>
      </trkpt>
      <trkpt lat="40.252300" lon="-4.915967">
        <ele>1303.0</ele>
        <time>2015-08-02T11:17:47Z</time>
      </trkpt>
      <trkpt lat="40.252217" lon="-4.916067">
        <ele>1303.0</ele>
        <time>2015-08-02T11:17:49Z</time>
      </trkpt>
      <trkpt lat="40.252150" lon="-4.916233">
        <ele>1303.0</ele>
        <time>2015-08-02T11:17:51Z</time>
      </trkpt>
      <trkpt lat="40.252133" lon="-4.916483">
        <ele>1306.0</ele>
        <time>2015-08-02T11:17:53Z</time>
      </trkpt>
      <trkpt lat="40.252200" lon="-4.916750">
        <ele>1312.0</ele>
        <time>2015-08-02T11:17:55Z</time>
      </trkpt>
      <trkpt lat="40.252367" lon="-4.916967">
        <ele>1316.0</ele>
        <time>2015-08-02T11:17:57Z</time>
      </trkpt>
      <trkpt lat="40.252633" lon="-4.917033">
        <ele>1320.0</ele>
        <time>2015-08-02T11:17:59Z</time>
      </trkpt>
      <trkpt lat="40.252850" lon="-4.916883">
        <ele>1326.0</ele>
        <time>2015-08-02T11:18:01Z</time>
      </trkpt>
      <trkpt lat="40.252967" lon="-4.916667">
        <ele>1331.0</ele>
        <time>2015-08-02T11:18:03Z</time>
      </trkpt>
      <trkpt lat="40.252983" lon="-4.916450">
        <ele>1336.0</ele>
        <time>2015-08-02T11:18:05Z</time>
      </trkpt>
      <trkpt lat="40.252917" lon="-4.916300">
        <ele>1339.0</ele>
        <time>2015-08-02T11:18:07Z</time>
      </trkpt>
      <trkpt lat="40.252817" lon="-4.916317">
        <ele>1342.0</ele>
        <time>2015-08-02T11:18:09Z</time>
      </trkpt>
      <trkpt lat="40.252767" lon="-4.916417">
        <ele>1343.0</ele>
        <time>2015-08-02T11:18:11Z</time>
      </trkpt>
      <trkpt lat="40.252683" lon="-4.916550">
        <ele>1340.0</ele>
        <time>2015-08-02T11:18:13Z</time>
      </trkpt>
      <trkpt lat="40.252633" lon="-4.916800">
        <ele>1339.0</ele>
        <time>2015-08-02T11:18:15Z</time>
      </trkpt>
      <trkpt lat="40.252617" lon="-4.917083">
        <ele>1346.0</ele>
        <time>2015-08-02T11:18:17Z</time>
      </trkpt>
      <trkpt lat="40.252600" lon="-4.917267">
        <ele>1354.0</ele>
        <time>2015-08-02T11:18:19Z</time>
      </trkpt>
      <trkpt lat="40.252650" lon="-4.917450">
        <ele>1359.0</ele>
        <time>2015-08-02T11:18:21Z</time>
      </trkpt>
      <trkpt lat="40.252800" lon="-4.917633">
        <ele>1363.0</ele>
        <time>2015-08-02T11:18:23Z</time>
      </trkpt>
      <trkpt lat="40.253017" lon="-4.917700">
        <ele>1370.0</ele>
        <time>2015-08-02T11:18:25Z</time>
      </trkpt>
      <trkpt lat="40.253183" lon="-4.917567">
        <ele>1374.0</ele>
        <time>2015-08-02T11:18:27Z</time>
      </trkpt>
      <trkpt lat="40.253283" lon="-4.917367">
        <ele>1378.0</ele>
        <time>2015-08-02T11:18:29Z</time>
      </trkpt>
      <trkpt lat="40.253267" lon="-4.917167">
        <ele>1383.0</ele>
        <time>2015-08-02T11:18:31Z</time>
      </trkpt>
      <trkpt lat="40.253233" lon="-4.917050">
        <ele>1390.0</ele>
        <time>2015-08-02T11:18:33Z</time>
      </trkpt>
      <trkpt lat="40.253183" lon="-4.916967">
        <ele>1391.0</ele>
        <time>2015-08-02T11:18:35Z</time>
      </trkpt>
      <trkpt lat="40.253083" lon="-4.916917">
        <ele>1392.0</ele>
        <time>2015-08-02T11:18:37Z</time>
      </trkpt>
      <trkpt lat="40.252983" lon="-4.916967">
        <ele>1395.0</ele>
        <time>2015-08-02T11:18:39Z</time>
      </trkpt>
      <trkpt lat="40.252900" lon="-4.917083">
        <ele>1398.0</ele>
        <time>2015-08-02T11:18:41Z</time>
      </trkpt>
      <trkpt lat="40.252850" lon="-4.917283">
        <ele>1400.0</ele>
        <time>2015-08-02T11:18:43Z</time>
      </trkpt>
      <trkpt lat="40.252900" lon="-4.917500">
        <ele>1404.0</ele>
        <time>2015-08-02T11:18:45Z</time>
      </trkpt>
      <trkpt lat="40.253050" lon="-4.917650">
        <ele>1407.0</ele>
        <time>2015-08-02T11:18:47Z</time>
      </trkpt>
      <trkpt lat="40.253283" lon="-4.917650">
        <ele>1409.0</ele>
        <time>2015-08-02T11:18:49Z</time>
      </trkpt>
      <trkpt lat="40.253483" lon="-4.917483">
        <ele>1411.0</ele>
        <time>2015-08-02T11:18:51Z</time>
      </trkpt>
      <trkpt lat="40.253567" lon="-4.917267">
        <ele>1416.0</ele>
        <time>2015-08-02T11:18:53Z</time>
      </trkpt>
      <trkpt lat="40.253617" lon="-4.917067">
        <ele>1420.0</ele>
        <time>2015-08-02T11:18:55Z</time>
      </trkpt>
      <trkpt lat="40.253683" lon="-4.916867">
        <ele>1421.0</ele>
        <time>2015-08-02T11:18:57Z</time>
      </trkpt>
      <trkpt lat="40.253717" lon="-4.916650">
        <ele>1421.0</ele>
        <time>2015-08-02T11:18:59Z</time>
      </trkpt>
      <trkpt lat="40.253683" lon="-4.916483">
        <ele>1423.0</ele>
        <time>2015-08-02T11:19:01Z</time>
      </trkpt>
      <trkpt lat="40.253667" lon="-4.916317">
        <ele>1423.0</ele>
        <time>2015-08-02T11:19:03Z</time>
      </trkpt>
      <trkpt lat="40.253650" lon="-4.916100">
        <ele>1421.0</ele>
        <time>2015-08-02T11:19:05Z</time>
      </trkpt>
      <trkpt lat="40.253550" lon="-4.915883">
        <ele>1421.0</ele>
        <time>2015-08-02T11:19:07Z</time>
      </trkpt>
      <trkpt lat="40.253483" lon="-4.915733">
        <ele>1425.0</ele>
        <time>2015-08-02T11:19:09Z</time>
      </trkpt>
      <trkpt lat="40.253417" lon="-4.915633">
        <ele>1426.0</ele>
        <time>2015-08-02T11:19:11Z</time>
      </trkpt>
      <trkpt lat="40.253317" lon="-4.915567">
        <ele>1421.0</ele>
        <time>2015-08-02T11:19:13Z</time>
      </trkpt>
      <trkpt lat="40.253183" lon="-4.915517">
        <ele>1419.0</ele>
        <time>2015-08-02T11:19:15Z</time>
      </trkpt>
      <trkpt lat="40.253050" lon="-4.915483">
        <ele>1420.0</ele>
        <time>2015-08-02T11:19:17Z</time>
      </trkpt>
      <trkpt lat="40.252917" lon="-4.915417">
        <ele>1423.0</ele>
        <time>2015-08-02T11:19:19Z</time>
      </trkpt>
      <trkpt lat="40.252800" lon="-4.915333">
        <ele>1426.0</ele>
        <time>2015-08-02T11:19:21Z</time>
      </trkpt>
      <trkpt lat="40.252667" lon="-4.915267">
        <ele>1430.0</ele>
        <time>2015-08-02T11:19:23Z</time>
      </trkpt>
      <trkpt lat="40.252533" lon="-4.915183">
        <ele>1436.0</ele>
        <time>2015-08-02T11:19:25Z</time>
      </trkpt>
      <trkpt lat="40.252450" lon="-4.915150">
        <ele>1440.0</ele>
        <time>2015-08-02T11:19:27Z</time>
      </trkpt>
      <trkpt lat="40.252317" lon="-4.915200">
        <ele>1439.0</ele>
        <time>2015-08-02T11:19:29Z</time>
      </trkpt>
      <trkpt lat="40.252217" lon="-4.915400">
        <ele>1441.0</ele>
        <time>2015-08-02T11:19:31Z</time>
      </trkpt>
      <trkpt lat="40.252250" lon="-4.915650">
        <ele>1448.0</ele>
        <time>2015-08-02T11:19:33Z</time>
      </trkpt>
      <trkpt lat="40.252383" lon="-4.915850">
        <ele>1452.0</ele>
        <time>2015-08-02T11:19:35Z</time>
      </trkpt>
      <trkpt lat="40.252583" lon="-4.915933">
        <ele>1455.0</ele>
        <time>2015-08-02T11:19:37Z</time>
      </trkpt>
      <trkpt lat="40.252783" lon="-4.915867">
        <ele>1460.0</ele>
        <time>2015-08-02T11:19:39Z</time>
      </trkpt>
      <trkpt lat="40.252933" lon="-4.915733">
        <ele>1468.0</ele>
        <time>2015-08-02T11:19:41Z</time>
      </trkpt>
      <trkpt lat="40.252983" lon="-4.915567">
        <ele>1470.0</ele>
        <time>2015-08-02T11:19:43Z</time>
      </trkpt>
      <trkpt lat="40.252967" lon="-4.915400">
        <ele>1471.0</ele>
        <time>2015-08-02T11:19:45Z</time>
      </trkpt>
      <trkpt lat="40.252867" lon="-4.915300">
        <ele>1472.0</ele>
        <time>2015-08-02T11:19:47Z</time>
      </trkpt>
      <trkpt lat="40.252750" lon="-4.915283">
        <ele>1474.0</ele>
        <time>2015-08-02T11:19:49Z</time>
      </trkpt>
      <trkpt lat="40.252617" lon="-4.915317">
        <ele>1474.0</ele>
        <time>2015-08-02T11:19:51Z</time>
      </trkpt>
      <trkpt lat="40.252467" lon="-4.915433">
        <ele>1474.0</ele>
        <time>2015-08-02T11:19:53Z</time>
      </trkpt>
      <trkpt lat="40.252300" lon="-4.915483">
        <ele>1477.0</ele>
        <time>2015-08-02T11:19:55Z</time>
      </trkpt>
      <trkpt lat="40.252150" lon="-4.915500">
        <ele>1480.0</ele>
        <time>2015-08-02T11:19:57Z</time>
      </trkpt>
      <trkpt lat="40.252000" lon="-4.915533">
        <ele>1483.0</ele>
        <time>2015-08-02T11:19:59Z</time>
      </trkpt>
      <trkpt lat="40.251867" lon="-4.915567">
        <ele>1486.0</ele>
        <time>2015-08-02T11:20:01Z</time>
      </trkpt>
      <trkpt lat="40.251783" lon="-4.915633">
        <ele>1486.0</ele>
        <time>2015-08-02T11:20:03Z</time>
      </trkpt>
      <trkpt lat="40.251733" lon="-4.915833">
        <ele>1482.0</ele>
        <time>2015-08-02T11:20:05Z</time>
      </trkpt>
      <trkpt lat="40.251767" lon="-4.916083">
        <ele>1480.0</ele>
        <time>2015-08-02T11:20:07Z</time>
      </trkpt>
      <trkpt lat="40.251917" lon="-4.916300">
        <ele>1479.0</ele>
        <time>2015-08-02T11:20:09Z</time>
      </trkpt>
      <trkpt lat="40.252133" lon="-4.916400">
        <ele>1479.0</ele>
        <time>2015-08-02T11:20:11Z</time>
      </trkpt>
      <trkpt lat="40.252350" lon="-4.916367">
        <ele>1479.0</ele>
        <time>2015-08-02T11:20:13Z</time>
      </trkpt>
      <trkpt lat="40.252483" lon="-4.916200">
        <ele>1481.0</ele>
        <time>2015-08-02T11:20:15Z</time>
      </trkpt>
      <trkpt lat="40.252550" lon="-4.916000">
        <ele>1484.0</ele>
        <time>2015-08-02T11:20:17Z</time>
      </trkpt>
      <trkpt lat="40.252517" lon="-4.915833">
        <ele>1485.0</ele>
        <time>2015-08-02T11:20:19Z</time>
      </trkpt>
      <trkpt lat="40.252450" lon="-4.915700">
        <ele>1484.0</ele>
        <time>2015-08-02T11:20:21Z</time>
      </trkpt>
      <trkpt lat="40.252367" lon="-4.915550">
        <ele>1483.0</ele>
        <time>2015-08-02T11:20:23Z</time>
      </trkpt>
      <trkpt lat="40.252267" lon="-4.915433">
        <ele>1485.0</ele>
        <time>2015-08-02T11:20:25Z</time>
      </trkpt>
      <trkpt lat="40.252183" lon="-4.915317">
        <ele>1488.0</ele>
        <time>2015-08-02T11:20:27Z</time>
      </trkpt>
      <trkpt lat="40.252100" lon="-4.915200">
        <ele>1487.0</ele>
        <time>2015-08-02T11:20:29Z</time>
      </trkpt>
      <trkpt lat="40.252000" lon="-4.915067">
        <ele>1484.0</ele>
        <time>2015-08-02T11:20:31Z</time>
      </trkpt>
      <trkpt lat="40.251883" lon="-4.914950">
        <ele>1482.0</ele>
        <time>2015-08-02T11:20:33Z</time>
      </trkpt>
      <trkpt lat="40.251767" lon="-4.914850">
        <ele>1480.0</ele>
        <time>2015-08-02T11:20:35Z</time>
      </trkpt>
      <trkpt lat="40.251633" lon="-4.914767">
        <ele>1478.0</ele>
        <time>2015-08-02T11:20:37Z</time>
      </trkpt>
      <trkpt lat="40.251500" lon="-4.914683">
        <ele>1476.0</ele>
        <time>2015-08-02T11:20:39Z</time>
      </trkpt>
      <trkpt lat="40.251350" lon="-4.914650">
        <ele>1475.0</ele>
        <time>2015-08-02T11:20:41Z</time>
      </trkpt>
      <trkpt lat="40.251217" lon="-4.914633">
        <ele>1474.0</ele>
        <time>2015-08-02T11:20:43Z</time>
      </trkpt>
      <trkpt lat="40.251083" lon="-4.914600">
        <ele>1472.0</ele>
        <time>2015-08-02T11:20:45Z</time>
      </trkpt>
      <trkpt lat="40.250933" lon="-4.914567">
        <ele>1468.0</ele>
        <time>2015-08-02T11:20:47Z</time>
      </trkpt>
      <trkpt lat="40.250800" lon="-4.914517">
        <ele>1463.0</ele>
        <time>2015-08-02T11:20:49Z</time>
      </trkpt>
      <trkpt lat="40.250667" lon="-4.914483">
        <ele>1459.0</ele>
        <time>2015-08-02T11:20:51Z</time>
      </trkpt>
      <trkpt lat="40.250550" lon="-4.914417">
        <ele>1457.0</ele>
        <time>2015-08-02T11:20:53Z</time>
      </trkpt>
      <trkpt lat="40.250400" lon="-4.914350">
        <ele>1452.0</ele>
        <time>2015-08-02T11:20:55Z</time>
      </trkpt>
      <trkpt lat="40.250200" lon="-4.914317">
        <ele>1453.0</ele>
        <time>2015-08-02T11:20:57Z</time>
      </trkpt>
      <trkpt lat="40.250067" lon="-4.914283">
        <ele>1455.0</ele>
        <time>2015-08-02T11:20:59Z</time>
      </trkpt>
      <trkpt lat="40.249933" lon="-4.914217">
        <ele>1452.0</ele>
        <time>2015-08-02T11:21:01Z</time>
      </trkpt>
      <trkpt lat="40.249767" lon="-4.914167">
        <ele>1447.0</ele>
        <time>2015-08-02T11:21:03Z</time>
      </trkpt>
      <trkpt lat="40.249633" lon="-4.914133">
        <ele>1446.0</ele>
        <time>2015-08-02T11:21:05Z</time>
      </trkpt>
      <trkpt lat="40.249483" lon="-4.914167">
        <ele>1449.0</ele>
        <time>2015-08-02T11:21:07Z</time>
      </trkpt>
      <trkpt lat="40.249350" lon="-4.914183">
        <ele>1455.0</ele>
        <time>2015-08-02T11:21:09Z</time>
      </trkpt>
      <trkpt lat="40.249267" lon="-4.914217">
        <ele>1454.0</ele>
        <time>2015-08-02T11:21:11Z</time>
      </trkpt>
      <trkpt lat="40.249167" lon="-4.914217">
        <ele>1451.0</ele>
        <time>2015-08-02T11:21:13Z</time>
      </trkpt>
      <trkpt lat="40.248983" lon="-4.914183">
        <ele>1448.0</ele>
        <time>2015-08-02T11:21:15Z</time>
      </trkpt>
      <trkpt lat="40.248783" lon="-4.914150">
        <ele>1451.0</ele>
        <time>2015-08-02T11:21:17Z</time>
      </trkpt>
      <trkpt lat="40.248633" lon="-4.914117">
        <ele>1455.0</ele>
        <time>2015-08-02T11:21:19Z</time>
      </trkpt>
      <trkpt lat="40.248483" lon="-4.914067">
        <ele>1455.0</ele>
        <time>2015-08-02T11:21:21Z</time>
      </trkpt>
      <trkpt lat="40.248317" lon="-4.914117">
        <ele>1455.0</ele>
        <time>2015-08-02T11:21:23Z</time>
      </trkpt>
      <trkpt lat="40.248183" lon="-4.914250">
        <ele>1457.0</ele>
        <time>2015-08-02T11:21:25Z</time>
      </trkpt>
      <trkpt lat="40.248083" lon="-4.914417">
        <ele>1454.0</ele>
        <time>2015-08-02T11:21:27Z</time>
      </trkpt>
      <trkpt lat="40.248000" lon="-4.914600">
        <ele>1449.0</ele>
        <time>2015-08-02T11:21:29Z</time>
      </trkpt>
      <trkpt lat="40.247867" lon="-4.914733">
        <ele>1443.0</ele>
        <time>2015-08-02T11:21:31Z</time>
      </trkpt>
      <trkpt lat="40.247700" lon="-4.914783">
        <ele>1439.0</ele>
        <time>2015-08-02T11:21:33Z</time>
      </trkpt>
      <trkpt lat="40.247533" lon="-4.914817">
        <ele>1434.0</ele>
        <time>2015-08-02T11:21:35Z</time>
      </trkpt>
      <trkpt lat="40.247350" lon="-4.914767">
        <ele>1426.0</ele>
        <time>2015-08-02T11:21:37Z</time>
      </trkpt>
      <trkpt lat="40.247150" lon="-4.914633">
        <ele>1417.0</ele>
        <time>2015-08-02T11:21:39Z</time>
      </trkpt>
      <trkpt lat="40.246933" lon="-4.914467">
        <ele>1413.0</ele>
        <time>2015-08-02T11:21:41Z</time>
      </trkpt>
      <trkpt lat="40.246750" lon="-4.914367">
        <ele>1415.0</ele>
        <time>2015-08-02T11:21:43Z</time>
      </trkpt>
      <trkpt lat="40.246583" lon="-4.914283">
        <ele>1413.0</ele>
        <time>2015-08-02T11:21:45Z</time>
      </trkpt>
      <trkpt lat="40.246400" lon="-4.914233">
        <ele>1408.0</ele>
        <time>2015-08-02T11:21:47Z</time>
      </trkpt>
      <trkpt lat="40.246200" lon="-4.914183">
        <ele>1408.0</ele>
        <time>2015-08-02T11:21:49Z</time>
      </trkpt>
      <trkpt lat="40.246067" lon="-4.914083">
        <ele>1408.0</ele>
        <time>2015-08-02T11:21:51Z</time>
      </trkpt>
      <trkpt lat="40.245933" lon="-4.914017">
        <ele>1405.0</ele>
        <time>2015-08-02T11:21:53Z</time>
      </trkpt>
      <trkpt lat="40.245783" lon="-4.913983">
        <ele>1401.0</ele>
        <time>2015-08-02T11:21:55Z</time>
      </trkpt>
      <trkpt lat="40.245617" lon="-4.913967">
        <ele>1397.0</ele>
        <time>2015-08-02T11:21:57Z</time>
      </trkpt>
      <trkpt lat="40.245433" lon="-4.913983">
        <ele>1393.0</ele>
        <time>2015-08-02T11:21:59Z</time>
      </trkpt>
      <trkpt lat="40.245250" lon="-4.914000">
        <ele>1390.0</ele>
        <time>2015-08-02T11:22:01Z</time>
      </trkpt>
      <trkpt lat="40.245083" lon="-4.914033">
        <ele>1387.0</ele>
        <time>2015-08-02T11:22:03Z</time>
      </trkpt>
      <trkpt lat="40.244917" lon="-4.914083">
        <ele>1382.0</ele>
        <time>2015-08-02T11:22:05Z</time>
      </trkpt>
      <trkpt lat="40.244750" lon="-4.914133">
        <ele>1378.0</ele>
        <time>2015-08-02T11:22:07Z</time>
      </trkpt>
      <trkpt lat="40.244583" lon="-4.914183">
        <ele>1375.0</ele>
        <time>2015-08-02T11:22:09Z</time>
      </trkpt>
      <trkpt lat="40.244433" lon="-4.914250">
        <ele>1371.0</ele>
        <time>2015-08-02T11:22:11Z</time>
      </trkpt>
      <trkpt lat="40.244317" lon="-4.914383">
        <ele>1368.0</ele>
        <time>2015-08-02T11:22:13Z</time>
      </trkpt>
      <trkpt lat="40.244300" lon="-4.914583">
        <ele>1362.0</ele>
        <time>2015-08-02T11:22:15Z</time>
      </trkpt>
      <trkpt lat="40.244367" lon="-4.914783">
        <ele>1359.0</ele>
        <time>2015-08-02T11:22:17Z</time>
      </trkpt>
      <trkpt lat="40.244467" lon="-4.914950">
        <ele>1356.0</ele>
        <time>2015-08-02T11:22:19Z</time>
      </trkpt>
      <trkpt lat="40.244600" lon="-4.915117">
        <ele>1351.0</ele>
        <time>2015-08-02T11:22:21Z</time>
      </trkpt>
      <trkpt lat="40.244750" lon="-4.915267">
        <ele>1347.0</ele>
        <time>2015-08-02T11:22:23Z</time>
      </trkpt>
      <trkpt lat="40.244917" lon="-4.915383">
        <ele>1344.0</ele>
        <time>2015-08-02T11:22:25Z</time>
      </trkpt>
      <trkpt lat="40.245050" lon="-4.915533">
        <ele>1340.0</ele>
        <time>2015-08-02T11:22:27Z</time>
      </trkpt>
      <trkpt lat="40.245217" lon="-4.915683">
        <ele>1337.0</ele>
        <time>2015-08-02T11:22:29Z</time>
      </trkpt>
      <trkpt lat="40.245383" lon="-4.915800">
        <ele>1335.0</ele>
        <time>2015-08-02T11:22:31Z</time>
      </trkpt>
      <trkpt lat="40.245550" lon="-4.915900">
        <ele>1333.0</ele>
        <time>2015-08-02T11:22:33Z</time>
      </trkpt>
      <trkpt lat="40.245733" lon="-4.915983">
        <ele>1330.0</ele>
        <time>2015-08-02T11:22:35Z</time>
      </trkpt>
      <trkpt lat="40.245917" lon="-4.916067">
        <ele>1330.0</ele>
        <time>2015-08-02T11:22:37Z</time>
      </trkpt>
      <trkpt lat="40.246083" lon="-4.916167">
        <ele>1327.0</ele>
        <time>2015-08-02T11:22:39Z</time>
      </trkpt>
      <trkpt lat="40.246267" lon="-4.916250">
        <ele>1326.0</ele>
        <time>2015-08-02T11:22:41Z</time>
      </trkpt>
      <trkpt lat="40.246433" lon="-4.916317">
        <ele>1325.0</ele>
        <time>2015-08-02T11:22:43Z</time>
      </trkpt>
      <trkpt lat="40.246600" lon="-4.916400">
        <ele>1321.0</ele>
        <time>2015-08-02T11:22:45Z</time>
      </trkpt>
      <trkpt lat="40.246783" lon="-4.916483">
        <ele>1319.0</ele>
        <time>2015-08-02T11:22:47Z</time>
      </trkpt>
      <trkpt lat="40.246950" lon="-4.916583">
        <ele>1317.0</ele>
        <time>2015-08-02T11:22:49Z</time>
      </trkpt>
      <trkpt lat="40.247083" lon="-4.916683">
        <ele>1314.0</ele>
        <time>2015-08-02T11:22:51Z</time>
      </trkpt>
      <trkpt lat="40.247250" lon="-4.916783">
        <ele>1308.0</ele>
        <time>2015-08-02T11:22:53Z</time>
      </trkpt>
      <trkpt lat="40.247383" lon="-4.916950">
        <ele>1303.0</ele>
        <time>2015-08-02T11:22:55Z</time>
      </trkpt>
      <trkpt lat="40.247517" lon="-4.917100">
        <ele>1299.0</ele>
        <time>2015-08-02T11:22:57Z</time>
      </trkpt>
      <trkpt lat="40.247667" lon="-4.917217">
        <ele>1293.0</ele>
        <time>2015-08-02T11:22:59Z</time>
      </trkpt>
      <trkpt lat="40.247833" lon="-4.917350">
        <ele>1286.0</ele>
        <time>2015-08-02T11:23:01Z</time>
      </trkpt>
      <trkpt lat="40.248000" lon="-4.917483">
        <ele>1282.0</ele>
        <time>2015-08-02T11:23:03Z</time>
      </trkpt>
      <trkpt lat="40.248200" lon="-4.917617">
        <ele>1279.0</ele>
        <time>2015-08-02T11:23:05Z</time>
      </trkpt>
      <trkpt lat="40.248367" lon="-4.917750">
        <ele>1278.0</ele>
        <time>2015-08-02T11:23:07Z</time>
      </trkpt>
      <trkpt lat="40.248550" lon="-4.917883">
        <ele>1274.0</ele>
        <time>2015-08-02T11:23:09Z</time>
      </trkpt>
      <trkpt lat="40.248767" lon="-4.917983">
        <ele>1271.0</ele>
        <time>2015-08-02T11:23:11Z</time>
      </trkpt>
      <trkpt lat="40.248967" lon="-4.918067">
        <ele>1269.0</ele>
        <time>2015-08-02T11:23:13Z</time>
      </trkpt>
      <trkpt lat="40.249167" lon="-4.918183">
        <ele>1267.0</ele>
        <time>2015-08-02T11:23:15Z</time>
      </trkpt>
      <trkpt lat="40.249383" lon="-4.918283">
        <ele>1263.0</ele>
        <time>2015-08-02T11:23:17Z</time>
      </trkpt>
      <trkpt lat="40.249633" lon="-4.918400">
        <ele>1259.0</ele>
        <time>2015-08-02T11:23:19Z</time>
      </trkpt>
      <trkpt lat="40.249867" lon="-4.918483">
        <ele>1259.0</ele>
        <time>2015-08-02T11:23:21Z</time>
      </trkpt>
      <trkpt lat="40.250100" lon="-4.918517">
        <ele>1259.0</ele>
        <time>2015-08-02T11:23:23Z</time>
      </trkpt>
      <trkpt lat="40.250333" lon="-4.918567">
        <ele>1257.0</ele>
        <time>2015-08-02T11:23:25Z</time>
      </trkpt>
      <trkpt lat="40.250567" lon="-4.918600">
        <ele>1255.0</ele>
        <time>2015-08-02T11:23:27Z</time>
      </trkpt>
      <trkpt lat="40.250783" lon="-4.918617">
        <ele>1252.0</ele>
        <time>2015-08-02T11:23:29Z</time>
      </trkpt>
      <trkpt lat="40.251017" lon="-4.918617">
        <ele>1250.0</ele>
        <time>2015-08-02T11:23:31Z</time>
      </trkpt>
      <trkpt lat="40.251267" lon="-4.918600">
        <ele>1251.0</ele>
        <time>2015-08-02T11:23:33Z</time>
      </trkpt>
      <trkpt lat="40.251467" lon="-4.918533">
        <ele>1252.0</ele>
        <time>2015-08-02T11:23:35Z</time>
      </trkpt>
      <trkpt lat="40.251650" lon="-4.918450">
        <ele>1251.0</ele>
        <time>2015-08-02T11:23:37Z</time>
      </trkpt>
      <trkpt lat="40.251850" lon="-4.918317">
        <ele>1249.0</ele>
        <time>2015-08-02T11:23:39Z</time>
      </trkpt>
      <trkpt lat="40.252033" lon="-4.918167">
        <ele>1249.0</ele>
        <time>2015-08-02T11:23:41Z</time>
      </trkpt>
      <trkpt lat="40.252200" lon="-4.918033">
        <ele>1248.0</ele>
        <time>2015-08-02T11:23:43Z</time>
      </trkpt>
      <trkpt lat="40.252383" lon="-4.917900">
        <ele>1245.0</ele>
        <time>2015-08-02T11:23:45Z</time>
      </trkpt>
      <trkpt lat="40.252583" lon="-4.917733">
        <ele>1243.0</ele>
        <time>2015-08-02T11:23:47Z</time>
      </trkpt>
      <trkpt lat="40.252750" lon="-4.917533">
        <ele>1243.0</ele>
        <time>2015-08-02T11:23:49Z</time>
      </trkpt>
      <trkpt lat="40.252933" lon="-4.917350">
        <ele>1244.0</ele>
        <time>2015-08-02T11:23:51Z</time>
      </trkpt>
      <trkpt lat="40.253100" lon="-4.917150">
        <ele>1245.0</ele>
        <time>2015-08-02T11:23:53Z</time>
      </trkpt>
      <trkpt lat="40.253233" lon="-4.916950">
        <ele>1248.0</ele>
        <time>2015-08-02T11:23:55Z</time>
      </trkpt>
      <trkpt lat="40.253333" lon="-4.916750">
        <ele>1250.0</ele>
        <time>2015-08-02T11:23:57Z</time>
      </trkpt>
      <trkpt lat="40.253383" lon="-4.916533">
        <ele>1251.0</ele>
        <time>2015-08-02T11:23:59Z</time>
      </trkpt>
      <trkpt lat="40.253417" lon="-4.916333">
        <ele>1253.0</ele>
        <time>2015-08-02T11:24:01Z</time>
      </trkpt>
      <trkpt lat="40.253483" lon="-4.916133">
        <ele>1255.0</ele>
        <time>2015-08-02T11:24:03Z</time>
      </trkpt>
      <trkpt lat="40.253533" lon="-4.915933">
        <ele>1261.0</ele>
        <time>2015-08-02T11:24:05Z</time>
      </trkpt>
      <trkpt lat="40.253533" lon="-4.915817">
        <ele>1266.0</ele>
        <time>2015-08-02T11:24:07Z</time>
      </trkpt>
      <trkpt lat="40.253483" lon="-4.915733">
        <ele>1268.0</ele>
        <time>2015-08-02T11:24:09Z</time>
      </trkpt>
      <trkpt lat="40.253383" lon="-4.915750">
        <ele>1270.0</ele>
        <time>2015-08-02T11:24:11Z</time>
      </trkpt>
      <trkpt lat="40.253300" lon="-4.915867">
        <ele>1274.0</ele>
        <time>2015-08-02T11:24:13Z</time>
      </trkpt>
      <trkpt lat="40.253300" lon="-4.916017">
        <ele>1279.0</ele>
        <time>2015-08-02T11:24:15Z</time>
      </trkpt>
      <trkpt lat="40.253383" lon="-4.916217">
        <ele>1281.0</ele>
        <time>2015-08-02T11:24:17Z</time>
      </trkpt>
      <trkpt lat="40.253533" lon="-4.916433">
        <ele>1284.0</ele>
        <time>2015-08-02T11:24:19Z</time>
      </trkpt>
      <trkpt lat="40.253800" lon="-4.916533">
        <ele>1287.0</ele>
        <time>2015-08-02T11:24:21Z</time>
      </trkpt>
      <trkpt lat="40.254067" lon="-4.916467">
        <ele>1290.0</ele>
        <time>2015-08-02T11:24:23Z</time>
      </trkpt>
      <trkpt lat="40.254233" lon="-4.916350">
        <ele>1293.0</ele>
        <time>2015-08-02T11:24:25Z</time>
      </trkpt>
      <trkpt lat="40.254350" lon="-4.916183">
        <ele>1295.0</ele>
        <time>2015-08-02T11:24:27Z</time>
      </trkpt>
      <trkpt lat="40.254417" lon="-4.916017">
        <ele>1297.0</ele>
        <time>2015-08-02T11:24:29Z</time>
      </trkpt>
      <trkpt lat="40.254467" lon="-4.915817">
        <ele>1300.0</ele>
        <time>2015-08-02T11:24:31Z</time>
      </trkpt>
      <trkpt lat="40.254517" lon="-4.915633">
        <ele>1302.0</ele>
        <time>2015-08-02T11:24:33Z</time>
      </trkpt>
      <trkpt lat="40.254500" lon="-4.915517">
        <ele>1303.0</ele>
        <time>2015-08-02T11:24:35Z</time>
      </trkpt>
      <trkpt lat="40.254450" lon="-4.915433">
        <ele>1303.0</ele>
        <time>2015-08-02T11:24:37Z</time>
      </trkpt>
      <trkpt lat="40.254350" lon="-4.915417">
        <ele>1302.0</ele>
        <time>2015-08-02T11:24:39Z</time>
      </trkpt>
      <trkpt lat="40.254267" lon="-4.915400">
        <ele>1304.0</ele>
        <time>2015-08-02T11:24:41Z</time>
      </trkpt>
      <trkpt lat="40.254200" lon="-4.915383">
        <ele>1303.0</ele>
        <time>2015-08-02T11:24:43Z</time>
      </trkpt>
      <trkpt lat="40.254100" lon="-4.915500">
        <ele>1300.0</ele>
        <time>2015-08-02T11:24:45Z</time>
      </trkpt>
      <trkpt lat="40.254050" lon="-4.915683">
        <ele>1302.0</ele>
        <time>2015-08-02T11:24:47Z</time>
      </trkpt>
      <trkpt lat="40.254050" lon="-4.915867">
        <ele>1305.0</ele>
        <time>2015-08-02T11:24:49Z</time>
      </trkpt>
      <trkpt lat="40.254117" lon="-4.916117">
        <ele>1304.0</ele>
        <time>2015-08-02T11:24:51Z</time>
      </trkpt>
      <trkpt lat="40.254300" lon="-4.916367">
        <ele>1304.0</ele>
        <time>2015-08-02T11:24:53Z</time>
      </trkpt>
      <trkpt lat="40.254583" lon="-4.916383">
        <ele>1304.0</ele>
        <time>2015-08-02T11:24:55Z</time>
      </trkpt>
      <trkpt lat="40.254817" lon="-4.916250">
        <ele>1306.0</ele>
        <time>2015-08-02T11:24:57Z</time>
      </trkpt>
      <trkpt lat="40.254950" lon="-4.916083">
        <ele>1309.0</ele>
        <time>2015-08-02T11:24:59Z</time>
      </trkpt>
      <trkpt lat="40.255033" lon="-4.915917">
        <ele>1308.0</ele>
        <time>2015-08-02T11:25:01Z</time>
      </trkpt>
      <trkpt lat="40.255100" lon="-4.915733">
        <ele>1308.0</ele>
        <time>2015-08-02T11:25:03Z</time>
      </trkpt>
      <trkpt lat="40.255133" lon="-4.915567">
        <ele>1307.0</ele>
        <time>2015-08-02T11:25:05Z</time>
      </trkpt>
      <trkpt lat="40.255167" lon="-4.915400">
        <ele>1305.0</ele>
        <time>2015-08-02T11:25:07Z</time>
      </trkpt>
      <trkpt lat="40.255167" lon="-4.915217">
        <ele>1303.0</ele>
        <time>2015-08-02T11:25:09Z</time>
      </trkpt>
      <trkpt lat="40.255150" lon="-4.915050">
        <ele>1301.0</ele>
        <time>2015-08-02T11:25:11Z</time>
      </trkpt>
      <trkpt lat="40.255133" lon="-4.914883">
        <ele>1301.0</ele>
        <time>2015-08-02T11:25:13Z</time>
      </trkpt>
      <trkpt lat="40.255100" lon="-4.914733">
        <ele>1300.0</ele>
        <time>2015-08-02T11:25:15Z</time>
      </trkpt>
      <trkpt lat="40.255033" lon="-4.914617">
        <ele>1299.0</ele>
        <time>2015-08-02T11:25:17Z</time>
      </trkpt>
      <trkpt lat="40.254933" lon="-4.914533">
        <ele>1300.0</ele>
        <time>2015-08-02T11:25:19Z</time>
      </trkpt>
      <trkpt lat="40.254850" lon="-4.914500">
        <ele>1301.0</ele>
        <time>2015-08-02T11:25:21Z</time>
      </trkpt>
      <trkpt lat="40.254783" lon="-4.914483">
        <ele>1300.0</ele>
        <time>2015-08-02T11:25:23Z</time>
      </trkpt>
      <trkpt lat="40.254650" lon="-4.914467">
        <ele>1296.0</ele>
        <time>2015-08-02T11:25:25Z</time>
      </trkpt>
      <trkpt lat="40.254517" lon="-4.914417">
        <ele>1294.0</ele>
        <time>2015-08-02T11:25:27Z</time>
      </trkpt>
      <trkpt lat="40.254417" lon="-4.914383">
        <ele>1292.0</ele>
        <time>2015-08-02T11:25:29Z</time>
      </trkpt>
      <trkpt lat="40.254300" lon="-4.914400">
        <ele>1287.0</ele>
        <time>2015-08-02T11:25:31Z</time>
      </trkpt>
      <trkpt lat="40.254150" lon="-4.914483">
        <ele>1284.0</ele>
        <time>2015-08-02T11:25:33Z</time>
      </trkpt>
      <trkpt lat="40.254017" lon="-4.914550">
        <ele>1287.0</ele>
        <time>2015-08-02T11:25:35Z</time>
      </trkpt>
      <trkpt lat="40.253917" lon="-4.914617">
        <ele>1291.0</ele>
        <time>2015-08-02T11:25:37Z</time>
      </trkpt>
      <trkpt lat="40.253817" lon="-4.914717">
        <ele>1292.0</ele>
        <time>2015-08-02T11:25:39Z</time>
      </trkpt>
      <trkpt lat="40.253700" lon="-4.914850">
        <ele>1295.0</ele>
        <time>2015-08-02T11:25:41Z</time>
      </trkpt>
      <trkpt lat="40.253667" lon="-4.915050">
        <ele>1296.0</ele>
        <time>2015-08-02T11:25:43Z</time>
      </trkpt>
      <trkpt lat="40.253750" lon="-4.915333">
        <ele>1295.0</ele>
        <time>2015-08-02T11:25:45Z</time>
      </trkpt>
      <trkpt lat="40.253933" lon="-4.915567">
        <ele>1297.0</ele>
        <time>2015-08-02T11:25:47Z</time>
      </trkpt>
      <trkpt lat="40.254183" lon="-4.915667">
        <ele>1298.0</ele>
        <time>2015-08-02T11:25:49Z</time>
      </trkpt>
      <trkpt lat="40.254400" lon="-4.915600">
        <ele>1298.0</ele>
        <time>2015-08-02T11:25:51Z</time>
      </trkpt>
      <trkpt lat="40.254550" lon="-4.915417">
        <ele>1298.0</ele>
        <time>2015-08-02T11:25:53Z</time>
      </trkpt>
      <trkpt lat="40.254683" lon="-4.915233">
        <ele>1301.0</ele>
        <time>2015-08-02T11:25:55Z</time>
      </trkpt>
      <trkpt lat="40.254817" lon="-4.915050">
        <ele>1303.0</ele>
        <time>2015-08-02T11:25:57Z</time>
      </trkpt>
      <trkpt lat="40.254933" lon="-4.914850">
        <ele>1307.0</ele>
        <time>2015-08-02T11:25:59Z</time>
      </trkpt>
      <trkpt lat="40.255033" lon="-4.914683">
        <ele>1312.0</ele>
        <time>2015-08-02T11:26:01Z</time>
      </trkpt>
      <trkpt lat="40.255067" lon="-4.914533">
        <ele>1312.0</ele>
        <time>2015-08-02T11:26:03Z</time>
      </trkpt>
      <trkpt lat="40.255017" lon="-4.914350">
        <ele>1311.0</ele>
        <time>2015-08-02T11:26:05Z</time>
      </trkpt>
      <trkpt lat="40.254950" lon="-4.914217">
        <ele>1318.0</ele>
        <time>2015-08-02T11:26:07Z</time>
      </trkpt>
      <trkpt lat="40.254917" lon="-4.914167">
        <ele>1323.0</ele>
        <time>2015-08-02T11:26:09Z</time>
      </trkpt>
      <trkpt lat="40.254850" lon="-4.914133">
        <ele>1323.0</ele>
        <time>2015-08-02T11:26:11Z</time>
      </trkpt>
      <trkpt lat="40.254733" lon="-4.914183">
        <ele>1324.0</ele>
        <time>2015-08-02T11:26:13Z</time>
      </trkpt>
      <trkpt lat="40.254650" lon="-4.914317">
        <ele>1327.0</ele>
        <time>2015-08-02T11:26:15Z</time>
      </trkpt>
      <trkpt lat="40.254617" lon="-4.914550">
        <ele>1328.0</ele>
        <time>2015-08-02T11:26:17Z</time>
      </trkpt>
      <trkpt lat="40.254683" lon="-4.914817">
        <ele>1328.0</ele>
        <time>2015-08-02T11:26:19Z</time>
      </trkpt>
      <trkpt lat="40.254817" lon="-4.915067">
        <ele>1329.0</ele>
        <time>2015-08-02T11:26:21Z</time>
      </trkpt>
      <trkpt lat="40.255000" lon="-4.915267">
        <ele>1330.0</ele>
        <time>2015-08-02T11:26:23Z</time>
      </trkpt>
      <trkpt lat="40.255250" lon="-4.915333">
        <ele>1329.0</ele>
        <time>2015-08-02T11:26:25Z</time>
      </trkpt>
      <trkpt lat="40.255517" lon="-4.915283">
        <ele>1331.0</ele>
        <time>2015-08-02T11:26:27Z</time>
      </trkpt>
      <trkpt lat="40.255717" lon="-4.915167">
        <ele>1334.0</ele>
        <time>2015-08-02T11:26:29Z</time>
      </trkpt>
      <trkpt lat="40.255850" lon="-4.914967">
        <ele>1336.0</ele>
        <time>2015-08-02T11:26:31Z</time>
      </trkpt>
      <trkpt lat="40.255917" lon="-4.914750">
        <ele>1341.0</ele>
        <time>2015-08-02T11:26:33Z</time>
      </trkpt>
      <trkpt lat="40.255967" lon="-4.914617">
        <ele>1346.0</ele>
        <time>2015-08-02T11:26:35Z</time>
      </trkpt>
      <trkpt lat="40.255983" lon="-4.914500">
        <ele>1346.0</ele>
        <time>2015-08-02T11:26:37Z</time>
      </trkpt>
      <trkpt lat="40.255900" lon="-4.914400">
        <ele>1344.0</ele>
        <time>2015-08-02T11:26:39Z</time>
      </trkpt>
      <trkpt lat="40.255767" lon="-4.914400">
        <ele>1348.0</ele>
        <time>2015-08-02T11:26:41Z</time>
      </trkpt>
      <trkpt lat="40.255717" lon="-4.914533">
        <ele>1351.0</ele>
        <time>2015-08-02T11:26:43Z</time>
      </trkpt>
      <trkpt lat="40.255717" lon="-4.914717">
        <ele>1351.0</ele>
        <time>2015-08-02T11:26:45Z</time>
      </trkpt>
      <trkpt lat="40.255767" lon="-4.914983">
        <ele>1348.0</ele>
        <time>2015-08-02T11:26:47Z</time>
      </trkpt>
      <trkpt lat="40.255933" lon="-4.915250">
        <ele>1348.0</ele>
        <time>2015-08-02T11:26:49Z</time>
      </trkpt>
      <trkpt lat="40.256150" lon="-4.915417">
        <ele>1351.0</ele>
        <time>2015-08-02T11:26:51Z</time>
      </trkpt>
      <trkpt lat="40.256433" lon="-4.915433">
        <ele>1352.0</ele>
        <time>2015-08-02T11:26:53Z</time>
      </trkpt>
      <trkpt lat="40.256683" lon="-4.915300">
        <ele>1351.0</ele>
        <time>2015-08-02T11:26:55Z</time>
      </trkpt>
      <trkpt lat="40.256783" lon="-4.915083">
        <ele>1352.0</ele>
        <time>2015-08-02T11:26:57Z</time>
      </trkpt>
      <trkpt lat="40.256817" lon="-4.914900">
        <ele>1355.0</ele>
        <time>2015-08-02T11:26:59Z</time>
      </trkpt>
      <trkpt lat="40.256850" lon="-4.914717">
        <ele>1357.0</ele>
        <time>2015-08-02T11:27:01Z</time>
      </trkpt>
      <trkpt lat="40.256867" lon="-4.914567">
        <ele>1357.0</ele>
        <time>2015-08-02T11:27:03Z</time>
      </trkpt>
      <trkpt lat="40.256850" lon="-4.914400">
        <ele>1353.0</ele>
        <time>2015-08-02T11:27:05Z</time>
      </trkpt>
      <trkpt lat="40.256817" lon="-4.914233">
        <ele>1350.0</ele>
        <time>2015-08-02T11:27:07Z</time>
      </trkpt>
      <trkpt lat="40.256750" lon="-4.914100">
        <ele>1348.0</ele>
        <time>2015-08-02T11:27:09Z</time>
      </trkpt>
      <trkpt lat="40.256667" lon="-4.914017">
        <ele>1347.0</ele>
        <time>2015-08-02T11:27:11Z</time>
      </trkpt>
      <trkpt lat="40.256567" lon="-4.913933">
        <ele>1347.0</ele>
        <time>2015-08-02T11:27:13Z</time>
      </trkpt>
      <trkpt lat="40.256500" lon="-4.913850">
        <ele>1345.0</ele>
        <time>2015-08-02T11:27:15Z</time>
      </trkpt>
      <trkpt lat="40.256400" lon="-4.913783">
        <ele>1343.0</ele>
        <time>2015-08-02T11:27:17Z</time>
      </trkpt>
      <trkpt lat="40.256283" lon="-4.913733">
        <ele>1341.0</ele>
        <time>2015-08-02T11:27:19Z</time>
      </trkpt>
      <trkpt lat="40.256183" lon="-4.913683">
        <ele>1342.0</ele>
        <time>2015-08-02T11:27:21Z</time>
      </trkpt>
      <trkpt lat="40.256083" lon="-4.913650">
        <ele>1341.0</ele>
        <time>2015-08-02T11:27:23Z</time>
      </trkpt>
      <trkpt lat="40.255967" lon="-4.913700">
        <ele>1341.0</ele>
        <time>2015-08-02T11:27:25Z</time>
      </trkpt>
      <trkpt lat="40.255883" lon="-4.913850">
        <ele>1341.0</ele>
        <time>2015-08-02T11:27:27Z</time>
      </trkpt>
      <trkpt lat="40.255800" lon="-4.914017">
        <ele>1343.0</ele>
        <time>2015-08-02T11:27:29Z</time>
      </trkpt>
      <trkpt lat="40.255700" lon="-4.914117">
        <ele>1348.0</ele>
        <time>2015-08-02T11:27:31Z</time>
      </trkpt>
      <trkpt lat="40.255617" lon="-4.914250">
        <ele>1351.0</ele>
        <time>2015-08-02T11:27:33Z</time>
      </trkpt>
      <trkpt lat="40.255617" lon="-4.914467">
        <ele>1353.0</ele>
        <time>2015-08-02T11:27:35Z</time>
      </trkpt>
      <trkpt lat="40.255667" lon="-4.914717">
        <ele>1351.0</ele>
        <time>2015-08-02T11:27:37Z</time>
      </trkpt>
      <trkpt lat="40.255650" lon="-4.914917">
        <ele>1346.0</ele>
        <time>2015-08-02T11:27:39Z</time>
      </trkpt>
      <trkpt lat="40.255567" lon="-4.915100">
        <ele>1342.0</ele>
        <time>2015-08-02T11:27:41Z</time>
      </trkpt>
      <trkpt lat="40.255483" lon="-4.915150">
        <ele>1341.0</ele>
        <time>2015-08-02T11:27:43Z</time>
      </trkpt>
      <trkpt lat="40.255383" lon="-4.915100">
        <ele>1338.0</ele>
        <time>2015-08-02T11:27:45Z</time>
      </trkpt>
      <trkpt lat="40.255333" lon="-4.914983">
        <ele>1337.0</ele>
        <time>2015-08-02T11:27:47Z</time>
      </trkpt>
      <trkpt lat="40.255317" lon="-4.914833">
        <ele>1335.0</ele>
        <time>2015-08-02T11:27:49Z</time>
      </trkpt>
      <trkpt lat="40.255333" lon="-4.914667">
        <ele>1333.0</ele>
        <time>2015-08-02T11:27:51Z</time>
      </trkpt>
      <trkpt lat="40.255383" lon="-4.914483">
        <ele>1329.0</ele>
        <time>2015-08-02T11:27:53Z</time>
      </trkpt>
      <trkpt lat="40.255467" lon="-4.914267">
        <ele>1328.0</ele>
        <time>2015-08-02T11:27:55Z</time>
      </trkpt>
      <trkpt lat="40.255517" lon="-4.914083">
        <ele>1328.0</ele>
        <time>2015-08-02T11:27:57Z</time>
      </trkpt>
      <trkpt lat="40.255550" lon="-4.913883">
        <ele>1327.0</ele>
        <time>2015-08-02T11:27:59Z</time>
      </trkpt>
      <trkpt lat="40.255633" lon="-4.913667">
        <ele>1327.0</ele>
        <time>2015-08-02T11:28:01Z</time>
      </trkpt>
      <trkpt lat="40.255683" lon="-4.913483">
        <ele>1328.0</ele>
        <time>2015-08-02T11:28:03Z</time>
      </trkpt>
      <trkpt lat="40.255717" lon="-4.913350">
        <ele>1325.0</ele>
        <time>2015-08-02T11:28:05Z</time>
      </trkpt>
      <trkpt lat="40.255733" lon="-4.913167">
        <ele>1320.0</ele>
        <time>2015-08-02T11:28:07Z</time>
      </trkpt>
      <trkpt lat="40.255700" lon="-4.912983">
        <ele>1316.0</ele>
        <time>2015-08-02T11:28:09Z</time>
      </trkpt>
      <trkpt lat="40.255600" lon="-4.912883">
        <ele>1314.0</ele>
        <time>2015-08-02T11:28:11Z</time>
      </trkpt>
      <trkpt lat="40.255483" lon="-4.912767">
        <ele>1317.0</ele>
        <time>2015-08-02T11:28:13Z</time>
      </trkpt>
      <trkpt lat="40.255400" lon="-4.912683">
        <ele>1320.0</ele>
        <time>2015-08-02T11:28:15Z</time>
      </trkpt>
      <trkpt lat="40.255283" lon="-4.912633">
        <ele>1318.0</ele>
        <time>2015-08-02T11:28:17Z</time>
      </trkpt>
      <trkpt lat="40.255167" lon="-4.912650">
        <ele>1317.0</ele>
        <time>2015-08-02T11:28:19Z</time>
      </trkpt>
      <trkpt lat="40.255033" lon="-4.912733">
        <ele>1316.0</ele>
        <time>2015-08-02T11:28:21Z</time>
      </trkpt>
      <trkpt lat="40.254917" lon="-4.912883">
        <ele>1316.0</ele>
        <time>2015-08-02T11:28:23Z</time>
      </trkpt>
      <trkpt lat="40.254800" lon="-4.912967">
        <ele>1316.0</ele>
        <time>2015-08-02T11:28:25Z</time>
      </trkpt>
      <trkpt lat="40.254683" lon="-4.913067">
        <ele>1313.0</ele>
        <time>2015-08-02T11:28:27Z</time>
      </trkpt>
      <trkpt lat="40.254567" lon="-4.913217">
        <ele>1312.0</ele>
        <time>2015-08-02T11:28:29Z</time>
      </trkpt>
      <trkpt lat="40.254467" lon="-4.913350">
        <ele>1312.0</ele>
        <time>2015-08-02T11:28:31Z</time>
      </trkpt>
      <trkpt lat="40.254383" lon="-4.913467">
        <ele>1311.0</ele>
        <time>2015-08-02T11:28:33Z</time>
      </trkpt>
      <trkpt lat="40.254267" lon="-4.913583">
        <ele>1311.0</ele>
        <time>2015-08-02T11:28:35Z</time>
      </trkpt>
      <trkpt lat="40.254183" lon="-4.913700">
        <ele>1312.0</ele>
        <time>2015-08-02T11:28:37Z</time>
      </trkpt>
      <trkpt lat="40.254133" lon="-4.913800">
        <ele>1308.0</ele>
        <time>2015-08-02T11:28:39Z</time>
      </trkpt>
      <trkpt lat="40.254067" lon="-4.913900">
        <ele>1300.0</ele>
        <time>2015-08-02T11:28:41Z</time>
      </trkpt>
      <trkpt lat="40.253933" lon="-4.913983">
        <ele>1292.0</ele>
        <time>2015-08-02T11:28:43Z</time>
      </trkpt>
      <trkpt lat="40.253800" lon="-4.914067">
        <ele>1290.0</ele>
        <time>2015-08-02T11:28:45Z</time>
      </trkpt>
      <trkpt lat="40.253717" lon="-4.914150">
        <ele>1286.0</ele>
        <time>2015-08-02T11:28:47Z</time>
      </trkpt>
      <trkpt lat="40.253600" lon="-4.914283">
        <ele>1280.0</ele>
        <time>2015-08-02T11:28:49Z</time>
      </trkpt>
      <trkpt lat="40.253483" lon="-4.914417">
        <ele>1276.0</ele>
        <time>2015-08-02T11:28:51Z</time>
      </trkpt>
      <trkpt lat="40.253383" lon="-4.914583">
        <ele>1271.0</ele>
        <time>2015-08-02T11:28:53Z</time>
      </trkpt>
      <trkpt lat="40.253267" lon="-4.914717">
        <ele>1265.0</ele>
        <time>2015-08-02T11:28:55Z</time>
      </trkpt>
      <trkpt lat="40.253150" lon="-4.914867">
        <ele>1260.0</ele>
        <time>2015-08-02T11:28:57Z</time>
      </trkpt>
      <trkpt lat="40.253017" lon="-4.915000">
        <ele>1257.0</ele>
        <time>2015-08-02T11:28:59Z</time>
      </trkpt>
      <trkpt lat="40.252900" lon="-4.915133">
        <ele>1255.0</ele>
        <time>2015-08-02T11:29:01Z</time>
      </trkpt>
      <trkpt lat="40.252783" lon="-4.915267">
        <ele>1251.0</ele>
        <time>2015-08-02T11:29:03Z</time>
      </trkpt>
      <trkpt lat="40.252683" lon="-4.915417">
        <ele>1250.0</ele>
        <time>2015-08-02T11:29:05Z</time>
      </trkpt>
      <trkpt lat="40.252567" lon="-4.915583">
        <ele>1249.0</ele>
        <time>2015-08-02T11:29:07Z</time>
      </trkpt>
      <trkpt lat="40.252467" lon="-4.915733">
        <ele>1248.0</ele>
        <time>2015-08-02T11:29:09Z</time>
      </trkpt>
      <trkpt lat="40.252367" lon="-4.915900">
        <ele>1246.0</ele>
        <time>2015-08-02T11:29:11Z</time>
      </trkpt>
      <trkpt lat="40.252283" lon="-4.916083">
        <ele>1245.0</ele>
        <time>2015-08-02T11:29:13Z</time>
      </trkpt>
      <trkpt lat="40.252200" lon="-4.916250">
        <ele>1244.0</ele>
        <time>2015-08-02T11:29:15Z</time>
      </trkpt>
      <trkpt lat="40.252117" lon="-4.916417">
        <ele>1241.0</ele>
        <time>2015-08-02T11:29:17Z</time>
      </trkpt>
      <trkpt lat="40.252017" lon="-4.916583">
        <ele>1237.0</ele>
        <time>2015-08-02T11:29:19Z</time>
      </trkpt>
      <trkpt lat="40.251917" lon="-4.916750">
        <ele>1236.0</ele>
        <time>2015-08-02T11:29:21Z</time>
      </trkpt>
      <trkpt lat="40.251850" lon="-4.916917">
        <ele>1235.0</ele>
        <time>2015-08-02T11:29:23Z</time>
      </trkpt>
      <trkpt lat="40.251783" lon="-4.917100">
        <ele>1234.0</ele>
        <time>2015-08-02T11:29:25Z</time>
      </trkpt>
      <trkpt lat="40.251700" lon="-4.917300">
        <ele>1233.0</ele>
        <time>2015-08-02T11:29:27Z</time>
      </trkpt>
      <trkpt lat="40.251617" lon="-4.917450">
        <ele>1237.0</ele>
        <time>2015-08-02T11:29:29Z</time>
      </trkpt>
      <trkpt lat="40.251517" lon="-4.917517">
        <ele>1236.0</ele>
        <time>2015-08-02T11:29:31Z</time>
      </trkpt>
      <trkpt lat="40.251367" lon="-4.917600">
        <ele>1234.0</ele>
        <time>2015-08-02T11:29:33Z</time>
      </trkpt>
      <trkpt lat="40.251200" lon="-4.917600">
        <ele>1233.0</ele>
        <time>2015-08-02T11:29:35Z</time>
      </trkpt>
      <trkpt lat="40.251117" lon="-4.917450">
        <ele>1230.0</ele>
        <time>2015-08-02T11:29:37Z</time>
      </trkpt>
      <trkpt lat="40.251117" lon="-4.917250">
        <ele>1225.0</ele>
        <time>2015-08-02T11:29:39Z</time>
      </trkpt>
      <trkpt lat="40.251100" lon="-4.917017">
        <ele>1222.0</ele>
        <time>2015-08-02T11:29:41Z</time>
      </trkpt>
      <trkpt lat="40.251017" lon="-4.916850">
        <ele>1218.0</ele>
        <time>2015-08-02T11:29:43Z</time>
      </trkpt>
      <trkpt lat="40.250867" lon="-4.916767">
        <ele>1215.0</ele>
        <time>2015-08-02T11:29:45Z</time>
      </trkpt>
      <trkpt lat="40.250717" lon="-4.916767">
        <ele>1211.0</ele>
        <time>2015-08-02T11:29:47Z</time>
      </trkpt>
      <trkpt lat="40.250567" lon="-4.916817">
        <ele>1209.0</ele>
        <time>2015-08-02T11:29:49Z</time>
      </trkpt>
      <trkpt lat="40.250450" lon="-4.916933">
        <ele>1208.0</ele>
        <time>2015-08-02T11:29:51Z</time>
      </trkpt>
      <trkpt lat="40.250383" lon="-4.917083">
        <ele>1205.0</ele>
        <time>2015-08-02T11:29:53Z</time>
      </trkpt>
      <trkpt lat="40.250283" lon="-4.917283">
        <ele>1202.0</ele>
        <time>2015-08-02T11:29:55Z</time>
      </trkpt>
      <trkpt lat="40.250183" lon="-4.917483">
        <ele>1203.0</ele>
        <time>2015-08-02T11:29:57Z</time>
      </trkpt>
      <trkpt lat="40.250100" lon="-4.917650">
        <ele>1207.0</ele>
        <time>2015-08-02T11:29:59Z</time>
      </trkpt>
      <trkpt lat="40.250050" lon="-4.917783">
        <ele>1208.0</ele>
        <time>2015-08-02T11:30:01Z</time>
      </trkpt>
      <trkpt lat="40.250017" lon="-4.918000">
        <ele>1205.0</ele>
        <time>2015-08-02T11:30:03Z</time>
      </trkpt>
      <trkpt lat="40.249967" lon="-4.918233">
        <ele>1203.0</ele>
        <time>2015-08-02T11:30:05Z</time>
      </trkpt>
      <trkpt lat="40.249900" lon="-4.918400">
        <ele>1202.0</ele>
        <time>2015-08-02T11:30:07Z</time>
      </trkpt>
      <trkpt lat="40.249800" lon="-4.918517">
        <ele>1197.0</ele>
        <time>2015-08-02T11:30:09Z</time>
      </trkpt>
      <trkpt lat="40.249650" lon="-4.918567">
        <ele>1194.0</ele>
        <time>2015-08-02T11:30:11Z</time>
      </trkpt>
      <trkpt lat="40.249483" lon="-4.918650">
        <ele>1194.0</ele>
        <time>2015-08-02T11:30:13Z</time>
      </trkpt>
      <trkpt lat="40.249367" lon="-4.918750">
        <ele>1195.0</ele>
        <time>2015-08-02T11:30:15Z</time>
      </trkpt>
      <trkpt lat="40.249267" lon="-4.918817">
        <ele>1192.0</ele>
        <time>2015-08-02T11:30:17Z</time>
      </trkpt>
      <trkpt lat="40.249150" lon="-4.918900">
        <ele>1187.0</ele>
        <time>2015-08-02T11:30:19Z</time>
      </trkpt>
      <trkpt lat="40.249000" lon="-4.918983">
        <ele>1183.0</ele>
        <time>2015-08-02T11:30:21Z</time>
      </trkpt>
      <trkpt lat="40.248883" lon="-4.919100">
        <ele>1182.0</ele>
        <time>2015-08-02T11:30:23Z</time>
      </trkpt>
      <trkpt lat="40.248817" lon="-4.919250">
        <ele>1179.0</ele>
        <time>2015-08-02T11:30:25Z</time>
      </trkpt>
      <trkpt lat="40.248700" lon="-4.919400">
        <ele>1174.0</ele>
        <time>2015-08-02T11:30:27Z</time>
      </trkpt>
      <trkpt lat="40.248550" lon="-4.919467">
        <ele>1171.0</ele>
        <time>2015-08-02T11:30:29Z</time>
      </trkpt>
      <trkpt lat="40.248450" lon="-4.919500">
        <ele>1168.0</ele>
        <time>2015-08-02T11:30:31Z</time>
      </trkpt>
      <trkpt lat="40.248350" lon="-4.919467">
        <ele>1160.0</ele>
        <time>2015-08-02T11:30:33Z</time>
      </trkpt>
      <trkpt lat="40.248183" lon="-4.919400">
        <ele>1153.0</ele>
        <time>2015-08-02T11:30:35Z</time>
      </trkpt>
      <trkpt lat="40.248033" lon="-4.919417">
        <ele>1150.0</ele>
        <time>2015-08-02T11:30:37Z</time>
      </trkpt>
      <trkpt lat="40.247917" lon="-4.919383">
        <ele>1146.0</ele>
        <time>2015-08-02T11:30:39Z</time>
      </trkpt>
      <trkpt lat="40.247783" lon="-4.919267">
        <ele>1142.0</ele>
        <time>2015-08-02T11:30:41Z</time>
      </trkpt>
      <trkpt lat="40.247667" lon="-4.919183">
        <ele>1140.0</ele>
        <time>2015-08-02T11:30:43Z</time>
      </trkpt>
      <trkpt lat="40.247550" lon="-4.919133">
        <ele>1137.0</ele>
        <time>2015-08-02T11:30:45Z</time>
      </trkpt>
      <trkpt lat="40.247433" lon="-4.919133">
        <ele>1131.0</ele>
        <time>2015-08-02T11:30:47Z</time>
      </trkpt>
      <trkpt lat="40.247283" lon="-4.919150">
        <ele>1123.0</ele>
        <time>2015-08-02T11:30:49Z</time>
      </trkpt>
      <trkpt lat="40.247133" lon="-4.919167">
        <ele>1117.0</ele>
        <time>2015-08-02T11:30:51Z</time>
      </trkpt>
      <trkpt lat="40.247017" lon="-4.919183">
        <ele>1109.0</ele>
        <time>2015-08-02T11:30:53Z</time>
      </trkpt>
      <trkpt lat="40.246867" lon="-4.919150">
        <ele>1096.0</ele>
        <time>2015-08-02T11:30:55Z</time>
      </trkpt>
      <trkpt lat="40.246700" lon="-4.919067">
        <ele>1086.0</ele>
        <time>2015-08-02T11:30:57Z</time>
      </trkpt>
      <trkpt lat="40.246533" lon="-4.919000">
        <ele>1079.0</ele>
        <time>2015-08-02T11:30:59Z</time>
      </trkpt>
      <trkpt lat="40.246367" lon="-4.918933">
        <ele>1073.0</ele>
        <time>2015-08-02T11:31:01Z</time>
      </trkpt>
      <trkpt lat="40.246250" lon="-4.918850">
        <ele>1071.0</ele>
        <time>2015-08-02T11:31:03Z</time>
      </trkpt>
      <trkpt lat="40.246133" lon="-4.918767">
        <ele>1067.0</ele>
        <time>2015-08-02T11:31:05Z</time>
      </trkpt>
      <trkpt lat="40.245983" lon="-4.918683">
        <ele>1060.0</ele>
        <time>2015-08-02T11:31:07Z</time>
      </trkpt>
      <trkpt lat="40.245817" lon="-4.918600">
        <ele>1056.0</ele>
        <time>2015-08-02T11:31:09Z</time>
      </trkpt>
      <trkpt lat="40.245667" lon="-4.918550">
        <ele>1055.0</ele>
        <time>2015-08-02T11:31:11Z</time>
      </trkpt>
      <trkpt lat="40.245483" lon="-4.918483">
        <ele>1054.0</ele>
        <time>2015-08-02T11:31:13Z</time>
      </trkpt>
      <trkpt lat="40.245333" lon="-4.918433">
        <ele>1056.0</ele>
        <time>2015-08-02T11:31:15Z</time>
      </trkpt>
      <trkpt lat="40.245183" lon="-4.918433">
        <ele>1056.0</ele>
        <time>2015-08-02T11:31:17Z</time>
      </trkpt>
      <trkpt lat="40.245050" lon="-4.918517">
        <ele>1056.0</ele>
        <time>2015-08-02T11:31:19Z</time>
      </trkpt>
      <trkpt lat="40.244950" lon="-4.918650">
        <ele>1055.0</ele>
        <time>2015-08-02T11:31:21Z</time>
      </trkpt>
      <trkpt lat="40.244850" lon="-4.918817">
        <ele>1054.0</ele>
        <time>2015-08-02T11:31:23Z</time>
      </trkpt>
      <trkpt lat="40.244717" lon="-4.918900">
        <ele>1050.0</ele>
        <time>2015-08-02T11:31:25Z</time>
      </trkpt>
      <trkpt lat="40.244550" lon="-4.918917">
        <ele>1047.0</ele>
        <time>2015-08-02T11:31:27Z</time>
      </trkpt>
      <trkpt lat="40.244417" lon="-4.918900">
        <ele>1045.0</ele>
        <time>2015-08-02T11:31:29Z</time>
      </trkpt>
      <trkpt lat="40.244283" lon="-4.918867">
        <ele>1041.0</ele>
        <time>2015-08-02T11:31:31Z</time>
      </trkpt>
      <trkpt lat="40.244133" lon="-4.918800">
        <ele>1038.0</ele>
        <time>2015-08-02T11:31:33Z</time>
      </trkpt>
      <trkpt lat="40.243983" lon="-4.918733">
        <ele>1035.0</ele>
        <time>2015-08-02T11:31:35Z</time>
      </trkpt>
      <trkpt lat="40.243833" lon="-4.918700">
        <ele>1034.0</ele>
        <time>2015-08-02T11:31:37Z</time>
      </trkpt>
      <trkpt lat="40.243683" lon="-4.918667">
        <ele>1032.0</ele>
        <time>2015-08-02T11:31:39Z</time>
      </trkpt>
      <trkpt lat="40.243533" lon="-4.918650">
        <ele>1030.0</ele>
        <time>2015-08-02T11:31:41Z</time>
      </trkpt>
      <trkpt lat="40.243383" lon="-4.918633">
        <ele>1028.0</ele>
        <time>2015-08-02T11:31:43Z</time>
      </trkpt>
      <trkpt lat="40.243217" lon="-4.918667">
        <ele>1026.0</ele>
        <time>2015-08-02T11:31:45Z</time>
      </trkpt>
      <trkpt lat="40.243050" lon="-4.918700">
        <ele>1022.0</ele>
        <time>2015-08-02T11:31:47Z</time>
      </trkpt>
      <trkpt lat="40.242850" lon="-4.918733">
        <ele>1020.0</ele>
        <time>2015-08-02T11:31:49Z</time>
      </trkpt>
      <trkpt lat="40.242667" lon="-4.918733">
        <ele>1022.0</ele>
        <time>2015-08-02T11:31:51Z</time>
      </trkpt>
      <trkpt lat="40.242533" lon="-4.918700">
        <ele>1024.0</ele>
        <time>2015-08-02T11:31:53Z</time>
      </trkpt>
      <trkpt lat="40.242383" lon="-4.918750">
        <ele>1023.0</ele>
        <time>2015-08-02T11:31:55Z</time>
      </trkpt>
      <trkpt lat="40.242250" lon="-4.918867">
        <ele>1023.0</ele>
        <time>2015-08-02T11:31:57Z</time>
      </trkpt>
      <trkpt lat="40.242133" lon="-4.919033">
        <ele>1024.0</ele>
        <time>2015-08-02T11:31:59Z</time>
      </trkpt>
      <trkpt lat="40.242067" lon="-4.919233">
        <ele>1026.0</ele>
        <time>2015-08-02T11:32:01Z</time>
      </trkpt>
      <trkpt lat="40.242100" lon="-4.919417">
        <ele>1025.0</ele>
        <time>2015-08-02T11:32:03Z</time>
      </trkpt>
      <trkpt lat="40.242217" lon="-4.919583">
        <ele>1020.0</ele>
        <time>2015-08-02T11:32:05Z</time>
      </trkpt>
      <trkpt lat="40.242433" lon="-4.919633">
        <ele>1017.0</ele>
        <time>2015-08-02T11:32:07Z</time>
      </trkpt>
      <trkpt lat="40.242617" lon="-4.919483">
        <ele>1017.0</ele>
        <time>2015-08-02T11:32:09Z</time>
      </trkpt>
      <trkpt lat="40.242733" lon="-4.919333">
        <ele>1022.0</ele>
        <time>2015-08-02T11:32:11Z</time>
      </trkpt>
      <trkpt lat="40.242833" lon="-4.919183">
        <ele>1022.0</ele>
        <time>2015-08-02T11:32:13Z</time>
      </trkpt>
      <trkpt lat="40.242867" lon="-4.918967">
        <ele>1020.0</ele>
        <time>2015-08-02T11:32:15Z</time>
      </trkpt>
      <trkpt lat="40.242850" lon="-4.918733">
        <ele>1020.0</ele>
        <time>2015-08-02T11:32:17Z</time>
      </trkpt>
      <trkpt lat="40.242750" lon="-4.918583">
        <ele>1020.0</ele>
        <time>2015-08-02T11:32:19Z</time>
      </trkpt>
      <trkpt lat="40.242633" lon="-4.918467">
        <ele>1017.0</ele>
        <time>2015-08-02T11:32:21Z</time>
      </trkpt>
      <trkpt lat="40.242467" lon="-4.918400">
        <ele>1015.0</ele>
        <time>2015-08-02T11:32:23Z</time>
      </trkpt>
      <trkpt lat="40.242300" lon="-4.918417">
        <ele>1014.0</ele>
        <time>2015-08-02T11:32:25Z</time>
      </trkpt>
      <trkpt lat="40.242150" lon="-4.918467">
        <ele>1013.0</ele>
        <time>2015-08-02T11:32:27Z</time>
      </trkpt>
      <trkpt lat="40.242033" lon="-4.918567">
        <ele>1011.0</ele>
        <time>2015-08-02T11:32:29Z</time>
      </trkpt>
      <trkpt lat="40.241900" lon="-4.918667">
        <ele>1008.0</ele>
        <time>2015-08-02T11:32:31Z</time>
      </trkpt>
      <trkpt lat="40.241833" lon="-4.918850">
        <ele>1006.0</ele>
        <time>2015-08-02T11:32:33Z</time>
      </trkpt>
      <trkpt lat="40.241900" lon="-4.919100">
        <ele>1003.0</ele>
        <time>2015-08-02T11:32:35Z</time>
      </trkpt>
      <trkpt lat="40.242050" lon="-4.919250">
        <ele>1001.0</ele>
        <time>2015-08-02T11:32:37Z</time>
      </trkpt>
      <trkpt lat="40.242217" lon="-4.919317">
        <ele>1000.0</ele>
        <time>2015-08-02T11:32:39Z</time>
      </trkpt>
      <trkpt lat="40.242417" lon="-4.919350">
        <ele>996.0</ele>
        <time>2015-08-02T11:32:41Z</time>
      </trkpt>
      <trkpt lat="40.242617" lon="-4.919383">
        <ele>993.0</ele>
        <time>2015-08-02T11:32:43Z</time>
      </trkpt>
      <trkpt lat="40.242833" lon="-4.919433">
        <ele>993.0</ele>
        <time>2015-08-02T11:32:45Z</time>
      </trkpt>
      <trkpt lat="40.243017" lon="-4.919483">
        <ele>991.0</ele>
        <time>2015-08-02T11:32:47Z</time>
      </trkpt>
      <trkpt lat="40.243233" lon="-4.919517">
        <ele>988.0</ele>
        <time>2015-08-02T11:32:49Z</time>
      </trkpt>
      <trkpt lat="40.243450" lon="-4.919550">
        <ele>989.0</ele>
        <time>2015-08-02T11:32:51Z</time>
      </trkpt>
      <trkpt lat="40.243617" lon="-4.919567">
        <ele>992.0</ele>
        <time>2015-08-02T11:32:53Z</time>
      </trkpt>
      <trkpt lat="40.243767" lon="-4.919533">
        <ele>991.0</ele>
        <time>2015-08-02T11:32:55Z</time>
      </trkpt>
      <trkpt lat="40.243933" lon="-4.919400">
        <ele>992.0</ele>
        <time>2015-08-02T11:32:57Z</time>
      </trkpt>
      <trkpt lat="40.244017" lon="-4.919250">
        <ele>994.0</ele>
        <time>2015-08-02T11:32:59Z</time>
      </trkpt>
      <trkpt lat="40.244000" lon="-4.919100">
        <ele>992.0</ele>
        <time>2015-08-02T11:33:01Z</time>
      </trkpt>
      <trkpt lat="40.243950" lon="-4.918950">
        <ele>988.0</ele>
        <time>2015-08-02T11:33:03Z</time>
      </trkpt>
      <trkpt lat="40.243817" lon="-4.918850">
        <ele>983.0</ele>
        <time>2015-08-02T11:33:05Z</time>
      </trkpt>
      <trkpt lat="40.243667" lon="-4.918783">
        <ele>981.0</ele>
        <time>2015-08-02T11:33:07Z</time>
      </trkpt>
      <trkpt lat="40.243533" lon="-4.918683">
        <ele>978.0</ele>
        <time>2015-08-02T11:33:09Z</time>
      </trkpt>
      <trkpt lat="40.243400" lon="-4.918583">
        <ele>975.0</ele>
        <time>2015-08-02T11:33:11Z</time>
      </trkpt>
      <trkpt lat="40.243300" lon="-4.918433">
        <ele>970.0</ele>
        <time>2015-08-02T11:33:13Z</time>
      </trkpt>
      <trkpt lat="40.243200" lon="-4.918267">
        <ele>966.0</ele>
        <time>2015-08-02T11:33:15Z</time>
      </trkpt>
      <trkpt lat="40.243083" lon="-4.918100">
        <ele>963.0</ele>
        <time>2015-08-02T11:33:17Z</time>
      </trkpt>
      <trkpt lat="40.242983" lon="-4.917933">
        <ele>959.0</ele>
        <time>2015-08-02T11:33:19Z</time>
      </trkpt>
      <trkpt lat="40.242883" lon="-4.917767">
        <ele>955.0</ele>
        <time>2015-08-02T11:33:21Z</time>
      </trkpt>
      <trkpt lat="40.242783" lon="-4.917617">
        <ele>951.0</ele>
        <time>2015-08-02T11:33:23Z</time>
      </trkpt>
      <trkpt lat="40.242683" lon="-4.917450">
        <ele>946.0</ele>
        <time>2015-08-02T11:33:25Z</time>
      </trkpt>
      <trkpt lat="40.242583" lon="-4.917283">
        <ele>942.0</ele>
        <time>2015-08-02T11:33:27Z</time>
      </trkpt>
      <trkpt lat="40.242517" lon="-4.917100">
        <ele>939.0</ele>
        <time>2015-08-02T11:33:29Z</time>
      </trkpt>
      <trkpt lat="40.242450" lon="-4.916900">
        <ele>934.0</ele>
        <time>2015-08-02T11:33:31Z</time>
      </trkpt>
      <trkpt lat="40.242367" lon="-4.916717">
        <ele>933.0</ele>
        <time>2015-08-02T11:33:33Z</time>
      </trkpt>
      <trkpt lat="40.242333" lon="-4.916533">
        <ele>934.0</ele>
        <time>2015-08-02T11:33:35Z</time>
      </trkpt>
      <trkpt lat="40.242283" lon="-4.916317">
        <ele>935.0</ele>
        <time>2015-08-02T11:33:37Z</time>
      </trkpt>
      <trkpt lat="40.242183" lon="-4.916100">
        <ele>935.0</ele>
        <time>2015-08-02T11:33:39Z</time>
      </trkpt>
      <trkpt lat="40.242083" lon="-4.915933">
        <ele>935.0</ele>
        <time>2015-08-02T11:33:41Z</time>
      </trkpt>
      <trkpt lat="40.241983" lon="-4.915783">
        <ele>934.0</ele>
        <time>2015-08-02T11:33:43Z</time>
      </trkpt>
      <trkpt lat="40.241833" lon="-4.915667">
        <ele>934.0</ele>
        <time>2015-08-02T11:33:45Z</time>
      </trkpt>
      <trkpt lat="40.241667" lon="-4.915600">
        <ele>937.0</ele>
        <time>2015-08-02T11:33:47Z</time>
      </trkpt>
      <trkpt lat="40.241550" lon="-4.915583">
        <ele>939.0</ele>
        <time>2015-08-02T11:33:49Z</time>
      </trkpt>
      <trkpt lat="40.241417" lon="-4.915650">
        <ele>937.0</ele>
        <time>2015-08-02T11:33:51Z</time>
      </trkpt>
      <trkpt lat="40.241300" lon="-4.915817">
        <ele>935.0</ele>
        <time>2015-08-02T11:33:53Z</time>
      </trkpt>
      <trkpt lat="40.241183" lon="-4.915950">
        <ele>936.0</ele>
        <time>2015-08-02T11:33:55Z</time>
      </trkpt>
      <trkpt lat="40.241050" lon="-4.915983">
        <ele>934.0</ele>
        <time>2015-08-02T11:33:57Z</time>
      </trkpt>
      <trkpt lat="40.240883" lon="-4.916000">
        <ele>930.0</ele>
        <time>2015-08-02T11:33:59Z</time>
      </trkpt>
      <trkpt lat="40.240733" lon="-4.915900">
        <ele>923.0</ele>
        <time>2015-08-02T11:34:01Z</time>
      </trkpt>
      <trkpt lat="40.240667" lon="-4.915667">
        <ele>915.0</ele>
        <time>2015-08-02T11:34:03Z</time>
      </trkpt>
      <trkpt lat="40.240617" lon="-4.915450">
        <ele>910.0</ele>
        <time>2015-08-02T11:34:05Z</time>
      </trkpt>
      <trkpt lat="40.240550" lon="-4.915250">
        <ele>905.0</ele>
        <time>2015-08-02T11:34:07Z</time>
      </trkpt>
      <trkpt lat="40.240550" lon="-4.915017">
        <ele>897.0</ele>
        <time>2015-08-02T11:34:09Z</time>
      </trkpt>
      <trkpt lat="40.240500" lon="-4.914733">
        <ele>894.0</ele>
        <time>2015-08-02T11:34:11Z</time>
      </trkpt>
      <trkpt lat="40.240450" lon="-4.914517">
        <ele>894.0</ele>
        <time>2015-08-02T11:34:13Z</time>
      </trkpt>
      <trkpt lat="40.240400" lon="-4.914283">
        <ele>893.0</ele>
        <time>2015-08-02T11:34:15Z</time>
      </trkpt>
      <trkpt lat="40.240317" lon="-4.914067">
        <ele>891.0</ele>
        <time>2015-08-02T11:34:17Z</time>
      </trkpt>
      <trkpt lat="40.240217" lon="-4.913850">
        <ele>890.0</ele>
        <time>2015-08-02T11:34:19Z</time>
      </trkpt>
      <trkpt lat="40.240150" lon="-4.913600">
        <ele>889.0</ele>
        <time>2015-08-02T11:34:21Z</time>
      </trkpt>
      <trkpt lat="40.240100" lon="-4.913350">
        <ele>888.0</ele>
        <time>2015-08-02T11:34:23Z</time>
      </trkpt>
      <trkpt lat="40.240033" lon="-4.913117">
        <ele>888.0</ele>
        <time>2015-08-02T11:34:25Z</time>
      </trkpt>
      <trkpt lat="40.239983" lon="-4.912917">
        <ele>887.0</ele>
        <time>2015-08-02T11:34:27Z</time>
      </trkpt>
      <trkpt lat="40.239917" lon="-4.912700">
        <ele>885.0</ele>
        <time>2015-08-02T11:34:29Z</time>
      </trkpt>
      <trkpt lat="40.239900" lon="-4.912467">
        <ele>880.0</ele>
        <time>2015-08-02T11:34:31Z</time>
      </trkpt>
      <trkpt lat="40.239883" lon="-4.912167">
        <ele>875.0</ele>
        <time>2015-08-02T11:34:33Z</time>
      </trkpt>
      <trkpt lat="40.239867" lon="-4.911883">
        <ele>877.0</ele>
        <time>2015-08-02T11:34:35Z</time>
      </trkpt>
      <trkpt lat="40.239883" lon="-4.911683">
        <ele>880.0</ele>
        <time>2015-08-02T11:34:37Z</time>
      </trkpt>
      <trkpt lat="40.239850" lon="-4.911500">
        <ele>879.0</ele>
        <time>2015-08-02T11:34:39Z</time>
      </trkpt>
      <trkpt lat="40.239783" lon="-4.911283">
        <ele>878.0</ele>
        <time>2015-08-02T11:34:41Z</time>
      </trkpt>
      <trkpt lat="40.239700" lon="-4.911133">
        <ele>880.0</ele>
        <time>2015-08-02T11:34:43Z</time>
      </trkpt>
      <trkpt lat="40.239617" lon="-4.911050">
        <ele>878.0</ele>
        <time>2015-08-02T11:34:45Z</time>
      </trkpt>
      <trkpt lat="40.239467" lon="-4.910917">
        <ele>874.0</ele>
        <time>2015-08-02T11:34:47Z</time>
      </trkpt>
      <trkpt lat="40.239333" lon="-4.910767">
        <ele>876.0</ele>
        <time>2015-08-02T11:34:49Z</time>
      </trkpt>
      <trkpt lat="40.239300" lon="-4.910600">
        <ele>879.0</ele>
        <time>2015-08-02T11:34:51Z</time>
      </trkpt>
      <trkpt lat="40.239317" lon="-4.910433">
        <ele>882.0</ele>
        <time>2015-08-02T11:34:53Z</time>
      </trkpt>
      <trkpt lat="40.239317" lon="-4.910250">
        <ele>883.0</ele>
        <time>2015-08-02T11:34:55Z</time>
      </trkpt>
      <trkpt lat="40.239217" lon="-4.910133">
        <ele>882.0</ele>
        <time>2015-08-02T11:34:57Z</time>
      </trkpt>
      <trkpt lat="40.239017" lon="-4.910183">
        <ele>882.0</ele>
        <time>2015-08-02T11:34:59Z</time>
      </trkpt>
      <trkpt lat="40.238900" lon="-4.910367">
        <ele>884.0</ele>
        <time>2015-08-02T11:35:01Z</time>
      </trkpt>
      <trkpt lat="40.238850" lon="-4.910583">
        <ele>883.0</ele>
        <time>2015-08-02T11:35:03Z</time>
      </trkpt>
      <trkpt lat="40.238950" lon="-4.910850">
        <ele>879.0</ele>
        <time>2015-08-02T11:35:05Z</time>
      </trkpt>
      <trkpt lat="40.239117" lon="-4.911050">
        <ele>882.0</ele>
        <time>2015-08-02T11:35:07Z</time>
      </trkpt>
      <trkpt lat="40.239233" lon="-4.911233">
        <ele>887.0</ele>
        <time>2015-08-02T11:35:09Z</time>
      </trkpt>
      <trkpt lat="40.239317" lon="-4.911383">
        <ele>889.0</ele>
        <time>2015-08-02T11:35:11Z</time>
      </trkpt>
      <trkpt lat="40.239450" lon="-4.911500">
        <ele>890.0</ele>
        <time>2015-08-02T11:35:13Z</time>
      </trkpt>
      <trkpt lat="40.239600" lon="-4.911550">
        <ele>889.0</ele>
        <time>2015-08-02T11:35:15Z</time>
      </trkpt>
      <trkpt lat="40.239733" lon="-4.911433">
        <ele>888.0</ele>
        <time>2015-08-02T11:35:17Z</time>
      </trkpt>
      <trkpt lat="40.239783" lon="-4.911233">
        <ele>886.0</ele>
        <time>2015-08-02T11:35:19Z</time>
      </trkpt>
      <trkpt lat="40.239783" lon="-4.911000">
        <ele>884.0</ele>
        <time>2015-08-02T11:35:21Z</time>
      </trkpt>
      <trkpt lat="40.239767" lon="-4.910783">
        <ele>885.0</ele>
        <time>2015-08-02T11:35:23Z</time>
      </trkpt>
      <trkpt lat="40.239733" lon="-4.910600">
        <ele>887.0</ele>
        <time>2015-08-02T11:35:25Z</time>
      </trkpt>
      <trkpt lat="40.239667" lon="-4.910417">
        <ele>887.0</ele>
        <time>2015-08-02T11:35:27Z</time>
      </trkpt>
      <trkpt lat="40.239550" lon="-4.910267">
        <ele>889.0</ele>
        <time>2015-08-02T11:35:29Z</time>
      </trkpt>
      <trkpt lat="40.239417" lon="-4.910183">
        <ele>893.0</ele>
        <time>2015-08-02T11:35:31Z</time>
      </trkpt>
      <trkpt lat="40.239283" lon="-4.910167">
        <ele>894.0</ele>
        <time>2015-08-02T11:35:33Z</time>
      </trkpt>
      <trkpt lat="40.239133" lon="-4.910233">
        <ele>893.0</ele>
        <time>2015-08-02T11:35:35Z</time>
      </trkpt>
      <trkpt lat="40.239000" lon="-4.910400">
        <ele>894.0</ele>
        <time>2015-08-02T11:35:37Z</time>
      </trkpt>
      <trkpt lat="40.238933" lon="-4.910600">
        <ele>894.0</ele>
        <time>2015-08-02T11:35:39Z</time>
      </trkpt>
      <trkpt lat="40.238900" lon="-4.910850">
        <ele>894.0</ele>
        <time>2015-08-02T11:35:41Z</time>
      </trkpt>
      <trkpt lat="40.239000" lon="-4.911100">
        <ele>896.0</ele>
        <time>2015-08-02T11:35:43Z</time>
      </trkpt>
      <trkpt lat="40.239117" lon="-4.911300">
        <ele>900.0</ele>
        <time>2015-08-02T11:35:45Z</time>
      </trkpt>
      <trkpt lat="40.239267" lon="-4.911417">
        <ele>903.0</ele>
        <time>2015-08-02T11:35:47Z</time>
      </trkpt>
      <trkpt lat="40.239467" lon="-4.911450">
        <ele>904.0</ele>
        <time>2015-08-02T11:35:49Z</time>
      </trkpt>
      <trkpt lat="40.239617" lon="-4.911367">
        <ele>905.0</ele>
        <time>2015-08-02T11:35:51Z</time>
      </trkpt>
      <trkpt lat="40.239733" lon="-4.911167">
        <ele>903.0</ele>
        <time>2015-08-02T11:35:53Z</time>
      </trkpt>
      <trkpt lat="40.239750" lon="-4.910933">
        <ele>905.0</ele>
        <time>2015-08-02T11:35:55Z</time>
      </trkpt>
      <trkpt lat="40.239667" lon="-4.910750">
        <ele>909.0</ele>
        <time>2015-08-02T11:35:57Z</time>
      </trkpt>
      <trkpt lat="40.239583" lon="-4.910617">
        <ele>913.0</ele>
        <time>2015-08-02T11:35:59Z</time>
      </trkpt>
      <trkpt lat="40.239467" lon="-4.910500">
        <ele>914.0</ele>
        <time>2015-08-02T11:36:01Z</time>
      </trkpt>
      <trkpt lat="40.239283" lon="-4.910467">
        <ele>915.0</ele>
        <time>2015-08-02T11:36:03Z</time>
      </trkpt>
      <trkpt lat="40.239133" lon="-4.910567">
        <ele>918.0</ele>
        <time>2015-08-02T11:36:05Z</time>
      </trkpt>
      <trkpt lat="40.239033" lon="-4.910783">
        <ele>920.0</ele>
        <time>2015-08-02T11:36:07Z</time>
      </trkpt>
      <trkpt lat="40.239000" lon="-4.911050">
        <ele>921.0</ele>
        <time>2015-08-02T11:36:09Z</time>
      </trkpt>
      <trkpt lat="40.239067" lon="-4.911317">
        <ele>923.0</ele>
        <time>2015-08-02T11:36:11Z</time>
      </trkpt>
      <trkpt lat="40.239200" lon="-4.911483">
        <ele>925.0</ele>
        <time>2015-08-02T11:36:13Z</time>
      </trkpt>
      <trkpt lat="40.239383" lon="-4.911517">
        <ele>927.0</ele>
        <time>2015-08-02T11:36:15Z</time>
      </trkpt>
      <trkpt lat="40.239517" lon="-4.911417">
        <ele>930.0</ele>
        <time>2015-08-02T11:36:17Z</time>
      </trkpt>
      <trkpt lat="40.239600" lon="-4.911233">
        <ele>932.0</ele>
        <time>2015-08-02T11:36:19Z</time>
      </trkpt>
      <trkpt lat="40.239600" lon="-4.911033">
        <ele>936.0</ele>
        <time>2015-08-02T11:36:21Z</time>
      </trkpt>
      <trkpt lat="40.239533" lon="-4.910850">
        <ele>939.0</ele>
        <time>2015-08-02T11:36:23Z</time>
      </trkpt>
      <trkpt lat="40.239417" lon="-4.910783">
        <ele>943.0</ele>
        <time>2015-08-02T11:36:25Z</time>
      </trkpt>
      <trkpt lat="40.239250" lon="-4.910800">
        <ele>944.0</ele>
        <time>2015-08-02T11:36:27Z</time>
      </trkpt>
      <trkpt lat="40.239117" lon="-4.910933">
        <ele>945.0</ele>
        <time>2015-08-02T11:36:29Z</time>
      </trkpt>
      <trkpt lat="40.239033" lon="-4.911167">
        <ele>944.0</ele>
        <time>2015-08-02T11:36:31Z</time>
      </trkpt>
      <trkpt lat="40.239033" lon="-4.911467">
        <ele>945.0</ele>
        <time>2015-08-02T11:36:33Z</time>
      </trkpt>
      <trkpt lat="40.239150" lon="-4.911683">
        <ele>945.0</ele>
        <time>2015-08-02T11:36:35Z</time>
      </trkpt>
      <trkpt lat="40.239300" lon="-4.911800">
        <ele>946.0</ele>
        <time>2015-08-02T11:36:37Z</time>
      </trkpt>
      <trkpt lat="40.239467" lon="-4.911833">
        <ele>950.0</ele>
        <time>2015-08-02T11:36:39Z</time>
      </trkpt>
      <trkpt lat="40.239600" lon="-4.911800">
        <ele>951.0</ele>
        <time>2015-08-02T11:36:41Z</time>
      </trkpt>
      <trkpt lat="40.239750" lon="-4.911700">
        <ele>951.0</ele>
        <time>2015-08-02T11:36:43Z</time>
      </trkpt>
      <trkpt lat="40.239833" lon="-4.911533">
        <ele>952.0</ele>
        <time>2015-08-02T11:36:45Z</time>
      </trkpt>
      <trkpt lat="40.239817" lon="-4.911333">
        <ele>953.0</ele>
        <time>2015-08-02T11:36:47Z</time>
      </trkpt>
      <trkpt lat="40.239767" lon="-4.911167">
        <ele>957.0</ele>
        <time>2015-08-02T11:36:49Z</time>
      </trkpt>
      <trkpt lat="40.239683" lon="-4.911033">
        <ele>960.0</ele>
        <time>2015-08-02T11:36:51Z</time>
      </trkpt>
      <trkpt lat="40.239567" lon="-4.910950">
        <ele>962.0</ele>
        <time>2015-08-02T11:36:53Z</time>
      </trkpt>
      <trkpt lat="40.239417" lon="-4.911000">
        <ele>963.0</ele>
        <time>2015-08-02T11:36:55Z</time>
      </trkpt>
      <trkpt lat="40.239283" lon="-4.911167">
        <ele>964.0</ele>
        <time>2015-08-02T11:36:57Z</time>
      </trkpt>
      <trkpt lat="40.239250" lon="-4.911450">
        <ele>962.0</ele>
        <time>2015-08-02T11:36:59Z</time>
      </trkpt>
      <trkpt lat="40.239367" lon="-4.911717">
        <ele>963.0</ele>
        <time>2015-08-02T11:37:01Z</time>
      </trkpt>
      <trkpt lat="40.239517" lon="-4.911850">
        <ele>968.0</ele>
        <time>2015-08-02T11:37:03Z</time>
      </trkpt>
      <trkpt lat="40.239650" lon="-4.911950">
        <ele>970.0</ele>
        <time>2015-08-02T11:37:05Z</time>
      </trkpt>
      <trkpt lat="40.239817" lon="-4.911933">
        <ele>968.0</ele>
        <time>2015-08-02T11:37:07Z</time>
      </trkpt>
      <trkpt lat="40.239950" lon="-4.911817">
        <ele>968.0</ele>
        <time>2015-08-02T11:37:09Z</time>
      </trkpt>
      <trkpt lat="40.240033" lon="-4.911650">
        <ele>971.0</ele>
        <time>2015-08-02T11:37:11Z</time>
      </trkpt>
      <trkpt lat="40.240067" lon="-4.911483">
        <ele>972.0</ele>
        <time>2015-08-02T11:37:13Z</time>
      </trkpt>
      <trkpt lat="40.240050" lon="-4.911300">
        <ele>972.0</ele>
        <time>2015-08-02T11:37:15Z</time>
      </trkpt>
      <trkpt lat="40.239967" lon="-4.911117">
        <ele>974.0</ele>
        <time>2015-08-02T11:37:17Z</time>
      </trkpt>
      <trkpt lat="40.239867" lon="-4.911000">
        <ele>978.0</ele>
        <time>2015-08-02T11:37:19Z</time>
      </trkpt>
      <trkpt lat="40.239767" lon="-4.910950">
        <ele>980.0</ele>
        <time>2015-08-02T11:37:21Z</time>
      </trkpt>
      <trkpt lat="40.239600" lon="-4.910983">
        <ele>981.0</ele>
        <time>2015-08-02T11:37:23Z</time>
      </trkpt>
      <trkpt lat="40.239450" lon="-4.911117">
        <ele>984.0</ele>
        <time>2015-08-02T11:37:25Z</time>
      </trkpt>
      <trkpt lat="40.239350" lon="-4.911300">
        <ele>988.0</ele>
        <time>2015-08-02T11:37:27Z</time>
      </trkpt>
      <trkpt lat="40.239300" lon="-4.911517">
        <ele>987.0</ele>
        <time>2015-08-02T11:37:29Z</time>
      </trkpt>
      <trkpt lat="40.239317" lon="-4.911783">
        <ele>984.0</ele>
        <time>2015-08-02T11:37:31Z</time>
      </trkpt>
      <trkpt lat="40.239433" lon="-4.912050">
        <ele>985.0</ele>
        <time>2015-08-02T11:37:33Z</time>
      </trkpt>
      <trkpt lat="40.239600" lon="-4.912133">
        <ele>987.0</ele>
        <time>2015-08-02T11:37:35Z</time>
      </trkpt>
      <trkpt lat="40.239750" lon="-4.912100">
        <ele>989.0</ele>
        <time>2015-08-02T11:37:37Z</time>
      </trkpt>
      <trkpt lat="40.239883" lon="-4.911967">
        <ele>989.0</ele>
        <time>2015-08-02T11:37:39Z</time>
      </trkpt>
      <trkpt lat="40.239983" lon="-4.911800">
        <ele>991.0</ele>
        <time>2015-08-02T11:37:41Z</time>
      </trkpt>
      <trkpt lat="40.240050" lon="-4.911617">
        <ele>993.0</ele>
        <time>2015-08-02T11:37:43Z</time>
      </trkpt>
      <trkpt lat="40.240050" lon="-4.911433">
        <ele>994.0</ele>
        <time>2015-08-02T11:37:45Z</time>
      </trkpt>
      <trkpt lat="40.239983" lon="-4.911250">
        <ele>995.0</ele>
        <time>2015-08-02T11:37:47Z</time>
      </trkpt>
      <trkpt lat="40.239867" lon="-4.911150">
        <ele>999.0</ele>
        <time>2015-08-02T11:37:49Z</time>
      </trkpt>
      <trkpt lat="40.239750" lon="-4.911133">
        <ele>1004.0</ele>
        <time>2015-08-02T11:37:51Z</time>
      </trkpt>
      <trkpt lat="40.239617" lon="-4.911200">
        <ele>1005.0</ele>
        <time>2015-08-02T11:37:53Z</time>
      </trkpt>
      <trkpt lat="40.239483" lon="-4.911417">
        <ele>1005.0</ele>
        <time>2015-08-02T11:37:55Z</time>
      </trkpt>
      <trkpt lat="40.239400" lon="-4.911683">
        <ele>1012.0</ele>
        <time>2015-08-02T11:37:57Z</time>
      </trkpt>
      <trkpt lat="40.239400" lon="-4.911917">
        <ele>1017.0</ele>
        <time>2015-08-02T11:37:59Z</time>
      </trkpt>
      <trkpt lat="40.239483" lon="-4.912167">
        <ele>1016.0</ele>
        <time>2015-08-02T11:38:01Z</time>
      </trkpt>
      <trkpt lat="40.239633" lon="-4.912383">
        <ele>1017.0</ele>
        <time>2015-08-02T11:38:03Z</time>
      </trkpt>
      <trkpt lat="40.239800" lon="-4.912433">
        <ele>1019.0</ele>
        <time>2015-08-02T11:38:05Z</time>
      </trkpt>
      <trkpt lat="40.239950" lon="-4.912350">
        <ele>1020.0</ele>
        <time>2015-08-02T11:38:07Z</time>
      </trkpt>
      <trkpt lat="40.240067" lon="-4.912200">
        <ele>1019.0</ele>
        <time>2015-08-02T11:38:09Z</time>
      </trkpt>
      <trkpt lat="40.240133" lon="-4.911983">
        <ele>1019.0</ele>
        <time>2015-08-02T11:38:11Z</time>
      </trkpt>
      <trkpt lat="40.240167" lon="-4.911783">
        <ele>1022.0</ele>
        <time>2015-08-02T11:38:13Z</time>
      </trkpt>
      <trkpt lat="40.240150" lon="-4.911583">
        <ele>1023.0</ele>
        <time>2015-08-02T11:38:15Z</time>
      </trkpt>
      <trkpt lat="40.240050" lon="-4.911400">
        <ele>1024.0</ele>
        <time>2015-08-02T11:38:17Z</time>
      </trkpt>
      <trkpt lat="40.239900" lon="-4.911283">
        <ele>1029.0</ele>
        <time>2015-08-02T11:38:19Z</time>
      </trkpt>
      <trkpt lat="40.239767" lon="-4.911200">
        <ele>1035.0</ele>
        <time>2015-08-02T11:38:21Z</time>
      </trkpt>
      <trkpt lat="40.239617" lon="-4.911200">
        <ele>1039.0</ele>
        <time>2015-08-02T11:38:23Z</time>
      </trkpt>
      <trkpt lat="40.239450" lon="-4.911317">
        <ele>1043.0</ele>
        <time>2015-08-02T11:38:25Z</time>
      </trkpt>
      <trkpt lat="40.239400" lon="-4.911583">
        <ele>1044.0</ele>
        <time>2015-08-02T11:38:27Z</time>
      </trkpt>
      <trkpt lat="40.239417" lon="-4.911883">
        <ele>1046.0</ele>
        <time>2015-08-02T11:38:29Z</time>
      </trkpt>
      <trkpt lat="40.239533" lon="-4.912117">
        <ele>1050.0</ele>
        <time>2015-08-02T11:38:31Z</time>
      </trkpt>
      <trkpt lat="40.239717" lon="-4.912217">
        <ele>1055.0</ele>
        <time>2015-08-02T11:38:33Z</time>
      </trkpt>
      <trkpt lat="40.239850" lon="-4.912200">
        <ele>1058.0</ele>
        <time>2015-08-02T11:38:35Z</time>
      </trkpt>
      <trkpt lat="40.239983" lon="-4.912067">
        <ele>1060.0</ele>
        <time>2015-08-02T11:38:37Z</time>
      </trkpt>
      <trkpt lat="40.240017" lon="-4.911850">
        <ele>1062.0</ele>
        <time>2015-08-02T11:38:39Z</time>
      </trkpt>
      <trkpt lat="40.239950" lon="-4.911667">
        <ele>1067.0</ele>
        <time>2015-08-02T11:38:41Z</time>
      </trkpt>
      <trkpt lat="40.239850" lon="-4.911550">
        <ele>1072.0</ele>
        <time>2015-08-02T11:38:43Z</time>
      </trkpt>
      <trkpt lat="40.239717" lon="-4.911500">
        <ele>1076.0</ele>
        <time>2015-08-02T11:38:45Z</time>
      </trkpt>
      <trkpt lat="40.239550" lon="-4.911517">
        <ele>1079.0</ele>
        <time>2015-08-02T11:38:47Z</time>
      </trkpt>
      <trkpt lat="40.239400" lon="-4.911650">
        <ele>1082.0</ele>
        <time>2015-08-02T11:38:49Z</time>
      </trkpt>
      <trkpt lat="40.239300" lon="-4.911867">
        <ele>1085.0</ele>
        <time>2015-08-02T11:38:51Z</time>
      </trkpt>
      <trkpt lat="40.239283" lon="-4.912167">
        <ele>1085.0</ele>
        <time>2015-08-02T11:38:53Z</time>
      </trkpt>
      <trkpt lat="40.239367" lon="-4.912467">
        <ele>1087.0</ele>
        <time>2015-08-02T11:38:55Z</time>
      </trkpt>
      <trkpt lat="40.239533" lon="-4.912567">
        <ele>1091.0</ele>
        <time>2015-08-02T11:38:57Z</time>
      </trkpt>
      <trkpt lat="40.239683" lon="-4.912533">
        <ele>1094.0</ele>
        <time>2015-08-02T11:38:59Z</time>
      </trkpt>
      <trkpt lat="40.239800" lon="-4.912400">
        <ele>1097.0</ele>
        <time>2015-08-02T11:39:01Z</time>
      </trkpt>
      <trkpt lat="40.239850" lon="-4.912233">
        <ele>1100.0</ele>
        <time>2015-08-02T11:39:03Z</time>
      </trkpt>
      <trkpt lat="40.239833" lon="-4.912050">
        <ele>1104.0</ele>
        <time>2015-08-02T11:39:05Z</time>
      </trkpt>
      <trkpt lat="40.239733" lon="-4.911900">
        <ele>1106.0</ele>
        <time>2015-08-02T11:39:07Z</time>
      </trkpt>
      <trkpt lat="40.239567" lon="-4.911800">
        <ele>1108.0</ele>
        <time>2015-08-02T11:39:09Z</time>
      </trkpt>
      <trkpt lat="40.239367" lon="-4.911767">
        <ele>1114.0</ele>
        <time>2015-08-02T11:39:11Z</time>
      </trkpt>
      <trkpt lat="40.239200" lon="-4.911817">
        <ele>1120.0</ele>
        <time>2015-08-02T11:39:13Z</time>
      </trkpt>
      <trkpt lat="40.239033" lon="-4.911933">
        <ele>1123.0</ele>
        <time>2015-08-02T11:39:15Z</time>
      </trkpt>
      <trkpt lat="40.238933" lon="-4.912133">
        <ele>1126.0</ele>
        <time>2015-08-02T11:39:17Z</time>
      </trkpt>
      <trkpt lat="40.238967" lon="-4.912367">
        <ele>1126.0</ele>
        <time>2015-08-02T11:39:19Z</time>
      </trkpt>
      <trkpt lat="40.239117" lon="-4.912533">
        <ele>1128.0</ele>
        <time>2015-08-02T11:39:21Z</time>
      </trkpt>
      <trkpt lat="40.239267" lon="-4.912583">
        <ele>1131.0</ele>
        <time>2015-08-02T11:39:23Z</time>
      </trkpt>
      <trkpt lat="40.239433" lon="-4.912550">
        <ele>1133.0</ele>
        <time>2015-08-02T11:39:25Z</time>
      </trkpt>
      <trkpt lat="40.239567" lon="-4.912433">
        <ele>1134.0</ele>
        <time>2015-08-02T11:39:27Z</time>
      </trkpt>
      <trkpt lat="40.239683" lon="-4.912283">
        <ele>1138.0</ele>
        <time>2015-08-02T11:39:29Z</time>
      </trkpt>
      <trkpt lat="40.239750" lon="-4.912150">
        <ele>1142.0</ele>
        <time>2015-08-02T11:39:31Z</time>
      </trkpt>
      <trkpt lat="40.239783" lon="-4.911967">
        <ele>1143.0</ele>
        <time>2015-08-02T11:39:33Z</time>
      </trkpt>
      <trkpt lat="40.239733" lon="-4.911767">
        <ele>1146.0</ele>
        <time>2015-08-02T11:39:35Z</time>
      </trkpt>
      <trkpt lat="40.239650" lon="-4.911567">
        <ele>1148.0</ele>
        <time>2015-08-02T11:39:37Z</time>
      </trkpt>
      <trkpt lat="40.239500" lon="-4.911417">
        <ele>1149.0</ele>
        <time>2015-08-02T11:39:39Z</time>
      </trkpt>
      <trkpt lat="40.239333" lon="-4.911383">
        <ele>1151.0</ele>
        <time>2015-08-02T11:39:41Z</time>
      </trkpt>
      <trkpt lat="40.239233" lon="-4.911483">
        <ele>1149.0</ele>
        <time>2015-08-02T11:39:43Z</time>
      </trkpt>
      <trkpt lat="40.239117" lon="-4.911683">
        <ele>1144.0</ele>
        <time>2015-08-02T11:39:45Z</time>
      </trkpt>
      <trkpt lat="40.239067" lon="-4.911933">
        <ele>1142.0</ele>
        <time>2015-08-02T11:39:47Z</time>
      </trkpt>
      <trkpt lat="40.239183" lon="-4.912150">
        <ele>1140.0</ele>
        <time>2015-08-02T11:39:49Z</time>
      </trkpt>
      <trkpt lat="40.239350" lon="-4.912233">
        <ele>1145.0</ele>
        <time>2015-08-02T11:39:51Z</time>
      </trkpt>
      <trkpt lat="40.239500" lon="-4.912217">
        <ele>1151.0</ele>
        <time>2015-08-02T11:39:53Z</time>
      </trkpt>
      <trkpt lat="40.239633" lon="-4.912150">
        <ele>1152.0</ele>
        <time>2015-08-02T11:39:55Z</time>
      </trkpt>
      <trkpt lat="40.239783" lon="-4.912033">
        <ele>1154.0</ele>
        <time>2015-08-02T11:39:57Z</time>
      </trkpt>
      <trkpt lat="40.239900" lon="-4.911883">
        <ele>1157.0</ele>
        <time>2015-08-02T11:39:59Z</time>
      </trkpt>
      <trkpt lat="40.240033" lon="-4.911783">
        <ele>1157.0</ele>
        <time>2015-08-02T11:40:01Z</time>
      </trkpt>
      <trkpt lat="40.240133" lon="-4.911617">
        <ele>1156.0</ele>
        <time>2015-08-02T11:40:03Z</time>
      </trkpt>
      <trkpt lat="40.240100" lon="-4.911400">
        <ele>1159.0</ele>
        <time>2015-08-02T11:40:05Z</time>
      </trkpt>
      <trkpt lat="40.239983" lon="-4.911233">
        <ele>1164.0</ele>
        <time>2015-08-02T11:40:07Z</time>
      </trkpt>
      <trkpt lat="40.239867" lon="-4.911133">
        <ele>1171.0</ele>
        <time>2015-08-02T11:40:09Z</time>
      </trkpt>
      <trkpt lat="40.239733" lon="-4.911067">
        <ele>1173.0</ele>
        <time>2015-08-02T11:40:11Z</time>
      </trkpt>
      <trkpt lat="40.239567" lon="-4.911117">
        <ele>1172.0</ele>
        <time>2015-08-02T11:40:13Z</time>
      </trkpt>
      <trkpt lat="40.239433" lon="-4.911283">
        <ele>1175.0</ele>
        <time>2015-08-02T11:40:15Z</time>
      </trkpt>
      <trkpt lat="40.239417" lon="-4.911467">
        <ele>1178.0</ele>
        <time>2015-08-02T11:40:17Z</time>
      </trkpt>
      <trkpt lat="40.239500" lon="-4.911617">
        <ele>1178.0</ele>
        <time>2015-08-02T11:40:19Z</time>
      </trkpt>
      <trkpt lat="40.239667" lon="-4.911700">
        <ele>1176.0</ele>
        <time>2015-08-02T11:40:21Z</time>
      </trkpt>
      <trkpt lat="40.239850" lon="-4.911683">
        <ele>1178.0</ele>
        <time>2015-08-02T11:40:23Z</time>
      </trkpt>
      <trkpt lat="40.240000" lon="-4.911683">
        <ele>1183.0</ele>
        <time>2015-08-02T11:40:25Z</time>
      </trkpt>
      <trkpt lat="40.240150" lon="-4.911667">
        <ele>1184.0</ele>
        <time>2015-08-02T11:40:27Z</time>
      </trkpt>
      <trkpt lat="40.240333" lon="-4.911583">
        <ele>1185.0</ele>
        <time>2015-08-02T11:40:29Z</time>
      </trkpt>
      <trkpt lat="40.240500" lon="-4.911500">
        <ele>1191.0</ele>
        <time>2015-08-02T11:40:31Z</time>
      </trkpt>
      <trkpt lat="40.240633" lon="-4.911400">
        <ele>1195.0</ele>
        <time>2015-08-02T11:40:33Z</time>
      </trkpt>
      <trkpt lat="40.240733" lon="-4.911217">
        <ele>1196.0</ele>
        <time>2015-08-02T11:40:35Z</time>
      </trkpt>
      <trkpt lat="40.240767" lon="-4.910967">
        <ele>1198.0</ele>
        <time>2015-08-02T11:40:37Z</time>
      </trkpt>
      <trkpt lat="40.240800" lon="-4.910750">
        <ele>1199.0</ele>
        <time>2015-08-02T11:40:39Z</time>
      </trkpt>
      <trkpt lat="40.240850" lon="-4.910483">
        <ele>1201.0</ele>
        <time>2015-08-02T11:40:41Z</time>
      </trkpt>
      <trkpt lat="40.240867" lon="-4.910200">
        <ele>1205.0</ele>
        <time>2015-08-02T11:40:43Z</time>
      </trkpt>
      <trkpt lat="40.240767" lon="-4.910000">
        <ele>1208.0</ele>
        <time>2015-08-02T11:40:45Z</time>
      </trkpt>
      <trkpt lat="40.240583" lon="-4.909883">
        <ele>1210.0</ele>
        <time>2015-08-02T11:40:47Z</time>
      </trkpt>
      <trkpt lat="40.240400" lon="-4.909917">
        <ele>1217.0</ele>
        <time>2015-08-02T11:40:49Z</time>
      </trkpt>
      <trkpt lat="40.240283" lon="-4.910067">
        <ele>1221.0</ele>
        <time>2015-08-02T11:40:51Z</time>
      </trkpt>
      <trkpt lat="40.240250" lon="-4.910283">
        <ele>1222.0</ele>
        <time>2015-08-02T11:40:53Z</time>
      </trkpt>
      <trkpt lat="40.240300" lon="-4.910517">
        <ele>1223.0</ele>
        <time>2015-08-02T11:40:55Z</time>
      </trkpt>
      <trkpt lat="40.240417" lon="-4.910667">
        <ele>1227.0</ele>
        <time>2015-08-02T11:40:57Z</time>
      </trkpt>
      <trkpt lat="40.240550" lon="-4.910717">
        <ele>1230.0</ele>
        <time>2015-08-02T11:40:59Z</time>
      </trkpt>
      <trkpt lat="40.240700" lon="-4.910683">
        <ele>1233.0</ele>
        <time>2015-08-02T11:41:01Z</time>
      </trkpt>
      <trkpt lat="40.240833" lon="-4.910517">
        <ele>1235.0</ele>
        <time>2015-08-02T11:41:03Z</time>
      </trkpt>
      <trkpt lat="40.240900" lon="-4.910283">
        <ele>1237.0</ele>
        <time>2015-08-02T11:41:05Z</time>
      </trkpt>
      <trkpt lat="40.240900" lon="-4.910050">
        <ele>1237.0</ele>
        <time>2015-08-02T11:41:07Z</time>
      </trkpt>
      <trkpt lat="40.240867" lon="-4.909767">
        <ele>1237.0</ele>
        <time>2015-08-02T11:41:09Z</time>
      </trkpt>
      <trkpt lat="40.240733" lon="-4.909517">
        <ele>1238.0</ele>
        <time>2015-08-02T11:41:11Z</time>
      </trkpt>
      <trkpt lat="40.240550" lon="-4.909383">
        <ele>1243.0</ele>
        <time>2015-08-02T11:41:13Z</time>
      </trkpt>
      <trkpt lat="40.240400" lon="-4.909317">
        <ele>1247.0</ele>
        <time>2015-08-02T11:41:15Z</time>
      </trkpt>
      <trkpt lat="40.240267" lon="-4.909367">
        <ele>1247.0</ele>
        <time>2015-08-02T11:41:17Z</time>
      </trkpt>
      <trkpt lat="40.240167" lon="-4.909583">
        <ele>1242.0</ele>
        <time>2015-08-02T11:41:19Z</time>
      </trkpt>
      <trkpt lat="40.240200" lon="-4.909833">
        <ele>1244.0</ele>
        <time>2015-08-02T11:41:21Z</time>
      </trkpt>
      <trkpt lat="40.240233" lon="-4.909983">
        <ele>1246.0</ele>
        <time>2015-08-02T11:41:23Z</time>
      </trkpt>
      <trkpt lat="40.240283" lon="-4.910150">
        <ele>1245.0</ele>
        <time>2015-08-02T11:41:25Z</time>
      </trkpt>
      <trkpt lat="40.240450" lon="-4.910267">
        <ele>1243.0</ele>
        <time>2015-08-02T11:41:27Z</time>
      </trkpt>
      <trkpt lat="40.240617" lon="-4.910317">
        <ele>1248.0</ele>
        <time>2015-08-02T11:41:29Z</time>
      </trkpt>
      <trkpt lat="40.240733" lon="-4.910400">
        <ele>1250.0</ele>
        <time>2015-08-02T11:41:31Z</time>
      </trkpt>
      <trkpt lat="40.240917" lon="-4.910383">
        <ele>1249.0</ele>
        <time>2015-08-02T11:41:33Z</time>
      </trkpt>
      <trkpt lat="40.241083" lon="-4.910267">
        <ele>1249.0</ele>
        <time>2015-08-02T11:41:35Z</time>
      </trkpt>
      <trkpt lat="40.241217" lon="-4.910083">
        <ele>1250.0</ele>
        <time>2015-08-02T11:41:37Z</time>
      </trkpt>
      <trkpt lat="40.241383" lon="-4.909900">
        <ele>1250.0</ele>
        <time>2015-08-02T11:41:39Z</time>
      </trkpt>
      <trkpt lat="40.241500" lon="-4.909700">
        <ele>1253.0</ele>
        <time>2015-08-02T11:41:41Z</time>
      </trkpt>
      <trkpt lat="40.241567" lon="-4.909517">
        <ele>1256.0</ele>
        <time>2015-08-02T11:41:43Z</time>
      </trkpt>
      <trkpt lat="40.241583" lon="-4.909350">
        <ele>1255.0</ele>
        <time>2015-08-02T11:41:45Z</time>
      </trkpt>
      <trkpt lat="40.241517" lon="-4.909150">
        <ele>1254.0</ele>
        <time>2015-08-02T11:41:47Z</time>
      </trkpt>
      <trkpt lat="40.241400" lon="-4.909000">
        <ele>1255.0</ele>
        <time>2015-08-02T11:41:49Z</time>
      </trkpt>
      <trkpt lat="40.241250" lon="-4.908950">
        <ele>1255.0</ele>
        <time>2015-08-02T11:41:51Z</time>
      </trkpt>
      <trkpt lat="40.241100" lon="-4.909000">
        <ele>1254.0</ele>
        <time>2015-08-02T11:41:53Z</time>
      </trkpt>
      <trkpt lat="40.240983" lon="-4.909150">
        <ele>1253.0</ele>
        <time>2015-08-02T11:41:55Z</time>
      </trkpt>
      <trkpt lat="40.240917" lon="-4.909333">
        <ele>1258.0</ele>
        <time>2015-08-02T11:41:57Z</time>
      </trkpt>
      <trkpt lat="40.240917" lon="-4.909467">
        <ele>1258.0</ele>
        <time>2015-08-02T11:41:59Z</time>
      </trkpt>
      <trkpt lat="40.241000" lon="-4.909583">
        <ele>1253.0</ele>
        <time>2015-08-02T11:42:01Z</time>
      </trkpt>
      <trkpt lat="40.241200" lon="-4.909617">
        <ele>1247.0</ele>
        <time>2015-08-02T11:42:03Z</time>
      </trkpt>
      <trkpt lat="40.241383" lon="-4.909617">
        <ele>1247.0</ele>
        <time>2015-08-02T11:42:05Z</time>
      </trkpt>
      <trkpt lat="40.241550" lon="-4.909617">
        <ele>1246.0</ele>
        <time>2015-08-02T11:42:07Z</time>
      </trkpt>
      <trkpt lat="40.241717" lon="-4.909517">
        <ele>1242.0</ele>
        <time>2015-08-02T11:42:09Z</time>
      </trkpt>
      <trkpt lat="40.241883" lon="-4.909267">
        <ele>1239.0</ele>
        <time>2015-08-02T11:42:11Z</time>
      </trkpt>
      <trkpt lat="40.242000" lon="-4.909067">
        <ele>1242.0</ele>
        <time>2015-08-02T11:42:13Z</time>
      </trkpt>
      <trkpt lat="40.242133" lon="-4.908900">
        <ele>1243.0</ele>
        <time>2015-08-02T11:42:15Z</time>
      </trkpt>
      <trkpt lat="40.242233" lon="-4.908667">
        <ele>1241.0</ele>
        <time>2015-08-02T11:42:17Z</time>
      </trkpt>
      <trkpt lat="40.242300" lon="-4.908400">
        <ele>1243.0</ele>
        <time>2015-08-02T11:42:19Z</time>
      </trkpt>
      <trkpt lat="40.242317" lon="-4.908183">
        <ele>1245.0</ele>
        <time>2015-08-02T11:42:21Z</time>
      </trkpt>
      <trkpt lat="40.242283" lon="-4.908033">
        <ele>1245.0</ele>
        <time>2015-08-02T11:42:23Z</time>
      </trkpt>
      <trkpt lat="40.242200" lon="-4.907900">
        <ele>1244.0</ele>
        <time>2015-08-02T11:42:25Z</time>
      </trkpt>
      <trkpt lat="40.242050" lon="-4.907850">
        <ele>1243.0</ele>
        <time>2015-08-02T11:42:27Z</time>
      </trkpt>
      <trkpt lat="40.241917" lon="-4.907933">
        <ele>1243.0</ele>
        <time>2015-08-02T11:42:29Z</time>
      </trkpt>
      <trkpt lat="40.241817" lon="-4.908067">
        <ele>1245.0</ele>
        <time>2015-08-02T11:42:31Z</time>
      </trkpt>
      <trkpt lat="40.241817" lon="-4.908267">
        <ele>1245.0</ele>
        <time>2015-08-02T11:42:33Z</time>
      </trkpt>
      <trkpt lat="40.241883" lon="-4.908450">
        <ele>1245.0</ele>
        <time>2015-08-02T11:42:35Z</time>
      </trkpt>
      <trkpt lat="40.242000" lon="-4.908583">
        <ele>1245.0</ele>
        <time>2015-08-02T11:42:37Z</time>
      </trkpt>
      <trkpt lat="40.242200" lon="-4.908633">
        <ele>1243.0</ele>
        <time>2015-08-02T11:42:39Z</time>
      </trkpt>
      <trkpt lat="40.242417" lon="-4.908600">
        <ele>1243.0</ele>
        <time>2015-08-02T11:42:41Z</time>
      </trkpt>
      <trkpt lat="40.242617" lon="-4.908550">
        <ele>1245.0</ele>
        <time>2015-08-02T11:42:43Z</time>
      </trkpt>
      <trkpt lat="40.242783" lon="-4.908450">
        <ele>1247.0</ele>
        <time>2015-08-02T11:42:45Z</time>
      </trkpt>
      <trkpt lat="40.242900" lon="-4.908283">
        <ele>1247.0</ele>
        <time>2015-08-02T11:42:47Z</time>
      </trkpt>
      <trkpt lat="40.243000" lon="-4.908100">
        <ele>1247.0</ele>
        <time>2015-08-02T11:42:49Z</time>
      </trkpt>
      <trkpt lat="40.243067" lon="-4.907883">
        <ele>1244.0</ele>
        <time>2015-08-02T11:42:51Z</time>
      </trkpt>
      <trkpt lat="40.243150" lon="-4.907633">
        <ele>1241.0</ele>
        <time>2015-08-02T11:42:53Z</time>
      </trkpt>
      <trkpt lat="40.243200" lon="-4.907400">
        <ele>1244.0</ele>
        <time>2015-08-02T11:42:55Z</time>
      </trkpt>
      <trkpt lat="40.243233" lon="-4.907233">
        <ele>1248.0</ele>
        <time>2015-08-02T11:42:57Z</time>
      </trkpt>
      <trkpt lat="40.243250" lon="-4.907083">
        <ele>1248.0</ele>
        <time>2015-08-02T11:42:59Z</time>
      </trkpt>
      <trkpt lat="40.243200" lon="-4.906967">
        <ele>1246.0</ele>
        <time>2015-08-02T11:43:01Z</time>
      </trkpt>
      <trkpt lat="40.243083" lon="-4.906933">
        <ele>1246.0</ele>
        <time>2015-08-02T11:43:03Z</time>
      </trkpt>
      <trkpt lat="40.242983" lon="-4.906933">
        <ele>1247.0</ele>
        <time>2015-08-02T11:43:05Z</time>
      </trkpt>
      <trkpt lat="40.242883" lon="-4.907033">
        <ele>1245.0</ele>
        <time>2015-08-02T11:43:07Z</time>
      </trkpt>
      <trkpt lat="40.242800" lon="-4.907233">
        <ele>1242.0</ele>
        <time>2015-08-02T11:43:09Z</time>
      </trkpt>
      <trkpt lat="40.242750" lon="-4.907450">
        <ele>1243.0</ele>
        <time>2015-08-02T11:43:11Z</time>
      </trkpt>
      <trkpt lat="40.242767" lon="-4.907617">
        <ele>1243.0</ele>
        <time>2015-08-02T11:43:13Z</time>
      </trkpt>
      <trkpt lat="40.242833" lon="-4.907783">
        <ele>1240.0</ele>
        <time>2015-08-02T11:43:15Z</time>
      </trkpt>
      <trkpt lat="40.242900" lon="-4.907967">
        <ele>1242.0</ele>
        <time>2015-08-02T11:43:17Z</time>
      </trkpt>
      <trkpt lat="40.242983" lon="-4.908117">
        <ele>1244.0</ele>
        <time>2015-08-02T11:43:19Z</time>
      </trkpt>
      <trkpt lat="40.243133" lon="-4.908233">
        <ele>1242.0</ele>
        <time>2015-08-02T11:43:21Z</time>
      </trkpt>
      <trkpt lat="40.243300" lon="-4.908367">
        <ele>1241.0</ele>
        <time>2015-08-02T11:43:23Z</time>
      </trkpt>
      <trkpt lat="40.243483" lon="-4.908450">
        <ele>1242.0</ele>
        <time>2015-08-02T11:43:25Z</time>
      </trkpt>
      <trkpt lat="40.243700" lon="-4.908467">
        <ele>1243.0</ele>
        <time>2015-08-02T11:43:27Z</time>
      </trkpt>
      <trkpt lat="40.243933" lon="-4.908467">
        <ele>1244.0</ele>
        <time>2015-08-02T11:43:29Z</time>
      </trkpt>
      <trkpt lat="40.244167" lon="-4.908533">
        <ele>1244.0</ele>
        <time>2015-08-02T11:43:31Z</time>
      </trkpt>
      <trkpt lat="40.244350" lon="-4.908700">
        <ele>1246.0</ele>
        <time>2015-08-02T11:43:33Z</time>
      </trkpt>
      <trkpt lat="40.244517" lon="-4.908867">
        <ele>1248.0</ele>
        <time>2015-08-02T11:43:35Z</time>
      </trkpt>
      <trkpt lat="40.244617" lon="-4.909100">
        <ele>1249.0</ele>
        <time>2015-08-02T11:43:37Z</time>
      </trkpt>
      <trkpt lat="40.244667" lon="-4.909350">
        <ele>1251.0</ele>
        <time>2015-08-02T11:43:39Z</time>
      </trkpt>
      <trkpt lat="40.244667" lon="-4.909600">
        <ele>1254.0</ele>
        <time>2015-08-02T11:43:41Z</time>
      </trkpt>
      <trkpt lat="40.244667" lon="-4.909867">
        <ele>1257.0</ele>
        <time>2015-08-02T11:43:43Z</time>
      </trkpt>
      <trkpt lat="40.244717" lon="-4.910067">
        <ele>1261.0</ele>
        <time>2015-08-02T11:43:45Z</time>
      </trkpt>
      <trkpt lat="40.244833" lon="-4.910200">
        <ele>1261.0</ele>
        <time>2015-08-02T11:43:47Z</time>
      </trkpt>
      <trkpt lat="40.245017" lon="-4.910233">
        <ele>1261.0</ele>
        <time>2015-08-02T11:43:49Z</time>
      </trkpt>
      <trkpt lat="40.245200" lon="-4.910117">
        <ele>1261.0</ele>
        <time>2015-08-02T11:43:51Z</time>
      </trkpt>
      <trkpt lat="40.245300" lon="-4.909950">
        <ele>1266.0</ele>
        <time>2015-08-02T11:43:53Z</time>
      </trkpt>
      <trkpt lat="40.245350" lon="-4.909783">
        <ele>1270.0</ele>
        <time>2015-08-02T11:43:55Z</time>
      </trkpt>
      <trkpt lat="40.245350" lon="-4.909600">
        <ele>1272.0</ele>
        <time>2015-08-02T11:43:57Z</time>
      </trkpt>
      <trkpt lat="40.245283" lon="-4.909450">
        <ele>1273.0</ele>
        <time>2015-08-02T11:43:59Z</time>
      </trkpt>
      <trkpt lat="40.245167" lon="-4.909367">
        <ele>1276.0</ele>
        <time>2015-08-02T11:44:01Z</time>
      </trkpt>
      <trkpt lat="40.245050" lon="-4.909350">
        <ele>1279.0</ele>
        <time>2015-08-02T11:44:03Z</time>
      </trkpt>
      <trkpt lat="40.244933" lon="-4.909433">
        <ele>1279.0</ele>
        <time>2015-08-02T11:44:05Z</time>
      </trkpt>
      <trkpt lat="40.244850" lon="-4.909650">
        <ele>1280.0</ele>
        <time>2015-08-02T11:44:07Z</time>
      </trkpt>
      <trkpt lat="40.244833" lon="-4.909850">
        <ele>1285.0</ele>
        <time>2015-08-02T11:44:09Z</time>
      </trkpt>
      <trkpt lat="40.244867" lon="-4.910017">
        <ele>1287.0</ele>
        <time>2015-08-02T11:44:11Z</time>
      </trkpt>
      <trkpt lat="40.244967" lon="-4.910133">
        <ele>1283.0</ele>
        <time>2015-08-02T11:44:13Z</time>
      </trkpt>
      <trkpt lat="40.245150" lon="-4.910200">
        <ele>1281.0</ele>
        <time>2015-08-02T11:44:15Z</time>
      </trkpt>
      <trkpt lat="40.245350" lon="-4.910117">
        <ele>1280.0</ele>
        <time>2015-08-02T11:44:17Z</time>
      </trkpt>
      <trkpt lat="40.245500" lon="-4.909983">
        <ele>1281.0</ele>
        <time>2015-08-02T11:44:19Z</time>
      </trkpt>
      <trkpt lat="40.245600" lon="-4.909833">
        <ele>1282.0</ele>
        <time>2015-08-02T11:44:21Z</time>
      </trkpt>
      <trkpt lat="40.245683" lon="-4.909633">
        <ele>1281.0</ele>
        <time>2015-08-02T11:44:23Z</time>
      </trkpt>
      <trkpt lat="40.245717" lon="-4.909400">
        <ele>1281.0</ele>
        <time>2015-08-02T11:44:25Z</time>
      </trkpt>
      <trkpt lat="40.245767" lon="-4.909183">
        <ele>1284.0</ele>
        <time>2015-08-02T11:44:27Z</time>
      </trkpt>
      <trkpt lat="40.245783" lon="-4.908983">
        <ele>1286.0</ele>
        <time>2015-08-02T11:44:29Z</time>
      </trkpt>
      <trkpt lat="40.245717" lon="-4.908817">
        <ele>1285.0</ele>
        <time>2015-08-02T11:44:31Z</time>
      </trkpt>
      <trkpt lat="40.245600" lon="-4.908683">
        <ele>1287.0</ele>
        <time>2015-08-02T11:44:33Z</time>
      </trkpt>
      <trkpt lat="40.245483" lon="-4.908633">
        <ele>1292.0</ele>
        <time>2015-08-02T11:44:35Z</time>
      </trkpt>
      <trkpt lat="40.245367" lon="-4.908667">
        <ele>1294.0</ele>
        <time>2015-08-02T11:44:37Z</time>
      </trkpt>
      <trkpt lat="40.245267" lon="-4.908783">
        <ele>1294.0</ele>
        <time>2015-08-02T11:44:39Z</time>
      </trkpt>
      <trkpt lat="40.245233" lon="-4.908983">
        <ele>1297.0</ele>
        <time>2015-08-02T11:44:41Z</time>
      </trkpt>
      <trkpt lat="40.245267" lon="-4.909150">
        <ele>1299.0</ele>
        <time>2015-08-02T11:44:43Z</time>
      </trkpt>
      <trkpt lat="40.245333" lon="-4.909300">
        <ele>1299.0</ele>
        <time>2015-08-02T11:44:45Z</time>
      </trkpt>
      <trkpt lat="40.245483" lon="-4.909450">
        <ele>1299.0</ele>
        <time>2015-08-02T11:44:47Z</time>
      </trkpt>
      <trkpt lat="40.245667" lon="-4.909517">
        <ele>1300.0</ele>
        <time>2015-08-02T11:44:49Z</time>
      </trkpt>
      <trkpt lat="40.245867" lon="-4.909483">
        <ele>1300.0</ele>
        <time>2015-08-02T11:44:51Z</time>
      </trkpt>
      <trkpt lat="40.246033" lon="-4.909367">
        <ele>1301.0</ele>
        <time>2015-08-02T11:44:53Z</time>
      </trkpt>
      <trkpt lat="40.246133" lon="-4.909167">
        <ele>1301.0</ele>
        <time>2015-08-02T11:44:55Z</time>
      </trkpt>
      <trkpt lat="40.246167" lon="-4.908967">
        <ele>1302.0</ele>
        <time>2015-08-02T11:44:57Z</time>
      </trkpt>
      <trkpt lat="40.246133" lon="-4.908767">
        <ele>1304.0</ele>
        <time>2015-08-02T11:44:59Z</time>
      </trkpt>
      <trkpt lat="40.246017" lon="-4.908650">
        <ele>1304.0</ele>
        <time>2015-08-02T11:45:01Z</time>
      </trkpt>
      <trkpt lat="40.245867" lon="-4.908633">
        <ele>1305.0</ele>
        <time>2015-08-02T11:45:03Z</time>
      </trkpt>
      <trkpt lat="40.245750" lon="-4.908683">
        <ele>1307.0</ele>
        <time>2015-08-02T11:45:05Z</time>
      </trkpt>
      <trkpt lat="40.245650" lon="-4.908800">
        <ele>1308.0</ele>
        <time>2015-08-02T11:45:07Z</time>
      </trkpt>
      <trkpt lat="40.245633" lon="-4.908967">
        <ele>1307.0</ele>
        <time>2015-08-02T11:45:09Z</time>
      </trkpt>
      <trkpt lat="40.245683" lon="-4.909150">
        <ele>1307.0</ele>
        <time>2015-08-02T11:45:11Z</time>
      </trkpt>
      <trkpt lat="40.245767" lon="-4.909317">
        <ele>1307.0</ele>
        <time>2015-08-02T11:45:13Z</time>
      </trkpt>
      <trkpt lat="40.245883" lon="-4.909450">
        <ele>1306.0</ele>
        <time>2015-08-02T11:45:15Z</time>
      </trkpt>
      <trkpt lat="40.246067" lon="-4.909533">
        <ele>1304.0</ele>
        <time>2015-08-02T11:45:17Z</time>
      </trkpt>
      <trkpt lat="40.246250" lon="-4.909550">
        <ele>1304.0</ele>
        <time>2015-08-02T11:45:19Z</time>
      </trkpt>
      <trkpt lat="40.246450" lon="-4.909500">
        <ele>1303.0</ele>
        <time>2015-08-02T11:45:21Z</time>
      </trkpt>
      <trkpt lat="40.246617" lon="-4.909400">
        <ele>1302.0</ele>
        <time>2015-08-02T11:45:23Z</time>
      </trkpt>
      <trkpt lat="40.246767" lon="-4.909233">
        <ele>1300.0</ele>
        <time>2015-08-02T11:45:25Z</time>
      </trkpt>
      <trkpt lat="40.246867" lon="-4.908983">
        <ele>1299.0</ele>
        <time>2015-08-02T11:45:27Z</time>
      </trkpt>
      <trkpt lat="40.246917" lon="-4.908750">
        <ele>1300.0</ele>
        <time>2015-08-02T11:45:29Z</time>
      </trkpt>
      <trkpt lat="40.246900" lon="-4.908517">
        <ele>1300.0</ele>
        <time>2015-08-02T11:45:31Z</time>
      </trkpt>
      <trkpt lat="40.246833" lon="-4.908300">
        <ele>1304.0</ele>
        <time>2015-08-02T11:45:33Z</time>
      </trkpt>
      <trkpt lat="40.246767" lon="-4.908150">
        <ele>1310.0</ele>
        <time>2015-08-02T11:45:35Z</time>
      </trkpt>
      <trkpt lat="40.246683" lon="-4.908033">
        <ele>1310.0</ele>
        <time>2015-08-02T11:45:37Z</time>
      </trkpt>
      <trkpt lat="40.246533" lon="-4.907983">
        <ele>1307.0</ele>
        <time>2015-08-02T11:45:39Z</time>
      </trkpt>
      <trkpt lat="40.246367" lon="-4.908083">
        <ele>1308.0</ele>
        <time>2015-08-02T11:45:41Z</time>
      </trkpt>
      <trkpt lat="40.246283" lon="-4.908167">
        <ele>1312.0</ele>
        <time>2015-08-02T11:45:43Z</time>
      </trkpt>
      <trkpt lat="40.246233" lon="-4.908283">
        <ele>1309.0</ele>
        <time>2015-08-02T11:45:45Z</time>
      </trkpt>
      <trkpt lat="40.246250" lon="-4.908483">
        <ele>1304.0</ele>
        <time>2015-08-02T11:45:47Z</time>
      </trkpt>
      <trkpt lat="40.246333" lon="-4.908633">
        <ele>1303.0</ele>
        <time>2015-08-02T11:45:49Z</time>
      </trkpt>
      <trkpt lat="40.246467" lon="-4.908733">
        <ele>1301.0</ele>
        <time>2015-08-02T11:45:51Z</time>
      </trkpt>
      <trkpt lat="40.246650" lon="-4.908850">
        <ele>1300.0</ele>
        <time>2015-08-02T11:45:53Z</time>
      </trkpt>
      <trkpt lat="40.246833" lon="-4.908950">
        <ele>1305.0</ele>
        <time>2015-08-02T11:45:55Z</time>
      </trkpt>
      <trkpt lat="40.246983" lon="-4.909017">
        <ele>1309.0</ele>
        <time>2015-08-02T11:45:57Z</time>
      </trkpt>
      <trkpt lat="40.247150" lon="-4.908983">
        <ele>1307.0</ele>
        <time>2015-08-02T11:45:59Z</time>
      </trkpt>
      <trkpt lat="40.247317" lon="-4.908800">
        <ele>1303.0</ele>
        <time>2015-08-02T11:46:01Z</time>
      </trkpt>
      <trkpt lat="40.247400" lon="-4.908550">
        <ele>1304.0</ele>
        <time>2015-08-02T11:46:03Z</time>
      </trkpt>
      <trkpt lat="40.247467" lon="-4.908333">
        <ele>1307.0</ele>
        <time>2015-08-02T11:46:05Z</time>
      </trkpt>
      <trkpt lat="40.247500" lon="-4.908117">
        <ele>1306.0</ele>
        <time>2015-08-02T11:46:07Z</time>
      </trkpt>
      <trkpt lat="40.247467" lon="-4.907883">
        <ele>1305.0</ele>
        <time>2015-08-02T11:46:09Z</time>
      </trkpt>
      <trkpt lat="40.247400" lon="-4.907683">
        <ele>1306.0</ele>
        <time>2015-08-02T11:46:11Z</time>
      </trkpt>
      <trkpt lat="40.247333" lon="-4.907500">
        <ele>1305.0</ele>
        <time>2015-08-02T11:46:13Z</time>
      </trkpt>
      <trkpt lat="40.247267" lon="-4.907283">
        <ele>1303.0</ele>
        <time>2015-08-02T11:46:15Z</time>
      </trkpt>
      <trkpt lat="40.247167" lon="-4.907117">
        <ele>1302.0</ele>
        <time>2015-08-02T11:46:17Z</time>
      </trkpt>
      <trkpt lat="40.247050" lon="-4.907033">
        <ele>1301.0</ele>
        <time>2015-08-02T11:46:19Z</time>
      </trkpt>
      <trkpt lat="40.246917" lon="-4.907083">
        <ele>1300.0</ele>
        <time>2015-08-02T11:46:21Z</time>
      </trkpt>
      <trkpt lat="40.246867" lon="-4.907250">
        <ele>1298.0</ele>
        <time>2015-08-02T11:46:23Z</time>
      </trkpt>
      <trkpt lat="40.246900" lon="-4.907433">
        <ele>1295.0</ele>
        <time>2015-08-02T11:46:25Z</time>
      </trkpt>
      <trkpt lat="40.246967" lon="-4.907583">
        <ele>1290.0</ele>
        <time>2015-08-02T11:46:27Z</time>
      </trkpt>
      <trkpt lat="40.247067" lon="-4.907783">
        <ele>1284.0</ele>
        <time>2015-08-02T11:46:29Z</time>
      </trkpt>
      <trkpt lat="40.247217" lon="-4.907983">
        <ele>1284.0</ele>
        <time>2015-08-02T11:46:31Z</time>
      </trkpt>
      <trkpt lat="40.247367" lon="-4.908100">
        <ele>1285.0</ele>
        <time>2015-08-02T11:46:33Z</time>
      </trkpt>
      <trkpt lat="40.247550" lon="-4.908183">
        <ele>1284.0</ele>
        <time>2015-08-02T11:46:35Z</time>
      </trkpt>
      <trkpt lat="40.247767" lon="-4.908217">
        <ele>1283.0</ele>
        <time>2015-08-02T11:46:37Z</time>
      </trkpt>
      <trkpt lat="40.247983" lon="-4.908150">
        <ele>1283.0</ele>
        <time>2015-08-02T11:46:39Z</time>
      </trkpt>
      <trkpt lat="40.248167" lon="-4.908000">
        <ele>1283.0</ele>
        <time>2015-08-02T11:46:41Z</time>
      </trkpt>
      <trkpt lat="40.248300" lon="-4.907800">
        <ele>1284.0</ele>
        <time>2015-08-02T11:46:43Z</time>
      </trkpt>
      <trkpt lat="40.248400" lon="-4.907550">
        <ele>1285.0</ele>
        <time>2015-08-02T11:46:45Z</time>
      </trkpt>
      <trkpt lat="40.248433" lon="-4.907317">
        <ele>1286.0</ele>
        <time>2015-08-02T11:46:47Z</time>
      </trkpt>
      <trkpt lat="40.248417" lon="-4.907117">
        <ele>1285.0</ele>
        <time>2015-08-02T11:46:49Z</time>
      </trkpt>
      <trkpt lat="40.248367" lon="-4.906900">
        <ele>1284.0</ele>
        <time>2015-08-02T11:46:51Z</time>
      </trkpt>
      <trkpt lat="40.248300" lon="-4.906717">
        <ele>1285.0</ele>
        <time>2015-08-02T11:46:53Z</time>
      </trkpt>
      <trkpt lat="40.248217" lon="-4.906567">
        <ele>1285.0</ele>
        <time>2015-08-02T11:46:55Z</time>
      </trkpt>
      <trkpt lat="40.248117" lon="-4.906433">
        <ele>1285.0</ele>
        <time>2015-08-02T11:46:57Z</time>
      </trkpt>
      <trkpt lat="40.248000" lon="-4.906333">
        <ele>1284.0</ele>
        <time>2015-08-02T11:46:59Z</time>
      </trkpt>
      <trkpt lat="40.247883" lon="-4.906283">
        <ele>1282.0</ele>
        <time>2015-08-02T11:47:01Z</time>
      </trkpt>
      <trkpt lat="40.247767" lon="-4.906300">
        <ele>1277.0</ele>
        <time>2015-08-02T11:47:03Z</time>
      </trkpt>
      <trkpt lat="40.247667" lon="-4.906333">
        <ele>1272.0</ele>
        <time>2015-08-02T11:47:05Z</time>
      </trkpt>
      <trkpt lat="40.247583" lon="-4.906417">
        <ele>1266.0</ele>
        <time>2015-08-02T11:47:07Z</time>
      </trkpt>
      <trkpt lat="40.247600" lon="-4.906600">
        <ele>1257.0</ele>
        <time>2015-08-02T11:47:09Z</time>
      </trkpt>
      <trkpt lat="40.247683" lon="-4.906817">
        <ele>1251.0</ele>
        <time>2015-08-02T11:47:11Z</time>
      </trkpt>
      <trkpt lat="40.247800" lon="-4.907000">
        <ele>1247.0</ele>
        <time>2015-08-02T11:47:13Z</time>
      </trkpt>
      <trkpt lat="40.247900" lon="-4.907167">
        <ele>1244.0</ele>
        <time>2015-08-02T11:47:15Z</time>
      </trkpt>
      <trkpt lat="40.248050" lon="-4.907333">
        <ele>1238.0</ele>
        <time>2015-08-02T11:47:17Z</time>
      </trkpt>
      <trkpt lat="40.248283" lon="-4.907433">
        <ele>1236.0</ele>
        <time>2015-08-02T11:47:19Z</time>
      </trkpt>
      <trkpt lat="40.248517" lon="-4.907483">
        <ele>1238.0</ele>
        <time>2015-08-02T11:47:21Z</time>
      </trkpt>
      <trkpt lat="40.248700" lon="-4.907550">
        <ele>1238.0</ele>
        <time>2015-08-02T11:47:23Z</time>
      </trkpt>
      <trkpt lat="40.248917" lon="-4.907600">
        <ele>1235.0</ele>
        <time>2015-08-02T11:47:25Z</time>
      </trkpt>
      <trkpt lat="40.249183" lon="-4.907567">
        <ele>1236.0</ele>
        <time>2015-08-02T11:47:27Z</time>
      </trkpt>
      <trkpt lat="40.249383" lon="-4.907467">
        <ele>1240.0</ele>
        <time>2015-08-02T11:47:29Z</time>
      </trkpt>
      <trkpt lat="40.249517" lon="-4.907283">
        <ele>1243.0</ele>
        <time>2015-08-02T11:47:31Z</time>
      </trkpt>
      <trkpt lat="40.249583" lon="-4.907050">
        <ele>1246.0</ele>
        <time>2015-08-02T11:47:33Z</time>
      </trkpt>
      <trkpt lat="40.249567" lon="-4.906850">
        <ele>1248.0</ele>
        <time>2015-08-02T11:47:35Z</time>
      </trkpt>
      <trkpt lat="40.249500" lon="-4.906717">
        <ele>1249.0</ele>
        <time>2015-08-02T11:47:37Z</time>
      </trkpt>
      <trkpt lat="40.249400" lon="-4.906650">
        <ele>1249.0</ele>
        <time>2015-08-02T11:47:39Z</time>
      </trkpt>
      <trkpt lat="40.249317" lon="-4.906667">
        <ele>1250.0</ele>
        <time>2015-08-02T11:47:41Z</time>
      </trkpt>
      <trkpt lat="40.249267" lon="-4.906767">
        <ele>1246.0</ele>
        <time>2015-08-02T11:47:43Z</time>
      </trkpt>
      <trkpt lat="40.249300" lon="-4.906917">
        <ele>1242.0</ele>
        <time>2015-08-02T11:47:45Z</time>
      </trkpt>
      <trkpt lat="40.249383" lon="-4.907117">
        <ele>1241.0</ele>
        <time>2015-08-02T11:47:47Z</time>
      </trkpt>
      <trkpt lat="40.249517" lon="-4.907283">
        <ele>1240.0</ele>
        <time>2015-08-02T11:47:49Z</time>
      </trkpt>
      <trkpt lat="40.249717" lon="-4.907400">
        <ele>1239.0</ele>
        <time>2015-08-02T11:47:51Z</time>
      </trkpt>
      <trkpt lat="40.249967" lon="-4.907433">
        <ele>1240.0</ele>
        <time>2015-08-02T11:47:53Z</time>
      </trkpt>
      <trkpt lat="40.250217" lon="-4.907367">
        <ele>1246.0</ele>
        <time>2015-08-02T11:47:55Z</time>
      </trkpt>
      <trkpt lat="40.250400" lon="-4.907250">
        <ele>1254.0</ele>
        <time>2015-08-02T11:47:57Z</time>
      </trkpt>
      <trkpt lat="40.250517" lon="-4.907050">
        <ele>1258.0</ele>
        <time>2015-08-02T11:47:59Z</time>
      </trkpt>
      <trkpt lat="40.250583" lon="-4.906767">
        <ele>1261.0</ele>
        <time>2015-08-02T11:48:01Z</time>
      </trkpt>
      <trkpt lat="40.250533" lon="-4.906550">
        <ele>1265.0</ele>
        <time>2015-08-02T11:48:03Z</time>
      </trkpt>
      <trkpt lat="40.250433" lon="-4.906433">
        <ele>1269.0</ele>
        <time>2015-08-02T11:48:05Z</time>
      </trkpt>
      <trkpt lat="40.250350" lon="-4.906417">
        <ele>1271.0</ele>
        <time>2015-08-02T11:48:07Z</time>
      </trkpt>
      <trkpt lat="40.250300" lon="-4.906517">
        <ele>1268.0</ele>
        <time>2015-08-02T11:48:09Z</time>
      </trkpt>
      <trkpt lat="40.250300" lon="-4.906683">
        <ele>1265.0</ele>
        <time>2015-08-02T11:48:11Z</time>
      </trkpt>
      <trkpt lat="40.250400" lon="-4.906883">
        <ele>1266.0</ele>
        <time>2015-08-02T11:48:13Z</time>
      </trkpt>
      <trkpt lat="40.250550" lon="-4.907033">
        <ele>1270.0</ele>
        <time>2015-08-02T11:48:15Z</time>
      </trkpt>
      <trkpt lat="40.250717" lon="-4.907117">
        <ele>1275.0</ele>
        <time>2015-08-02T11:48:17Z</time>
      </trkpt>
      <trkpt lat="40.250933" lon="-4.907150">
        <ele>1277.0</ele>
        <time>2015-08-02T11:48:19Z</time>
      </trkpt>
      <trkpt lat="40.251150" lon="-4.907017">
        <ele>1283.0</ele>
        <time>2015-08-02T11:48:21Z</time>
      </trkpt>
      <trkpt lat="40.251283" lon="-4.906833">
        <ele>1291.0</ele>
        <time>2015-08-02T11:48:23Z</time>
      </trkpt>
      <trkpt lat="40.251367" lon="-4.906633">
        <ele>1295.0</ele>
        <time>2015-08-02T11:48:25Z</time>
      </trkpt>
      <trkpt lat="40.251400" lon="-4.906367">
        <ele>1295.0</ele>
        <time>2015-08-02T11:48:27Z</time>
      </trkpt>
      <trkpt lat="40.251317" lon="-4.906183">
        <ele>1299.0</ele>
        <time>2015-08-02T11:48:29Z</time>
      </trkpt>
      <trkpt lat="40.251217" lon="-4.906150">
        <ele>1302.0</ele>
        <time>2015-08-02T11:48:31Z</time>
      </trkpt>
      <trkpt lat="40.251150" lon="-4.906167">
        <ele>1303.0</ele>
        <time>2015-08-02T11:48:33Z</time>
      </trkpt>
      <trkpt lat="40.251100" lon="-4.906283">
        <ele>1300.0</ele>
        <time>2015-08-02T11:48:35Z</time>
      </trkpt>
      <trkpt lat="40.251117" lon="-4.906483">
        <ele>1299.0</ele>
        <time>2015-08-02T11:48:37Z</time>
      </trkpt>
      <trkpt lat="40.251217" lon="-4.906667">
        <ele>1300.0</ele>
        <time>2015-08-02T11:48:39Z</time>
      </trkpt>
      <trkpt lat="40.251400" lon="-4.906833">
        <ele>1303.0</ele>
        <time>2015-08-02T11:48:41Z</time>
      </trkpt>
      <trkpt lat="40.251567" lon="-4.906967">
        <ele>1312.0</ele>
        <time>2015-08-02T11:48:43Z</time>
      </trkpt>
      <trkpt lat="40.251700" lon="-4.907033">
        <ele>1320.0</ele>
        <time>2015-08-02T11:48:45Z</time>
      </trkpt>
      <trkpt lat="40.251883" lon="-4.907017">
        <ele>1322.0</ele>
        <time>2015-08-02T11:48:47Z</time>
      </trkpt>
      <trkpt lat="40.252100" lon="-4.906867">
        <ele>1326.0</ele>
        <time>2015-08-02T11:48:49Z</time>
      </trkpt>
      <trkpt lat="40.252217" lon="-4.906650">
        <ele>1332.0</ele>
        <time>2015-08-02T11:48:51Z</time>
      </trkpt>
      <trkpt lat="40.252250" lon="-4.906450">
        <ele>1337.0</ele>
        <time>2015-08-02T11:48:53Z</time>
      </trkpt>
      <trkpt lat="40.252183" lon="-4.906250">
        <ele>1340.0</ele>
        <time>2015-08-02T11:48:55Z</time>
      </trkpt>
      <trkpt lat="40.252067" lon="-4.906200">
        <ele>1343.0</ele>
        <time>2015-08-02T11:48:57Z</time>
      </trkpt>
      <trkpt lat="40.252000" lon="-4.906283">
        <ele>1349.0</ele>
        <time>2015-08-02T11:48:59Z</time>
      </trkpt>
      <trkpt lat="40.251967" lon="-4.906400">
        <ele>1355.0</ele>
        <time>2015-08-02T11:49:01Z</time>
      </trkpt>
      <trkpt lat="40.251983" lon="-4.906517">
        <ele>1359.0</ele>
        <time>2015-08-02T11:49:03Z</time>
      </trkpt>
      <trkpt lat="40.252117" lon="-4.906650">
        <ele>1361.0</ele>
        <time>2015-08-02T11:49:05Z</time>
      </trkpt>
      <trkpt lat="40.252317" lon="-4.906683">
        <ele>1367.0</ele>
        <time>2015-08-02T11:49:07Z</time>
      </trkpt>
      <trkpt lat="40.252483" lon="-4.906567">
        <ele>1372.0</ele>
        <time>2015-08-02T11:49:09Z</time>
      </trkpt>
      <trkpt lat="40.252600" lon="-4.906333">
        <ele>1376.0</ele>
        <time>2015-08-02T11:49:11Z</time>
      </trkpt>
      <trkpt lat="40.252600" lon="-4.906100">
        <ele>1378.0</ele>
        <time>2015-08-02T11:49:13Z</time>
      </trkpt>
      <trkpt lat="40.252500" lon="-4.905933">
        <ele>1380.0</ele>
        <time>2015-08-02T11:49:15Z</time>
      </trkpt>
      <trkpt lat="40.252383" lon="-4.905900">
        <ele>1384.0</ele>
        <time>2015-08-02T11:49:17Z</time>
      </trkpt>
      <trkpt lat="40.252300" lon="-4.905933">
        <ele>1388.0</ele>
        <time>2015-08-02T11:49:19Z</time>
      </trkpt>
      <trkpt lat="40.252250" lon="-4.906050">
        <ele>1388.0</ele>
        <time>2015-08-02T11:49:21Z</time>
      </trkpt>
      <trkpt lat="40.252250" lon="-4.906250">
        <ele>1389.0</ele>
        <time>2015-08-02T11:49:23Z</time>
      </trkpt>
      <trkpt lat="40.252317" lon="-4.906400">
        <ele>1393.0</ele>
        <time>2015-08-02T11:49:25Z</time>
      </trkpt>
      <trkpt lat="40.252383" lon="-4.906533">
        <ele>1397.0</ele>
        <time>2015-08-02T11:49:27Z</time>
      </trkpt>
      <trkpt lat="40.252500" lon="-4.906617">
        <ele>1399.0</ele>
        <time>2015-08-02T11:49:29Z</time>
      </trkpt>
      <trkpt lat="40.252650" lon="-4.906683">
        <ele>1400.0</ele>
        <time>2015-08-02T11:49:31Z</time>
      </trkpt>
      <trkpt lat="40.252833" lon="-4.906667">
        <ele>1402.0</ele>
        <time>2015-08-02T11:49:33Z</time>
      </trkpt>
      <trkpt lat="40.253000" lon="-4.906500">
        <ele>1404.0</ele>
        <time>2015-08-02T11:49:35Z</time>
      </trkpt>
      <trkpt lat="40.253033" lon="-4.906233">
        <ele>1407.0</ele>
        <time>2015-08-02T11:49:37Z</time>
      </trkpt>
      <trkpt lat="40.252983" lon="-4.906000">
        <ele>1410.0</ele>
        <time>2015-08-02T11:49:39Z</time>
      </trkpt>
      <trkpt lat="40.252867" lon="-4.905867">
        <ele>1412.0</ele>
        <time>2015-08-02T11:49:41Z</time>
      </trkpt>
      <trkpt lat="40.252750" lon="-4.905833">
        <ele>1412.0</ele>
        <time>2015-08-02T11:49:43Z</time>
      </trkpt>
      <trkpt lat="40.252667" lon="-4.905900">
        <ele>1412.0</ele>
        <time>2015-08-02T11:49:45Z</time>
      </trkpt>
      <trkpt lat="40.252617" lon="-4.906017">
        <ele>1413.0</ele>
        <time>2015-08-02T11:49:47Z</time>
      </trkpt>
      <trkpt lat="40.252583" lon="-4.906150">
        <ele>1411.0</ele>
        <time>2015-08-02T11:49:49Z</time>
      </trkpt>
      <trkpt lat="40.252533" lon="-4.906267">
        <ele>1406.0</ele>
        <time>2015-08-02T11:49:51Z</time>
      </trkpt>
      <trkpt lat="40.252450" lon="-4.906400">
        <ele>1400.0</ele>
        <time>2015-08-02T11:49:53Z</time>
      </trkpt>
      <trkpt lat="40.252433" lon="-4.906600">
        <ele>1401.0</ele>
        <time>2015-08-02T11:49:55Z</time>
      </trkpt>
      <trkpt lat="40.252483" lon="-4.906717">
        <ele>1402.0</ele>
        <time>2015-08-02T11:49:57Z</time>
      </trkpt>
      <trkpt lat="40.252567" lon="-4.906867">
        <ele>1398.0</ele>
        <time>2015-08-02T11:49:59Z</time>
      </trkpt>
      <trkpt lat="40.252683" lon="-4.907033">
        <ele>1395.0</ele>
        <time>2015-08-02T11:50:01Z</time>
      </trkpt>
      <trkpt lat="40.252833" lon="-4.907167">
        <ele>1395.0</ele>
        <time>2015-08-02T11:50:03Z</time>
      </trkpt>
      <trkpt lat="40.252950" lon="-4.907267">
        <ele>1392.0</ele>
        <time>2015-08-02T11:50:05Z</time>
      </trkpt>
      <trkpt lat="40.253117" lon="-4.907367">
        <ele>1384.0</ele>
        <time>2015-08-02T11:50:07Z</time>
      </trkpt>
      <trkpt lat="40.253333" lon="-4.907533">
        <ele>1382.0</ele>
        <time>2015-08-02T11:50:09Z</time>
      </trkpt>
      <trkpt lat="40.253483" lon="-4.907650">
        <ele>1387.0</ele>
        <time>2015-08-02T11:50:11Z</time>
      </trkpt>
      <trkpt lat="40.253650" lon="-4.907733">
        <ele>1388.0</ele>
        <time>2015-08-02T11:50:13Z</time>
      </trkpt>
      <trkpt lat="40.253867" lon="-4.907783">
        <ele>1390.0</ele>
        <time>2015-08-02T11:50:15Z</time>
      </trkpt>
      <trkpt lat="40.254050" lon="-4.907667">
        <ele>1392.0</ele>
        <time>2015-08-02T11:50:17Z</time>
      </trkpt>
      <trkpt lat="40.254167" lon="-4.907433">
        <ele>1391.0</ele>
        <time>2015-08-02T11:50:19Z</time>
      </trkpt>
      <trkpt lat="40.254167" lon="-4.907150">
        <ele>1390.0</ele>
        <time>2015-08-02T11:50:21Z</time>
      </trkpt>
      <trkpt lat="40.254067" lon="-4.906983">
        <ele>1390.0</ele>
        <time>2015-08-02T11:50:23Z</time>
      </trkpt>
      <trkpt lat="40.253933" lon="-4.906917">
        <ele>1390.0</ele>
        <time>2015-08-02T11:50:25Z</time>
      </trkpt>
      <trkpt lat="40.253817" lon="-4.906933">
        <ele>1389.0</ele>
        <time>2015-08-02T11:50:27Z</time>
      </trkpt>
      <trkpt lat="40.253733" lon="-4.907033">
        <ele>1386.0</ele>
        <time>2015-08-02T11:50:29Z</time>
      </trkpt>
      <trkpt lat="40.253700" lon="-4.907167">
        <ele>1386.0</ele>
        <time>2015-08-02T11:50:31Z</time>
      </trkpt>
      <trkpt lat="40.253700" lon="-4.907317">
        <ele>1384.0</ele>
        <time>2015-08-02T11:50:33Z</time>
      </trkpt>
      <trkpt lat="40.253767" lon="-4.907500">
        <ele>1382.0</ele>
        <time>2015-08-02T11:50:35Z</time>
      </trkpt>
      <trkpt lat="40.253850" lon="-4.907700">
        <ele>1383.0</ele>
        <time>2015-08-02T11:50:37Z</time>
      </trkpt>
      <trkpt lat="40.253933" lon="-4.907867">
        <ele>1385.0</ele>
        <time>2015-08-02T11:50:39Z</time>
      </trkpt>
      <trkpt lat="40.254000" lon="-4.908083">
        <ele>1383.0</ele>
        <time>2015-08-02T11:50:41Z</time>
      </trkpt>
      <trkpt lat="40.254067" lon="-4.908333">
        <ele>1384.0</ele>
        <time>2015-08-02T11:50:43Z</time>
      </trkpt>
      <trkpt lat="40.254117" lon="-4.908583">
        <ele>1391.0</ele>
        <time>2015-08-02T11:50:45Z</time>
      </trkpt>
      <trkpt lat="40.254133" lon="-4.908783">
        <ele>1399.0</ele>
        <time>2015-08-02T11:50:47Z</time>
      </trkpt>
      <trkpt lat="40.254167" lon="-4.908983">
        <ele>1402.0</ele>
        <time>2015-08-02T11:50:49Z</time>
      </trkpt>
      <trkpt lat="40.254350" lon="-4.909133">
        <ele>1402.0</ele>
        <time>2015-08-02T11:50:51Z</time>
      </trkpt>
      <trkpt lat="40.254567" lon="-4.909200">
        <ele>1405.0</ele>
        <time>2015-08-02T11:50:53Z</time>
      </trkpt>
      <trkpt lat="40.254750" lon="-4.909133">
        <ele>1408.0</ele>
        <time>2015-08-02T11:50:55Z</time>
      </trkpt>
      <trkpt lat="40.254900" lon="-4.908933">
        <ele>1409.0</ele>
        <time>2015-08-02T11:50:57Z</time>
      </trkpt>
      <trkpt lat="40.254917" lon="-4.908700">
        <ele>1414.0</ele>
        <time>2015-08-02T11:50:59Z</time>
      </trkpt>
      <trkpt lat="40.254850" lon="-4.908550">
        <ele>1421.0</ele>
        <time>2015-08-02T11:51:01Z</time>
      </trkpt>
      <trkpt lat="40.254783" lon="-4.908467">
        <ele>1430.0</ele>
        <time>2015-08-02T11:51:03Z</time>
      </trkpt>
      <trkpt lat="40.254700" lon="-4.908500">
        <ele>1436.0</ele>
        <time>2015-08-02T11:51:05Z</time>
      </trkpt>
      <trkpt lat="40.254633" lon="-4.908633">
        <ele>1441.0</ele>
        <time>2015-08-02T11:51:07Z</time>
      </trkpt>
      <trkpt lat="40.254650" lon="-4.908800">
        <ele>1444.0</ele>
        <time>2015-08-02T11:51:09Z</time>
      </trkpt>
      <trkpt lat="40.254733" lon="-4.908967">
        <ele>1446.0</ele>
        <time>2015-08-02T11:51:11Z</time>
      </trkpt>
      <trkpt lat="40.254850" lon="-4.909117">
        <ele>1448.0</ele>
        <time>2015-08-02T11:51:13Z</time>
      </trkpt>
      <trkpt lat="40.255033" lon="-4.909217">
        <ele>1447.0</ele>
        <time>2015-08-02T11:51:15Z</time>
      </trkpt>
      <trkpt lat="40.255300" lon="-4.909167">
        <ele>1447.0</ele>
        <time>2015-08-02T11:51:17Z</time>
      </trkpt>
      <trkpt lat="40.255467" lon="-4.909017">
        <ele>1452.0</ele>
        <time>2015-08-02T11:51:19Z</time>
      </trkpt>
      <trkpt lat="40.255567" lon="-4.908833">
        <ele>1454.0</ele>
        <time>2015-08-02T11:51:21Z</time>
      </trkpt>
      <trkpt lat="40.255633" lon="-4.908567">
        <ele>1452.0</ele>
        <time>2015-08-02T11:51:23Z</time>
      </trkpt>
      <trkpt lat="40.255650" lon="-4.908300">
        <ele>1457.0</ele>
        <time>2015-08-02T11:51:25Z</time>
      </trkpt>
      <trkpt lat="40.255583" lon="-4.908150">
        <ele>1464.0</ele>
        <time>2015-08-02T11:51:27Z</time>
      </trkpt>
      <trkpt lat="40.255517" lon="-4.908050">
        <ele>1471.0</ele>
        <time>2015-08-02T11:51:29Z</time>
      </trkpt>
      <trkpt lat="40.255433" lon="-4.908017">
        <ele>1475.0</ele>
        <time>2015-08-02T11:51:31Z</time>
      </trkpt>
      <trkpt lat="40.255317" lon="-4.908100">
        <ele>1480.0</ele>
        <time>2015-08-02T11:51:33Z</time>
      </trkpt>
      <trkpt lat="40.255283" lon="-4.908233">
        <ele>1487.0</ele>
        <time>2015-08-02T11:51:35Z</time>
      </trkpt>
      <trkpt lat="40.255317" lon="-4.908400">
        <ele>1493.0</ele>
        <time>2015-08-02T11:51:37Z</time>
      </trkpt>
      <trkpt lat="40.255417" lon="-4.908550">
        <ele>1500.0</ele>
        <time>2015-08-02T11:51:39Z</time>
      </trkpt>
      <trkpt lat="40.255583" lon="-4.908617">
        <ele>1506.0</ele>
        <time>2015-08-02T11:51:41Z</time>
      </trkpt>
      <trkpt lat="40.255800" lon="-4.908600">
        <ele>1508.0</ele>
        <time>2015-08-02T11:51:43Z</time>
      </trkpt>
      <trkpt lat="40.256017" lon="-4.908450">
        <ele>1510.0</ele>
        <time>2015-08-02T11:51:45Z</time>
      </trkpt>
      <trkpt lat="40.256183" lon="-4.908200">
        <ele>1514.0</ele>
        <time>2015-08-02T11:51:47Z</time>
      </trkpt>
      <trkpt lat="40.256233" lon="-4.907950">
        <ele>1518.0</ele>
        <time>2015-08-02T11:51:49Z</time>
      </trkpt>
      <trkpt lat="40.256167" lon="-4.907750">
        <ele>1524.0</ele>
        <time>2015-08-02T11:51:51Z</time>
      </trkpt>
      <trkpt lat="40.256067" lon="-4.907667">
        <ele>1534.0</ele>
        <time>2015-08-02T11:51:53Z</time>
      </trkpt>
      <trkpt lat="40.255983" lon="-4.907700">
        <ele>1542.0</ele>
        <time>2015-08-02T11:51:55Z</time>
      </trkpt>
      <trkpt lat="40.255933" lon="-4.907817">
        <ele>1548.0</ele>
        <time>2015-08-02T11:51:57Z</time>
      </trkpt>
      <trkpt lat="40.255967" lon="-4.908000">
        <ele>1553.0</ele>
        <time>2015-08-02T11:51:59Z</time>
      </trkpt>
      <trkpt lat="40.256117" lon="-4.908150">
        <ele>1560.0</ele>
        <time>2015-08-02T11:52:01Z</time>
      </trkpt>
      <trkpt lat="40.256317" lon="-4.908150">
        <ele>1565.0</ele>
        <time>2015-08-02T11:52:03Z</time>
      </trkpt>
      <trkpt lat="40.256517" lon="-4.908150">
        <ele>1569.0</ele>
        <time>2015-08-02T11:52:05Z</time>
      </trkpt>
      <trkpt lat="40.256733" lon="-4.908050">
        <ele>1571.0</ele>
        <time>2015-08-02T11:52:07Z</time>
      </trkpt>
      <trkpt lat="40.256883" lon="-4.907833">
        <ele>1574.0</ele>
        <time>2015-08-02T11:52:09Z</time>
      </trkpt>
      <trkpt lat="40.256917" lon="-4.907583">
        <ele>1578.0</ele>
        <time>2015-08-02T11:52:11Z</time>
      </trkpt>
      <trkpt lat="40.256867" lon="-4.907350">
        <ele>1584.0</ele>
        <time>2015-08-02T11:52:13Z</time>
      </trkpt>
      <trkpt lat="40.256783" lon="-4.907217">
        <ele>1594.0</ele>
        <time>2015-08-02T11:52:15Z</time>
      </trkpt>
      <trkpt lat="40.256700" lon="-4.907217">
        <ele>1602.0</ele>
        <time>2015-08-02T11:52:17Z</time>
      </trkpt>
      <trkpt lat="40.256617" lon="-4.907317">
        <ele>1608.0</ele>
        <time>2015-08-02T11:52:19Z</time>
      </trkpt>
      <trkpt lat="40.256583" lon="-4.907483">
        <ele>1613.0</ele>
        <time>2015-08-02T11:52:21Z</time>
      </trkpt>
      <trkpt lat="40.256650" lon="-4.907617">
        <ele>1618.0</ele>
        <time>2015-08-02T11:52:23Z</time>
      </trkpt>
      <trkpt lat="40.256783" lon="-4.907667">
        <ele>1617.0</ele>
        <time>2015-08-02T11:52:25Z</time>
      </trkpt>
      <trkpt lat="40.256983" lon="-4.907617">
        <ele>1613.0</ele>
        <time>2015-08-02T11:52:27Z</time>
      </trkpt>
      <trkpt lat="40.257233" lon="-4.907383">
        <ele>1611.0</ele>
        <time>2015-08-02T11:52:29Z</time>
      </trkpt>
      <trkpt lat="40.257367" lon="-4.907083">
        <ele>1616.0</ele>
        <time>2015-08-02T11:52:31Z</time>
      </trkpt>
      <trkpt lat="40.257433" lon="-4.906850">
        <ele>1628.0</ele>
        <time>2015-08-02T11:52:33Z</time>
      </trkpt>
      <trkpt lat="40.257450" lon="-4.906667">
        <ele>1633.0</ele>
        <time>2015-08-02T11:52:35Z</time>
      </trkpt>
      <trkpt lat="40.257383" lon="-4.906467">
        <ele>1639.0</ele>
        <time>2015-08-02T11:52:37Z</time>
      </trkpt>
      <trkpt lat="40.257283" lon="-4.906367">
        <ele>1648.0</ele>
        <time>2015-08-02T11:52:39Z</time>
      </trkpt>
      <trkpt lat="40.257217" lon="-4.906400">
        <ele>1654.0</ele>
        <time>2015-08-02T11:52:41Z</time>
      </trkpt>
      <trkpt lat="40.257150" lon="-4.906500">
        <ele>1661.0</ele>
        <time>2015-08-02T11:52:43Z</time>
      </trkpt>
      <trkpt lat="40.257183" lon="-4.906617">
        <ele>1665.0</ele>
        <time>2015-08-02T11:52:45Z</time>
      </trkpt>
      <trkpt lat="40.257317" lon="-4.906717">
        <ele>1664.0</ele>
        <time>2015-08-02T11:52:47Z</time>
      </trkpt>
      <trkpt lat="40.257533" lon="-4.906683">
        <ele>1665.0</ele>
        <time>2015-08-02T11:52:49Z</time>
      </trkpt>
      <trkpt lat="40.257700" lon="-4.906500">
        <ele>1667.0</ele>
        <time>2015-08-02T11:52:51Z</time>
      </trkpt>
      <trkpt lat="40.257833" lon="-4.906267">
        <ele>1670.0</ele>
        <time>2015-08-02T11:52:53Z</time>
      </trkpt>
      <trkpt lat="40.257917" lon="-4.905967">
        <ele>1673.0</ele>
        <time>2015-08-02T11:52:55Z</time>
      </trkpt>
      <trkpt lat="40.257950" lon="-4.905667">
        <ele>1680.0</ele>
        <time>2015-08-02T11:52:57Z</time>
      </trkpt>
      <trkpt lat="40.257933" lon="-4.905433">
        <ele>1687.0</ele>
        <time>2015-08-02T11:52:59Z</time>
      </trkpt>
      <trkpt lat="40.257850" lon="-4.905283">
        <ele>1693.0</ele>
        <time>2015-08-02T11:53:01Z</time>
      </trkpt>
      <trkpt lat="40.257750" lon="-4.905250">
        <ele>1701.0</ele>
        <time>2015-08-02T11:53:03Z</time>
      </trkpt>
      <trkpt lat="40.257700" lon="-4.905317">
        <ele>1708.0</ele>
        <time>2015-08-02T11:53:05Z</time>
      </trkpt>
      <trkpt lat="40.257733" lon="-4.905433">
        <ele>1716.0</ele>
        <time>2015-08-02T11:53:07Z</time>
      </trkpt>
      <trkpt lat="40.257817" lon="-4.905550">
        <ele>1721.0</ele>
        <time>2015-08-02T11:53:09Z</time>
      </trkpt>
      <trkpt lat="40.257967" lon="-4.905583">
        <ele>1721.0</ele>
        <time>2015-08-02T11:53:11Z</time>
      </trkpt>
      <trkpt lat="40.258183" lon="-4.905533">
        <ele>1721.0</ele>
        <time>2015-08-02T11:53:13Z</time>
      </trkpt>
      <trkpt lat="40.258383" lon="-4.905333">
        <ele>1723.0</ele>
        <time>2015-08-02T11:53:15Z</time>
      </trkpt>
      <trkpt lat="40.258517" lon="-4.905067">
        <ele>1729.0</ele>
        <time>2015-08-02T11:53:17Z</time>
      </trkpt>
      <trkpt lat="40.258567" lon="-4.904817">
        <ele>1735.0</ele>
        <time>2015-08-02T11:53:19Z</time>
      </trkpt>
      <trkpt lat="40.258517" lon="-4.904567">
        <ele>1739.0</ele>
        <time>2015-08-02T11:53:21Z</time>
      </trkpt>
      <trkpt lat="40.258417" lon="-4.904383">
        <ele>1746.0</ele>
        <time>2015-08-02T11:53:23Z</time>
      </trkpt>
      <trkpt lat="40.258317" lon="-4.904333">
        <ele>1754.0</ele>
        <time>2015-08-02T11:53:25Z</time>
      </trkpt>
      <trkpt lat="40.258217" lon="-4.904383">
        <ele>1760.0</ele>
        <time>2015-08-02T11:53:27Z</time>
      </trkpt>
      <trkpt lat="40.258183" lon="-4.904517">
        <ele>1766.0</ele>
        <time>2015-08-02T11:53:29Z</time>
      </trkpt>
      <trkpt lat="40.258217" lon="-4.904667">
        <ele>1775.0</ele>
        <time>2015-08-02T11:53:31Z</time>
      </trkpt>
      <trkpt lat="40.258333" lon="-4.904683">
        <ele>1778.0</ele>
        <time>2015-08-02T11:53:33Z</time>
      </trkpt>
      <trkpt lat="40.258500" lon="-4.904667">
        <ele>1774.0</ele>
        <time>2015-08-02T11:53:35Z</time>
      </trkpt>
      <trkpt lat="40.258717" lon="-4.904633">
        <ele>1773.0</ele>
        <time>2015-08-02T11:53:37Z</time>
      </trkpt>
      <trkpt lat="40.258933" lon="-4.904450">
        <ele>1773.0</ele>
        <time>2015-08-02T11:53:39Z</time>
      </trkpt>
      <trkpt lat="40.259133" lon="-4.904183">
        <ele>1776.0</ele>
        <time>2015-08-02T11:53:41Z</time>
      </trkpt>
      <trkpt lat="40.259317" lon="-4.903917">
        <ele>1782.0</ele>
        <time>2015-08-02T11:53:43Z</time>
      </trkpt>
      <trkpt lat="40.259417" lon="-4.903667">
        <ele>1788.0</ele>
        <time>2015-08-02T11:53:45Z</time>
      </trkpt>
      <trkpt lat="40.259400" lon="-4.903383">
        <ele>1791.0</ele>
        <time>2015-08-02T11:53:47Z</time>
      </trkpt>
      <trkpt lat="40.259333" lon="-4.903167">
        <ele>1801.0</ele>
        <time>2015-08-02T11:53:49Z</time>
      </trkpt>
      <trkpt lat="40.259333" lon="-4.903000">
        <ele>1806.0</ele>
        <time>2015-08-02T11:53:51Z</time>
      </trkpt>
      <trkpt lat="40.259250" lon="-4.902817">
        <ele>1806.0</ele>
        <time>2015-08-02T11:53:53Z</time>
      </trkpt>
      <trkpt lat="40.259100" lon="-4.902667">
        <ele>1812.0</ele>
        <time>2015-08-02T11:53:55Z</time>
      </trkpt>
      <trkpt lat="40.259033" lon="-4.902733">
        <ele>1817.0</ele>
        <time>2015-08-02T11:53:57Z</time>
      </trkpt>
      <trkpt lat="40.259067" lon="-4.902883">
        <ele>1820.0</ele>
        <time>2015-08-02T11:53:59Z</time>
      </trkpt>
      <trkpt lat="40.259167" lon="-4.903000">
        <ele>1825.0</ele>
        <time>2015-08-02T11:54:01Z</time>
      </trkpt>
      <trkpt lat="40.259367" lon="-4.903050">
        <ele>1829.0</ele>
        <time>2015-08-02T11:54:03Z</time>
      </trkpt>
      <trkpt lat="40.259617" lon="-4.902950">
        <ele>1832.0</ele>
        <time>2015-08-02T11:54:05Z</time>
      </trkpt>
      <trkpt lat="40.259800" lon="-4.902717">
        <ele>1837.0</ele>
        <time>2015-08-02T11:54:07Z</time>
      </trkpt>
      <trkpt lat="40.259867" lon="-4.902433">
        <ele>1845.0</ele>
        <time>2015-08-02T11:54:09Z</time>
      </trkpt>
      <trkpt lat="40.259850" lon="-4.902217">
        <ele>1849.0</ele>
        <time>2015-08-02T11:54:11Z</time>
      </trkpt>
      <trkpt lat="40.259833" lon="-4.902000">
        <ele>1851.0</ele>
        <time>2015-08-02T11:54:13Z</time>
      </trkpt>
      <trkpt lat="40.259717" lon="-4.901867">
        <ele>1852.0</ele>
        <time>2015-08-02T11:54:15Z</time>
      </trkpt>
      <trkpt lat="40.259583" lon="-4.901850">
        <ele>1856.0</ele>
        <time>2015-08-02T11:54:17Z</time>
      </trkpt>
      <trkpt lat="40.259533" lon="-4.901917">
        <ele>1862.0</ele>
        <time>2015-08-02T11:54:19Z</time>
      </trkpt>
      <trkpt lat="40.259550" lon="-4.902033">
        <ele>1864.0</ele>
        <time>2015-08-02T11:54:21Z</time>
      </trkpt>
      <trkpt lat="40.259617" lon="-4.902183">
        <ele>1868.0</ele>
        <time>2015-08-02T11:54:23Z</time>
      </trkpt>
      <trkpt lat="40.259750" lon="-4.902300">
        <ele>1871.0</ele>
        <time>2015-08-02T11:54:25Z</time>
      </trkpt>
      <trkpt lat="40.260000" lon="-4.902250">
        <ele>1870.0</ele>
        <time>2015-08-02T11:54:27Z</time>
      </trkpt>
      <trkpt lat="40.260233" lon="-4.901983">
        <ele>1872.0</ele>
        <time>2015-08-02T11:54:29Z</time>
      </trkpt>
      <trkpt lat="40.260317" lon="-4.901667">
        <ele>1877.0</ele>
        <time>2015-08-02T11:54:31Z</time>
      </trkpt>
      <trkpt lat="40.260300" lon="-4.901400">
        <ele>1884.0</ele>
        <time>2015-08-02T11:54:33Z</time>
      </trkpt>
      <trkpt lat="40.260217" lon="-4.901217">
        <ele>1885.0</ele>
        <time>2015-08-02T11:54:35Z</time>
      </trkpt>
      <trkpt lat="40.260083" lon="-4.901133">
        <ele>1888.0</ele>
        <time>2015-08-02T11:54:37Z</time>
      </trkpt>
      <trkpt lat="40.259983" lon="-4.901100">
        <ele>1893.0</ele>
        <time>2015-08-02T11:54:39Z</time>
      </trkpt>
      <trkpt lat="40.259900" lon="-4.901100">
        <ele>1896.0</ele>
        <time>2015-08-02T11:54:41Z</time>
      </trkpt>
      <trkpt lat="40.259817" lon="-4.901167">
        <ele>1901.0</ele>
        <time>2015-08-02T11:54:43Z</time>
      </trkpt>
      <trkpt lat="40.259783" lon="-4.901267">
        <ele>1908.0</ele>
        <time>2015-08-02T11:54:45Z</time>
      </trkpt>
      <trkpt lat="40.259817" lon="-4.901400">
        <ele>1913.0</ele>
        <time>2015-08-02T11:54:47Z</time>
      </trkpt>
      <trkpt lat="40.259900" lon="-4.901533">
        <ele>1914.0</ele>
        <time>2015-08-02T11:54:49Z</time>
      </trkpt>
      <trkpt lat="40.260083" lon="-4.901617">
        <ele>1914.0</ele>
        <time>2015-08-02T11:54:51Z</time>
      </trkpt>
      <trkpt lat="40.260317" lon="-4.901550">
        <ele>1913.0</ele>
        <time>2015-08-02T11:54:53Z</time>
      </trkpt>
      <trkpt lat="40.260517" lon="-4.901350">
        <ele>1912.0</ele>
        <time>2015-08-02T11:54:55Z</time>
      </trkpt>
      <trkpt lat="40.260683" lon="-4.901050">
        <ele>1910.0</ele>
        <time>2015-08-02T11:54:57Z</time>
      </trkpt>
      <trkpt lat="40.260767" lon="-4.900717">
        <ele>1912.0</ele>
        <time>2015-08-02T11:54:59Z</time>
      </trkpt>
      <trkpt lat="40.260800" lon="-4.900383">
        <ele>1914.0</ele>
        <time>2015-08-02T11:55:01Z</time>
      </trkpt>
      <trkpt lat="40.260850" lon="-4.900067">
        <ele>1916.0</ele>
        <time>2015-08-02T11:55:03Z</time>
      </trkpt>
      <trkpt lat="40.260867" lon="-4.899733">
        <ele>1918.0</ele>
        <time>2015-08-02T11:55:05Z</time>
      </trkpt>
      <trkpt lat="40.260833" lon="-4.899417">
        <ele>1919.0</ele>
        <time>2015-08-02T11:55:07Z</time>
      </trkpt>
      <trkpt lat="40.260800" lon="-4.899100">
        <ele>1921.0</ele>
        <time>2015-08-02T11:55:09Z</time>
      </trkpt>
      <trkpt lat="40.260750" lon="-4.898850">
        <ele>1923.0</ele>
        <time>2015-08-02T11:55:11Z</time>
      </trkpt>
      <trkpt lat="40.260633" lon="-4.898733">
        <ele>1925.0</ele>
        <time>2015-08-02T11:55:13Z</time>
      </trkpt>
      <trkpt lat="40.260533" lon="-4.898717">
        <ele>1927.0</ele>
        <time>2015-08-02T11:55:15Z</time>
      </trkpt>
      <trkpt lat="40.260500" lon="-4.898767">
        <ele>1928.0</ele>
        <time>2015-08-02T11:55:17Z</time>
      </trkpt>
      <trkpt lat="40.260500" lon="-4.898900">
        <ele>1928.0</ele>
        <time>2015-08-02T11:55:19Z</time>
      </trkpt>
      <trkpt lat="40.260567" lon="-4.899033">
        <ele>1930.0</ele>
        <time>2015-08-02T11:55:21Z</time>
      </trkpt>
      <trkpt lat="40.260717" lon="-4.899133">
        <ele>1930.0</ele>
        <time>2015-08-02T11:55:23Z</time>
      </trkpt>
      <trkpt lat="40.260933" lon="-4.899183">
        <ele>1930.0</ele>
        <time>2015-08-02T11:55:25Z</time>
      </trkpt>
      <trkpt lat="40.261167" lon="-4.899117">
        <ele>1932.0</ele>
        <time>2015-08-02T11:55:27Z</time>
      </trkpt>
      <trkpt lat="40.261367" lon="-4.898933">
        <ele>1933.0</ele>
        <time>2015-08-02T11:55:29Z</time>
      </trkpt>
      <trkpt lat="40.261567" lon="-4.898667">
        <ele>1934.0</ele>
        <time>2015-08-02T11:55:31Z</time>
      </trkpt>
      <trkpt lat="40.261683" lon="-4.898350">
        <ele>1937.0</ele>
        <time>2015-08-02T11:55:33Z</time>
      </trkpt>
      <trkpt lat="40.261717" lon="-4.898067">
        <ele>1938.0</ele>
        <time>2015-08-02T11:55:35Z</time>
      </trkpt>
      <trkpt lat="40.261683" lon="-4.897750">
        <ele>1935.0</ele>
        <time>2015-08-02T11:55:37Z</time>
      </trkpt>
      <trkpt lat="40.261550" lon="-4.897517">
        <ele>1934.0</ele>
        <time>2015-08-02T11:55:39Z</time>
      </trkpt>
      <trkpt lat="40.261400" lon="-4.897417">
        <ele>1936.0</ele>
        <time>2015-08-02T11:55:41Z</time>
      </trkpt>
      <trkpt lat="40.261317" lon="-4.897417">
        <ele>1940.0</ele>
        <time>2015-08-02T11:55:43Z</time>
      </trkpt>
      <trkpt lat="40.261250" lon="-4.897450">
        <ele>1939.0</ele>
        <time>2015-08-02T11:55:45Z</time>
      </trkpt>
      <trkpt lat="40.261150" lon="-4.897500">
        <ele>1938.0</ele>
        <time>2015-08-02T11:55:47Z</time>
      </trkpt>
      <trkpt lat="40.261083" lon="-4.897550">
        <ele>1939.0</ele>
        <time>2015-08-02T11:55:49Z</time>
      </trkpt>
      <trkpt lat="40.261017" lon="-4.897600">
        <ele>1938.0</ele>
        <time>2015-08-02T11:55:51Z</time>
      </trkpt>
      <trkpt lat="40.260967" lon="-4.897683">
        <ele>1937.0</ele>
        <time>2015-08-02T11:55:53Z</time>
      </trkpt>
      <trkpt lat="40.260900" lon="-4.897750">
        <ele>1937.0</ele>
        <time>2015-08-02T11:55:55Z</time>
      </trkpt>
      <trkpt lat="40.260833" lon="-4.897800">
        <ele>1936.0</ele>
        <time>2015-08-02T11:55:57Z</time>
      </trkpt>
      <trkpt lat="40.260767" lon="-4.897867">
        <ele>1935.0</ele>
        <time>2015-08-02T11:55:59Z</time>
      </trkpt>
      <trkpt lat="40.260683" lon="-4.897933">
        <ele>1935.0</ele>
        <time>2015-08-02T11:56:01Z</time>
      </trkpt>
      <trkpt lat="40.260617" lon="-4.898000">
        <ele>1935.0</ele>
        <time>2015-08-02T11:56:03Z</time>
      </trkpt>
      <trkpt lat="40.260550" lon="-4.898100">
        <ele>1934.0</ele>
        <time>2015-08-02T11:56:05Z</time>
      </trkpt>
      <trkpt lat="40.260483" lon="-4.898183">
        <ele>1935.0</ele>
        <time>2015-08-02T11:56:07Z</time>
      </trkpt>
      <trkpt lat="40.260417" lon="-4.898267">
        <ele>1936.0</ele>
        <time>2015-08-02T11:56:09Z</time>
      </trkpt>
      <trkpt lat="40.260333" lon="-4.898350">
        <ele>1936.0</ele>
        <time>2015-08-02T11:56:11Z</time>
      </trkpt>
      <trkpt lat="40.260250" lon="-4.898400">
        <ele>1938.0</ele>
        <time>2015-08-02T11:56:13Z</time>
      </trkpt>
      <trkpt lat="40.260150" lon="-4.898383">
        <ele>1936.0</ele>
        <time>2015-08-02T11:56:15Z</time>
      </trkpt>
      <trkpt lat="40.260033" lon="-4.898367">
        <ele>1933.0</ele>
        <time>2015-08-02T11:56:17Z</time>
      </trkpt>
      <trkpt lat="40.259933" lon="-4.898433">
        <ele>1932.0</ele>
        <time>2015-08-02T11:56:19Z</time>
      </trkpt>
      <trkpt lat="40.259867" lon="-4.898417">
        <ele>1931.0</ele>
        <time>2015-08-02T11:56:21Z</time>
      </trkpt>
      <trkpt lat="40.259783" lon="-4.898383">
        <ele>1927.0</ele>
        <time>2015-08-02T11:56:23Z</time>
      </trkpt>
      <trkpt lat="40.259683" lon="-4.898400">
        <ele>1923.0</ele>
        <time>2015-08-02T11:56:25Z</time>
      </trkpt>
      <trkpt lat="40.259583" lon="-4.898450">
        <ele>1922.0</ele>
        <time>2015-08-02T11:56:27Z</time>
      </trkpt>
      <trkpt lat="40.259517" lon="-4.898467">
        <ele>1920.0</ele>
        <time>2015-08-02T11:56:29Z</time>
      </trkpt>
      <trkpt lat="40.259450" lon="-4.898533">
        <ele>1914.0</ele>
        <time>2015-08-02T11:56:31Z</time>
      </trkpt>
      <trkpt lat="40.259383" lon="-4.898667">
        <ele>1914.0</ele>
        <time>2015-08-02T11:56:33Z</time>
      </trkpt>
      <trkpt lat="40.259333" lon="-4.898650">
        <ele>1916.0</ele>
        <time>2015-08-02T11:56:35Z</time>
      </trkpt>
      <trkpt lat="40.259283" lon="-4.898650">
        <ele>1910.0</ele>
        <time>2015-08-02T11:56:37Z</time>
      </trkpt>
      <trkpt lat="40.259183" lon="-4.898700">
        <ele>1903.0</ele>
        <time>2015-08-02T11:56:39Z</time>
      </trkpt>
      <trkpt lat="40.259083" lon="-4.898717">
        <ele>1901.0</ele>
        <time>2015-08-02T11:56:41Z</time>
      </trkpt>
      <trkpt lat="40.259017" lon="-4.898733">
        <ele>1898.0</ele>
        <time>2015-08-02T11:56:43Z</time>
      </trkpt>
      <trkpt lat="40.258950" lon="-4.898817">
        <ele>1891.0</ele>
        <time>2015-08-02T11:56:45Z</time>
      </trkpt>
      <trkpt lat="40.258867" lon="-4.898900">
        <ele>1887.0</ele>
        <time>2015-08-02T11:56:47Z</time>
      </trkpt>
      <trkpt lat="40.258817" lon="-4.898983">
        <ele>1884.0</ele>
        <time>2015-08-02T11:56:49Z</time>
      </trkpt>
      <trkpt lat="40.258767" lon="-4.899067">
        <ele>1878.0</ele>
        <time>2015-08-02T11:56:51Z</time>
      </trkpt>
      <trkpt lat="40.258683" lon="-4.899167">
        <ele>1873.0</ele>
        <time>2015-08-02T11:56:53Z</time>
      </trkpt>
      <trkpt lat="40.258650" lon="-4.899283">
        <ele>1872.0</ele>
        <time>2015-08-02T11:56:55Z</time>
      </trkpt>
      <trkpt lat="40.258617" lon="-4.899450">
        <ele>1870.0</ele>
        <time>2015-08-02T11:56:57Z</time>
      </trkpt>
      <trkpt lat="40.258600" lon="-4.899583">
        <ele>1871.0</ele>
        <time>2015-08-02T11:56:59Z</time>
      </trkpt>
      <trkpt lat="40.258567" lon="-4.899717">
        <ele>1870.0</ele>
        <time>2015-08-02T11:57:01Z</time>
      </trkpt>
      <trkpt lat="40.258550" lon="-4.899883">
        <ele>1865.0</ele>
        <time>2015-08-02T11:57:03Z</time>
      </trkpt>
      <trkpt lat="40.258533" lon="-4.900033">
        <ele>1864.0</ele>
        <time>2015-08-02T11:57:05Z</time>
      </trkpt>
      <trkpt lat="40.258500" lon="-4.900117">
        <ele>1861.0</ele>
        <time>2015-08-02T11:57:07Z</time>
      </trkpt>
      <trkpt lat="40.258433" lon="-4.900183">
        <ele>1856.0</ele>
        <time>2015-08-02T11:57:09Z</time>
      </trkpt>
      <trkpt lat="40.258367" lon="-4.900267">
        <ele>1852.0</ele>
        <time>2015-08-02T11:57:11Z</time>
      </trkpt>
      <trkpt lat="40.258317" lon="-4.900333">
        <ele>1848.0</ele>
        <time>2015-08-02T11:57:13Z</time>
      </trkpt>
      <trkpt lat="40.258233" lon="-4.900400">
        <ele>1842.0</ele>
        <time>2015-08-02T11:57:15Z</time>
      </trkpt>
      <trkpt lat="40.258150" lon="-4.900500">
        <ele>1836.0</ele>
        <time>2015-08-02T11:57:17Z</time>
      </trkpt>
      <trkpt lat="40.258067" lon="-4.900583">
        <ele>1832.0</ele>
        <time>2015-08-02T11:57:19Z</time>
      </trkpt>
      <trkpt lat="40.258000" lon="-4.900650">
        <ele>1826.0</ele>
        <time>2015-08-02T11:57:21Z</time>
      </trkpt>
      <trkpt lat="40.257917" lon="-4.900733">
        <ele>1819.0</ele>
        <time>2015-08-02T11:57:23Z</time>
      </trkpt>
      <trkpt lat="40.257833" lon="-4.900817">
        <ele>1813.0</ele>
        <time>2015-08-02T11:57:25Z</time>
      </trkpt>
      <trkpt lat="40.257767" lon="-4.900883">
        <ele>1806.0</ele>
        <time>2015-08-02T11:57:27Z</time>
      </trkpt>
      <trkpt lat="40.257700" lon="-4.900950">
        <ele>1798.0</ele>
        <time>2015-08-02T11:57:29Z</time>
      </trkpt>
      <trkpt lat="40.257600" lon="-4.901067">
        <ele>1789.0</ele>
        <time>2015-08-02T11:57:31Z</time>
      </trkpt>
      <trkpt lat="40.257500" lon="-4.901150">
        <ele>1785.0</ele>
        <time>2015-08-02T11:57:33Z</time>
      </trkpt>
      <trkpt lat="40.257433" lon="-4.901200">
        <ele>1781.0</ele>
        <time>2015-08-02T11:57:35Z</time>
      </trkpt>
      <trkpt lat="40.257367" lon="-4.901267">
        <ele>1773.0</ele>
        <time>2015-08-02T11:57:37Z</time>
      </trkpt>
      <trkpt lat="40.257250" lon="-4.901383">
        <ele>1768.0</ele>
        <time>2015-08-02T11:57:39Z</time>
      </trkpt>
      <trkpt lat="40.257133" lon="-4.901483">
        <ele>1772.0</ele>
        <time>2015-08-02T11:57:41Z</time>
      </trkpt>
      <trkpt lat="40.257050" lon="-4.901517">
        <ele>1775.0</ele>
        <time>2015-08-02T11:57:43Z</time>
      </trkpt>
      <trkpt lat="40.256950" lon="-4.901567">
        <ele>1773.0</ele>
        <time>2015-08-02T11:57:45Z</time>
      </trkpt>
      <trkpt lat="40.256783" lon="-4.901683">
        <ele>1772.0</ele>
        <time>2015-08-02T11:57:47Z</time>
      </trkpt>
      <trkpt lat="40.256633" lon="-4.901750">
        <ele>1777.0</ele>
        <time>2015-08-02T11:57:49Z</time>
      </trkpt>
      <trkpt lat="40.256533" lon="-4.901817">
        <ele>1776.0</ele>
        <time>2015-08-02T11:57:51Z</time>
      </trkpt>
      <trkpt lat="40.256400" lon="-4.901917">
        <ele>1772.0</ele>
        <time>2015-08-02T11:57:53Z</time>
      </trkpt>
      <trkpt lat="40.256283" lon="-4.902033">
        <ele>1768.0</ele>
        <time>2015-08-02T11:57:55Z</time>
      </trkpt>
      <trkpt lat="40.256233" lon="-4.902150">
        <ele>1767.0</ele>
        <time>2015-08-02T11:57:57Z</time>
      </trkpt>
      <trkpt lat="40.256150" lon="-4.902250">
        <ele>1766.0</ele>
        <time>2015-08-02T11:57:59Z</time>
      </trkpt>
      <trkpt lat="40.256050" lon="-4.902383">
        <ele>1762.0</ele>
        <time>2015-08-02T11:58:01Z</time>
      </trkpt>
      <trkpt lat="40.255983" lon="-4.902600">
        <ele>1756.0</ele>
        <time>2015-08-02T11:58:03Z</time>
      </trkpt>
      <trkpt lat="40.255900" lon="-4.902783">
        <ele>1759.0</ele>
        <time>2015-08-02T11:58:05Z</time>
      </trkpt>
      <trkpt lat="40.255850" lon="-4.902867">
        <ele>1765.0</ele>
        <time>2015-08-02T11:58:07Z</time>
      </trkpt>
      <trkpt lat="40.255817" lon="-4.902950">
        <ele>1766.0</ele>
        <time>2015-08-02T11:58:09Z</time>
      </trkpt>
      <trkpt lat="40.255750" lon="-4.903067">
        <ele>1763.0</ele>
        <time>2015-08-02T11:58:11Z</time>
      </trkpt>
      <trkpt lat="40.255683" lon="-4.903217">
        <ele>1761.0</ele>
        <time>2015-08-02T11:58:13Z</time>
      </trkpt>
      <trkpt lat="40.255617" lon="-4.903350">
        <ele>1760.0</ele>
        <time>2015-08-02T11:58:15Z</time>
      </trkpt>
      <trkpt lat="40.255517" lon="-4.903467">
        <ele>1759.0</ele>
        <time>2015-08-02T11:58:17Z</time>
      </trkpt>
      <trkpt lat="40.255417" lon="-4.903600">
        <ele>1760.0</ele>
        <time>2015-08-02T11:58:19Z</time>
      </trkpt>
      <trkpt lat="40.255333" lon="-4.903717">
        <ele>1766.0</ele>
        <time>2015-08-02T11:58:21Z</time>
      </trkpt>
      <trkpt lat="40.255233" lon="-4.903817">
        <ele>1768.0</ele>
        <time>2015-08-02T11:58:23Z</time>
      </trkpt>
      <trkpt lat="40.255150" lon="-4.903967">
        <ele>1768.0</ele>
        <time>2015-08-02T11:58:25Z</time>
      </trkpt>
      <trkpt lat="40.255050" lon="-4.904083">
        <ele>1772.0</ele>
        <time>2015-08-02T11:58:27Z</time>
      </trkpt>
      <trkpt lat="40.254933" lon="-4.904150">
        <ele>1776.0</ele>
        <time>2015-08-02T11:58:29Z</time>
      </trkpt>
      <trkpt lat="40.254850" lon="-4.904217">
        <ele>1780.0</ele>
        <time>2015-08-02T11:58:31Z</time>
      </trkpt>
      <trkpt lat="40.254750" lon="-4.904283">
        <ele>1781.0</ele>
        <time>2015-08-02T11:58:33Z</time>
      </trkpt>
      <trkpt lat="40.254617" lon="-4.904367">
        <ele>1782.0</ele>
        <time>2015-08-02T11:58:35Z</time>
      </trkpt>
      <trkpt lat="40.254517" lon="-4.904467">
        <ele>1785.0</ele>
        <time>2015-08-02T11:58:37Z</time>
      </trkpt>
      <trkpt lat="40.254400" lon="-4.904550">
        <ele>1787.0</ele>
        <time>2015-08-02T11:58:39Z</time>
      </trkpt>
      <trkpt lat="40.254283" lon="-4.904650">
        <ele>1787.0</ele>
        <time>2015-08-02T11:58:41Z</time>
      </trkpt>
      <trkpt lat="40.254183" lon="-4.904767">
        <ele>1788.0</ele>
        <time>2015-08-02T11:58:43Z</time>
      </trkpt>
      <trkpt lat="40.254067" lon="-4.904900">
        <ele>1791.0</ele>
        <time>2015-08-02T11:58:45Z</time>
      </trkpt>
      <trkpt lat="40.254000" lon="-4.905050">
        <ele>1796.0</ele>
        <time>2015-08-02T11:58:47Z</time>
      </trkpt>
      <trkpt lat="40.253950" lon="-4.905200">
        <ele>1798.0</ele>
        <time>2015-08-02T11:58:49Z</time>
      </trkpt>
      <trkpt lat="40.253867" lon="-4.905350">
        <ele>1798.0</ele>
        <time>2015-08-02T11:58:51Z</time>
      </trkpt>
      <trkpt lat="40.253783" lon="-4.905500">
        <ele>1800.0</ele>
        <time>2015-08-02T11:58:53Z</time>
      </trkpt>
      <trkpt lat="40.253733" lon="-4.905633">
        <ele>1800.0</ele>
        <time>2015-08-02T11:58:55Z</time>
      </trkpt>
      <trkpt lat="40.253650" lon="-4.905783">
        <ele>1799.0</ele>
        <time>2015-08-02T11:58:57Z</time>
      </trkpt>
      <trkpt lat="40.253550" lon="-4.905950">
        <ele>1799.0</ele>
        <time>2015-08-02T11:58:59Z</time>
      </trkpt>
      <trkpt lat="40.253450" lon="-4.906083">
        <ele>1804.0</ele>
        <time>2015-08-02T11:59:01Z</time>
      </trkpt>
      <trkpt lat="40.253350" lon="-4.906183">
        <ele>1807.0</ele>
        <time>2015-08-02T11:59:03Z</time>
      </trkpt>
      <trkpt lat="40.253233" lon="-4.906333">
        <ele>1807.0</ele>
        <time>2015-08-02T11:59:05Z</time>
      </trkpt>
      <trkpt lat="40.253117" lon="-4.906500">
        <ele>1809.0</ele>
        <time>2015-08-02T11:59:07Z</time>
      </trkpt>
      <trkpt lat="40.253000" lon="-4.906667">
        <ele>1811.0</ele>
        <time>2015-08-02T11:59:09Z</time>
      </trkpt>
      <trkpt lat="40.252900" lon="-4.906867">
        <ele>1811.0</ele>
        <time>2015-08-02T11:59:11Z</time>
      </trkpt>
      <trkpt lat="40.252817" lon="-4.907017">
        <ele>1815.0</ele>
        <time>2015-08-02T11:59:13Z</time>
      </trkpt>
      <trkpt lat="40.252717" lon="-4.907100">
        <ele>1815.0</ele>
        <time>2015-08-02T11:59:15Z</time>
      </trkpt>
      <trkpt lat="40.252617" lon="-4.907200">
        <ele>1812.0</ele>
        <time>2015-08-02T11:59:17Z</time>
      </trkpt>
      <trkpt lat="40.252517" lon="-4.907350">
        <ele>1812.0</ele>
        <time>2015-08-02T11:59:19Z</time>
      </trkpt>
      <trkpt lat="40.252417" lon="-4.907467">
        <ele>1813.0</ele>
        <time>2015-08-02T11:59:21Z</time>
      </trkpt>
      <trkpt lat="40.252317" lon="-4.907583">
        <ele>1812.0</ele>
        <time>2015-08-02T11:59:23Z</time>
      </trkpt>
      <trkpt lat="40.252200" lon="-4.907683">
        <ele>1812.0</ele>
        <time>2015-08-02T11:59:25Z</time>
      </trkpt>
      <trkpt lat="40.252050" lon="-4.907750">
        <ele>1813.0</ele>
        <time>2015-08-02T11:59:27Z</time>
      </trkpt>
      <trkpt lat="40.251900" lon="-4.907833">
        <ele>1814.0</ele>
        <time>2015-08-02T11:59:29Z</time>
      </trkpt>
      <trkpt lat="40.251750" lon="-4.907933">
        <ele>1814.0</ele>
        <time>2015-08-02T11:59:31Z</time>
      </trkpt>
      <trkpt lat="40.251600" lon="-4.908050">
        <ele>1815.0</ele>
        <time>2015-08-02T11:59:33Z</time>
      </trkpt>
      <trkpt lat="40.251450" lon="-4.908150">
        <ele>1817.0</ele>
        <time>2015-08-02T11:59:35Z</time>
      </trkpt>
      <trkpt lat="40.251283" lon="-4.908233">
        <ele>1822.0</ele>
        <time>2015-08-02T11:59:37Z</time>
      </trkpt>
      <trkpt lat="40.251150" lon="-4.908317">
        <ele>1827.0</ele>
        <time>2015-08-02T11:59:39Z</time>
      </trkpt>
      <trkpt lat="40.251017" lon="-4.908417">
        <ele>1829.0</ele>
        <time>2015-08-02T11:59:41Z</time>
      </trkpt>
      <trkpt lat="40.250867" lon="-4.908533">
        <ele>1832.0</ele>
        <time>2015-08-02T11:59:43Z</time>
      </trkpt>
      <trkpt lat="40.250733" lon="-4.908650">
        <ele>1835.0</ele>
        <time>2015-08-02T11:59:45Z</time>
      </trkpt>
      <trkpt lat="40.250600" lon="-4.908767">
        <ele>1836.0</ele>
        <time>2015-08-02T11:59:47Z</time>
      </trkpt>
      <trkpt lat="40.250483" lon="-4.908917">
        <ele>1838.0</ele>
        <time>2015-08-02T11:59:49Z</time>
      </trkpt>
      <trkpt lat="40.250400" lon="-4.909083">
        <ele>1839.0</ele>
        <time>2015-08-02T11:59:51Z</time>
      </trkpt>
      <trkpt lat="40.250350" lon="-4.909217">
        <ele>1837.0</ele>
        <time>2015-08-02T11:59:53Z</time>
      </trkpt>
      <trkpt lat="40.250283" lon="-4.909400">
        <ele>1831.0</ele>
        <time>2015-08-02T11:59:55Z</time>
      </trkpt>
      <trkpt lat="40.250200" lon="-4.909567">
        <ele>1829.0</ele>
        <time>2015-08-02T11:59:57Z</time>
      </trkpt>
      <trkpt lat="40.250133" lon="-4.909717">
        <ele>1827.0</ele>
        <time>2015-08-02T11:59:59Z</time>
      </trkpt>
      <trkpt lat="40.250067" lon="-4.909867">
        <ele>1826.0</ele>
        <time>2015-08-02T12:00:01Z</time>
      </trkpt>
      <trkpt lat="40.250000" lon="-4.910033">
        <ele>1824.0</ele>
        <time>2015-08-02T12:00:03Z</time>
      </trkpt>
      <trkpt lat="40.249933" lon="-4.910183">
        <ele>1821.0</ele>
        <time>2015-08-02T12:00:05Z</time>
      </trkpt>
      <trkpt lat="40.249850" lon="-4.910350">
        <ele>1817.0</ele>
        <time>2015-08-02T12:00:07Z</time>
      </trkpt>
      <trkpt lat="40.249750" lon="-4.910500">
        <ele>1813.0</ele>
        <time>2015-08-02T12:00:09Z</time>
      </trkpt>
      <trkpt lat="40.249667" lon="-4.910617">
        <ele>1810.0</ele>
        <time>2015-08-02T12:00:11Z</time>
      </trkpt>
      <trkpt lat="40.249583" lon="-4.910750">
        <ele>1805.0</ele>
        <time>2015-08-02T12:00:13Z</time>
      </trkpt>
      <trkpt lat="40.249500" lon="-4.910883">
        <ele>1802.0</ele>
        <time>2015-08-02T12:00:15Z</time>
      </trkpt>
      <trkpt lat="40.249417" lon="-4.911017">
        <ele>1801.0</ele>
        <time>2015-08-02T12:00:17Z</time>
      </trkpt>
      <trkpt lat="40.249317" lon="-4.911150">
        <ele>1799.0</ele>
        <time>2015-08-02T12:00:19Z</time>
      </trkpt>
      <trkpt lat="40.249233" lon="-4.911283">
        <ele>1794.0</ele>
        <time>2015-08-02T12:00:21Z</time>
      </trkpt>
      <trkpt lat="40.249117" lon="-4.911433">
        <ele>1791.0</ele>
        <time>2015-08-02T12:00:23Z</time>
      </trkpt>
      <trkpt lat="40.249017" lon="-4.911567">
        <ele>1790.0</ele>
        <time>2015-08-02T12:00:25Z</time>
      </trkpt>
      <trkpt lat="40.248917" lon="-4.911683">
        <ele>1788.0</ele>
        <time>2015-08-02T12:00:27Z</time>
      </trkpt>
      <trkpt lat="40.248817" lon="-4.911817">
        <ele>1789.0</ele>
        <time>2015-08-02T12:00:29Z</time>
      </trkpt>
      <trkpt lat="40.248733" lon="-4.911900">
        <ele>1790.0</ele>
        <time>2015-08-02T12:00:31Z</time>
      </trkpt>
      <trkpt lat="40.248667" lon="-4.911983">
        <ele>1789.0</ele>
        <time>2015-08-02T12:00:33Z</time>
      </trkpt>
      <trkpt lat="40.248583" lon="-4.912067">
        <ele>1787.0</ele>
        <time>2015-08-02T12:00:35Z</time>
      </trkpt>
      <trkpt lat="40.248500" lon="-4.912183">
        <ele>1785.0</ele>
        <time>2015-08-02T12:00:37Z</time>
      </trkpt>
      <trkpt lat="40.248417" lon="-4.912283">
        <ele>1782.0</ele>
        <time>2015-08-02T12:00:39Z</time>
      </trkpt>
      <trkpt lat="40.248333" lon="-4.912400">
        <ele>1778.0</ele>
        <time>2015-08-02T12:00:41Z</time>
      </trkpt>
      <trkpt lat="40.248250" lon="-4.912500">
        <ele>1773.0</ele>
        <time>2015-08-02T12:00:43Z</time>
      </trkpt>
      <trkpt lat="40.248167" lon="-4.912650">
        <ele>1768.0</ele>
        <time>2015-08-02T12:00:45Z</time>
      </trkpt>
      <trkpt lat="40.248100" lon="-4.912767">
        <ele>1766.0</ele>
        <time>2015-08-02T12:00:47Z</time>
      </trkpt>
      <trkpt lat="40.248033" lon="-4.912867">
        <ele>1761.0</ele>
        <time>2015-08-02T12:00:49Z</time>
      </trkpt>
      <trkpt lat="40.247933" lon="-4.912983">
        <ele>1754.0</ele>
        <time>2015-08-02T12:00:51Z</time>
      </trkpt>
      <trkpt lat="40.247850" lon="-4.913100">
        <ele>1753.0</ele>
        <time>2015-08-02T12:00:53Z</time>
      </trkpt>
      <trkpt lat="40.247817" lon="-4.913167">
        <ele>1756.0</ele>
        <time>2015-08-02T12:00:55Z</time>
      </trkpt>
      <trkpt lat="40.247833" lon="-4.913217">
        <ele>1754.0</ele>
        <time>2015-08-02T12:00:57Z</time>
      </trkpt>
      <trkpt lat="40.247800" lon="-4.913283">
        <ele>1749.0</ele>
        <time>2015-08-02T12:00:59Z</time>
      </trkpt>
      <trkpt lat="40.247767" lon="-4.913350">
        <ele>1747.0</ele>
        <time>2015-08-02T12:01:01Z</time>
      </trkpt>
      <trkpt lat="40.247750" lon="-4.913417">
        <ele>1746.0</ele>
        <time>2015-08-02T12:01:03Z</time>
      </trkpt>
      <trkpt lat="40.247733" lon="-4.913483">
        <ele>1741.0</ele>
        <time>2015-08-02T12:01:05Z</time>
      </trkpt>
      <trkpt lat="40.247717" lon="-4.913583">
        <ele>1738.0</ele>
        <time>2015-08-02T12:01:07Z</time>
      </trkpt>
      <trkpt lat="40.247667" lon="-4.913650">
        <ele>1737.0</ele>
        <time>2015-08-02T12:01:09Z</time>
      </trkpt>
      <trkpt lat="40.247600" lon="-4.913717">
        <ele>1738.0</ele>
        <time>2015-08-02T12:01:11Z</time>
      </trkpt>
      <trkpt lat="40.247550" lon="-4.913850">
        <ele>1742.0</ele>
        <time>2015-08-02T12:01:13Z</time>
      </trkpt>
      <trkpt lat="40.247517" lon="-4.913933">
        <ele>1749.0</ele>
        <time>2015-08-02T12:01:15Z</time>
      </trkpt>
      <trkpt lat="40.247500" lon="-4.914017">
        <ele>1752.0</ele>
        <time>2015-08-02T12:01:17Z</time>
      </trkpt>
      <trkpt lat="40.247550" lon="-4.914150">
        <ele>1754.0</ele>
        <time>2015-08-02T12:01:19Z</time>
      </trkpt>
      <trkpt lat="40.247683" lon="-4.914300">
        <ele>1758.0</ele>
        <time>2015-08-02T12:01:21Z</time>
      </trkpt>
      <trkpt lat="40.247867" lon="-4.914350">
        <ele>1765.0</ele>
        <time>2015-08-02T12:01:23Z</time>
      </trkpt>
      <trkpt lat="40.248100" lon="-4.914233">
        <ele>1768.0</ele>
        <time>2015-08-02T12:01:25Z</time>
      </trkpt>
      <trkpt lat="40.248267" lon="-4.913983">
        <ele>1774.0</ele>
        <time>2015-08-02T12:01:27Z</time>
      </trkpt>
      <trkpt lat="40.248283" lon="-4.913717">
        <ele>1779.0</ele>
        <time>2015-08-02T12:01:29Z</time>
      </trkpt>
      <trkpt lat="40.248283" lon="-4.913517">
        <ele>1784.0</ele>
        <time>2015-08-02T12:01:31Z</time>
      </trkpt>
      <trkpt lat="40.248250" lon="-4.913317">
        <ele>1785.0</ele>
        <time>2015-08-02T12:01:33Z</time>
      </trkpt>
      <trkpt lat="40.248183" lon="-4.913150">
        <ele>1787.0</ele>
        <time>2015-08-02T12:01:35Z</time>
      </trkpt>
      <trkpt lat="40.248083" lon="-4.913117">
        <ele>1789.0</ele>
        <time>2015-08-02T12:01:37Z</time>
      </trkpt>
      <trkpt lat="40.248017" lon="-4.913167">
        <ele>1794.0</ele>
        <time>2015-08-02T12:01:39Z</time>
      </trkpt>
      <trkpt lat="40.247967" lon="-4.913200">
        <ele>1798.0</ele>
        <time>2015-08-02T12:01:41Z</time>
      </trkpt>
      <trkpt lat="40.247917" lon="-4.913267">
        <ele>1798.0</ele>
        <time>2015-08-02T12:01:43Z</time>
      </trkpt>
      <trkpt lat="40.247850" lon="-4.913383">
        <ele>1798.0</ele>
        <time>2015-08-02T12:01:45Z</time>
      </trkpt>
      <trkpt lat="40.247783" lon="-4.913467">
        <ele>1801.0</ele>
        <time>2015-08-02T12:01:47Z</time>
      </trkpt>
      <trkpt lat="40.247717" lon="-4.913550">
        <ele>1801.0</ele>
        <time>2015-08-02T12:01:49Z</time>
      </trkpt>
      <trkpt lat="40.247650" lon="-4.913617">
        <ele>1799.0</ele>
        <time>2015-08-02T12:01:51Z</time>
      </trkpt>
      <trkpt lat="40.247583" lon="-4.913667">
        <ele>1795.0</ele>
        <time>2015-08-02T12:01:53Z</time>
      </trkpt>
      <trkpt lat="40.247500" lon="-4.913767">
        <ele>1791.0</ele>
        <time>2015-08-02T12:01:55Z</time>
      </trkpt>
      <trkpt lat="40.247417" lon="-4.913867">
        <ele>1790.0</ele>
        <time>2015-08-02T12:01:57Z</time>
      </trkpt>
      <trkpt lat="40.247350" lon="-4.913950">
        <ele>1787.0</ele>
        <time>2015-08-02T12:01:59Z</time>
      </trkpt>
      <trkpt lat="40.247267" lon="-4.914033">
        <ele>1783.0</ele>
        <time>2015-08-02T12:02:01Z</time>
      </trkpt>
      <trkpt lat="40.247167" lon="-4.914133">
        <ele>1780.0</ele>
        <time>2015-08-02T12:02:03Z</time>
      </trkpt>
      <trkpt lat="40.247083" lon="-4.914217">
        <ele>1779.0</ele>
        <time>2015-08-02T12:02:05Z</time>
      </trkpt>
      <trkpt lat="40.247000" lon="-4.914283">
        <ele>1776.0</ele>
        <time>2015-08-02T12:02:07Z</time>
      </trkpt>
      <trkpt lat="40.246883" lon="-4.914350">
        <ele>1772.0</ele>
        <time>2015-08-02T12:02:09Z</time>
      </trkpt>
      <trkpt lat="40.246767" lon="-4.914417">
        <ele>1769.0</ele>
        <time>2015-08-02T12:02:11Z</time>
      </trkpt>
      <trkpt lat="40.246683" lon="-4.914500">
        <ele>1767.0</ele>
        <time>2015-08-02T12:02:13Z</time>
      </trkpt>
      <trkpt lat="40.246617" lon="-4.914583">
        <ele>1766.0</ele>
        <time>2015-08-02T12:02:15Z</time>
      </trkpt>
      <trkpt lat="40.246567" lon="-4.914650">
        <ele>1762.0</ele>
        <time>2015-08-02T12:02:17Z</time>
      </trkpt>
      <trkpt lat="40.246533" lon="-4.914733">
        <ele>1760.0</ele>
        <time>2015-08-02T12:02:19Z</time>
      </trkpt>
      <trkpt lat="40.246483" lon="-4.914833">
        <ele>1756.0</ele>
        <time>2015-08-02T12:02:21Z</time>
      </trkpt>
      <trkpt lat="40.246367" lon="-4.914950">
        <ele>1751.0</ele>
        <time>2015-08-02T12:02:23Z</time>
      </trkpt>
      <trkpt lat="40.246217" lon="-4.915100">
        <ele>1751.0</ele>
        <time>2015-08-02T12:02:25Z</time>
      </trkpt>
      <trkpt lat="40.246083" lon="-4.915233">
        <ele>1757.0</ele>
        <time>2015-08-02T12:02:27Z</time>
      </trkpt>
      <trkpt lat="40.246017" lon="-4.915317">
        <ele>1762.0</ele>
        <time>2015-08-02T12:02:29Z</time>
      </trkpt>
      <trkpt lat="40.245967" lon="-4.915383">
        <ele>1760.0</ele>
        <time>2015-08-02T12:02:31Z</time>
      </trkpt>
      <trkpt lat="40.245867" lon="-4.915500">
        <ele>1753.0</ele>
        <time>2015-08-02T12:02:33Z</time>
      </trkpt>
      <trkpt lat="40.245767" lon="-4.915633">
        <ele>1749.0</ele>
        <time>2015-08-02T12:02:35Z</time>
      </trkpt>
      <trkpt lat="40.245700" lon="-4.915750">
        <ele>1745.0</ele>
        <time>2015-08-02T12:02:37Z</time>
      </trkpt>
      <trkpt lat="40.245617" lon="-4.915867">
        <ele>1738.0</ele>
        <time>2015-08-02T12:02:39Z</time>
      </trkpt>
      <trkpt lat="40.245500" lon="-4.915983">
        <ele>1731.0</ele>
        <time>2015-08-02T12:02:41Z</time>
      </trkpt>
      <trkpt lat="40.245383" lon="-4.916100">
        <ele>1726.0</ele>
        <time>2015-08-02T12:02:43Z</time>
      </trkpt>
      <trkpt lat="40.245267" lon="-4.916200">
        <ele>1721.0</ele>
        <time>2015-08-02T12:02:45Z</time>
      </trkpt>
      <trkpt lat="40.245117" lon="-4.916317">
        <ele>1717.0</ele>
        <time>2015-08-02T12:02:47Z</time>
      </trkpt>
      <trkpt lat="40.244983" lon="-4.916417">
        <ele>1713.0</ele>
        <time>2015-08-02T12:02:49Z</time>
      </trkpt>
      <trkpt lat="40.244883" lon="-4.916567">
        <ele>1709.0</ele>
        <time>2015-08-02T12:02:51Z</time>
      </trkpt>
      <trkpt lat="40.244767" lon="-4.916717">
        <ele>1707.0</ele>
        <time>2015-08-02T12:02:53Z</time>
      </trkpt>
      <trkpt lat="40.244683" lon="-4.916900">
        <ele>1707.0</ele>
        <time>2015-08-02T12:02:55Z</time>
      </trkpt>
      <trkpt lat="40.244617" lon="-4.917083">
        <ele>1704.0</ele>
        <time>2015-08-02T12:02:57Z</time>
      </trkpt>
      <trkpt lat="40.244533" lon="-4.917267">
        <ele>1700.0</ele>
        <time>2015-08-02T12:02:59Z</time>
      </trkpt>
      <trkpt lat="40.244483" lon="-4.917450">
        <ele>1697.0</ele>
        <time>2015-08-02T12:03:01Z</time>
      </trkpt>
      <trkpt lat="40.244450" lon="-4.917667">
        <ele>1694.0</ele>
        <time>2015-08-02T12:03:03Z</time>
      </trkpt>
      <trkpt lat="40.244367" lon="-4.917833">
        <ele>1693.0</ele>
        <time>2015-08-02T12:03:05Z</time>
      </trkpt>
      <trkpt lat="40.244283" lon="-4.917967">
        <ele>1692.0</ele>
        <time>2015-08-02T12:03:07Z</time>
      </trkpt>
      <trkpt lat="40.244183" lon="-4.918117">
        <ele>1690.0</ele>
        <time>2015-08-02T12:03:09Z</time>
      </trkpt>
      <trkpt lat="40.244083" lon="-4.918283">
        <ele>1691.0</ele>
        <time>2015-08-02T12:03:11Z</time>
      </trkpt>
      <trkpt lat="40.244000" lon="-4.918383">
        <ele>1691.0</ele>
        <time>2015-08-02T12:03:13Z</time>
      </trkpt>
      <trkpt lat="40.243900" lon="-4.918500">
        <ele>1688.0</ele>
        <time>2015-08-02T12:03:15Z</time>
      </trkpt>
      <trkpt lat="40.243800" lon="-4.918633">
        <ele>1685.0</ele>
        <time>2015-08-02T12:03:17Z</time>
      </trkpt>
      <trkpt lat="40.243717" lon="-4.918700">
        <ele>1684.0</ele>
        <time>2015-08-02T12:03:19Z</time>
      </trkpt>
      <trkpt lat="40.243633" lon="-4.918783">
        <ele>1681.0</ele>
        <time>2015-08-02T12:03:21Z</time>
      </trkpt>
      <trkpt lat="40.243517" lon="-4.918883">
        <ele>1676.0</ele>
        <time>2015-08-02T12:03:23Z</time>
      </trkpt>
      <trkpt lat="40.243383" lon="-4.918983">
        <ele>1674.0</ele>
        <time>2015-08-02T12:03:25Z</time>
      </trkpt>
      <trkpt lat="40.243267" lon="-4.919100">
        <ele>1675.0</ele>
        <time>2015-08-02T12:03:27Z</time>
      </trkpt>
      <trkpt lat="40.243167" lon="-4.919200">
        <ele>1677.0</ele>
        <time>2015-08-02T12:03:29Z</time>
      </trkpt>
      <trkpt lat="40.243067" lon="-4.919300">
        <ele>1677.0</ele>
        <time>2015-08-02T12:03:31Z</time>
      </trkpt>
      <trkpt lat="40.242967" lon="-4.919433">
        <ele>1676.0</ele>
        <time>2015-08-02T12:03:33Z</time>
      </trkpt>
      <trkpt lat="40.242867" lon="-4.919550">
        <ele>1676.0</ele>
        <time>2015-08-02T12:03:35Z</time>
      </trkpt>
      <trkpt lat="40.242800" lon="-4.919667">
        <ele>1675.0</ele>
        <time>2015-08-02T12:03:37Z</time>
      </trkpt>
      <trkpt lat="40.242733" lon="-4.919800">
        <ele>1671.0</ele>
        <time>2015-08-02T12:03:39Z</time>
      </trkpt>
      <trkpt lat="40.242600" lon="-4.919933">
        <ele>1666.0</ele>
        <time>2015-08-02T12:03:41Z</time>
      </trkpt>
      <trkpt lat="40.242517" lon="-4.920067">
        <ele>1666.0</ele>
        <time>2015-08-02T12:03:43Z</time>
      </trkpt>
      <trkpt lat="40.242450" lon="-4.920183">
        <ele>1665.0</ele>
        <time>2015-08-02T12:03:45Z</time>
      </trkpt>
      <trkpt lat="40.242367" lon="-4.920300">
        <ele>1663.0</ele>
        <time>2015-08-02T12:03:47Z</time>
      </trkpt>
      <trkpt lat="40.242300" lon="-4.920433">
        <ele>1662.0</ele>
        <time>2015-08-02T12:03:49Z</time>
      </trkpt>
      <trkpt lat="40.242250" lon="-4.920583">
        <ele>1659.0</ele>
        <time>2015-08-02T12:03:51Z</time>
      </trkpt>
      <trkpt lat="40.242183" lon="-4.920750">
        <ele>1653.0</ele>
        <time>2015-08-02T12:03:53Z</time>
      </trkpt>
      <trkpt lat="40.242117" lon="-4.920950">
        <ele>1648.0</ele>
        <time>2015-08-02T12:03:55Z</time>
      </trkpt>
      <trkpt lat="40.242033" lon="-4.921100">
        <ele>1644.0</ele>
        <time>2015-08-02T12:03:57Z</time>
      </trkpt>
      <trkpt lat="40.241950" lon="-4.921267">
        <ele>1639.0</ele>
        <time>2015-08-02T12:03:59Z</time>
      </trkpt>
      <trkpt lat="40.241867" lon="-4.921400">
        <ele>1636.0</ele>
        <time>2015-08-02T12:04:01Z</time>
      </trkpt>
      <trkpt lat="40.241750" lon="-4.921517">
        <ele>1631.0</ele>
        <time>2015-08-02T12:04:03Z</time>
      </trkpt>
      <trkpt lat="40.241633" lon="-4.921667">
        <ele>1624.0</ele>
        <time>2015-08-02T12:04:05Z</time>
      </trkpt>
      <trkpt lat="40.241517" lon="-4.921817">
        <ele>1619.0</ele>
        <time>2015-08-02T12:04:07Z</time>
      </trkpt>
      <trkpt lat="40.241383" lon="-4.921933">
        <ele>1614.0</ele>
        <time>2015-08-02T12:04:09Z</time>
      </trkpt>
      <trkpt lat="40.241250" lon="-4.922067">
        <ele>1609.0</ele>
        <time>2015-08-02T12:04:11Z</time>
      </trkpt>
      <trkpt lat="40.241083" lon="-4.922217">
        <ele>1603.0</ele>
        <time>2015-08-02T12:04:13Z</time>
      </trkpt>
      <trkpt lat="40.240933" lon="-4.922333">
        <ele>1598.0</ele>
        <time>2015-08-02T12:04:15Z</time>
      </trkpt>
      <trkpt lat="40.240783" lon="-4.922467">
        <ele>1593.0</ele>
        <time>2015-08-02T12:04:17Z</time>
      </trkpt>
      <trkpt lat="40.240717" lon="-4.922550">
        <ele>1591.0</ele>
        <time>2015-08-02T12:04:18Z</time>
      </trkpt>
      <trkpt lat="40.240550" lon="-4.922667">
        <ele>1591.0</ele>
        <time>2015-08-02T12:04:20Z</time>
      </trkpt>
      <trkpt lat="40.240417" lon="-4.922750">
        <ele>1592.0</ele>
        <time>2015-08-02T12:04:22Z</time>
      </trkpt>
      <trkpt lat="40.240317" lon="-4.922867">
        <ele>1590.0</ele>
        <time>2015-08-02T12:04:24Z</time>
      </trkpt>
      <trkpt lat="40.240233" lon="-4.923033">
        <ele>1587.0</ele>
        <time>2015-08-02T12:04:26Z</time>
      </trkpt>
      <trkpt lat="40.240217" lon="-4.923233">
        <ele>1581.0</ele>
        <time>2015-08-02T12:04:28Z</time>
      </trkpt>
      <trkpt lat="40.240317" lon="-4.923467">
        <ele>1573.0</ele>
        <time>2015-08-02T12:04:30Z</time>
      </trkpt>
      <trkpt lat="40.240533" lon="-4.923533">
        <ele>1569.0</ele>
        <time>2015-08-02T12:04:32Z</time>
      </trkpt>
      <trkpt lat="40.240733" lon="-4.923467">
        <ele>1566.0</ele>
        <time>2015-08-02T12:04:34Z</time>
      </trkpt>
      <trkpt lat="40.240917" lon="-4.923383">
        <ele>1561.0</ele>
        <time>2015-08-02T12:04:36Z</time>
      </trkpt>
      <trkpt lat="40.241100" lon="-4.923317">
        <ele>1557.0</ele>
        <time>2015-08-02T12:04:38Z</time>
      </trkpt>
      <trkpt lat="40.241267" lon="-4.923217">
        <ele>1550.0</ele>
        <time>2015-08-02T12:04:40Z</time>
      </trkpt>
      <trkpt lat="40.241467" lon="-4.923133">
        <ele>1542.0</ele>
        <time>2015-08-02T12:04:42Z</time>
      </trkpt>
      <trkpt lat="40.241667" lon="-4.923033">
        <ele>1538.0</ele>
        <time>2015-08-02T12:04:44Z</time>
      </trkpt>
      <trkpt lat="40.241850" lon="-4.922933">
        <ele>1535.0</ele>
        <time>2015-08-02T12:04:46Z</time>
      </trkpt>
      <trkpt lat="40.242050" lon="-4.922833">
        <ele>1534.0</ele>
        <time>2015-08-02T12:04:48Z</time>
      </trkpt>
      <trkpt lat="40.242217" lon="-4.922767">
        <ele>1532.0</ele>
        <time>2015-08-02T12:04:50Z</time>
      </trkpt>
      <trkpt lat="40.242400" lon="-4.922667">
        <ele>1526.0</ele>
        <time>2015-08-02T12:04:52Z</time>
      </trkpt>
      <trkpt lat="40.242583" lon="-4.922617">
        <ele>1522.0</ele>
        <time>2015-08-02T12:04:54Z</time>
      </trkpt>
      <trkpt lat="40.242767" lon="-4.922550">
        <ele>1517.0</ele>
        <time>2015-08-02T12:04:56Z</time>
      </trkpt>
      <trkpt lat="40.242967" lon="-4.922433">
        <ele>1513.0</ele>
        <time>2015-08-02T12:04:58Z</time>
      </trkpt>
      <trkpt lat="40.243167" lon="-4.922333">
        <ele>1509.0</ele>
        <time>2015-08-02T12:05:00Z</time>
      </trkpt>
      <trkpt lat="40.243367" lon="-4.922233">
        <ele>1505.0</ele>
        <time>2015-08-02T12:05:02Z</time>
      </trkpt>
      <trkpt lat="40.243567" lon="-4.922117">
        <ele>1501.0</ele>
        <time>2015-08-02T12:05:04Z</time>
      </trkpt>
      <trkpt lat="40.243800" lon="-4.922017">
        <ele>1498.0</ele>
        <time>2015-08-02T12:05:06Z</time>
      </trkpt>
      <trkpt lat="40.244000" lon="-4.921917">
        <ele>1494.0</ele>
        <time>2015-08-02T12:05:08Z</time>
      </trkpt>
      <trkpt lat="40.244217" lon="-4.921800">
        <ele>1490.0</ele>
        <time>2015-08-02T12:05:10Z</time>
      </trkpt>
      <trkpt lat="40.244433" lon="-4.921700">
        <ele>1488.0</ele>
        <time>2015-08-02T12:05:12Z</time>
      </trkpt>
      <trkpt lat="40.244633" lon="-4.921600">
        <ele>1486.0</ele>
        <time>2015-08-02T12:05:14Z</time>
      </trkpt>
      <trkpt lat="40.244817" lon="-4.921450">
        <ele>1483.0</ele>
        <time>2015-08-02T12:05:16Z</time>
      </trkpt>
      <trkpt lat="40.245033" lon="-4.921300">
        <ele>1479.0</ele>
        <time>2015-08-02T12:05:18Z</time>
      </trkpt>
      <trkpt lat="40.245233" lon="-4.921183">
        <ele>1474.0</ele>
        <time>2015-08-02T12:05:20Z</time>
      </trkpt>
      <trkpt lat="40.245467" lon="-4.921017">
        <ele>1466.0</ele>
        <time>2015-08-02T12:05:22Z</time>
      </trkpt>
      <trkpt lat="40.245717" lon="-4.920850">
        <ele>1465.0</ele>
        <time>2015-08-02T12:05:24Z</time>
      </trkpt>
      <trkpt lat="40.245900" lon="-4.920750">
        <ele>1466.0</ele>
        <time>2015-08-02T12:05:26Z</time>
      </trkpt>
      <trkpt lat="40.246100" lon="-4.920633">
        <ele>1464.0</ele>
        <time>2015-08-02T12:05:28Z</time>
      </trkpt>
      <trkpt lat="40.246300" lon="-4.920500">
        <ele>1463.0</ele>
        <time>2015-08-02T12:05:30Z</time>
      </trkpt>
      <trkpt lat="40.246483" lon="-4.920350">
        <ele>1461.0</ele>
        <time>2015-08-02T12:05:32Z</time>
      </trkpt>
      <trkpt lat="40.246667" lon="-4.920200">
        <ele>1459.0</ele>
        <time>2015-08-02T12:05:34Z</time>
      </trkpt>
      <trkpt lat="40.246833" lon="-4.920033">
        <ele>1457.0</ele>
        <time>2015-08-02T12:05:36Z</time>
      </trkpt>
      <trkpt lat="40.247017" lon="-4.919883">
        <ele>1455.0</ele>
        <time>2015-08-02T12:05:38Z</time>
      </trkpt>
      <trkpt lat="40.247200" lon="-4.919733">
        <ele>1454.0</ele>
        <time>2015-08-02T12:05:40Z</time>
      </trkpt>
      <trkpt lat="40.247400" lon="-4.919550">
        <ele>1451.0</ele>
        <time>2015-08-02T12:05:42Z</time>
      </trkpt>
      <trkpt lat="40.247600" lon="-4.919367">
        <ele>1449.0</ele>
        <time>2015-08-02T12:05:44Z</time>
      </trkpt>
      <trkpt lat="40.247817" lon="-4.919183">
        <ele>1448.0</ele>
        <time>2015-08-02T12:05:46Z</time>
      </trkpt>
      <trkpt lat="40.248000" lon="-4.919033">
        <ele>1446.0</ele>
        <time>2015-08-02T12:05:48Z</time>
      </trkpt>
      <trkpt lat="40.248217" lon="-4.918917">
        <ele>1442.0</ele>
        <time>2015-08-02T12:05:50Z</time>
      </trkpt>
      <trkpt lat="40.248433" lon="-4.918783">
        <ele>1437.0</ele>
        <time>2015-08-02T12:05:52Z</time>
      </trkpt>
      <trkpt lat="40.248650" lon="-4.918667">
        <ele>1435.0</ele>
        <time>2015-08-02T12:05:54Z</time>
      </trkpt>
      <trkpt lat="40.248833" lon="-4.918517">
        <ele>1432.0</ele>
        <time>2015-08-02T12:05:56Z</time>
      </trkpt>
      <trkpt lat="40.249017" lon="-4.918317">
        <ele>1427.0</ele>
        <time>2015-08-02T12:05:58Z</time>
      </trkpt>
      <trkpt lat="40.249233" lon="-4.918133">
        <ele>1424.0</ele>
        <time>2015-08-02T12:06:00Z</time>
      </trkpt>
      <trkpt lat="40.249433" lon="-4.917983">
        <ele>1423.0</ele>
        <time>2015-08-02T12:06:02Z</time>
      </trkpt>
      <trkpt lat="40.249617" lon="-4.917800">
        <ele>1418.0</ele>
        <time>2015-08-02T12:06:04Z</time>
      </trkpt>
      <trkpt lat="40.249833" lon="-4.917617">
        <ele>1413.0</ele>
        <time>2015-08-02T12:06:06Z</time>
      </trkpt>
      <trkpt lat="40.250033" lon="-4.917433">
        <ele>1413.0</ele>
        <time>2015-08-02T12:06:08Z</time>
      </trkpt>
      <trkpt lat="40.250217" lon="-4.917250">
        <ele>1413.0</ele>
        <time>2015-08-02T12:06:10Z</time>
      </trkpt>
      <trkpt lat="40.250400" lon="-4.917067">
        <ele>1411.0</ele>
        <time>2015-08-02T12:06:12Z</time>
      </trkpt>
      <trkpt lat="40.250583" lon="-4.916900">
        <ele>1409.0</ele>
        <time>2015-08-02T12:06:14Z</time>
      </trkpt>
      <trkpt lat="40.250783" lon="-4.916733">
        <ele>1406.0</ele>
        <time>2015-08-02T12:06:16Z</time>
      </trkpt>
      <trkpt lat="40.250983" lon="-4.916550">
        <ele>1405.0</ele>
        <time>2015-08-02T12:06:18Z</time>
      </trkpt>
      <trkpt lat="40.251183" lon="-4.916383">
        <ele>1403.0</ele>
        <time>2015-08-02T12:06:20Z</time>
      </trkpt>
      <trkpt lat="40.251400" lon="-4.916217">
        <ele>1401.0</ele>
        <time>2015-08-02T12:06:22Z</time>
      </trkpt>
      <trkpt lat="40.251617" lon="-4.916067">
        <ele>1397.0</ele>
        <time>2015-08-02T12:06:24Z</time>
      </trkpt>
      <trkpt lat="40.251867" lon="-4.915900">
        <ele>1393.0</ele>
        <time>2015-08-02T12:06:26Z</time>
      </trkpt>
      <trkpt lat="40.252083" lon="-4.915750">
        <ele>1391.0</ele>
        <time>2015-08-02T12:06:28Z</time>
      </trkpt>
      <trkpt lat="40.252300" lon="-4.915583">
        <ele>1389.0</ele>
        <time>2015-08-02T12:06:30Z</time>
      </trkpt>
      <trkpt lat="40.252500" lon="-4.915417">
        <ele>1385.0</ele>
        <time>2015-08-02T12:06:32Z</time>
      </trkpt>
      <trkpt lat="40.252733" lon="-4.915250">
        <ele>1382.0</ele>
        <time>2015-08-02T12:06:34Z</time>
      </trkpt>
      <trkpt lat="40.252950" lon="-4.915083">
        <ele>1382.0</ele>
        <time>2015-08-02T12:06:36Z</time>
      </trkpt>
      <trkpt lat="40.253167" lon="-4.914933">
        <ele>1380.0</ele>
        <time>2015-08-02T12:06:38Z</time>
      </trkpt>
      <trkpt lat="40.253400" lon="-4.914767">
        <ele>1376.0</ele>
        <time>2015-08-02T12:06:40Z</time>
      </trkpt>
      <trkpt lat="40.253633" lon="-4.914600">
        <ele>1371.0</ele>
        <time>2015-08-02T12:06:42Z</time>
      </trkpt>
      <trkpt lat="40.253850" lon="-4.914400">
        <ele>1368.0</ele>
        <time>2015-08-02T12:06:44Z</time>
      </trkpt>
      <trkpt lat="40.254067" lon="-4.914200">
        <ele>1364.0</ele>
        <time>2015-08-02T12:06:46Z</time>
      </trkpt>
      <trkpt lat="40.254283" lon="-4.914000">
        <ele>1360.0</ele>
        <time>2015-08-02T12:06:48Z</time>
      </trkpt>
      <trkpt lat="40.254483" lon="-4.913783">
        <ele>1356.0</ele>
        <time>2015-08-02T12:06:50Z</time>
      </trkpt>
      <trkpt lat="40.254667" lon="-4.913550">
        <ele>1353.0</ele>
        <time>2015-08-02T12:06:52Z</time>
      </trkpt>
      <trkpt lat="40.254850" lon="-4.913333">
        <ele>1351.0</ele>
        <time>2015-08-02T12:06:54Z</time>
      </trkpt>
      <trkpt lat="40.255017" lon="-4.913100">
        <ele>1349.0</ele>
        <time>2015-08-02T12:06:56Z</time>
      </trkpt>
      <trkpt lat="40.255183" lon="-4.912867">
        <ele>1346.0</ele>
        <time>2015-08-02T12:06:58Z</time>
      </trkpt>
      <trkpt lat="40.255333" lon="-4.912650">
        <ele>1342.0</ele>
        <time>2015-08-02T12:07:00Z</time>
      </trkpt>
      <trkpt lat="40.255450" lon="-4.912417">
        <ele>1336.0</ele>
        <time>2015-08-02T12:07:02Z</time>
      </trkpt>
      <trkpt lat="40.255600" lon="-4.912100">
        <ele>1332.0</ele>
        <time>2015-08-02T12:07:04Z</time>
      </trkpt>
      <trkpt lat="40.255750" lon="-4.911800">
        <ele>1342.0</ele>
        <time>2015-08-02T12:07:06Z</time>
      </trkpt>
      <trkpt lat="40.255833" lon="-4.911617">
        <ele>1350.0</ele>
        <time>2015-08-02T12:07:08Z</time>
      </trkpt>
      <trkpt lat="40.255917" lon="-4.911400">
        <ele>1352.0</ele>
        <time>2015-08-02T12:07:10Z</time>
      </trkpt>
      <trkpt lat="40.255983" lon="-4.911083">
        <ele>1358.0</ele>
        <time>2015-08-02T12:07:12Z</time>
      </trkpt>
      <trkpt lat="40.255917" lon="-4.910817">
        <ele>1364.0</ele>
        <time>2015-08-02T12:07:14Z</time>
      </trkpt>
      <trkpt lat="40.255783" lon="-4.910667">
        <ele>1367.0</ele>
        <time>2015-08-02T12:07:16Z</time>
      </trkpt>
      <trkpt lat="40.255583" lon="-4.910667">
        <ele>1369.0</ele>
        <time>2015-08-02T12:07:18Z</time>
      </trkpt>
      <trkpt lat="40.255450" lon="-4.910800">
        <ele>1376.0</ele>
        <time>2015-08-02T12:07:20Z</time>
      </trkpt>
      <trkpt lat="40.255367" lon="-4.910983">
        <ele>1382.0</ele>
        <time>2015-08-02T12:07:22Z</time>
      </trkpt>
      <trkpt lat="40.255317" lon="-4.911183">
        <ele>1389.0</ele>
        <time>2015-08-02T12:07:24Z</time>
      </trkpt>
      <trkpt lat="40.255383" lon="-4.911333">
        <ele>1394.0</ele>
        <time>2015-08-02T12:07:26Z</time>
      </trkpt>
      <trkpt lat="40.255567" lon="-4.911367">
        <ele>1392.0</ele>
        <time>2015-08-02T12:07:28Z</time>
      </trkpt>
      <trkpt lat="40.255817" lon="-4.911250">
        <ele>1389.0</ele>
        <time>2015-08-02T12:07:30Z</time>
      </trkpt>
      <trkpt lat="40.255983" lon="-4.910967">
        <ele>1393.0</ele>
        <time>2015-08-02T12:07:32Z</time>
      </trkpt>
      <trkpt lat="40.256067" lon="-4.910700">
        <ele>1402.0</ele>
        <time>2015-08-02T12:07:34Z</time>
      </trkpt>
      <trkpt lat="40.256117" lon="-4.910450">
        <ele>1410.0</ele>
        <time>2015-08-02T12:07:36Z</time>
      </trkpt>
      <trkpt lat="40.256050" lon="-4.910200">
        <ele>1415.0</ele>
        <time>2015-08-02T12:07:38Z</time>
      </trkpt>
      <trkpt lat="40.255883" lon="-4.910017">
        <ele>1416.0</ele>
        <time>2015-08-02T12:07:40Z</time>
      </trkpt>
      <trkpt lat="40.255683" lon="-4.910000">
        <ele>1419.0</ele>
        <time>2015-08-02T12:07:42Z</time>
      </trkpt>
      <trkpt lat="40.255517" lon="-4.910100">
        <ele>1423.0</ele>
        <time>2015-08-02T12:07:44Z</time>
      </trkpt>
      <trkpt lat="40.255433" lon="-4.910233">
        <ele>1428.0</ele>
        <time>2015-08-02T12:07:46Z</time>
      </trkpt>
      <trkpt lat="40.255417" lon="-4.910383">
        <ele>1437.0</ele>
        <time>2015-08-02T12:07:48Z</time>
      </trkpt>
      <trkpt lat="40.255517" lon="-4.910433">
        <ele>1438.0</ele>
        <time>2015-08-02T12:07:50Z</time>
      </trkpt>
      <trkpt lat="40.255667" lon="-4.910467">
        <ele>1437.0</ele>
        <time>2015-08-02T12:07:52Z</time>
      </trkpt>
      <trkpt lat="40.255867" lon="-4.910450">
        <ele>1436.0</ele>
        <time>2015-08-02T12:07:54Z</time>
      </trkpt>
      <trkpt lat="40.256067" lon="-4.910300">
        <ele>1440.0</ele>
        <time>2015-08-02T12:07:56Z</time>
      </trkpt>
      <trkpt lat="40.256217" lon="-4.910067">
        <ele>1444.0</ele>
        <time>2015-08-02T12:07:58Z</time>
      </trkpt>
      <trkpt lat="40.256300" lon="-4.909717">
        <ele>1447.0</ele>
        <time>2015-08-02T12:08:00Z</time>
      </trkpt>
      <trkpt lat="40.256250" lon="-4.909400">
        <ele>1451.0</ele>
        <time>2015-08-02T12:08:02Z</time>
      </trkpt>
      <trkpt lat="40.256167" lon="-4.909117">
        <ele>1458.0</ele>
        <time>2015-08-02T12:08:04Z</time>
      </trkpt>
      <trkpt lat="40.256017" lon="-4.908883">
        <ele>1462.0</ele>
        <time>2015-08-02T12:08:06Z</time>
      </trkpt>
      <trkpt lat="40.255833" lon="-4.908767">
        <ele>1464.0</ele>
        <time>2015-08-02T12:08:08Z</time>
      </trkpt>
      <trkpt lat="40.255650" lon="-4.908783">
        <ele>1467.0</ele>
        <time>2015-08-02T12:08:10Z</time>
      </trkpt>
      <trkpt lat="40.255550" lon="-4.908833">
        <ele>1473.0</ele>
        <time>2015-08-02T12:08:12Z</time>
      </trkpt>
      <trkpt lat="40.255533" lon="-4.908917">
        <ele>1477.0</ele>
        <time>2015-08-02T12:08:14Z</time>
      </trkpt>
      <trkpt lat="40.255600" lon="-4.909033">
        <ele>1478.0</ele>
        <time>2015-08-02T12:08:16Z</time>
      </trkpt>
      <trkpt lat="40.255767" lon="-4.909067">
        <ele>1481.0</ele>
        <time>2015-08-02T12:08:18Z</time>
      </trkpt>
      <trkpt lat="40.255967" lon="-4.908950">
        <ele>1483.0</ele>
        <time>2015-08-02T12:08:20Z</time>
      </trkpt>
      <trkpt lat="40.256117" lon="-4.908683">
        <ele>1487.0</ele>
        <time>2015-08-02T12:08:22Z</time>
      </trkpt>
      <trkpt lat="40.256167" lon="-4.908350">
        <ele>1492.0</ele>
        <time>2015-08-02T12:08:24Z</time>
      </trkpt>
      <trkpt lat="40.256083" lon="-4.908067">
        <ele>1496.0</ele>
        <time>2015-08-02T12:08:26Z</time>
      </trkpt>
      <trkpt lat="40.255917" lon="-4.907867">
        <ele>1499.0</ele>
        <time>2015-08-02T12:08:28Z</time>
      </trkpt>
      <trkpt lat="40.255733" lon="-4.907817">
        <ele>1505.0</ele>
        <time>2015-08-02T12:08:30Z</time>
      </trkpt>
      <trkpt lat="40.255617" lon="-4.907833">
        <ele>1510.0</ele>
        <time>2015-08-02T12:08:32Z</time>
      </trkpt>
      <trkpt lat="40.255550" lon="-4.907933">
        <ele>1509.0</ele>
        <time>2015-08-02T12:08:34Z</time>
      </trkpt>
      <trkpt lat="40.255567" lon="-4.908117">
        <ele>1507.0</ele>
        <time>2015-08-02T12:08:36Z</time>
      </trkpt>
      <trkpt lat="40.255750" lon="-4.908267">
        <ele>1506.0</ele>
        <time>2015-08-02T12:08:38Z</time>
      </trkpt>
      <trkpt lat="40.255950" lon="-4.908217">
        <ele>1508.0</ele>
        <time>2015-08-02T12:08:40Z</time>
      </trkpt>
      <trkpt lat="40.256133" lon="-4.908083">
        <ele>1507.0</ele>
        <time>2015-08-02T12:08:42Z</time>
      </trkpt>
      <trkpt lat="40.256317" lon="-4.907817">
        <ele>1504.0</ele>
        <time>2015-08-02T12:08:44Z</time>
      </trkpt>
      <trkpt lat="40.256350" lon="-4.907483">
        <ele>1507.0</ele>
        <time>2015-08-02T12:08:46Z</time>
      </trkpt>
      <trkpt lat="40.256283" lon="-4.907267">
        <ele>1511.0</ele>
        <time>2015-08-02T12:08:48Z</time>
      </trkpt>
      <trkpt lat="40.256167" lon="-4.907083">
        <ele>1515.0</ele>
        <time>2015-08-02T12:08:50Z</time>
      </trkpt>
      <trkpt lat="40.256100" lon="-4.906833">
        <ele>1521.0</ele>
        <time>2015-08-02T12:08:52Z</time>
      </trkpt>
      <trkpt lat="40.256067" lon="-4.906650">
        <ele>1523.0</ele>
        <time>2015-08-02T12:08:54Z</time>
      </trkpt>
      <trkpt lat="40.255967" lon="-4.906600">
        <ele>1524.0</ele>
        <time>2015-08-02T12:08:56Z</time>
      </trkpt>
      <trkpt lat="40.255867" lon="-4.906683">
        <ele>1529.0</ele>
        <time>2015-08-02T12:08:58Z</time>
      </trkpt>
      <trkpt lat="40.255833" lon="-4.906783">
        <ele>1534.0</ele>
        <time>2015-08-02T12:09:00Z</time>
      </trkpt>
      <trkpt lat="40.255867" lon="-4.906900">
        <ele>1533.0</ele>
        <time>2015-08-02T12:09:02Z</time>
      </trkpt>
      <trkpt lat="40.255967" lon="-4.907050">
        <ele>1531.0</ele>
        <time>2015-08-02T12:09:04Z</time>
      </trkpt>
      <trkpt lat="40.256167" lon="-4.907150">
        <ele>1533.0</ele>
        <time>2015-08-02T12:09:06Z</time>
      </trkpt>
      <trkpt lat="40.256367" lon="-4.907133">
        <ele>1534.0</ele>
        <time>2015-08-02T12:09:08Z</time>
      </trkpt>
      <trkpt lat="40.256583" lon="-4.906967">
        <ele>1531.0</ele>
        <time>2015-08-02T12:09:10Z</time>
      </trkpt>
      <trkpt lat="40.256683" lon="-4.906633">
        <ele>1527.0</ele>
        <time>2015-08-02T12:09:12Z</time>
      </trkpt>
      <trkpt lat="40.256633" lon="-4.906367">
        <ele>1529.0</ele>
        <time>2015-08-02T12:09:14Z</time>
      </trkpt>
      <trkpt lat="40.256583" lon="-4.906167">
        <ele>1534.0</ele>
        <time>2015-08-02T12:09:16Z</time>
      </trkpt>
      <trkpt lat="40.256533" lon="-4.906033">
        <ele>1535.0</ele>
        <time>2015-08-02T12:09:18Z</time>
      </trkpt>
      <trkpt lat="40.256433" lon="-4.905917">
        <ele>1535.0</ele>
        <time>2015-08-02T12:09:20Z</time>
      </trkpt>
      <trkpt lat="40.256333" lon="-4.905867">
        <ele>1537.0</ele>
        <time>2015-08-02T12:09:22Z</time>
      </trkpt>
      <trkpt lat="40.256233" lon="-4.905917">
        <ele>1539.0</ele>
        <time>2015-08-02T12:09:24Z</time>
      </trkpt>
      <trkpt lat="40.256167" lon="-4.906017">
        <ele>1544.0</ele>
        <time>2015-08-02T12:09:26Z</time>
      </trkpt>
      <trkpt lat="40.256100" lon="-4.906100">
        <ele>1552.0</ele>
        <time>2015-08-02T12:09:28Z</time>
      </trkpt>
      <trkpt lat="40.256083" lon="-4.906217">
        <ele>1560.0</ele>
        <time>2015-08-02T12:09:30Z</time>
      </trkpt>
      <trkpt lat="40.256150" lon="-4.906383">
        <ele>1567.0</ele>
        <time>2015-08-02T12:09:32Z</time>
      </trkpt>
      <trkpt lat="40.256383" lon="-4.906500">
        <ele>1572.0</ele>
        <time>2015-08-02T12:09:34Z</time>
      </trkpt>
      <trkpt lat="40.256650" lon="-4.906400">
        <ele>1578.0</ele>
        <time>2015-08-02T12:09:36Z</time>
      </trkpt>
      <trkpt lat="40.256817" lon="-4.906133">
        <ele>1585.0</ele>
        <time>2015-08-02T12:09:38Z</time>
      </trkpt>
      <trkpt lat="40.256900" lon="-4.905850">
        <ele>1591.0</ele>
        <time>2015-08-02T12:09:40Z</time>
      </trkpt>
      <trkpt lat="40.256883" lon="-4.905600">
        <ele>1595.0</ele>
        <time>2015-08-02T12:09:42Z</time>
      </trkpt>
      <trkpt lat="40.256800" lon="-4.905433">
        <ele>1599.0</ele>
        <time>2015-08-02T12:09:44Z</time>
      </trkpt>
      <trkpt lat="40.256683" lon="-4.905417">
        <ele>1606.0</ele>
        <time>2015-08-02T12:09:46Z</time>
      </trkpt>
      <trkpt lat="40.256633" lon="-4.905550">
        <ele>1614.0</ele>
        <time>2015-08-02T12:09:48Z</time>
      </trkpt>
      <trkpt lat="40.256650" lon="-4.905700">
        <ele>1622.0</ele>
        <time>2015-08-02T12:09:50Z</time>
      </trkpt>
      <trkpt lat="40.256783" lon="-4.905867">
        <ele>1629.0</ele>
        <time>2015-08-02T12:09:52Z</time>
      </trkpt>
      <trkpt lat="40.256983" lon="-4.905900">
        <ele>1636.0</ele>
        <time>2015-08-02T12:09:54Z</time>
      </trkpt>
      <trkpt lat="40.257200" lon="-4.905850">
        <ele>1642.0</ele>
        <time>2015-08-02T12:09:56Z</time>
      </trkpt>
      <trkpt lat="40.257417" lon="-4.905683">
        <ele>1647.0</ele>
        <time>2015-08-02T12:09:58Z</time>
      </trkpt>
      <trkpt lat="40.257567" lon="-4.905383">
        <ele>1651.0</ele>
        <time>2015-08-02T12:10:00Z</time>
      </trkpt>
      <trkpt lat="40.257617" lon="-4.905067">
        <ele>1656.0</ele>
        <time>2015-08-02T12:10:02Z</time>
      </trkpt>
      <trkpt lat="40.257567" lon="-4.904817">
        <ele>1662.0</ele>
        <time>2015-08-02T12:10:04Z</time>
      </trkpt>
      <trkpt lat="40.257450" lon="-4.904683">
        <ele>1668.0</ele>
        <time>2015-08-02T12:10:06Z</time>
      </trkpt>
      <trkpt lat="40.257333" lon="-4.904700">
        <ele>1673.0</ele>
        <time>2015-08-02T12:10:08Z</time>
      </trkpt>
      <trkpt lat="40.257267" lon="-4.904817">
        <ele>1684.0</ele>
        <time>2015-08-02T12:10:10Z</time>
      </trkpt>
      <trkpt lat="40.257267" lon="-4.904950">
        <ele>1693.0</ele>
        <time>2015-08-02T12:10:12Z</time>
      </trkpt>
      <trkpt lat="40.257350" lon="-4.905083">
        <ele>1699.0</ele>
        <time>2015-08-02T12:10:14Z</time>
      </trkpt>
      <trkpt lat="40.257533" lon="-4.905183">
        <ele>1703.0</ele>
        <time>2015-08-02T12:10:16Z</time>
      </trkpt>
      <trkpt lat="40.257783" lon="-4.905133">
        <ele>1710.0</ele>
        <time>2015-08-02T12:10:18Z</time>
      </trkpt>
      <trkpt lat="40.257983" lon="-4.904933">
        <ele>1718.0</ele>
        <time>2015-08-02T12:10:20Z</time>
      </trkpt>
      <trkpt lat="40.258100" lon="-4.904650">
        <ele>1725.0</ele>
        <time>2015-08-02T12:10:22Z</time>
      </trkpt>
      <trkpt lat="40.258150" lon="-4.904350">
        <ele>1731.0</ele>
        <time>2015-08-02T12:10:24Z</time>
      </trkpt>
      <trkpt lat="40.258083" lon="-4.904133">
        <ele>1737.0</ele>
        <time>2015-08-02T12:10:26Z</time>
      </trkpt>
      <trkpt lat="40.257967" lon="-4.904017">
        <ele>1745.0</ele>
        <time>2015-08-02T12:10:28Z</time>
      </trkpt>
      <trkpt lat="40.257850" lon="-4.904000">
        <ele>1754.0</ele>
        <time>2015-08-02T12:10:30Z</time>
      </trkpt>
      <trkpt lat="40.257800" lon="-4.904117">
        <ele>1761.0</ele>
        <time>2015-08-02T12:10:32Z</time>
      </trkpt>
      <trkpt lat="40.257867" lon="-4.904283">
        <ele>1764.0</ele>
        <time>2015-08-02T12:10:34Z</time>
      </trkpt>
      <trkpt lat="40.258100" lon="-4.904417">
        <ele>1767.0</ele>
        <time>2015-08-02T12:10:36Z</time>
      </trkpt>
      <trkpt lat="40.258383" lon="-4.904400">
        <ele>1780.0</ele>
        <time>2015-08-02T12:10:38Z</time>
      </trkpt>
      <trkpt lat="40.258583" lon="-4.904317">
        <ele>1791.0</ele>
        <time>2015-08-02T12:10:40Z</time>
      </trkpt>
      <trkpt lat="40.258817" lon="-4.904250">
        <ele>1794.0</ele>
        <time>2015-08-02T12:10:42Z</time>
      </trkpt>
      <trkpt lat="40.259067" lon="-4.904067">
        <ele>1797.0</ele>
        <time>2015-08-02T12:10:44Z</time>
      </trkpt>
      <trkpt lat="40.259183" lon="-4.903783">
        <ele>1802.0</ele>
        <time>2015-08-02T12:10:46Z</time>
      </trkpt>
      <trkpt lat="40.259200" lon="-4.903500">
        <ele>1809.0</ele>
        <time>2015-08-02T12:10:48Z</time>
      </trkpt>
      <trkpt lat="40.259167" lon="-4.903300">
        <ele>1817.0</ele>
        <time>2015-08-02T12:10:50Z</time>
      </trkpt>
      <trkpt lat="40.259067" lon="-4.903200">
        <ele>1824.0</ele>
        <time>2015-08-02T12:10:52Z</time>
      </trkpt>
      <trkpt lat="40.258967" lon="-4.903217">
        <ele>1832.0</ele>
        <time>2015-08-02T12:10:54Z</time>
      </trkpt>
      <trkpt lat="40.258967" lon="-4.903367">
        <ele>1841.0</ele>
        <time>2015-08-02T12:10:56Z</time>
      </trkpt>
      <trkpt lat="40.259083" lon="-4.903500">
        <ele>1849.0</ele>
        <time>2015-08-02T12:10:58Z</time>
      </trkpt>
      <trkpt lat="40.259283" lon="-4.903550">
        <ele>1856.0</ele>
        <time>2015-08-02T12:11:00Z</time>
      </trkpt>
      <trkpt lat="40.259483" lon="-4.903483">
        <ele>1860.0</ele>
        <time>2015-08-02T12:11:02Z</time>
      </trkpt>
      <trkpt lat="40.259717" lon="-4.903317">
        <ele>1864.0</ele>
        <time>2015-08-02T12:11:04Z</time>
      </trkpt>
      <trkpt lat="40.259867" lon="-4.903067">
        <ele>1870.0</ele>
        <time>2015-08-02T12:11:06Z</time>
      </trkpt>
      <trkpt lat="40.259900" lon="-4.902800">
        <ele>1877.0</ele>
        <time>2015-08-02T12:11:08Z</time>
      </trkpt>
      <trkpt lat="40.259867" lon="-4.902600">
        <ele>1885.0</ele>
        <time>2015-08-02T12:11:10Z</time>
      </trkpt>
      <trkpt lat="40.259767" lon="-4.902500">
        <ele>1892.0</ele>
        <time>2015-08-02T12:11:12Z</time>
      </trkpt>
      <trkpt lat="40.259650" lon="-4.902517">
        <ele>1902.0</ele>
        <time>2015-08-02T12:11:14Z</time>
      </trkpt>
      <trkpt lat="40.259633" lon="-4.902600">
        <ele>1911.0</ele>
        <time>2015-08-02T12:11:16Z</time>
      </trkpt>
      <trkpt lat="40.259683" lon="-4.902717">
        <ele>1916.0</ele>
        <time>2015-08-02T12:11:18Z</time>
      </trkpt>
      <trkpt lat="40.259817" lon="-4.902850">
        <ele>1921.0</ele>
        <time>2015-08-02T12:11:20Z</time>
      </trkpt>
      <trkpt lat="40.260050" lon="-4.902883">
        <ele>1925.0</ele>
        <time>2015-08-02T12:11:22Z</time>
      </trkpt>
      <trkpt lat="40.260267" lon="-4.902733">
        <ele>1928.0</ele>
        <time>2015-08-02T12:11:24Z</time>
      </trkpt>
      <trkpt lat="40.260417" lon="-4.902467">
        <ele>1934.0</ele>
        <time>2015-08-02T12:11:26Z</time>
      </trkpt>
      <trkpt lat="40.260433" lon="-4.902200">
        <ele>1940.0</ele>
        <time>2015-08-02T12:11:28Z</time>
      </trkpt>
      <trkpt lat="40.260350" lon="-4.902050">
        <ele>1946.0</ele>
        <time>2015-08-02T12:11:30Z</time>
      </trkpt>
      <trkpt lat="40.260233" lon="-4.902000">
        <ele>1955.0</ele>
        <time>2015-08-02T12:11:32Z</time>
      </trkpt>
      <trkpt lat="40.260133" lon="-4.902050">
        <ele>1965.0</ele>
        <time>2015-08-02T12:11:34Z</time>
      </trkpt>
      <trkpt lat="40.260117" lon="-4.902200">
        <ele>1974.0</ele>
        <time>2015-08-02T12:11:36Z</time>
      </trkpt>
      <trkpt lat="40.260250" lon="-4.902350">
        <ele>1983.0</ele>
        <time>2015-08-02T12:11:38Z</time>
      </trkpt>
      <trkpt lat="40.260433" lon="-4.902383">
        <ele>1989.0</ele>
        <time>2015-08-02T12:11:40Z</time>
      </trkpt>
      <trkpt lat="40.260633" lon="-4.902350">
        <ele>1992.0</ele>
        <time>2015-08-02T12:11:42Z</time>
      </trkpt>
      <trkpt lat="40.260850" lon="-4.902217">
        <ele>1993.0</ele>
        <time>2015-08-02T12:11:44Z</time>
      </trkpt>
      <trkpt lat="40.261050" lon="-4.901983">
        <ele>1997.0</ele>
        <time>2015-08-02T12:11:46Z</time>
      </trkpt>
      <trkpt lat="40.261167" lon="-4.901750">
        <ele>2007.0</ele>
        <time>2015-08-02T12:11:48Z</time>
      </trkpt>
      <trkpt lat="40.261200" lon="-4.901483">
        <ele>2013.0</ele>
        <time>2015-08-02T12:11:50Z</time>
      </trkpt>
      <trkpt lat="40.261167" lon="-4.901233">
        <ele>2020.0</ele>
        <time>2015-08-02T12:11:52Z</time>
      </trkpt>
      <trkpt lat="40.261067" lon="-4.901117">
        <ele>2027.0</ele>
        <time>2015-08-02T12:11:54Z</time>
      </trkpt>
      <trkpt lat="40.260967" lon="-4.901133">
        <ele>2034.0</ele>
        <time>2015-08-02T12:11:56Z</time>
      </trkpt>
      <trkpt lat="40.260900" lon="-4.901283">
        <ele>2041.0</ele>
        <time>2015-08-02T12:11:58Z</time>
      </trkpt>
      <trkpt lat="40.260967" lon="-4.901483">
        <ele>2048.0</ele>
        <time>2015-08-02T12:12:00Z</time>
      </trkpt>
      <trkpt lat="40.261133" lon="-4.901650">
        <ele>2055.0</ele>
        <time>2015-08-02T12:12:02Z</time>
      </trkpt>
      <trkpt lat="40.261350" lon="-4.901700">
        <ele>2061.0</ele>
        <time>2015-08-02T12:12:04Z</time>
      </trkpt>
      <trkpt lat="40.261583" lon="-4.901650">
        <ele>2065.0</ele>
        <time>2015-08-02T12:12:06Z</time>
      </trkpt>
      <trkpt lat="40.261817" lon="-4.901450">
        <ele>2068.0</ele>
        <time>2015-08-02T12:12:08Z</time>
      </trkpt>
      <trkpt lat="40.262017" lon="-4.901200">
        <ele>2075.0</ele>
        <time>2015-08-02T12:12:10Z</time>
      </trkpt>
      <trkpt lat="40.262150" lon="-4.900933">
        <ele>2081.0</ele>
        <time>2015-08-02T12:12:12Z</time>
      </trkpt>
      <trkpt lat="40.262167" lon="-4.900650">
        <ele>2085.0</ele>
        <time>2015-08-02T12:12:14Z</time>
      </trkpt>
      <trkpt lat="40.262100" lon="-4.900433">
        <ele>2092.0</ele>
        <time>2015-08-02T12:12:16Z</time>
      </trkpt>
      <trkpt lat="40.262017" lon="-4.900350">
        <ele>2101.0</ele>
        <time>2015-08-02T12:12:18Z</time>
      </trkpt>
      <trkpt lat="40.261933" lon="-4.900400">
        <ele>2107.0</ele>
        <time>2015-08-02T12:12:20Z</time>
      </trkpt>
      <trkpt lat="40.261917" lon="-4.900583">
        <ele>2114.0</ele>
        <time>2015-08-02T12:12:22Z</time>
      </trkpt>
      <trkpt lat="40.262050" lon="-4.900733">
        <ele>2121.0</ele>
        <time>2015-08-02T12:12:24Z</time>
      </trkpt>
      <trkpt lat="40.262250" lon="-4.900750">
        <ele>2126.0</ele>
        <time>2015-08-02T12:12:26Z</time>
      </trkpt>
      <trkpt lat="40.262517" lon="-4.900650">
        <ele>2129.0</ele>
        <time>2015-08-02T12:12:28Z</time>
      </trkpt>
      <trkpt lat="40.262750" lon="-4.900450">
        <ele>2133.0</ele>
        <time>2015-08-02T12:12:30Z</time>
      </trkpt>
      <trkpt lat="40.262883" lon="-4.900167">
        <ele>2138.0</ele>
        <time>2015-08-02T12:12:32Z</time>
      </trkpt>
      <trkpt lat="40.262917" lon="-4.899867">
        <ele>2143.0</ele>
        <time>2015-08-02T12:12:34Z</time>
      </trkpt>
      <trkpt lat="40.262900" lon="-4.899633">
        <ele>2149.0</ele>
        <time>2015-08-02T12:12:36Z</time>
      </trkpt>
      <trkpt lat="40.262800" lon="-4.899500">
        <ele>2152.0</ele>
        <time>2015-08-02T12:12:38Z</time>
      </trkpt>
      <trkpt lat="40.262683" lon="-4.899500">
        <ele>2156.0</ele>
        <time>2015-08-02T12:12:40Z</time>
      </trkpt>
      <trkpt lat="40.262633" lon="-4.899633">
        <ele>2162.0</ele>
        <time>2015-08-02T12:12:42Z</time>
      </trkpt>
      <trkpt lat="40.262683" lon="-4.899817">
        <ele>2168.0</ele>
        <time>2015-08-02T12:12:44Z</time>
      </trkpt>
      <trkpt lat="40.262800" lon="-4.899967">
        <ele>2174.0</ele>
        <time>2015-08-02T12:12:46Z</time>
      </trkpt>
      <trkpt lat="40.263000" lon="-4.900067">
        <ele>2176.0</ele>
        <time>2015-08-02T12:12:48Z</time>
      </trkpt>
      <trkpt lat="40.263283" lon="-4.899983">
        <ele>2176.0</ele>
        <time>2015-08-02T12:12:50Z</time>
      </trkpt>
      <trkpt lat="40.263500" lon="-4.899733">
        <ele>2180.0</ele>
        <time>2015-08-02T12:12:52Z</time>
      </trkpt>
      <trkpt lat="40.263617" lon="-4.899450">
        <ele>2186.0</ele>
        <time>2015-08-02T12:12:54Z</time>
      </trkpt>
      <trkpt lat="40.263683" lon="-4.899183">
        <ele>2192.0</ele>
        <time>2015-08-02T12:12:56Z</time>
      </trkpt>
      <trkpt lat="40.263650" lon="-4.898950">
        <ele>2195.0</ele>
        <time>2015-08-02T12:12:58Z</time>
      </trkpt>
      <trkpt lat="40.263550" lon="-4.898817">
        <ele>2198.0</ele>
        <time>2015-08-02T12:13:00Z</time>
      </trkpt>
      <trkpt lat="40.263433" lon="-4.898867">
        <ele>2203.0</ele>
        <time>2015-08-02T12:13:02Z</time>
      </trkpt>
      <trkpt lat="40.263383" lon="-4.899017">
        <ele>2208.0</ele>
        <time>2015-08-02T12:13:04Z</time>
      </trkpt>
      <trkpt lat="40.263433" lon="-4.899183">
        <ele>2214.0</ele>
        <time>2015-08-02T12:13:06Z</time>
      </trkpt>
      <trkpt lat="40.263567" lon="-4.899333">
        <ele>2218.0</ele>
        <time>2015-08-02T12:13:08Z</time>
      </trkpt>
      <trkpt lat="40.263800" lon="-4.899400">
        <ele>2221.0</ele>
        <time>2015-08-02T12:13:10Z</time>
      </trkpt>
      <trkpt lat="40.264050" lon="-4.899283">
        <ele>2224.0</ele>
        <time>2015-08-02T12:13:12Z</time>
      </trkpt>
      <trkpt lat="40.264217" lon="-4.899000">
        <ele>2226.0</ele>
        <time>2015-08-02T12:13:14Z</time>
      </trkpt>
      <trkpt lat="40.264250" lon="-4.898717">
        <ele>2231.0</ele>
        <time>2015-08-02T12:13:16Z</time>
      </trkpt>
      <trkpt lat="40.264233" lon="-4.898517">
        <ele>2236.0</ele>
        <time>2015-08-02T12:13:18Z</time>
      </trkpt>
      <trkpt lat="40.264150" lon="-4.898367">
        <ele>2239.0</ele>
        <time>2015-08-02T12:13:20Z</time>
      </trkpt>
      <trkpt lat="40.264033" lon="-4.898350">
        <ele>2243.0</ele>
        <time>2015-08-02T12:13:22Z</time>
      </trkpt>
      <trkpt lat="40.263967" lon="-4.898467">
        <ele>2248.0</ele>
        <time>2015-08-02T12:13:24Z</time>
      </trkpt>
      <trkpt lat="40.263967" lon="-4.898617">
        <ele>2254.0</ele>
        <time>2015-08-02T12:13:26Z</time>
      </trkpt>
      <trkpt lat="40.264033" lon="-4.898800">
        <ele>2258.0</ele>
        <time>2015-08-02T12:13:28Z</time>
      </trkpt>
      <trkpt lat="40.264183" lon="-4.898967">
        <ele>2260.0</ele>
        <time>2015-08-02T12:13:30Z</time>
      </trkpt>
      <trkpt lat="40.264433" lon="-4.898983">
        <ele>2262.0</ele>
        <time>2015-08-02T12:13:32Z</time>
      </trkpt>
      <trkpt lat="40.264667" lon="-4.898850">
        <ele>2264.0</ele>
        <time>2015-08-02T12:13:34Z</time>
      </trkpt>
      <trkpt lat="40.264867" lon="-4.898667">
        <ele>2266.0</ele>
        <time>2015-08-02T12:13:36Z</time>
      </trkpt>
      <trkpt lat="40.265000" lon="-4.898383">
        <ele>2267.0</ele>
        <time>2015-08-02T12:13:38Z</time>
      </trkpt>
      <trkpt lat="40.265067" lon="-4.898050">
        <ele>2271.0</ele>
        <time>2015-08-02T12:13:40Z</time>
      </trkpt>
      <trkpt lat="40.265050" lon="-4.897817">
        <ele>2276.0</ele>
        <time>2015-08-02T12:13:42Z</time>
      </trkpt>
      <trkpt lat="40.264967" lon="-4.897633">
        <ele>2280.0</ele>
        <time>2015-08-02T12:13:44Z</time>
      </trkpt>
      <trkpt lat="40.264867" lon="-4.897583">
        <ele>2285.0</ele>
        <time>2015-08-02T12:13:46Z</time>
      </trkpt>
      <trkpt lat="40.264800" lon="-4.897683">
        <ele>2289.0</ele>
        <time>2015-08-02T12:13:48Z</time>
      </trkpt>
      <trkpt lat="40.264817" lon="-4.897817">
        <ele>2295.0</ele>
        <time>2015-08-02T12:13:50Z</time>
      </trkpt>
      <trkpt lat="40.264917" lon="-4.897950">
        <ele>2301.0</ele>
        <time>2015-08-02T12:13:52Z</time>
      </trkpt>
      <trkpt lat="40.265117" lon="-4.898017">
        <ele>2304.0</ele>
        <time>2015-08-02T12:13:54Z</time>
      </trkpt>
      <trkpt lat="40.265333" lon="-4.897983">
        <ele>2307.0</ele>
        <time>2015-08-02T12:13:56Z</time>
      </trkpt>
      <trkpt lat="40.265567" lon="-4.897783">
        <ele>2307.0</ele>
        <time>2015-08-02T12:13:58Z</time>
      </trkpt>
      <trkpt lat="40.265717" lon="-4.897467">
        <ele>2310.0</ele>
        <time>2015-08-02T12:14:00Z</time>
      </trkpt>
      <trkpt lat="40.265767" lon="-4.897167">
        <ele>2317.0</ele>
        <time>2015-08-02T12:14:02Z</time>
      </trkpt>
      <trkpt lat="40.265767" lon="-4.896917">
        <ele>2319.0</ele>
        <time>2015-08-02T12:14:04Z</time>
      </trkpt>
      <trkpt lat="40.265683" lon="-4.896700">
        <ele>2320.0</ele>
        <time>2015-08-02T12:14:06Z</time>
      </trkpt>
      <trkpt lat="40.265583" lon="-4.896583">
        <ele>2325.0</ele>
        <time>2015-08-02T12:14:08Z</time>
      </trkpt>
      <trkpt lat="40.265500" lon="-4.896583">
        <ele>2327.0</ele>
        <time>2015-08-02T12:14:10Z</time>
      </trkpt>
      <trkpt lat="40.265417" lon="-4.896667">
        <ele>2328.0</ele>
        <time>2015-08-02T12:14:12Z</time>
      </trkpt>
      <trkpt lat="40.265400" lon="-4.896817">
        <ele>2333.0</ele>
        <time>2015-08-02T12:14:14Z</time>
      </trkpt>
      <trkpt lat="40.265500" lon="-4.896950">
        <ele>2339.0</ele>
        <time>2015-08-02T12:14:16Z</time>
      </trkpt>
      <trkpt lat="40.265683" lon="-4.896983">
        <ele>2344.0</ele>
        <time>2015-08-02T12:14:18Z</time>
      </trkpt>
      <trkpt lat="40.265917" lon="-4.896950">
        <ele>2346.0</ele>
        <time>2015-08-02T12:14:20Z</time>
      </trkpt>
      <trkpt lat="40.266150" lon="-4.896800">
        <ele>2350.0</ele>
        <time>2015-08-02T12:14:22Z</time>
      </trkpt>
      <trkpt lat="40.266350" lon="-4.896517">
        <ele>2354.0</ele>
        <time>2015-08-02T12:14:24Z</time>
      </trkpt>
      <trkpt lat="40.266450" lon="-4.896183">
        <ele>2357.0</ele>
        <time>2015-08-02T12:14:26Z</time>
      </trkpt>
      <trkpt lat="40.266483" lon="-4.895867">
        <ele>2358.0</ele>
        <time>2015-08-02T12:14:28Z</time>
      </trkpt>
      <trkpt lat="40.266433" lon="-4.895567">
        <ele>2357.0</ele>
        <time>2015-08-02T12:14:30Z</time>
      </trkpt>
      <trkpt lat="40.266367" lon="-4.895350">
        <ele>2359.0</ele>
        <time>2015-08-02T12:14:32Z</time>
      </trkpt>
      <trkpt lat="40.266250" lon="-4.895267">
        <ele>2359.0</ele>
        <time>2015-08-02T12:14:34Z</time>
      </trkpt>
      <trkpt lat="40.266150" lon="-4.895300">
        <ele>2360.0</ele>
        <time>2015-08-02T12:14:36Z</time>
      </trkpt>
      <trkpt lat="40.266133" lon="-4.895417">
        <ele>2361.0</ele>
        <time>2015-08-02T12:14:38Z</time>
      </trkpt>
      <trkpt lat="40.266217" lon="-4.895550">
        <ele>2362.0</ele>
        <time>2015-08-02T12:14:40Z</time>
      </trkpt>
      <trkpt lat="40.266367" lon="-4.895650">
        <ele>2361.0</ele>
        <time>2015-08-02T12:14:42Z</time>
      </trkpt>
      <trkpt lat="40.266617" lon="-4.895617">
        <ele>2360.0</ele>
        <time>2015-08-02T12:14:44Z</time>
      </trkpt>
      <trkpt lat="40.266850" lon="-4.895417">
        <ele>2360.0</ele>
        <time>2015-08-02T12:14:46Z</time>
      </trkpt>
      <trkpt lat="40.266983" lon="-4.895117">
        <ele>2361.0</ele>
        <time>2015-08-02T12:14:48Z</time>
      </trkpt>
      <trkpt lat="40.267067" lon="-4.894767">
        <ele>2359.0</ele>
        <time>2015-08-02T12:14:50Z</time>
      </trkpt>
      <trkpt lat="40.267133" lon="-4.894433">
        <ele>2357.0</ele>
        <time>2015-08-02T12:14:52Z</time>
      </trkpt>
      <trkpt lat="40.267217" lon="-4.894083">
        <ele>2354.0</ele>
        <time>2015-08-02T12:14:54Z</time>
      </trkpt>
      <trkpt lat="40.267333" lon="-4.893750">
        <ele>2352.0</ele>
        <time>2015-08-02T12:14:56Z</time>
      </trkpt>
      <trkpt lat="40.267467" lon="-4.893433">
        <ele>2349.0</ele>
        <time>2015-08-02T12:14:58Z</time>
      </trkpt>
      <trkpt lat="40.267583" lon="-4.893067">
        <ele>2346.0</ele>
        <time>2015-08-02T12:15:00Z</time>
      </trkpt>
      <trkpt lat="40.267683" lon="-4.892717">
        <ele>2343.0</ele>
        <time>2015-08-02T12:15:02Z</time>
      </trkpt>
      <trkpt lat="40.267800" lon="-4.892383">
        <ele>2336.0</ele>
        <time>2015-08-02T12:15:04Z</time>
      </trkpt>
      <trkpt lat="40.267917" lon="-4.892017">
        <ele>2325.0</ele>
        <time>2015-08-02T12:15:06Z</time>
      </trkpt>
      <trkpt lat="40.268033" lon="-4.891633">
        <ele>2316.0</ele>
        <time>2015-08-02T12:15:08Z</time>
      </trkpt>
      <trkpt lat="40.268150" lon="-4.891283">
        <ele>2311.0</ele>
        <time>2015-08-02T12:15:10Z</time>
      </trkpt>
      <trkpt lat="40.268233" lon="-4.890967">
        <ele>2305.0</ele>
        <time>2015-08-02T12:15:12Z</time>
      </trkpt>
      <trkpt lat="40.268333" lon="-4.890600">
        <ele>2297.0</ele>
        <time>2015-08-02T12:15:14Z</time>
      </trkpt>
      <trkpt lat="40.268450" lon="-4.890233">
        <ele>2293.0</ele>
        <time>2015-08-02T12:15:16Z</time>
      </trkpt>
      <trkpt lat="40.268533" lon="-4.889900">
        <ele>2290.0</ele>
        <time>2015-08-02T12:15:18Z</time>
      </trkpt>
      <trkpt lat="40.268600" lon="-4.889550">
        <ele>2285.0</ele>
        <time>2015-08-02T12:15:20Z</time>
      </trkpt>
      <trkpt lat="40.268683" lon="-4.889183">
        <ele>2282.0</ele>
        <time>2015-08-02T12:15:22Z</time>
      </trkpt>
      <trkpt lat="40.268750" lon="-4.888833">
        <ele>2281.0</ele>
        <time>2015-08-02T12:15:24Z</time>
      </trkpt>
      <trkpt lat="40.268883" lon="-4.888517">
        <ele>2280.0</ele>
        <time>2015-08-02T12:15:26Z</time>
      </trkpt>
      <trkpt lat="40.269050" lon="-4.888200">
        <ele>2277.0</ele>
        <time>2015-08-02T12:15:28Z</time>
      </trkpt>
      <trkpt lat="40.269200" lon="-4.887867">
        <ele>2275.0</ele>
        <time>2015-08-02T12:15:30Z</time>
      </trkpt>
      <trkpt lat="40.269367" lon="-4.887550">
        <ele>2272.0</ele>
        <time>2015-08-02T12:15:32Z</time>
      </trkpt>
      <trkpt lat="40.269533" lon="-4.887250">
        <ele>2266.0</ele>
        <time>2015-08-02T12:15:34Z</time>
      </trkpt>
      <trkpt lat="40.269667" lon="-4.886900">
        <ele>2259.0</ele>
        <time>2015-08-02T12:15:36Z</time>
      </trkpt>
      <trkpt lat="40.269767" lon="-4.886550">
        <ele>2255.0</ele>
        <time>2015-08-02T12:15:38Z</time>
      </trkpt>
      <trkpt lat="40.269883" lon="-4.886217">
        <ele>2250.0</ele>
        <time>2015-08-02T12:15:40Z</time>
      </trkpt>
      <trkpt lat="40.270000" lon="-4.885867">
        <ele>2245.0</ele>
        <time>2015-08-02T12:15:42Z</time>
      </trkpt>
      <trkpt lat="40.270117" lon="-4.885550">
        <ele>2242.0</ele>
        <time>2015-08-02T12:15:44Z</time>
      </trkpt>
      <trkpt lat="40.270217" lon="-4.885233">
        <ele>2239.0</ele>
        <time>2015-08-02T12:15:46Z</time>
      </trkpt>
      <trkpt lat="40.270333" lon="-4.884900">
        <ele>2234.0</ele>
        <time>2015-08-02T12:15:48Z</time>
      </trkpt>
      <trkpt lat="40.270483" lon="-4.884583">
        <ele>2230.0</ele>
        <time>2015-08-02T12:15:50Z</time>
      </trkpt>
      <trkpt lat="40.270633" lon="-4.884283">
        <ele>2228.0</ele>
        <time>2015-08-02T12:15:52Z</time>
      </trkpt>
      <trkpt lat="40.270750" lon="-4.883967">
        <ele>2225.0</ele>
        <time>2015-08-02T12:15:54Z</time>
      </trkpt>
      <trkpt lat="40.270900" lon="-4.883667">
        <ele>2222.0</ele>
        <time>2015-08-02T12:15:56Z</time>
      </trkpt>
      <trkpt lat="40.271017" lon="-4.883350">
        <ele>2219.0</ele>
        <time>2015-08-02T12:15:58Z</time>
      </trkpt>
      <trkpt lat="40.271133" lon="-4.883050">
        <ele>2217.0</ele>
        <time>2015-08-02T12:16:00Z</time>
      </trkpt>
      <trkpt lat="40.271300" lon="-4.882750">
        <ele>2215.0</ele>
        <time>2015-08-02T12:16:02Z</time>
      </trkpt>
      <trkpt lat="40.271433" lon="-4.882467">
        <ele>2214.0</ele>
        <time>2015-08-02T12:16:04Z</time>
      </trkpt>
      <trkpt lat="40.271533" lon="-4.882133">
        <ele>2213.0</ele>
        <time>2015-08-02T12:16:06Z</time>
      </trkpt>
      <trkpt lat="40.271650" lon="-4.881800">
        <ele>2220.0</ele>
        <time>2015-08-02T12:16:08Z</time>
      </trkpt>
      <trkpt lat="40.271767" lon="-4.881517">
        <ele>2226.0</ele>
        <time>2015-08-02T12:16:10Z</time>
      </trkpt>
      <trkpt lat="40.271850" lon="-4.881233">
        <ele>2227.0</ele>
        <time>2015-08-02T12:16:12Z</time>
      </trkpt>
      <trkpt lat="40.271850" lon="-4.880933">
        <ele>2227.0</ele>
        <time>2015-08-02T12:16:14Z</time>
      </trkpt>
      <trkpt lat="40.271833" lon="-4.880633">
        <ele>2228.0</ele>
        <time>2015-08-02T12:16:16Z</time>
      </trkpt>
      <trkpt lat="40.271883" lon="-4.880317">
        <ele>2229.0</ele>
        <time>2015-08-02T12:16:18Z</time>
      </trkpt>
      <trkpt lat="40.272000" lon="-4.880000">
        <ele>2232.0</ele>
        <time>2015-08-02T12:16:20Z</time>
      </trkpt>
      <trkpt lat="40.272117" lon="-4.879717">
        <ele>2234.0</ele>
        <time>2015-08-02T12:16:22Z</time>
      </trkpt>
      <trkpt lat="40.272233" lon="-4.879433">
        <ele>2231.0</ele>
        <time>2015-08-02T12:16:24Z</time>
      </trkpt>
      <trkpt lat="40.272367" lon="-4.879100">
        <ele>2230.0</ele>
        <time>2015-08-02T12:16:26Z</time>
      </trkpt>
      <trkpt lat="40.272500" lon="-4.878817">
        <ele>2233.0</ele>
        <time>2015-08-02T12:16:28Z</time>
      </trkpt>
      <trkpt lat="40.272633" lon="-4.878567">
        <ele>2235.0</ele>
        <time>2015-08-02T12:16:30Z</time>
      </trkpt>
      <trkpt lat="40.272767" lon="-4.878283">
        <ele>2234.0</ele>
        <time>2015-08-02T12:16:32Z</time>
      </trkpt>
      <trkpt lat="40.272933" lon="-4.877983">
        <ele>2236.0</ele>
        <time>2015-08-02T12:16:34Z</time>
      </trkpt>
      <trkpt lat="40.273083" lon="-4.877717">
        <ele>2241.0</ele>
        <time>2015-08-02T12:16:36Z</time>
      </trkpt>
      <trkpt lat="40.273233" lon="-4.877467">
        <ele>2243.0</ele>
        <time>2015-08-02T12:16:38Z</time>
      </trkpt>
      <trkpt lat="40.273333" lon="-4.877200">
        <ele>2245.0</ele>
        <time>2015-08-02T12:16:40Z</time>
      </trkpt>
      <trkpt lat="40.273317" lon="-4.876917">
        <ele>2246.0</ele>
        <time>2015-08-02T12:16:42Z</time>
      </trkpt>
      <trkpt lat="40.273233" lon="-4.876717">
        <ele>2250.0</ele>
        <time>2015-08-02T12:16:44Z</time>
      </trkpt>
      <trkpt lat="40.273133" lon="-4.876617">
        <ele>2253.0</ele>
        <time>2015-08-02T12:16:46Z</time>
      </trkpt>
      <trkpt lat="40.273033" lon="-4.876667">
        <ele>2253.0</ele>
        <time>2015-08-02T12:16:48Z</time>
      </trkpt>
      <trkpt lat="40.273000" lon="-4.876833">
        <ele>2254.0</ele>
        <time>2015-08-02T12:16:50Z</time>
      </trkpt>
      <trkpt lat="40.273067" lon="-4.877000">
        <ele>2258.0</ele>
        <time>2015-08-02T12:16:52Z</time>
      </trkpt>
      <trkpt lat="40.273217" lon="-4.877117">
        <ele>2260.0</ele>
        <time>2015-08-02T12:16:54Z</time>
      </trkpt>
      <trkpt lat="40.273450" lon="-4.877183">
        <ele>2260.0</ele>
        <time>2015-08-02T12:16:56Z</time>
      </trkpt>
      <trkpt lat="40.273700" lon="-4.877150">
        <ele>2261.0</ele>
        <time>2015-08-02T12:16:58Z</time>
      </trkpt>
      <trkpt lat="40.273950" lon="-4.877000">
        <ele>2266.0</ele>
        <time>2015-08-02T12:17:00Z</time>
      </trkpt>
      <trkpt lat="40.274150" lon="-4.876850">
        <ele>2271.0</ele>
        <time>2015-08-02T12:17:02Z</time>
      </trkpt>
      <trkpt lat="40.274300" lon="-4.876633">
        <ele>2273.0</ele>
        <time>2015-08-02T12:17:04Z</time>
      </trkpt>
      <trkpt lat="40.274450" lon="-4.876383">
        <ele>2273.0</ele>
        <time>2015-08-02T12:17:06Z</time>
      </trkpt>
      <trkpt lat="40.274600" lon="-4.876100">
        <ele>2275.0</ele>
        <time>2015-08-02T12:17:08Z</time>
      </trkpt>
      <trkpt lat="40.274783" lon="-4.875850">
        <ele>2277.0</ele>
        <time>2015-08-02T12:17:10Z</time>
      </trkpt>
      <trkpt lat="40.274933" lon="-4.875583">
        <ele>2279.0</ele>
        <time>2015-08-02T12:17:12Z</time>
      </trkpt>
      <trkpt lat="40.275067" lon="-4.875333">
        <ele>2282.0</ele>
        <time>2015-08-02T12:17:14Z</time>
      </trkpt>
      <trkpt lat="40.275183" lon="-4.875067">
        <ele>2285.0</ele>
        <time>2015-08-02T12:17:16Z</time>
      </trkpt>
      <trkpt lat="40.275200" lon="-4.874833">
        <ele>2288.0</ele>
        <time>2015-08-02T12:17:18Z</time>
      </trkpt>
      <trkpt lat="40.275133" lon="-4.874700">
        <ele>2289.0</ele>
        <time>2015-08-02T12:17:20Z</time>
      </trkpt>
      <trkpt lat="40.275017" lon="-4.874683">
        <ele>2292.0</ele>
        <time>2015-08-02T12:17:22Z</time>
      </trkpt>
      <trkpt lat="40.274950" lon="-4.874800">
        <ele>2297.0</ele>
        <time>2015-08-02T12:17:24Z</time>
      </trkpt>
      <trkpt lat="40.274967" lon="-4.874983">
        <ele>2302.0</ele>
        <time>2015-08-02T12:17:26Z</time>
      </trkpt>
      <trkpt lat="40.275067" lon="-4.875167">
        <ele>2304.0</ele>
        <time>2015-08-02T12:17:28Z</time>
      </trkpt>
      <trkpt lat="40.275267" lon="-4.875300">
        <ele>2305.0</ele>
        <time>2015-08-02T12:17:30Z</time>
      </trkpt>
      <trkpt lat="40.275517" lon="-4.875267">
        <ele>2307.0</ele>
        <time>2015-08-02T12:17:32Z</time>
      </trkpt>
      <trkpt lat="40.275733" lon="-4.875150">
        <ele>2310.0</ele>
        <time>2015-08-02T12:17:34Z</time>
      </trkpt>
      <trkpt lat="40.275917" lon="-4.874950">
        <ele>2309.0</ele>
        <time>2015-08-02T12:17:36Z</time>
      </trkpt>
      <trkpt lat="40.276083" lon="-4.874667">
        <ele>2308.0</ele>
        <time>2015-08-02T12:17:38Z</time>
      </trkpt>
      <trkpt lat="40.276217" lon="-4.874400">
        <ele>2312.0</ele>
        <time>2015-08-02T12:17:40Z</time>
      </trkpt>
      <trkpt lat="40.276367" lon="-4.874183">
        <ele>2314.0</ele>
        <time>2015-08-02T12:17:42Z</time>
      </trkpt>
      <trkpt lat="40.276550" lon="-4.873933">
        <ele>2313.0</ele>
        <time>2015-08-02T12:17:44Z</time>
      </trkpt>
      <trkpt lat="40.276733" lon="-4.873683">
        <ele>2314.0</ele>
        <time>2015-08-02T12:17:46Z</time>
      </trkpt>
      <trkpt lat="40.276867" lon="-4.873450">
        <ele>2314.0</ele>
        <time>2015-08-02T12:17:48Z</time>
      </trkpt>
      <trkpt lat="40.277017" lon="-4.873200">
        <ele>2310.0</ele>
        <time>2015-08-02T12:17:50Z</time>
      </trkpt>
      <trkpt lat="40.277183" lon="-4.872917">
        <ele>2307.0</ele>
        <time>2015-08-02T12:17:52Z</time>
      </trkpt>
      <trkpt lat="40.277283" lon="-4.872617">
        <ele>2307.0</ele>
        <time>2015-08-02T12:17:54Z</time>
      </trkpt>
      <trkpt lat="40.277383" lon="-4.872333">
        <ele>2303.0</ele>
        <time>2015-08-02T12:17:56Z</time>
      </trkpt>
      <trkpt lat="40.277533" lon="-4.872000">
        <ele>2298.0</ele>
        <time>2015-08-02T12:17:58Z</time>
      </trkpt>
      <trkpt lat="40.277667" lon="-4.871650">
        <ele>2296.0</ele>
        <time>2015-08-02T12:18:00Z</time>
      </trkpt>
      <trkpt lat="40.277783" lon="-4.871350">
        <ele>2293.0</ele>
        <time>2015-08-02T12:18:02Z</time>
      </trkpt>
      <trkpt lat="40.277900" lon="-4.871033">
        <ele>2288.0</ele>
        <time>2015-08-02T12:18:04Z</time>
      </trkpt>
      <trkpt lat="40.278033" lon="-4.870667">
        <ele>2284.0</ele>
        <time>2015-08-02T12:18:06Z</time>
      </trkpt>
      <trkpt lat="40.278150" lon="-4.870333">
        <ele>2282.0</ele>
        <time>2015-08-02T12:18:08Z</time>
      </trkpt>
      <trkpt lat="40.278267" lon="-4.870017">
        <ele>2279.0</ele>
        <time>2015-08-02T12:18:10Z</time>
      </trkpt>
      <trkpt lat="40.278400" lon="-4.869700">
        <ele>2274.0</ele>
        <time>2015-08-02T12:18:12Z</time>
      </trkpt>
      <trkpt lat="40.278583" lon="-4.869350">
        <ele>2270.0</ele>
        <time>2015-08-02T12:18:14Z</time>
      </trkpt>
      <trkpt lat="40.278717" lon="-4.869050">
        <ele>2268.0</ele>
        <time>2015-08-02T12:18:16Z</time>
      </trkpt>
      <trkpt lat="40.278800" lon="-4.868750">
        <ele>2261.0</ele>
        <time>2015-08-02T12:18:18Z</time>
      </trkpt>
      <trkpt lat="40.278900" lon="-4.868383">
        <ele>2251.0</ele>
        <time>2015-08-02T12:18:20Z</time>
      </trkpt>
      <trkpt lat="40.278983" lon="-4.867983">
        <ele>2247.0</ele>
        <time>2015-08-02T12:18:22Z</time>
      </trkpt>
      <trkpt lat="40.279050" lon="-4.867633">
        <ele>2244.0</ele>
        <time>2015-08-02T12:18:24Z</time>
      </trkpt>
      <trkpt lat="40.279133" lon="-4.867267">
        <ele>2238.0</ele>
        <time>2015-08-02T12:18:26Z</time>
      </trkpt>
      <trkpt lat="40.279250" lon="-4.866900">
        <ele>2234.0</ele>
        <time>2015-08-02T12:18:28Z</time>
      </trkpt>
      <trkpt lat="40.279383" lon="-4.866567">
        <ele>2231.0</ele>
        <time>2015-08-02T12:18:30Z</time>
      </trkpt>
      <trkpt lat="40.279517" lon="-4.866250">
        <ele>2226.0</ele>
        <time>2015-08-02T12:18:32Z</time>
      </trkpt>
      <trkpt lat="40.279617" lon="-4.865883">
        <ele>2220.0</ele>
        <time>2015-08-02T12:18:34Z</time>
      </trkpt>
      <trkpt lat="40.279717" lon="-4.865500">
        <ele>2220.0</ele>
        <time>2015-08-02T12:18:36Z</time>
      </trkpt>
      <trkpt lat="40.279883" lon="-4.865217">
        <ele>2219.0</ele>
        <time>2015-08-02T12:18:38Z</time>
      </trkpt>
      <trkpt lat="40.280017" lon="-4.864900">
        <ele>2215.0</ele>
        <time>2015-08-02T12:18:40Z</time>
      </trkpt>
      <trkpt lat="40.280150" lon="-4.864550">
        <ele>2211.0</ele>
        <time>2015-08-02T12:18:42Z</time>
      </trkpt>
      <trkpt lat="40.280283" lon="-4.864217">
        <ele>2206.0</ele>
        <time>2015-08-02T12:18:44Z</time>
      </trkpt>
      <trkpt lat="40.280433" lon="-4.863867">
        <ele>2200.0</ele>
        <time>2015-08-02T12:18:46Z</time>
      </trkpt>
      <trkpt lat="40.280583" lon="-4.863533">
        <ele>2196.0</ele>
        <time>2015-08-02T12:18:48Z</time>
      </trkpt>
      <trkpt lat="40.280717" lon="-4.863200">
        <ele>2190.0</ele>
        <time>2015-08-02T12:18:50Z</time>
      </trkpt>
      <trkpt lat="40.280867" lon="-4.862867">
        <ele>2184.0</ele>
        <time>2015-08-02T12:18:52Z</time>
      </trkpt>
      <trkpt lat="40.281000" lon="-4.862517">
        <ele>2180.0</ele>
        <time>2015-08-02T12:18:54Z</time>
      </trkpt>
      <trkpt lat="40.281133" lon="-4.862183">
        <ele>2177.0</ele>
        <time>2015-08-02T12:18:56Z</time>
      </trkpt>
      <trkpt lat="40.281267" lon="-4.861833">
        <ele>2172.0</ele>
        <time>2015-08-02T12:18:58Z</time>
      </trkpt>
      <trkpt lat="40.281400" lon="-4.861467">
        <ele>2167.0</ele>
        <time>2015-08-02T12:19:00Z</time>
      </trkpt>
      <trkpt lat="40.281550" lon="-4.861117">
        <ele>2166.0</ele>
        <time>2015-08-02T12:19:02Z</time>
      </trkpt>
      <trkpt lat="40.281700" lon="-4.860800">
        <ele>2166.0</ele>
        <time>2015-08-02T12:19:04Z</time>
      </trkpt>
      <trkpt lat="40.281833" lon="-4.860467">
        <ele>2163.0</ele>
        <time>2015-08-02T12:19:06Z</time>
      </trkpt>
      <trkpt lat="40.281983" lon="-4.860117">
        <ele>2160.0</ele>
        <time>2015-08-02T12:19:08Z</time>
      </trkpt>
      <trkpt lat="40.282133" lon="-4.859800">
        <ele>2159.0</ele>
        <time>2015-08-02T12:19:10Z</time>
      </trkpt>
      <trkpt lat="40.282267" lon="-4.859483">
        <ele>2155.0</ele>
        <time>2015-08-02T12:19:12Z</time>
      </trkpt>
      <trkpt lat="40.282417" lon="-4.859150">
        <ele>2151.0</ele>
        <time>2015-08-02T12:19:14Z</time>
      </trkpt>
      <trkpt lat="40.282550" lon="-4.858800">
        <ele>2147.0</ele>
        <time>2015-08-02T12:19:16Z</time>
      </trkpt>
      <trkpt lat="40.282700" lon="-4.858467">
        <ele>2143.0</ele>
        <time>2015-08-02T12:19:18Z</time>
      </trkpt>
      <trkpt lat="40.282867" lon="-4.858117">
        <ele>2138.0</ele>
        <time>2015-08-02T12:19:20Z</time>
      </trkpt>
      <trkpt lat="40.283017" lon="-4.857750">
        <ele>2134.0</ele>
        <time>2015-08-02T12:19:22Z</time>
      </trkpt>
      <trkpt lat="40.283150" lon="-4.857400">
        <ele>2132.0</ele>
        <time>2015-08-02T12:19:24Z</time>
      </trkpt>
      <trkpt lat="40.283267" lon="-4.857083">
        <ele>2133.0</ele>
        <time>2015-08-02T12:19:26Z</time>
      </trkpt>
      <trkpt lat="40.283383" lon="-4.856767">
        <ele>2131.0</ele>
        <time>2015-08-02T12:19:28Z</time>
      </trkpt>
      <trkpt lat="40.283500" lon="-4.856417">
        <ele>2127.0</ele>
        <time>2015-08-02T12:19:30Z</time>
      </trkpt>
      <trkpt lat="40.283600" lon="-4.856067">
        <ele>2123.0</ele>
        <time>2015-08-02T12:19:32Z</time>
      </trkpt>
      <trkpt lat="40.283717" lon="-4.855717">
        <ele>2120.0</ele>
        <time>2015-08-02T12:19:34Z</time>
      </trkpt>
      <trkpt lat="40.283833" lon="-4.855383">
        <ele>2117.0</ele>
        <time>2015-08-02T12:19:36Z</time>
      </trkpt>
      <trkpt lat="40.283933" lon="-4.855033">
        <ele>2113.0</ele>
        <time>2015-08-02T12:19:38Z</time>
      </trkpt>
      <trkpt lat="40.284017" lon="-4.854650">
        <ele>2109.0</ele>
        <time>2015-08-02T12:19:40Z</time>
      </trkpt>
      <trkpt lat="40.284100" lon="-4.854283">
        <ele>2106.0</ele>
        <time>2015-08-02T12:19:42Z</time>
      </trkpt>
      <trkpt lat="40.284200" lon="-4.853917">
        <ele>2103.0</ele>
        <time>2015-08-02T12:19:44Z</time>
      </trkpt>
      <trkpt lat="40.284283" lon="-4.853550">
        <ele>2101.0</ele>
        <time>2015-08-02T12:19:46Z</time>
      </trkpt>
      <trkpt lat="40.284400" lon="-4.853200">
        <ele>2099.0</ele>
        <time>2015-08-02T12:19:48Z</time>
      </trkpt>
      <trkpt lat="40.284500" lon="-4.852833">
        <ele>2097.0</ele>
        <time>2015-08-02T12:19:50Z</time>
      </trkpt>
      <trkpt lat="40.284600" lon="-4.852483">
        <ele>2097.0</ele>
        <time>2015-08-02T12:19:52Z</time>
      </trkpt>
      <trkpt lat="40.284700" lon="-4.852183">
        <ele>2095.0</ele>
        <time>2015-08-02T12:19:54Z</time>
      </trkpt>
      <trkpt lat="40.284800" lon="-4.851833">
        <ele>2091.0</ele>
        <time>2015-08-02T12:19:56Z</time>
      </trkpt>
      <trkpt lat="40.284900" lon="-4.851483">
        <ele>2088.0</ele>
        <time>2015-08-02T12:19:58Z</time>
      </trkpt>
      <trkpt lat="40.285000" lon="-4.851150">
        <ele>2087.0</ele>
        <time>2015-08-02T12:20:00Z</time>
      </trkpt>
      <trkpt lat="40.285100" lon="-4.850817">
        <ele>2085.0</ele>
        <time>2015-08-02T12:20:02Z</time>
      </trkpt>
      <trkpt lat="40.285183" lon="-4.850483">
        <ele>2083.0</ele>
        <time>2015-08-02T12:20:04Z</time>
      </trkpt>
      <trkpt lat="40.285283" lon="-4.850133">
        <ele>2082.0</ele>
        <time>2015-08-02T12:20:06Z</time>
      </trkpt>
      <trkpt lat="40.285367" lon="-4.849817">
        <ele>2079.0</ele>
        <time>2015-08-02T12:20:08Z</time>
      </trkpt>
      <trkpt lat="40.285433" lon="-4.849467">
        <ele>2076.0</ele>
        <time>2015-08-02T12:20:10Z</time>
      </trkpt>
      <trkpt lat="40.285517" lon="-4.849117">
        <ele>2073.0</ele>
        <time>2015-08-02T12:20:12Z</time>
      </trkpt>
      <trkpt lat="40.285600" lon="-4.848767">
        <ele>2071.0</ele>
        <time>2015-08-02T12:20:14Z</time>
      </trkpt>
      <trkpt lat="40.285650" lon="-4.848417">
        <ele>2066.0</ele>
        <time>2015-08-02T12:20:16Z</time>
      </trkpt>
      <trkpt lat="40.285733" lon="-4.848033">
        <ele>2062.0</ele>
        <time>2015-08-02T12:20:18Z</time>
      </trkpt>
      <trkpt lat="40.285817" lon="-4.847667">
        <ele>2059.0</ele>
        <time>2015-08-02T12:20:20Z</time>
      </trkpt>
      <trkpt lat="40.285883" lon="-4.847317">
        <ele>2057.0</ele>
        <time>2015-08-02T12:20:22Z</time>
      </trkpt>
      <trkpt lat="40.285967" lon="-4.846967">
        <ele>2054.0</ele>
        <time>2015-08-02T12:20:24Z</time>
      </trkpt>
      <trkpt lat="40.286067" lon="-4.846600">
        <ele>2051.0</ele>
        <time>2015-08-02T12:20:26Z</time>
      </trkpt>
      <trkpt lat="40.286183" lon="-4.846267">
        <ele>2049.0</ele>
        <time>2015-08-02T12:20:28Z</time>
      </trkpt>
      <trkpt lat="40.286283" lon="-4.845900">
        <ele>2046.0</ele>
        <time>2015-08-02T12:20:30Z</time>
      </trkpt>
      <trkpt lat="40.286367" lon="-4.845533">
        <ele>2045.0</ele>
        <time>2015-08-02T12:20:32Z</time>
      </trkpt>
      <trkpt lat="40.286467" lon="-4.845183">
        <ele>2044.0</ele>
        <time>2015-08-02T12:20:34Z</time>
      </trkpt>
      <trkpt lat="40.286567" lon="-4.844850">
        <ele>2042.0</ele>
        <time>2015-08-02T12:20:36Z</time>
      </trkpt>
      <trkpt lat="40.286650" lon="-4.844533">
        <ele>2039.0</ele>
        <time>2015-08-02T12:20:38Z</time>
      </trkpt>
      <trkpt lat="40.286750" lon="-4.844200">
        <ele>2034.0</ele>
        <time>2015-08-02T12:20:40Z</time>
      </trkpt>
      <trkpt lat="40.286833" lon="-4.843817">
        <ele>2035.0</ele>
        <time>2015-08-02T12:20:42Z</time>
      </trkpt>
      <trkpt lat="40.286933" lon="-4.843533">
        <ele>2039.0</ele>
        <time>2015-08-02T12:20:44Z</time>
      </trkpt>
      <trkpt lat="40.287000" lon="-4.843250">
        <ele>2039.0</ele>
        <time>2015-08-02T12:20:46Z</time>
      </trkpt>
      <trkpt lat="40.287000" lon="-4.842967">
        <ele>2036.0</ele>
        <time>2015-08-02T12:20:48Z</time>
      </trkpt>
      <trkpt lat="40.286917" lon="-4.842767">
        <ele>2033.0</ele>
        <time>2015-08-02T12:20:50Z</time>
      </trkpt>
      <trkpt lat="40.286817" lon="-4.842683">
        <ele>2033.0</ele>
        <time>2015-08-02T12:20:52Z</time>
      </trkpt>
      <trkpt lat="40.286733" lon="-4.842683">
        <ele>2031.0</ele>
        <time>2015-08-02T12:20:54Z</time>
      </trkpt>
      <trkpt lat="40.286700" lon="-4.842800">
        <ele>2029.0</ele>
        <time>2015-08-02T12:20:56Z</time>
      </trkpt>
      <trkpt lat="40.286733" lon="-4.842950">
        <ele>2028.0</ele>
        <time>2015-08-02T12:20:58Z</time>
      </trkpt>
      <trkpt lat="40.286833" lon="-4.843067">
        <ele>2027.0</ele>
        <time>2015-08-02T12:21:00Z</time>
      </trkpt>
      <trkpt lat="40.287000" lon="-4.843150">
        <ele>2022.0</ele>
        <time>2015-08-02T12:21:02Z</time>
      </trkpt>
      <trkpt lat="40.287233" lon="-4.843183">
        <ele>2017.0</ele>
        <time>2015-08-02T12:21:04Z</time>
      </trkpt>
      <trkpt lat="40.287483" lon="-4.843100">
        <ele>2017.0</ele>
        <time>2015-08-02T12:21:06Z</time>
      </trkpt>
      <trkpt lat="40.287683" lon="-4.842900">
        <ele>2016.0</ele>
        <time>2015-08-02T12:21:08Z</time>
      </trkpt>
      <trkpt lat="40.287867" lon="-4.842617">
        <ele>2013.0</ele>
        <time>2015-08-02T12:21:10Z</time>
      </trkpt>
      <trkpt lat="40.288017" lon="-4.842317">
        <ele>2012.0</ele>
        <time>2015-08-02T12:21:12Z</time>
      </trkpt>
      <trkpt lat="40.288133" lon="-4.842000">
        <ele>2012.0</ele>
        <time>2015-08-02T12:21:14Z</time>
      </trkpt>
      <trkpt lat="40.288283" lon="-4.841700">
        <ele>2011.0</ele>
        <time>2015-08-02T12:21:16Z</time>
      </trkpt>
      <trkpt lat="40.288383" lon="-4.841400">
        <ele>2009.0</ele>
        <time>2015-08-02T12:21:18Z</time>
      </trkpt>
      <trkpt lat="40.288500" lon="-4.841100">
        <ele>2008.0</ele>
        <time>2015-08-02T12:21:20Z</time>
      </trkpt>
      <trkpt lat="40.288617" lon="-4.840800">
        <ele>2005.0</ele>
        <time>2015-08-02T12:21:22Z</time>
      </trkpt>
      <trkpt lat="40.288733" lon="-4.840500">
        <ele>2001.0</ele>
        <time>2015-08-02T12:21:24Z</time>
      </trkpt>
      <trkpt lat="40.288817" lon="-4.840183">
        <ele>1997.0</ele>
        <time>2015-08-02T12:21:26Z</time>
      </trkpt>
      <trkpt lat="40.288917" lon="-4.839867">
        <ele>1993.0</ele>
        <time>2015-08-02T12:21:28Z</time>
      </trkpt>
      <trkpt lat="40.289017" lon="-4.839533">
        <ele>1989.0</ele>
        <time>2015-08-02T12:21:30Z</time>
      </trkpt>
      <trkpt lat="40.289083" lon="-4.839200">
        <ele>1985.0</ele>
        <time>2015-08-02T12:21:32Z</time>
      </trkpt>
      <trkpt lat="40.289133" lon="-4.838883">
        <ele>1982.0</ele>
        <time>2015-08-02T12:21:34Z</time>
      </trkpt>
      <trkpt lat="40.289200" lon="-4.838567">
        <ele>1979.0</ele>
        <time>2015-08-02T12:21:36Z</time>
      </trkpt>
      <trkpt lat="40.289267" lon="-4.838267">
        <ele>1975.0</ele>
        <time>2015-08-02T12:21:38Z</time>
      </trkpt>
      <trkpt lat="40.289317" lon="-4.837950">
        <ele>1971.0</ele>
        <time>2015-08-02T12:21:40Z</time>
      </trkpt>
      <trkpt lat="40.289400" lon="-4.837667">
        <ele>1967.0</ele>
        <time>2015-08-02T12:21:42Z</time>
      </trkpt>
      <trkpt lat="40.289450" lon="-4.837383">
        <ele>1960.0</ele>
        <time>2015-08-02T12:21:44Z</time>
      </trkpt>
      <trkpt lat="40.289517" lon="-4.837033">
        <ele>1954.0</ele>
        <time>2015-08-02T12:21:46Z</time>
      </trkpt>
      <trkpt lat="40.289600" lon="-4.836750">
        <ele>1952.0</ele>
        <time>2015-08-02T12:21:48Z</time>
      </trkpt>
      <trkpt lat="40.289683" lon="-4.836483">
        <ele>1949.0</ele>
        <time>2015-08-02T12:21:50Z</time>
      </trkpt>
      <trkpt lat="40.289767" lon="-4.836200">
        <ele>1945.0</ele>
        <time>2015-08-02T12:21:52Z</time>
      </trkpt>
      <trkpt lat="40.289883" lon="-4.835917">
        <ele>1943.0</ele>
        <time>2015-08-02T12:21:54Z</time>
      </trkpt>
      <trkpt lat="40.290000" lon="-4.835650">
        <ele>1942.0</ele>
        <time>2015-08-02T12:21:56Z</time>
      </trkpt>
      <trkpt lat="40.290083" lon="-4.835383">
        <ele>1940.0</ele>
        <time>2015-08-02T12:21:58Z</time>
      </trkpt>
      <trkpt lat="40.290167" lon="-4.835117">
        <ele>1938.0</ele>
        <time>2015-08-02T12:22:00Z</time>
      </trkpt>
      <trkpt lat="40.290250" lon="-4.834867">
        <ele>1935.0</ele>
        <time>2015-08-02T12:22:02Z</time>
      </trkpt>
      <trkpt lat="40.290317" lon="-4.834617">
        <ele>1930.0</ele>
        <time>2015-08-02T12:22:04Z</time>
      </trkpt>
      <trkpt lat="40.290367" lon="-4.834350">
        <ele>1926.0</ele>
        <time>2015-08-02T12:22:06Z</time>
      </trkpt>
      <trkpt lat="40.290433" lon="-4.834067">
        <ele>1922.0</ele>
        <time>2015-08-02T12:22:08Z</time>
      </trkpt>
      <trkpt lat="40.290500" lon="-4.833800">
        <ele>1918.0</ele>
        <time>2015-08-02T12:22:10Z</time>
      </trkpt>
      <trkpt lat="40.290567" lon="-4.833533">
        <ele>1914.0</ele>
        <time>2015-08-02T12:22:12Z</time>
      </trkpt>
      <trkpt lat="40.290633" lon="-4.833250">
        <ele>1911.0</ele>
        <time>2015-08-02T12:22:14Z</time>
      </trkpt>
      <trkpt lat="40.290717" lon="-4.832983">
        <ele>1908.0</ele>
        <time>2015-08-02T12:22:16Z</time>
      </trkpt>
      <trkpt lat="40.290783" lon="-4.832717">
        <ele>1905.0</ele>
        <time>2015-08-02T12:22:18Z</time>
      </trkpt>
      <trkpt lat="40.290850" lon="-4.832433">
        <ele>1900.0</ele>
        <time>2015-08-02T12:22:20Z</time>
      </trkpt>
      <trkpt lat="40.290917" lon="-4.832167">
        <ele>1897.0</ele>
        <time>2015-08-02T12:22:22Z</time>
      </trkpt>
      <trkpt lat="40.290983" lon="-4.831883">
        <ele>1894.0</ele>
        <time>2015-08-02T12:22:24Z</time>
      </trkpt>
      <trkpt lat="40.291050" lon="-4.831617">
        <ele>1890.0</ele>
        <time>2015-08-02T12:22:26Z</time>
      </trkpt>
      <trkpt lat="40.291117" lon="-4.831350">
        <ele>1886.0</ele>
        <time>2015-08-02T12:22:28Z</time>
      </trkpt>
      <trkpt lat="40.291167" lon="-4.831067">
        <ele>1882.0</ele>
        <time>2015-08-02T12:22:30Z</time>
      </trkpt>
      <trkpt lat="40.291217" lon="-4.830800">
        <ele>1879.0</ele>
        <time>2015-08-02T12:22:32Z</time>
      </trkpt>
      <trkpt lat="40.291267" lon="-4.830533">
        <ele>1873.0</ele>
        <time>2015-08-02T12:22:34Z</time>
      </trkpt>
      <trkpt lat="40.291333" lon="-4.830233">
        <ele>1868.0</ele>
        <time>2015-08-02T12:22:36Z</time>
      </trkpt>
      <trkpt lat="40.291383" lon="-4.829950">
        <ele>1865.0</ele>
        <time>2015-08-02T12:22:38Z</time>
      </trkpt>
      <trkpt lat="40.291450" lon="-4.829667">
        <ele>1861.0</ele>
        <time>2015-08-02T12:22:40Z</time>
      </trkpt>
      <trkpt lat="40.291517" lon="-4.829383">
        <ele>1856.0</ele>
        <time>2015-08-02T12:22:42Z</time>
      </trkpt>
      <trkpt lat="40.291567" lon="-4.829117">
        <ele>1849.0</ele>
        <time>2015-08-02T12:22:44Z</time>
      </trkpt>
      <trkpt lat="40.291600" lon="-4.828817">
        <ele>1842.0</ele>
        <time>2015-08-02T12:22:46Z</time>
      </trkpt>
      <trkpt lat="40.291633" lon="-4.828567">
        <ele>1839.0</ele>
        <time>2015-08-02T12:22:48Z</time>
      </trkpt>
      <trkpt lat="40.291650" lon="-4.828317">
        <ele>1836.0</ele>
        <time>2015-08-02T12:22:50Z</time>
      </trkpt>
      <trkpt lat="40.291683" lon="-4.828067">
        <ele>1832.0</ele>
        <time>2015-08-02T12:22:52Z</time>
      </trkpt>
      <trkpt lat="40.291700" lon="-4.827833">
        <ele>1832.0</ele>
        <time>2015-08-02T12:22:54Z</time>
      </trkpt>
      <trkpt lat="40.291733" lon="-4.827633">
        <ele>1829.0</ele>
        <time>2015-08-02T12:22:56Z</time>
      </trkpt>
      <trkpt lat="40.291767" lon="-4.827383">
        <ele>1825.0</ele>
        <time>2015-08-02T12:22:58Z</time>
      </trkpt>
      <trkpt lat="40.291817" lon="-4.827150">
        <ele>1823.0</ele>
        <time>2015-08-02T12:23:00Z</time>
      </trkpt>
      <trkpt lat="40.291917" lon="-4.826933">
        <ele>1821.0</ele>
        <time>2015-08-02T12:23:02Z</time>
      </trkpt>
      <trkpt lat="40.292000" lon="-4.826700">
        <ele>1817.0</ele>
        <time>2015-08-02T12:23:04Z</time>
      </trkpt>
      <trkpt lat="40.292117" lon="-4.826450">
        <ele>1815.0</ele>
        <time>2015-08-02T12:23:06Z</time>
      </trkpt>
      <trkpt lat="40.292200" lon="-4.826233">
        <ele>1815.0</ele>
        <time>2015-08-02T12:23:08Z</time>
      </trkpt>
      <trkpt lat="40.292250" lon="-4.826017">
        <ele>1811.0</ele>
        <time>2015-08-02T12:23:10Z</time>
      </trkpt>
      <trkpt lat="40.292317" lon="-4.825733">
        <ele>1806.0</ele>
        <time>2015-08-02T12:23:12Z</time>
      </trkpt>
      <trkpt lat="40.292367" lon="-4.825450">
        <ele>1805.0</ele>
        <time>2015-08-02T12:23:14Z</time>
      </trkpt>
      <trkpt lat="40.292433" lon="-4.825217">
        <ele>1804.0</ele>
        <time>2015-08-02T12:23:16Z</time>
      </trkpt>
      <trkpt lat="40.292550" lon="-4.825000">
        <ele>1800.0</ele>
        <time>2015-08-02T12:23:18Z</time>
      </trkpt>
      <trkpt lat="40.292633" lon="-4.824750">
        <ele>1798.0</ele>
        <time>2015-08-02T12:23:20Z</time>
      </trkpt>
      <trkpt lat="40.292733" lon="-4.824500">
        <ele>1797.0</ele>
        <time>2015-08-02T12:23:22Z</time>
      </trkpt>
      <trkpt lat="40.292850" lon="-4.824283">
        <ele>1791.0</ele>
        <time>2015-08-02T12:23:24Z</time>
      </trkpt>
      <trkpt lat="40.292967" lon="-4.823983">
        <ele>1783.0</ele>
        <time>2015-08-02T12:23:26Z</time>
      </trkpt>
      <trkpt lat="40.293100" lon="-4.823683">
        <ele>1780.0</ele>
        <time>2015-08-02T12:23:28Z</time>
      </trkpt>
      <trkpt lat="40.293233" lon="-4.823433">
        <ele>1778.0</ele>
        <time>2015-08-02T12:23:30Z</time>
      </trkpt>
      <trkpt lat="40.293350" lon="-4.823150">
        <ele>1774.0</ele>
        <time>2015-08-02T12:23:32Z</time>
      </trkpt>
      <trkpt lat="40.293450" lon="-4.822867">
        <ele>1769.0</ele>
        <time>2015-08-02T12:23:34Z</time>
      </trkpt>
      <trkpt lat="40.293550" lon="-4.822583">
        <ele>1766.0</ele>
        <time>2015-08-02T12:23:36Z</time>
      </trkpt>
      <trkpt lat="40.293650" lon="-4.822317">
        <ele>1762.0</ele>
        <time>2015-08-02T12:23:38Z</time>
      </trkpt>
      <trkpt lat="40.293750" lon="-4.822050">
        <ele>1756.0</ele>
        <time>2015-08-02T12:23:40Z</time>
      </trkpt>
      <trkpt lat="40.293817" lon="-4.821750">
        <ele>1750.0</ele>
        <time>2015-08-02T12:23:42Z</time>
      </trkpt>
      <trkpt lat="40.293883" lon="-4.821467">
        <ele>1745.0</ele>
        <time>2015-08-02T12:23:44Z</time>
      </trkpt>
      <trkpt lat="40.293950" lon="-4.821167">
        <ele>1739.0</ele>
        <time>2015-08-02T12:23:46Z</time>
      </trkpt>
      <trkpt lat="40.294017" lon="-4.820883">
        <ele>1734.0</ele>
        <time>2015-08-02T12:23:48Z</time>
      </trkpt>
      <trkpt lat="40.294083" lon="-4.820600">
        <ele>1730.0</ele>
        <time>2015-08-02T12:23:50Z</time>
      </trkpt>
      <trkpt lat="40.294167" lon="-4.820317">
        <ele>1723.0</ele>
        <time>2015-08-02T12:23:52Z</time>
      </trkpt>
      <trkpt lat="40.294233" lon="-4.819983">
        <ele>1716.0</ele>
        <time>2015-08-02T12:23:54Z</time>
      </trkpt>
      <trkpt lat="40.294283" lon="-4.819650">
        <ele>1715.0</ele>
        <time>2015-08-02T12:23:56Z</time>
      </trkpt>
      <trkpt lat="40.294333" lon="-4.819383">
        <ele>1713.0</ele>
        <time>2015-08-02T12:23:58Z</time>
      </trkpt>
      <trkpt lat="40.294350" lon="-4.819100">
        <ele>1706.0</ele>
        <time>2015-08-02T12:24:00Z</time>
      </trkpt>
      <trkpt lat="40.294350" lon="-4.818750">
        <ele>1698.0</ele>
        <time>2015-08-02T12:24:02Z</time>
      </trkpt>
      <trkpt lat="40.294383" lon="-4.818383">
        <ele>1693.0</ele>
        <time>2015-08-02T12:24:04Z</time>
      </trkpt>
      <trkpt lat="40.294400" lon="-4.818067">
        <ele>1694.0</ele>
        <time>2015-08-02T12:24:06Z</time>
      </trkpt>
      <trkpt lat="40.294433" lon="-4.817767">
        <ele>1692.0</ele>
        <time>2015-08-02T12:24:08Z</time>
      </trkpt>
      <trkpt lat="40.294467" lon="-4.817467">
        <ele>1689.0</ele>
        <time>2015-08-02T12:24:10Z</time>
      </trkpt>
      <trkpt lat="40.294483" lon="-4.817133">
        <ele>1688.0</ele>
        <time>2015-08-02T12:24:12Z</time>
      </trkpt>
      <trkpt lat="40.294567" lon="-4.816817">
        <ele>1687.0</ele>
        <time>2015-08-02T12:24:14Z</time>
      </trkpt>
      <trkpt lat="40.294650" lon="-4.816467">
        <ele>1685.0</ele>
        <time>2015-08-02T12:24:16Z</time>
      </trkpt>
      <trkpt lat="40.294733" lon="-4.816133">
        <ele>1685.0</ele>
        <time>2015-08-02T12:24:18Z</time>
      </trkpt>
      <trkpt lat="40.294833" lon="-4.815833">
        <ele>1685.0</ele>
        <time>2015-08-02T12:24:20Z</time>
      </trkpt>
      <trkpt lat="40.294883" lon="-4.815500">
        <ele>1685.0</ele>
        <time>2015-08-02T12:24:22Z</time>
      </trkpt>
      <trkpt lat="40.294900" lon="-4.815183">
        <ele>1688.0</ele>
        <time>2015-08-02T12:24:24Z</time>
      </trkpt>
      <trkpt lat="40.294917" lon="-4.814900">
        <ele>1690.0</ele>
        <time>2015-08-02T12:24:26Z</time>
      </trkpt>
      <trkpt lat="40.294883" lon="-4.814617">
        <ele>1690.0</ele>
        <time>2015-08-02T12:24:28Z</time>
      </trkpt>
      <trkpt lat="40.294800" lon="-4.814333">
        <ele>1692.0</ele>
        <time>2015-08-02T12:24:30Z</time>
      </trkpt>
      <trkpt lat="40.294700" lon="-4.814100">
        <ele>1695.0</ele>
        <time>2015-08-02T12:24:32Z</time>
      </trkpt>
      <trkpt lat="40.294583" lon="-4.813950">
        <ele>1697.0</ele>
        <time>2015-08-02T12:24:34Z</time>
      </trkpt>
      <trkpt lat="40.294450" lon="-4.813883">
        <ele>1698.0</ele>
        <time>2015-08-02T12:24:36Z</time>
      </trkpt>
      <trkpt lat="40.294350" lon="-4.813933">
        <ele>1702.0</ele>
        <time>2015-08-02T12:24:38Z</time>
      </trkpt>
      <trkpt lat="40.294350" lon="-4.814017">
        <ele>1706.0</ele>
        <time>2015-08-02T12:24:40Z</time>
      </trkpt>
      <trkpt lat="40.294400" lon="-4.814100">
        <ele>1705.0</ele>
        <time>2015-08-02T12:24:42Z</time>
      </trkpt>
      <trkpt lat="40.294533" lon="-4.814217">
        <ele>1703.0</ele>
        <time>2015-08-02T12:24:44Z</time>
      </trkpt>
      <trkpt lat="40.294767" lon="-4.814217">
        <ele>1702.0</ele>
        <time>2015-08-02T12:24:46Z</time>
      </trkpt>
      <trkpt lat="40.294983" lon="-4.814067">
        <ele>1702.0</ele>
        <time>2015-08-02T12:24:48Z</time>
      </trkpt>
      <trkpt lat="40.295167" lon="-4.813833">
        <ele>1701.0</ele>
        <time>2015-08-02T12:24:50Z</time>
      </trkpt>
      <trkpt lat="40.295300" lon="-4.813533">
        <ele>1700.0</ele>
        <time>2015-08-02T12:24:52Z</time>
      </trkpt>
      <trkpt lat="40.295433" lon="-4.813200">
        <ele>1701.0</ele>
        <time>2015-08-02T12:24:54Z</time>
      </trkpt>
      <trkpt lat="40.295567" lon="-4.812933">
        <ele>1706.0</ele>
        <time>2015-08-02T12:24:56Z</time>
      </trkpt>
      <trkpt lat="40.295667" lon="-4.812683">
        <ele>1708.0</ele>
        <time>2015-08-02T12:24:58Z</time>
      </trkpt>
      <trkpt lat="40.295700" lon="-4.812400">
        <ele>1708.0</ele>
        <time>2015-08-02T12:25:00Z</time>
      </trkpt>
      <trkpt lat="40.295650" lon="-4.812117">
        <ele>1712.0</ele>
        <time>2015-08-02T12:25:02Z</time>
      </trkpt>
      <trkpt lat="40.295567" lon="-4.811983">
        <ele>1719.0</ele>
        <time>2015-08-02T12:25:04Z</time>
      </trkpt>
      <trkpt lat="40.295517" lon="-4.811933">
        <ele>1725.0</ele>
        <time>2015-08-02T12:25:06Z</time>
      </trkpt>
      <trkpt lat="40.295483" lon="-4.811983">
        <ele>1728.0</ele>
        <time>2015-08-02T12:25:08Z</time>
      </trkpt>
      <trkpt lat="40.295500" lon="-4.812100">
        <ele>1731.0</ele>
        <time>2015-08-02T12:25:10Z</time>
      </trkpt>
      <trkpt lat="40.295600" lon="-4.812183">
        <ele>1734.0</ele>
        <time>2015-08-02T12:25:12Z</time>
      </trkpt>
      <trkpt lat="40.295767" lon="-4.812200">
        <ele>1736.0</ele>
        <time>2015-08-02T12:25:14Z</time>
      </trkpt>
      <trkpt lat="40.295983" lon="-4.812017">
        <ele>1735.0</ele>
        <time>2015-08-02T12:25:16Z</time>
      </trkpt>
      <trkpt lat="40.296100" lon="-4.811717">
        <ele>1738.0</ele>
        <time>2015-08-02T12:25:18Z</time>
      </trkpt>
      <trkpt lat="40.296167" lon="-4.811450">
        <ele>1744.0</ele>
        <time>2015-08-02T12:25:20Z</time>
      </trkpt>
      <trkpt lat="40.296200" lon="-4.811183">
        <ele>1747.0</ele>
        <time>2015-08-02T12:25:22Z</time>
      </trkpt>
      <trkpt lat="40.296150" lon="-4.810967">
        <ele>1746.0</ele>
        <time>2015-08-02T12:25:24Z</time>
      </trkpt>
      <trkpt lat="40.296050" lon="-4.810900">
        <ele>1749.0</ele>
        <time>2015-08-02T12:25:26Z</time>
      </trkpt>
      <trkpt lat="40.296033" lon="-4.810967">
        <ele>1753.0</ele>
        <time>2015-08-02T12:25:28Z</time>
      </trkpt>
      <trkpt lat="40.296100" lon="-4.811050">
        <ele>1756.0</ele>
        <time>2015-08-02T12:25:30Z</time>
      </trkpt>
      <trkpt lat="40.296250" lon="-4.811133">
        <ele>1758.0</ele>
        <time>2015-08-02T12:25:32Z</time>
      </trkpt>
      <trkpt lat="40.296500" lon="-4.811117">
        <ele>1761.0</ele>
        <time>2015-08-02T12:25:34Z</time>
      </trkpt>
      <trkpt lat="40.296717" lon="-4.810983">
        <ele>1768.0</ele>
        <time>2015-08-02T12:25:36Z</time>
      </trkpt>
      <trkpt lat="40.296917" lon="-4.810783">
        <ele>1772.0</ele>
        <time>2015-08-02T12:25:38Z</time>
      </trkpt>
      <trkpt lat="40.297050" lon="-4.810500">
        <ele>1773.0</ele>
        <time>2015-08-02T12:25:40Z</time>
      </trkpt>
      <trkpt lat="40.297050" lon="-4.810217">
        <ele>1773.0</ele>
        <time>2015-08-02T12:25:42Z</time>
      </trkpt>
      <trkpt lat="40.296967" lon="-4.810017">
        <ele>1775.0</ele>
        <time>2015-08-02T12:25:44Z</time>
      </trkpt>
      <trkpt lat="40.296900" lon="-4.809933">
        <ele>1777.0</ele>
        <time>2015-08-02T12:25:46Z</time>
      </trkpt>
      <trkpt lat="40.296850" lon="-4.809950">
        <ele>1777.0</ele>
        <time>2015-08-02T12:25:48Z</time>
      </trkpt>
      <trkpt lat="40.296833" lon="-4.810067">
        <ele>1776.0</ele>
        <time>2015-08-02T12:25:50Z</time>
      </trkpt>
      <trkpt lat="40.296950" lon="-4.810200">
        <ele>1777.0</ele>
        <time>2015-08-02T12:25:52Z</time>
      </trkpt>
      <trkpt lat="40.297150" lon="-4.810233">
        <ele>1781.0</ele>
        <time>2015-08-02T12:25:54Z</time>
      </trkpt>
      <trkpt lat="40.297367" lon="-4.810167">
        <ele>1782.0</ele>
        <time>2015-08-02T12:25:56Z</time>
      </trkpt>
      <trkpt lat="40.297633" lon="-4.810017">
        <ele>1783.0</ele>
        <time>2015-08-02T12:25:58Z</time>
      </trkpt>
      <trkpt lat="40.297867" lon="-4.809767">
        <ele>1790.0</ele>
        <time>2015-08-02T12:26:00Z</time>
      </trkpt>
      <trkpt lat="40.298050" lon="-4.809567">
        <ele>1797.0</ele>
        <time>2015-08-02T12:26:02Z</time>
      </trkpt>
      <trkpt lat="40.298200" lon="-4.809300">
        <ele>1798.0</ele>
        <time>2015-08-02T12:26:04Z</time>
      </trkpt>
      <trkpt lat="40.298283" lon="-4.808900">
        <ele>1797.0</ele>
        <time>2015-08-02T12:26:06Z</time>
      </trkpt>
      <trkpt lat="40.298283" lon="-4.808567">
        <ele>1804.0</ele>
        <time>2015-08-02T12:26:08Z</time>
      </trkpt>
      <trkpt lat="40.298250" lon="-4.808317">
        <ele>1809.0</ele>
        <time>2015-08-02T12:26:10Z</time>
      </trkpt>
      <trkpt lat="40.298183" lon="-4.808150">
        <ele>1811.0</ele>
        <time>2015-08-02T12:26:12Z</time>
      </trkpt>
      <trkpt lat="40.298100" lon="-4.808083">
        <ele>1814.0</ele>
        <time>2015-08-02T12:26:14Z</time>
      </trkpt>
      <trkpt lat="40.298050" lon="-4.808117">
        <ele>1818.0</ele>
        <time>2015-08-02T12:26:16Z</time>
      </trkpt>
      <trkpt lat="40.298117" lon="-4.808217">
        <ele>1819.0</ele>
        <time>2015-08-02T12:26:18Z</time>
      </trkpt>
      <trkpt lat="40.298283" lon="-4.808283">
        <ele>1823.0</ele>
        <time>2015-08-02T12:26:20Z</time>
      </trkpt>
      <trkpt lat="40.298517" lon="-4.808267">
        <ele>1829.0</ele>
        <time>2015-08-02T12:26:22Z</time>
      </trkpt>
      <trkpt lat="40.298783" lon="-4.808133">
        <ele>1834.0</ele>
        <time>2015-08-02T12:26:24Z</time>
      </trkpt>
      <trkpt lat="40.299050" lon="-4.807867">
        <ele>1841.0</ele>
        <time>2015-08-02T12:26:26Z</time>
      </trkpt>
      <trkpt lat="40.299217" lon="-4.807533">
        <ele>1847.0</ele>
        <time>2015-08-02T12:26:28Z</time>
      </trkpt>
      <trkpt lat="40.299300" lon="-4.807183">
        <ele>1851.0</ele>
        <time>2015-08-02T12:26:30Z</time>
      </trkpt>
      <trkpt lat="40.299300" lon="-4.806867">
        <ele>1853.0</ele>
        <time>2015-08-02T12:26:32Z</time>
      </trkpt>
      <trkpt lat="40.299217" lon="-4.806667">
        <ele>1856.0</ele>
        <time>2015-08-02T12:26:34Z</time>
      </trkpt>
      <trkpt lat="40.299133" lon="-4.806583">
        <ele>1860.0</ele>
        <time>2015-08-02T12:26:36Z</time>
      </trkpt>
      <trkpt lat="40.299067" lon="-4.806583">
        <ele>1862.0</ele>
        <time>2015-08-02T12:26:38Z</time>
      </trkpt>
      <trkpt lat="40.299033" lon="-4.806700">
        <ele>1865.0</ele>
        <time>2015-08-02T12:26:40Z</time>
      </trkpt>
      <trkpt lat="40.299133" lon="-4.806850">
        <ele>1871.0</ele>
        <time>2015-08-02T12:26:42Z</time>
      </trkpt>
      <trkpt lat="40.299333" lon="-4.806917">
        <ele>1877.0</ele>
        <time>2015-08-02T12:26:44Z</time>
      </trkpt>
      <trkpt lat="40.299583" lon="-4.806833">
        <ele>1883.0</ele>
        <time>2015-08-02T12:26:46Z</time>
      </trkpt>
      <trkpt lat="40.299817" lon="-4.806567">
        <ele>1889.0</ele>
        <time>2015-08-02T12:26:48Z</time>
      </trkpt>
      <trkpt lat="40.299900" lon="-4.806267">
        <ele>1895.0</ele>
        <time>2015-08-02T12:26:50Z</time>
      </trkpt>
      <trkpt lat="40.299950" lon="-4.805983">
        <ele>1896.0</ele>
        <time>2015-08-02T12:26:52Z</time>
      </trkpt>
      <trkpt lat="40.299900" lon="-4.805683">
        <ele>1897.0</ele>
        <time>2015-08-02T12:26:54Z</time>
      </trkpt>
      <trkpt lat="40.299767" lon="-4.805533">
        <ele>1902.0</ele>
        <time>2015-08-02T12:26:56Z</time>
      </trkpt>
      <trkpt lat="40.299650" lon="-4.805517">
        <ele>1908.0</ele>
        <time>2015-08-02T12:26:58Z</time>
      </trkpt>
      <trkpt lat="40.299567" lon="-4.805517">
        <ele>1912.0</ele>
        <time>2015-08-02T12:27:00Z</time>
      </trkpt>
      <trkpt lat="40.299550" lon="-4.805617">
        <ele>1915.0</ele>
        <time>2015-08-02T12:27:02Z</time>
      </trkpt>
      <trkpt lat="40.299667" lon="-4.805767">
        <ele>1916.0</ele>
        <time>2015-08-02T12:27:04Z</time>
      </trkpt>
      <trkpt lat="40.299900" lon="-4.805833">
        <ele>1916.0</ele>
        <time>2015-08-02T12:27:06Z</time>
      </trkpt>
      <trkpt lat="40.300167" lon="-4.805733">
        <ele>1919.0</ele>
        <time>2015-08-02T12:27:08Z</time>
      </trkpt>
      <trkpt lat="40.300350" lon="-4.805550">
        <ele>1924.0</ele>
        <time>2015-08-02T12:27:10Z</time>
      </trkpt>
      <trkpt lat="40.300517" lon="-4.805333">
        <ele>1928.0</ele>
        <time>2015-08-02T12:27:12Z</time>
      </trkpt>
      <trkpt lat="40.300650" lon="-4.805100">
        <ele>1928.0</ele>
        <time>2015-08-02T12:27:14Z</time>
      </trkpt>
      <trkpt lat="40.300683" lon="-4.804800">
        <ele>1930.0</ele>
        <time>2015-08-02T12:27:16Z</time>
      </trkpt>
      <trkpt lat="40.300683" lon="-4.804533">
        <ele>1937.0</ele>
        <time>2015-08-02T12:27:18Z</time>
      </trkpt>
      <trkpt lat="40.300650" lon="-4.804367">
        <ele>1944.0</ele>
        <time>2015-08-02T12:27:20Z</time>
      </trkpt>
      <trkpt lat="40.300583" lon="-4.804250">
        <ele>1947.0</ele>
        <time>2015-08-02T12:27:22Z</time>
      </trkpt>
      <trkpt lat="40.300483" lon="-4.804250">
        <ele>1949.0</ele>
        <time>2015-08-02T12:27:24Z</time>
      </trkpt>
      <trkpt lat="40.300450" lon="-4.804417">
        <ele>1953.0</ele>
        <time>2015-08-02T12:27:26Z</time>
      </trkpt>
      <trkpt lat="40.300517" lon="-4.804567">
        <ele>1961.0</ele>
        <time>2015-08-02T12:27:28Z</time>
      </trkpt>
      <trkpt lat="40.300683" lon="-4.804650">
        <ele>1966.0</ele>
        <time>2015-08-02T12:27:30Z</time>
      </trkpt>
      <trkpt lat="40.300933" lon="-4.804617">
        <ele>1969.0</ele>
        <time>2015-08-02T12:27:32Z</time>
      </trkpt>
      <trkpt lat="40.301150" lon="-4.804433">
        <ele>1975.0</ele>
        <time>2015-08-02T12:27:34Z</time>
      </trkpt>
      <trkpt lat="40.301267" lon="-4.804167">
        <ele>1981.0</ele>
        <time>2015-08-02T12:27:36Z</time>
      </trkpt>
      <trkpt lat="40.301317" lon="-4.803900">
        <ele>1987.0</ele>
        <time>2015-08-02T12:27:38Z</time>
      </trkpt>
      <trkpt lat="40.301283" lon="-4.803667">
        <ele>1991.0</ele>
        <time>2015-08-02T12:27:40Z</time>
      </trkpt>
      <trkpt lat="40.301200" lon="-4.803517">
        <ele>1995.0</ele>
        <time>2015-08-02T12:27:42Z</time>
      </trkpt>
      <trkpt lat="40.301100" lon="-4.803500">
        <ele>1999.0</ele>
        <time>2015-08-02T12:27:44Z</time>
      </trkpt>
      <trkpt lat="40.301033" lon="-4.803600">
        <ele>2002.0</ele>
        <time>2015-08-02T12:27:46Z</time>
      </trkpt>
      <trkpt lat="40.301067" lon="-4.803750">
        <ele>2007.0</ele>
        <time>2015-08-02T12:27:48Z</time>
      </trkpt>
      <trkpt lat="40.301217" lon="-4.803867">
        <ele>2013.0</ele>
        <time>2015-08-02T12:27:50Z</time>
      </trkpt>
      <trkpt lat="40.301417" lon="-4.803850">
        <ele>2017.0</ele>
        <time>2015-08-02T12:27:52Z</time>
      </trkpt>
      <trkpt lat="40.301650" lon="-4.803750">
        <ele>2021.0</ele>
        <time>2015-08-02T12:27:54Z</time>
      </trkpt>
      <trkpt lat="40.301817" lon="-4.803500">
        <ele>2026.0</ele>
        <time>2015-08-02T12:27:56Z</time>
      </trkpt>
      <trkpt lat="40.301883" lon="-4.803200">
        <ele>2031.0</ele>
        <time>2015-08-02T12:27:58Z</time>
      </trkpt>
      <trkpt lat="40.301900" lon="-4.802933">
        <ele>2036.0</ele>
        <time>2015-08-02T12:28:00Z</time>
      </trkpt>
      <trkpt lat="40.301850" lon="-4.802717">
        <ele>2037.0</ele>
        <time>2015-08-02T12:28:02Z</time>
      </trkpt>
      <trkpt lat="40.301733" lon="-4.802600">
        <ele>2037.0</ele>
        <time>2015-08-02T12:28:04Z</time>
      </trkpt>
      <trkpt lat="40.301617" lon="-4.802583">
        <ele>2040.0</ele>
        <time>2015-08-02T12:28:06Z</time>
      </trkpt>
      <trkpt lat="40.301567" lon="-4.802667">
        <ele>2044.0</ele>
        <time>2015-08-02T12:28:08Z</time>
      </trkpt>
      <trkpt lat="40.301600" lon="-4.802733">
        <ele>2049.0</ele>
        <time>2015-08-02T12:28:10Z</time>
      </trkpt>
      <trkpt lat="40.301717" lon="-4.802800">
        <ele>2051.0</ele>
        <time>2015-08-02T12:28:12Z</time>
      </trkpt>
      <trkpt lat="40.301900" lon="-4.802817">
        <ele>2054.0</ele>
        <time>2015-08-02T12:28:14Z</time>
      </trkpt>
      <trkpt lat="40.302117" lon="-4.802683">
        <ele>2059.0</ele>
        <time>2015-08-02T12:28:16Z</time>
      </trkpt>
      <trkpt lat="40.302300" lon="-4.802433">
        <ele>2063.0</ele>
        <time>2015-08-02T12:28:18Z</time>
      </trkpt>
      <trkpt lat="40.302417" lon="-4.802117">
        <ele>2065.0</ele>
        <time>2015-08-02T12:28:20Z</time>
      </trkpt>
      <trkpt lat="40.302467" lon="-4.801783">
        <ele>2067.0</ele>
        <time>2015-08-02T12:28:22Z</time>
      </trkpt>
      <trkpt lat="40.302433" lon="-4.801500">
        <ele>2068.0</ele>
        <time>2015-08-02T12:28:24Z</time>
      </trkpt>
      <trkpt lat="40.302333" lon="-4.801267">
        <ele>2069.0</ele>
        <time>2015-08-02T12:28:26Z</time>
      </trkpt>
      <trkpt lat="40.302200" lon="-4.801150">
        <ele>2072.0</ele>
        <time>2015-08-02T12:28:28Z</time>
      </trkpt>
      <trkpt lat="40.302133" lon="-4.801100">
        <ele>2078.0</ele>
        <time>2015-08-02T12:28:30Z</time>
      </trkpt>
      <trkpt lat="40.302100" lon="-4.801117">
        <ele>2082.0</ele>
        <time>2015-08-02T12:28:32Z</time>
      </trkpt>
      <trkpt lat="40.302117" lon="-4.801200">
        <ele>2085.0</ele>
        <time>2015-08-02T12:28:34Z</time>
      </trkpt>
      <trkpt lat="40.302200" lon="-4.801283">
        <ele>2089.0</ele>
        <time>2015-08-02T12:28:36Z</time>
      </trkpt>
      <trkpt lat="40.302400" lon="-4.801300">
        <ele>2090.0</ele>
        <time>2015-08-02T12:28:38Z</time>
      </trkpt>
      <trkpt lat="40.302633" lon="-4.801150">
        <ele>2093.0</ele>
        <time>2015-08-02T12:28:40Z</time>
      </trkpt>
      <trkpt lat="40.302833" lon="-4.800917">
        <ele>2097.0</ele>
        <time>2015-08-02T12:28:42Z</time>
      </trkpt>
      <trkpt lat="40.303000" lon="-4.800617">
        <ele>2099.0</ele>
        <time>2015-08-02T12:28:44Z</time>
      </trkpt>
      <trkpt lat="40.303083" lon="-4.800250">
        <ele>2101.0</ele>
        <time>2015-08-02T12:28:46Z</time>
      </trkpt>
      <trkpt lat="40.303083" lon="-4.799917">
        <ele>2105.0</ele>
        <time>2015-08-02T12:28:48Z</time>
      </trkpt>
      <trkpt lat="40.303050" lon="-4.799650">
        <ele>2110.0</ele>
        <time>2015-08-02T12:28:50Z</time>
      </trkpt>
      <trkpt lat="40.302983" lon="-4.799467">
        <ele>2114.0</ele>
        <time>2015-08-02T12:28:52Z</time>
      </trkpt>
      <trkpt lat="40.302883" lon="-4.799383">
        <ele>2118.0</ele>
        <time>2015-08-02T12:28:54Z</time>
      </trkpt>
      <trkpt lat="40.302817" lon="-4.799400">
        <ele>2122.0</ele>
        <time>2015-08-02T12:28:56Z</time>
      </trkpt>
      <trkpt lat="40.302833" lon="-4.799517">
        <ele>2128.0</ele>
        <time>2015-08-02T12:28:58Z</time>
      </trkpt>
      <trkpt lat="40.302950" lon="-4.799600">
        <ele>2134.0</ele>
        <time>2015-08-02T12:29:00Z</time>
      </trkpt>
      <trkpt lat="40.303100" lon="-4.799633">
        <ele>2136.0</ele>
        <time>2015-08-02T12:29:02Z</time>
      </trkpt>
      <trkpt lat="40.303350" lon="-4.799583">
        <ele>2138.0</ele>
        <time>2015-08-02T12:29:04Z</time>
      </trkpt>
      <trkpt lat="40.303600" lon="-4.799433">
        <ele>2142.0</ele>
        <time>2015-08-02T12:29:06Z</time>
      </trkpt>
      <trkpt lat="40.303783" lon="-4.799200">
        <ele>2145.0</ele>
        <time>2015-08-02T12:29:08Z</time>
      </trkpt>
      <trkpt lat="40.303983" lon="-4.798883">
        <ele>2146.0</ele>
        <time>2015-08-02T12:29:10Z</time>
      </trkpt>
      <trkpt lat="40.304117" lon="-4.798517">
        <ele>2150.0</ele>
        <time>2015-08-02T12:29:12Z</time>
      </trkpt>
      <trkpt lat="40.304167" lon="-4.798183">
        <ele>2156.0</ele>
        <time>2015-08-02T12:29:14Z</time>
      </trkpt>
      <trkpt lat="40.304183" lon="-4.797883">
        <ele>2162.0</ele>
        <time>2015-08-02T12:29:16Z</time>
      </trkpt>
      <trkpt lat="40.304133" lon="-4.797633">
        <ele>2168.0</ele>
        <time>2015-08-02T12:29:18Z</time>
      </trkpt>
      <trkpt lat="40.304050" lon="-4.797583">
        <ele>2174.0</ele>
        <time>2015-08-02T12:29:20Z</time>
      </trkpt>
      <trkpt lat="40.304017" lon="-4.797683">
        <ele>2179.0</ele>
        <time>2015-08-02T12:29:22Z</time>
      </trkpt>
      <trkpt lat="40.304100" lon="-4.797800">
        <ele>2188.0</ele>
        <time>2015-08-02T12:29:24Z</time>
      </trkpt>
      <trkpt lat="40.304283" lon="-4.797850">
        <ele>2195.0</ele>
        <time>2015-08-02T12:29:26Z</time>
      </trkpt>
      <trkpt lat="40.304550" lon="-4.797800">
        <ele>2198.0</ele>
        <time>2015-08-02T12:29:28Z</time>
      </trkpt>
      <trkpt lat="40.304817" lon="-4.797567">
        <ele>2202.0</ele>
        <time>2015-08-02T12:29:30Z</time>
      </trkpt>
      <trkpt lat="40.305017" lon="-4.797200">
        <ele>2209.0</ele>
        <time>2015-08-02T12:29:32Z</time>
      </trkpt>
      <trkpt lat="40.305117" lon="-4.796850">
        <ele>2216.0</ele>
        <time>2015-08-02T12:29:34Z</time>
      </trkpt>
      <trkpt lat="40.305150" lon="-4.796533">
        <ele>2221.0</ele>
        <time>2015-08-02T12:29:36Z</time>
      </trkpt>
      <trkpt lat="40.305133" lon="-4.796367">
        <ele>2226.0</ele>
        <time>2015-08-02T12:29:38Z</time>
      </trkpt>
      <trkpt lat="40.305100" lon="-4.796300">
        <ele>2226.0</ele>
        <time>2015-08-02T12:29:40Z</time>
      </trkpt>
      <trkpt lat="40.305033" lon="-4.796350">
        <ele>2224.0</ele>
        <time>2015-08-02T12:29:42Z</time>
      </trkpt>
      <trkpt lat="40.305033" lon="-4.796533">
        <ele>2224.0</ele>
        <time>2015-08-02T12:29:44Z</time>
      </trkpt>
      <trkpt lat="40.305150" lon="-4.796700">
        <ele>2234.0</ele>
        <time>2015-08-02T12:29:46Z</time>
      </trkpt>
      <trkpt lat="40.305333" lon="-4.796717">
        <ele>2242.0</ele>
        <time>2015-08-02T12:29:48Z</time>
      </trkpt>
      <trkpt lat="40.305550" lon="-4.796700">
        <ele>2246.0</ele>
        <time>2015-08-02T12:29:50Z</time>
      </trkpt>
      <trkpt lat="40.305850" lon="-4.796600">
        <ele>2248.0</ele>
        <time>2015-08-02T12:29:52Z</time>
      </trkpt>
      <trkpt lat="40.306133" lon="-4.796350">
        <ele>2253.0</ele>
        <time>2015-08-02T12:29:54Z</time>
      </trkpt>
      <trkpt lat="40.306350" lon="-4.796067">
        <ele>2260.0</ele>
        <time>2015-08-02T12:29:56Z</time>
      </trkpt>
      <trkpt lat="40.306533" lon="-4.795700">
        <ele>2264.0</ele>
        <time>2015-08-02T12:29:58Z</time>
      </trkpt>
      <trkpt lat="40.306567" lon="-4.795383">
        <ele>2268.0</ele>
        <time>2015-08-02T12:30:00Z</time>
      </trkpt>
      <trkpt lat="40.306533" lon="-4.795183">
        <ele>2270.0</ele>
        <time>2015-08-02T12:30:02Z</time>
      </trkpt>
      <trkpt lat="40.306483" lon="-4.795117">
        <ele>2271.0</ele>
        <time>2015-08-02T12:30:04Z</time>
      </trkpt>
      <trkpt lat="40.306483" lon="-4.795200">
        <ele>2269.0</ele>
        <time>2015-08-02T12:30:06Z</time>
      </trkpt>
      <trkpt lat="40.306583" lon="-4.795367">
        <ele>2272.0</ele>
        <time>2015-08-02T12:30:08Z</time>
      </trkpt>
      <trkpt lat="40.306733" lon="-4.795450">
        <ele>2281.0</ele>
        <time>2015-08-02T12:30:10Z</time>
      </trkpt>
      <trkpt lat="40.306850" lon="-4.795433">
        <ele>2286.0</ele>
        <time>2015-08-02T12:30:12Z</time>
      </trkpt>
      <trkpt lat="40.307067" lon="-4.795450">
        <ele>2286.0</ele>
        <time>2015-08-02T12:30:14Z</time>
      </trkpt>
      <trkpt lat="40.307333" lon="-4.795350">
        <ele>2290.0</ele>
        <time>2015-08-02T12:30:16Z</time>
      </trkpt>
      <trkpt lat="40.307567" lon="-4.795117">
        <ele>2292.0</ele>
        <time>2015-08-02T12:30:18Z</time>
      </trkpt>
      <trkpt lat="40.307767" lon="-4.794750">
        <ele>2290.0</ele>
        <time>2015-08-02T12:30:20Z</time>
      </trkpt>
      <trkpt lat="40.307983" lon="-4.794367">
        <ele>2294.0</ele>
        <time>2015-08-02T12:30:22Z</time>
      </trkpt>
      <trkpt lat="40.308067" lon="-4.794033">
        <ele>2296.0</ele>
        <time>2015-08-02T12:30:24Z</time>
      </trkpt>
      <trkpt lat="40.308050" lon="-4.793717">
        <ele>2295.0</ele>
        <time>2015-08-02T12:30:26Z</time>
      </trkpt>
      <trkpt lat="40.307983" lon="-4.793500">
        <ele>2292.0</ele>
        <time>2015-08-02T12:30:28Z</time>
      </trkpt>
      <trkpt lat="40.307850" lon="-4.793517">
        <ele>2287.0</ele>
        <time>2015-08-02T12:30:30Z</time>
      </trkpt>
      <trkpt lat="40.307767" lon="-4.793600">
        <ele>2290.0</ele>
        <time>2015-08-02T12:30:32Z</time>
      </trkpt>
      <trkpt lat="40.307767" lon="-4.793683">
        <ele>2293.0</ele>
        <time>2015-08-02T12:30:34Z</time>
      </trkpt>
      <trkpt lat="40.307850" lon="-4.793833">
        <ele>2294.0</ele>
        <time>2015-08-02T12:30:36Z</time>
      </trkpt>
      <trkpt lat="40.308033" lon="-4.793933">
        <ele>2298.0</ele>
        <time>2015-08-02T12:30:38Z</time>
      </trkpt>
      <trkpt lat="40.308250" lon="-4.793933">
        <ele>2301.0</ele>
        <time>2015-08-02T12:30:40Z</time>
      </trkpt>
      <trkpt lat="40.308517" lon="-4.793783">
        <ele>2302.0</ele>
        <time>2015-08-02T12:30:42Z</time>
      </trkpt>
      <trkpt lat="40.308767" lon="-4.793467">
        <ele>2299.0</ele>
        <time>2015-08-02T12:30:44Z</time>
      </trkpt>
      <trkpt lat="40.308917" lon="-4.793050">
        <ele>2298.0</ele>
        <time>2015-08-02T12:30:46Z</time>
      </trkpt>
      <trkpt lat="40.309017" lon="-4.792683">
        <ele>2304.0</ele>
        <time>2015-08-02T12:30:48Z</time>
      </trkpt>
      <trkpt lat="40.309133" lon="-4.792367">
        <ele>2302.0</ele>
        <time>2015-08-02T12:30:50Z</time>
      </trkpt>
      <trkpt lat="40.309200" lon="-4.792033">
        <ele>2294.0</ele>
        <time>2015-08-02T12:30:52Z</time>
      </trkpt>
      <trkpt lat="40.309250" lon="-4.791733">
        <ele>2287.0</ele>
        <time>2015-08-02T12:30:54Z</time>
      </trkpt>
      <trkpt lat="40.309317" lon="-4.791400">
        <ele>2278.0</ele>
        <time>2015-08-02T12:30:56Z</time>
      </trkpt>
      <trkpt lat="40.309317" lon="-4.791050">
        <ele>2273.0</ele>
        <time>2015-08-02T12:30:58Z</time>
      </trkpt>
      <trkpt lat="40.309267" lon="-4.790783">
        <ele>2273.0</ele>
        <time>2015-08-02T12:31:00Z</time>
      </trkpt>
      <trkpt lat="40.309283" lon="-4.790517">
        <ele>2269.0</ele>
        <time>2015-08-02T12:31:02Z</time>
      </trkpt>
      <trkpt lat="40.309317" lon="-4.790200">
        <ele>2264.0</ele>
        <time>2015-08-02T12:31:04Z</time>
      </trkpt>
      <trkpt lat="40.309333" lon="-4.789900">
        <ele>2263.0</ele>
        <time>2015-08-02T12:31:06Z</time>
      </trkpt>
      <trkpt lat="40.309383" lon="-4.789617">
        <ele>2261.0</ele>
        <time>2015-08-02T12:31:08Z</time>
      </trkpt>
      <trkpt lat="40.309450" lon="-4.789317">
        <ele>2258.0</ele>
        <time>2015-08-02T12:31:10Z</time>
      </trkpt>
      <trkpt lat="40.309567" lon="-4.789000">
        <ele>2255.0</ele>
        <time>2015-08-02T12:31:12Z</time>
      </trkpt>
      <trkpt lat="40.309667" lon="-4.788700">
        <ele>2254.0</ele>
        <time>2015-08-02T12:31:14Z</time>
      </trkpt>
      <trkpt lat="40.309783" lon="-4.788383">
        <ele>2251.0</ele>
        <time>2015-08-02T12:31:16Z</time>
      </trkpt>
      <trkpt lat="40.309900" lon="-4.788067">
        <ele>2248.0</ele>
        <time>2015-08-02T12:31:18Z</time>
      </trkpt>
      <trkpt lat="40.310017" lon="-4.787750">
        <ele>2246.0</ele>
        <time>2015-08-02T12:31:20Z</time>
      </trkpt>
      <trkpt lat="40.310117" lon="-4.787433">
        <ele>2243.0</ele>
        <time>2015-08-02T12:31:22Z</time>
      </trkpt>
      <trkpt lat="40.310200" lon="-4.787100">
        <ele>2240.0</ele>
        <time>2015-08-02T12:31:24Z</time>
      </trkpt>
      <trkpt lat="40.310283" lon="-4.786767">
        <ele>2238.0</ele>
        <time>2015-08-02T12:31:26Z</time>
      </trkpt>
      <trkpt lat="40.310367" lon="-4.786433">
        <ele>2236.0</ele>
        <time>2015-08-02T12:31:28Z</time>
      </trkpt>
      <trkpt lat="40.310483" lon="-4.786117">
        <ele>2235.0</ele>
        <time>2015-08-02T12:31:30Z</time>
      </trkpt>
      <trkpt lat="40.310583" lon="-4.785833">
        <ele>2234.0</ele>
        <time>2015-08-02T12:31:32Z</time>
      </trkpt>
      <trkpt lat="40.310650" lon="-4.785517">
        <ele>2228.0</ele>
        <time>2015-08-02T12:31:34Z</time>
      </trkpt>
      <trkpt lat="40.310700" lon="-4.785183">
        <ele>2224.0</ele>
        <time>2015-08-02T12:31:36Z</time>
      </trkpt>
      <trkpt lat="40.310717" lon="-4.784833">
        <ele>2224.0</ele>
        <time>2015-08-02T12:31:38Z</time>
      </trkpt>
      <trkpt lat="40.310683" lon="-4.784567">
        <ele>2224.0</ele>
        <time>2015-08-02T12:31:40Z</time>
      </trkpt>
      <trkpt lat="40.310600" lon="-4.784317">
        <ele>2222.0</ele>
        <time>2015-08-02T12:31:42Z</time>
      </trkpt>
      <trkpt lat="40.310483" lon="-4.784117">
        <ele>2220.0</ele>
        <time>2015-08-02T12:31:44Z</time>
      </trkpt>
      <trkpt lat="40.310383" lon="-4.783900">
        <ele>2216.0</ele>
        <time>2015-08-02T12:31:46Z</time>
      </trkpt>
      <trkpt lat="40.310367" lon="-4.783600">
        <ele>2211.0</ele>
        <time>2015-08-02T12:31:48Z</time>
      </trkpt>
      <trkpt lat="40.310400" lon="-4.783283">
        <ele>2206.0</ele>
        <time>2015-08-02T12:31:50Z</time>
      </trkpt>
      <trkpt lat="40.310467" lon="-4.782983">
        <ele>2197.0</ele>
        <time>2015-08-02T12:31:52Z</time>
      </trkpt>
      <trkpt lat="40.310550" lon="-4.782633">
        <ele>2188.0</ele>
        <time>2015-08-02T12:31:54Z</time>
      </trkpt>
      <trkpt lat="40.310650" lon="-4.782283">
        <ele>2181.0</ele>
        <time>2015-08-02T12:31:56Z</time>
      </trkpt>
      <trkpt lat="40.310733" lon="-4.781950">
        <ele>2175.0</ele>
        <time>2015-08-02T12:31:58Z</time>
      </trkpt>
      <trkpt lat="40.310833" lon="-4.781633">
        <ele>2168.0</ele>
        <time>2015-08-02T12:32:00Z</time>
      </trkpt>
      <trkpt lat="40.310967" lon="-4.781317">
        <ele>2163.0</ele>
        <time>2015-08-02T12:32:02Z</time>
      </trkpt>
      <trkpt lat="40.311083" lon="-4.781017">
        <ele>2159.0</ele>
        <time>2015-08-02T12:32:04Z</time>
      </trkpt>
      <trkpt lat="40.311150" lon="-4.780717">
        <ele>2153.0</ele>
        <time>2015-08-02T12:32:06Z</time>
      </trkpt>
      <trkpt lat="40.311250" lon="-4.780400">
        <ele>2145.0</ele>
        <time>2015-08-02T12:32:08Z</time>
      </trkpt>
      <trkpt lat="40.311333" lon="-4.780067">
        <ele>2140.0</ele>
        <time>2015-08-02T12:32:10Z</time>
      </trkpt>
      <trkpt lat="40.311417" lon="-4.779767">
        <ele>2136.0</ele>
        <time>2015-08-02T12:32:12Z</time>
      </trkpt>
      <trkpt lat="40.311533" lon="-4.779467">
        <ele>2129.0</ele>
        <time>2015-08-02T12:32:14Z</time>
      </trkpt>
      <trkpt lat="40.311633" lon="-4.779150">
        <ele>2123.0</ele>
        <time>2015-08-02T12:32:16Z</time>
      </trkpt>
      <trkpt lat="40.311750" lon="-4.778833">
        <ele>2120.0</ele>
        <time>2015-08-02T12:32:18Z</time>
      </trkpt>
      <trkpt lat="40.311850" lon="-4.778533">
        <ele>2116.0</ele>
        <time>2015-08-02T12:32:20Z</time>
      </trkpt>
      <trkpt lat="40.311950" lon="-4.778217">
        <ele>2110.0</ele>
        <time>2015-08-02T12:32:22Z</time>
      </trkpt>
      <trkpt lat="40.312067" lon="-4.777883">
        <ele>2106.0</ele>
        <time>2015-08-02T12:32:24Z</time>
      </trkpt>
      <trkpt lat="40.312183" lon="-4.777583">
        <ele>2102.0</ele>
        <time>2015-08-02T12:32:26Z</time>
      </trkpt>
      <trkpt lat="40.312300" lon="-4.777267">
        <ele>2095.0</ele>
        <time>2015-08-02T12:32:28Z</time>
      </trkpt>
      <trkpt lat="40.312417" lon="-4.776933">
        <ele>2090.0</ele>
        <time>2015-08-02T12:32:30Z</time>
      </trkpt>
      <trkpt lat="40.312533" lon="-4.776617">
        <ele>2086.0</ele>
        <time>2015-08-02T12:32:32Z</time>
      </trkpt>
      <trkpt lat="40.312667" lon="-4.776317">
        <ele>2080.0</ele>
        <time>2015-08-02T12:32:34Z</time>
      </trkpt>
      <trkpt lat="40.312767" lon="-4.775983">
        <ele>2075.0</ele>
        <time>2015-08-02T12:32:36Z</time>
      </trkpt>
      <trkpt lat="40.312833" lon="-4.775633">
        <ele>2070.0</ele>
        <time>2015-08-02T12:32:38Z</time>
      </trkpt>
      <trkpt lat="40.312900" lon="-4.775283">
        <ele>2064.0</ele>
        <time>2015-08-02T12:32:40Z</time>
      </trkpt>
      <trkpt lat="40.312950" lon="-4.774917">
        <ele>2057.0</ele>
        <time>2015-08-02T12:32:42Z</time>
      </trkpt>
      <trkpt lat="40.313033" lon="-4.774567">
        <ele>2052.0</ele>
        <time>2015-08-02T12:32:44Z</time>
      </trkpt>
      <trkpt lat="40.313100" lon="-4.774233">
        <ele>2050.0</ele>
        <time>2015-08-02T12:32:46Z</time>
      </trkpt>
      <trkpt lat="40.313150" lon="-4.773933">
        <ele>2043.0</ele>
        <time>2015-08-02T12:32:48Z</time>
      </trkpt>
      <trkpt lat="40.313217" lon="-4.773583">
        <ele>2036.0</ele>
        <time>2015-08-02T12:32:50Z</time>
      </trkpt>
      <trkpt lat="40.313250" lon="-4.773233">
        <ele>2031.0</ele>
        <time>2015-08-02T12:32:52Z</time>
      </trkpt>
      <trkpt lat="40.313283" lon="-4.772917">
        <ele>2025.0</ele>
        <time>2015-08-02T12:32:54Z</time>
      </trkpt>
      <trkpt lat="40.313300" lon="-4.772583">
        <ele>2017.0</ele>
        <time>2015-08-02T12:32:56Z</time>
      </trkpt>
      <trkpt lat="40.313350" lon="-4.772233">
        <ele>2011.0</ele>
        <time>2015-08-02T12:32:58Z</time>
      </trkpt>
      <trkpt lat="40.313400" lon="-4.771900">
        <ele>2006.0</ele>
        <time>2015-08-02T12:33:00Z</time>
      </trkpt>
      <trkpt lat="40.313450" lon="-4.771533">
        <ele>2001.0</ele>
        <time>2015-08-02T12:33:02Z</time>
      </trkpt>
      <trkpt lat="40.313533" lon="-4.771217">
        <ele>2002.0</ele>
        <time>2015-08-02T12:33:04Z</time>
      </trkpt>
      <trkpt lat="40.313633" lon="-4.770950">
        <ele>2000.0</ele>
        <time>2015-08-02T12:33:06Z</time>
      </trkpt>
      <trkpt lat="40.313733" lon="-4.770650">
        <ele>1994.0</ele>
        <time>2015-08-02T12:33:08Z</time>
      </trkpt>
      <trkpt lat="40.313833" lon="-4.770333">
        <ele>1990.0</ele>
        <time>2015-08-02T12:33:10Z</time>
      </trkpt>
      <trkpt lat="40.313917" lon="-4.770017">
        <ele>1987.0</ele>
        <time>2015-08-02T12:33:12Z</time>
      </trkpt>
      <trkpt lat="40.314000" lon="-4.769717">
        <ele>1983.0</ele>
        <time>2015-08-02T12:33:14Z</time>
      </trkpt>
      <trkpt lat="40.314067" lon="-4.769400">
        <ele>1979.0</ele>
        <time>2015-08-02T12:33:16Z</time>
      </trkpt>
      <trkpt lat="40.314133" lon="-4.769083">
        <ele>1976.0</ele>
        <time>2015-08-02T12:33:18Z</time>
      </trkpt>
      <trkpt lat="40.314200" lon="-4.768767">
        <ele>1973.0</ele>
        <time>2015-08-02T12:33:20Z</time>
      </trkpt>
      <trkpt lat="40.314267" lon="-4.768433">
        <ele>1971.0</ele>
        <time>2015-08-02T12:33:22Z</time>
      </trkpt>
      <trkpt lat="40.314350" lon="-4.768067">
        <ele>1968.0</ele>
        <time>2015-08-02T12:33:24Z</time>
      </trkpt>
      <trkpt lat="40.314417" lon="-4.767700">
        <ele>1967.0</ele>
        <time>2015-08-02T12:33:26Z</time>
      </trkpt>
      <trkpt lat="40.314483" lon="-4.767400">
        <ele>1967.0</ele>
        <time>2015-08-02T12:33:28Z</time>
      </trkpt>
      <trkpt lat="40.314550" lon="-4.767083">
        <ele>1963.0</ele>
        <time>2015-08-02T12:33:30Z</time>
      </trkpt>
      <trkpt lat="40.314617" lon="-4.766750">
        <ele>1959.0</ele>
        <time>2015-08-02T12:33:32Z</time>
      </trkpt>
      <trkpt lat="40.314667" lon="-4.766417">
        <ele>1957.0</ele>
        <time>2015-08-02T12:33:34Z</time>
      </trkpt>
      <trkpt lat="40.314717" lon="-4.766117">
        <ele>1955.0</ele>
        <time>2015-08-02T12:33:36Z</time>
      </trkpt>
      <trkpt lat="40.314767" lon="-4.765800">
        <ele>1952.0</ele>
        <time>2015-08-02T12:33:38Z</time>
      </trkpt>
      <trkpt lat="40.314817" lon="-4.765450">
        <ele>1949.0</ele>
        <time>2015-08-02T12:33:40Z</time>
      </trkpt>
      <trkpt lat="40.314850" lon="-4.765133">
        <ele>1950.0</ele>
        <time>2015-08-02T12:33:42Z</time>
      </trkpt>
      <trkpt lat="40.314917" lon="-4.764817">
        <ele>1949.0</ele>
        <time>2015-08-02T12:33:44Z</time>
      </trkpt>
      <trkpt lat="40.314933" lon="-4.764483">
        <ele>1946.0</ele>
        <time>2015-08-02T12:33:46Z</time>
      </trkpt>
      <trkpt lat="40.314967" lon="-4.764133">
        <ele>1946.0</ele>
        <time>2015-08-02T12:33:48Z</time>
      </trkpt>
      <trkpt lat="40.315017" lon="-4.763833">
        <ele>1945.0</ele>
        <time>2015-08-02T12:33:50Z</time>
      </trkpt>
      <trkpt lat="40.315033" lon="-4.763517">
        <ele>1943.0</ele>
        <time>2015-08-02T12:33:52Z</time>
      </trkpt>
      <trkpt lat="40.315083" lon="-4.763183">
        <ele>1942.0</ele>
        <time>2015-08-02T12:33:54Z</time>
      </trkpt>
      <trkpt lat="40.315150" lon="-4.762883">
        <ele>1941.0</ele>
        <time>2015-08-02T12:33:56Z</time>
      </trkpt>
      <trkpt lat="40.315217" lon="-4.762617">
        <ele>1939.0</ele>
        <time>2015-08-02T12:33:58Z</time>
      </trkpt>
      <trkpt lat="40.315283" lon="-4.762350">
        <ele>1936.0</ele>
        <time>2015-08-02T12:34:00Z</time>
      </trkpt>
      <trkpt lat="40.315350" lon="-4.762083">
        <ele>1933.0</ele>
        <time>2015-08-02T12:34:02Z</time>
      </trkpt>
      <trkpt lat="40.315433" lon="-4.761800">
        <ele>1929.0</ele>
        <time>2015-08-02T12:34:04Z</time>
      </trkpt>
      <trkpt lat="40.315500" lon="-4.761500">
        <ele>1925.0</ele>
        <time>2015-08-02T12:34:06Z</time>
      </trkpt>
      <trkpt lat="40.315550" lon="-4.761167">
        <ele>1922.0</ele>
        <time>2015-08-02T12:34:08Z</time>
      </trkpt>
      <trkpt lat="40.315633" lon="-4.760850">
        <ele>1922.0</ele>
        <time>2015-08-02T12:34:10Z</time>
      </trkpt>
      <trkpt lat="40.315700" lon="-4.760533">
        <ele>1923.0</ele>
        <time>2015-08-02T12:34:12Z</time>
      </trkpt>
      <trkpt lat="40.315783" lon="-4.760233">
        <ele>1923.0</ele>
        <time>2015-08-02T12:34:14Z</time>
      </trkpt>
      <trkpt lat="40.315900" lon="-4.759950">
        <ele>1921.0</ele>
        <time>2015-08-02T12:34:16Z</time>
      </trkpt>
      <trkpt lat="40.316017" lon="-4.759633">
        <ele>1919.0</ele>
        <time>2015-08-02T12:34:18Z</time>
      </trkpt>
      <trkpt lat="40.316133" lon="-4.759333">
        <ele>1919.0</ele>
        <time>2015-08-02T12:34:20Z</time>
      </trkpt>
      <trkpt lat="40.316250" lon="-4.759033">
        <ele>1916.0</ele>
        <time>2015-08-02T12:34:22Z</time>
      </trkpt>
      <trkpt lat="40.316333" lon="-4.758733">
        <ele>1915.0</ele>
        <time>2015-08-02T12:34:24Z</time>
      </trkpt>
      <trkpt lat="40.316417" lon="-4.758450">
        <ele>1915.0</ele>
        <time>2015-08-02T12:34:26Z</time>
      </trkpt>
      <trkpt lat="40.316467" lon="-4.758183">
        <ele>1915.0</ele>
        <time>2015-08-02T12:34:28Z</time>
      </trkpt>
      <trkpt lat="40.316550" lon="-4.757900">
        <ele>1914.0</ele>
        <time>2015-08-02T12:34:30Z</time>
      </trkpt>
      <trkpt lat="40.316633" lon="-4.757600">
        <ele>1914.0</ele>
        <time>2015-08-02T12:34:32Z</time>
      </trkpt>
      <trkpt lat="40.316733" lon="-4.757333">
        <ele>1911.0</ele>
        <time>2015-08-02T12:34:34Z</time>
      </trkpt>
      <trkpt lat="40.316817" lon="-4.757050">
        <ele>1907.0</ele>
        <time>2015-08-02T12:34:36Z</time>
      </trkpt>
      <trkpt lat="40.316900" lon="-4.756767">
        <ele>1906.0</ele>
        <time>2015-08-02T12:34:38Z</time>
      </trkpt>
      <trkpt lat="40.316967" lon="-4.756483">
        <ele>1904.0</ele>
        <time>2015-08-02T12:34:40Z</time>
      </trkpt>
      <trkpt lat="40.317000" lon="-4.756183">
        <ele>1900.0</ele>
        <time>2015-08-02T12:34:42Z</time>
      </trkpt>
      <trkpt lat="40.317067" lon="-4.755900">
        <ele>1900.0</ele>
        <time>2015-08-02T12:34:44Z</time>
      </trkpt>
      <trkpt lat="40.317133" lon="-4.755667">
        <ele>1898.0</ele>
        <time>2015-08-02T12:34:46Z</time>
      </trkpt>
      <trkpt lat="40.317167" lon="-4.755400">
        <ele>1892.0</ele>
        <time>2015-08-02T12:34:48Z</time>
      </trkpt>
      <trkpt lat="40.317200" lon="-4.755117">
        <ele>1890.0</ele>
        <time>2015-08-02T12:34:50Z</time>
      </trkpt>
      <trkpt lat="40.317233" lon="-4.754850">
        <ele>1890.0</ele>
        <time>2015-08-02T12:34:52Z</time>
      </trkpt>
      <trkpt lat="40.317267" lon="-4.754600">
        <ele>1887.0</ele>
        <time>2015-08-02T12:34:54Z</time>
      </trkpt>
      <trkpt lat="40.317300" lon="-4.754317">
        <ele>1883.0</ele>
        <time>2015-08-02T12:34:56Z</time>
      </trkpt>
      <trkpt lat="40.317317" lon="-4.754033">
        <ele>1881.0</ele>
        <time>2015-08-02T12:34:58Z</time>
      </trkpt>
      <trkpt lat="40.317333" lon="-4.753767">
        <ele>1880.0</ele>
        <time>2015-08-02T12:35:00Z</time>
      </trkpt>
      <trkpt lat="40.317350" lon="-4.753483">
        <ele>1878.0</ele>
        <time>2015-08-02T12:35:02Z</time>
      </trkpt>
      <trkpt lat="40.317350" lon="-4.753200">
        <ele>1874.0</ele>
        <time>2015-08-02T12:35:04Z</time>
      </trkpt>
      <trkpt lat="40.317383" lon="-4.752917">
        <ele>1871.0</ele>
        <time>2015-08-02T12:35:06Z</time>
      </trkpt>
      <trkpt lat="40.317417" lon="-4.752617">
        <ele>1868.0</ele>
        <time>2015-08-02T12:35:08Z</time>
      </trkpt>
      <trkpt lat="40.317483" lon="-4.752333">
        <ele>1866.0</ele>
        <time>2015-08-02T12:35:10Z</time>
      </trkpt>
      <trkpt lat="40.317600" lon="-4.752067">
        <ele>1863.0</ele>
        <time>2015-08-02T12:35:12Z</time>
      </trkpt>
      <trkpt lat="40.317717" lon="-4.751817">
        <ele>1860.0</ele>
        <time>2015-08-02T12:35:14Z</time>
      </trkpt>
      <trkpt lat="40.317833" lon="-4.751550">
        <ele>1856.0</ele>
        <time>2015-08-02T12:35:16Z</time>
      </trkpt>
      <trkpt lat="40.317950" lon="-4.751317">
        <ele>1852.0</ele>
        <time>2015-08-02T12:35:18Z</time>
      </trkpt>
      <trkpt lat="40.318067" lon="-4.751067">
        <ele>1847.0</ele>
        <time>2015-08-02T12:35:20Z</time>
      </trkpt>
      <trkpt lat="40.318183" lon="-4.750833">
        <ele>1843.0</ele>
        <time>2015-08-02T12:35:22Z</time>
      </trkpt>
      <trkpt lat="40.318283" lon="-4.750600">
        <ele>1839.0</ele>
        <time>2015-08-02T12:35:24Z</time>
      </trkpt>
      <trkpt lat="40.318350" lon="-4.750317">
        <ele>1833.0</ele>
        <time>2015-08-02T12:35:26Z</time>
      </trkpt>
      <trkpt lat="40.318450" lon="-4.750050">
        <ele>1827.0</ele>
        <time>2015-08-02T12:35:28Z</time>
      </trkpt>
      <trkpt lat="40.318583" lon="-4.749800">
        <ele>1822.0</ele>
        <time>2015-08-02T12:35:30Z</time>
      </trkpt>
      <trkpt lat="40.318683" lon="-4.749567">
        <ele>1819.0</ele>
        <time>2015-08-02T12:35:32Z</time>
      </trkpt>
      <trkpt lat="40.318767" lon="-4.749350">
        <ele>1814.0</ele>
        <time>2015-08-02T12:35:34Z</time>
      </trkpt>
      <trkpt lat="40.318850" lon="-4.749083">
        <ele>1807.0</ele>
        <time>2015-08-02T12:35:36Z</time>
      </trkpt>
      <trkpt lat="40.318917" lon="-4.748800">
        <ele>1802.0</ele>
        <time>2015-08-02T12:35:38Z</time>
      </trkpt>
      <trkpt lat="40.318983" lon="-4.748550">
        <ele>1796.0</ele>
        <time>2015-08-02T12:35:40Z</time>
      </trkpt>
      <trkpt lat="40.319067" lon="-4.748267">
        <ele>1789.0</ele>
        <time>2015-08-02T12:35:42Z</time>
      </trkpt>
      <trkpt lat="40.319167" lon="-4.747950">
        <ele>1784.0</ele>
        <time>2015-08-02T12:35:44Z</time>
      </trkpt>
      <trkpt lat="40.319267" lon="-4.747633">
        <ele>1783.0</ele>
        <time>2015-08-02T12:35:46Z</time>
      </trkpt>
      <trkpt lat="40.319400" lon="-4.747350">
        <ele>1780.0</ele>
        <time>2015-08-02T12:35:48Z</time>
      </trkpt>
      <trkpt lat="40.319517" lon="-4.747050">
        <ele>1775.0</ele>
        <time>2015-08-02T12:35:50Z</time>
      </trkpt>
      <trkpt lat="40.319650" lon="-4.746733">
        <ele>1770.0</ele>
        <time>2015-08-02T12:35:52Z</time>
      </trkpt>
      <trkpt lat="40.319767" lon="-4.746450">
        <ele>1767.0</ele>
        <time>2015-08-02T12:35:54Z</time>
      </trkpt>
      <trkpt lat="40.319900" lon="-4.746150">
        <ele>1762.0</ele>
        <time>2015-08-02T12:35:56Z</time>
      </trkpt>
      <trkpt lat="40.320017" lon="-4.745850">
        <ele>1759.0</ele>
        <time>2015-08-02T12:35:58Z</time>
      </trkpt>
      <trkpt lat="40.320117" lon="-4.745567">
        <ele>1755.0</ele>
        <time>2015-08-02T12:36:00Z</time>
      </trkpt>
      <trkpt lat="40.320233" lon="-4.745283">
        <ele>1751.0</ele>
        <time>2015-08-02T12:36:02Z</time>
      </trkpt>
      <trkpt lat="40.320350" lon="-4.745000">
        <ele>1748.0</ele>
        <time>2015-08-02T12:36:04Z</time>
      </trkpt>
      <trkpt lat="40.320450" lon="-4.744717">
        <ele>1744.0</ele>
        <time>2015-08-02T12:36:06Z</time>
      </trkpt>
      <trkpt lat="40.320550" lon="-4.744433">
        <ele>1740.0</ele>
        <time>2015-08-02T12:36:08Z</time>
      </trkpt>
      <trkpt lat="40.320650" lon="-4.744150">
        <ele>1735.0</ele>
        <time>2015-08-02T12:36:10Z</time>
      </trkpt>
      <trkpt lat="40.320750" lon="-4.743867">
        <ele>1730.0</ele>
        <time>2015-08-02T12:36:12Z</time>
      </trkpt>
      <trkpt lat="40.320850" lon="-4.743583">
        <ele>1724.0</ele>
        <time>2015-08-02T12:36:14Z</time>
      </trkpt>
      <trkpt lat="40.320933" lon="-4.743283">
        <ele>1719.0</ele>
        <time>2015-08-02T12:36:16Z</time>
      </trkpt>
      <trkpt lat="40.321017" lon="-4.743017">
        <ele>1716.0</ele>
        <time>2015-08-02T12:36:18Z</time>
      </trkpt>
      <trkpt lat="40.321117" lon="-4.742750">
        <ele>1711.0</ele>
        <time>2015-08-02T12:36:20Z</time>
      </trkpt>
      <trkpt lat="40.321217" lon="-4.742450">
        <ele>1706.0</ele>
        <time>2015-08-02T12:36:22Z</time>
      </trkpt>
      <trkpt lat="40.321317" lon="-4.742183">
        <ele>1703.0</ele>
        <time>2015-08-02T12:36:24Z</time>
      </trkpt>
      <trkpt lat="40.321417" lon="-4.741917">
        <ele>1700.0</ele>
        <time>2015-08-02T12:36:26Z</time>
      </trkpt>
      <trkpt lat="40.321517" lon="-4.741617">
        <ele>1696.0</ele>
        <time>2015-08-02T12:36:28Z</time>
      </trkpt>
      <trkpt lat="40.321617" lon="-4.741350">
        <ele>1694.0</ele>
        <time>2015-08-02T12:36:30Z</time>
      </trkpt>
      <trkpt lat="40.321717" lon="-4.741067">
        <ele>1690.0</ele>
        <time>2015-08-02T12:36:32Z</time>
      </trkpt>
      <trkpt lat="40.321817" lon="-4.740783">
        <ele>1686.0</ele>
        <time>2015-08-02T12:36:34Z</time>
      </trkpt>
      <trkpt lat="40.321933" lon="-4.740500">
        <ele>1683.0</ele>
        <time>2015-08-02T12:36:36Z</time>
      </trkpt>
      <trkpt lat="40.322050" lon="-4.740250">
        <ele>1680.0</ele>
        <time>2015-08-02T12:36:38Z</time>
      </trkpt>
      <trkpt lat="40.322167" lon="-4.739967">
        <ele>1677.0</ele>
        <time>2015-08-02T12:36:40Z</time>
      </trkpt>
      <trkpt lat="40.322283" lon="-4.739700">
        <ele>1675.0</ele>
        <time>2015-08-02T12:36:42Z</time>
      </trkpt>
      <trkpt lat="40.322383" lon="-4.739433">
        <ele>1674.0</ele>
        <time>2015-08-02T12:36:44Z</time>
      </trkpt>
      <trkpt lat="40.322500" lon="-4.739183">
        <ele>1671.0</ele>
        <time>2015-08-02T12:36:46Z</time>
      </trkpt>
      <trkpt lat="40.322600" lon="-4.738917">
        <ele>1668.0</ele>
        <time>2015-08-02T12:36:48Z</time>
      </trkpt>
      <trkpt lat="40.322700" lon="-4.738650">
        <ele>1665.0</ele>
        <time>2015-08-02T12:36:50Z</time>
      </trkpt>
      <trkpt lat="40.322817" lon="-4.738383">
        <ele>1663.0</ele>
        <time>2015-08-02T12:36:52Z</time>
      </trkpt>
      <trkpt lat="40.322933" lon="-4.738150">
        <ele>1660.0</ele>
        <time>2015-08-02T12:36:54Z</time>
      </trkpt>
      <trkpt lat="40.323033" lon="-4.737900">
        <ele>1658.0</ele>
        <time>2015-08-02T12:36:56Z</time>
      </trkpt>
      <trkpt lat="40.323150" lon="-4.737650">
        <ele>1655.0</ele>
        <time>2015-08-02T12:36:58Z</time>
      </trkpt>
      <trkpt lat="40.323283" lon="-4.737433">
        <ele>1653.0</ele>
        <time>2015-08-02T12:37:00Z</time>
      </trkpt>
      <trkpt lat="40.323417" lon="-4.737200">
        <ele>1649.0</ele>
        <time>2015-08-02T12:37:02Z</time>
      </trkpt>
      <trkpt lat="40.323550" lon="-4.736950">
        <ele>1646.0</ele>
        <time>2015-08-02T12:37:04Z</time>
      </trkpt>
      <trkpt lat="40.323667" lon="-4.736700">
        <ele>1643.0</ele>
        <time>2015-08-02T12:37:06Z</time>
      </trkpt>
      <trkpt lat="40.323767" lon="-4.736450">
        <ele>1640.0</ele>
        <time>2015-08-02T12:37:08Z</time>
      </trkpt>
      <trkpt lat="40.323883" lon="-4.736167">
        <ele>1637.0</ele>
        <time>2015-08-02T12:37:10Z</time>
      </trkpt>
      <trkpt lat="40.323983" lon="-4.735900">
        <ele>1637.0</ele>
        <time>2015-08-02T12:37:12Z</time>
      </trkpt>
      <trkpt lat="40.324083" lon="-4.735650">
        <ele>1637.0</ele>
        <time>2015-08-02T12:37:14Z</time>
      </trkpt>
      <trkpt lat="40.324133" lon="-4.735383">
        <ele>1634.0</ele>
        <time>2015-08-02T12:37:16Z</time>
      </trkpt>
      <trkpt lat="40.324183" lon="-4.735100">
        <ele>1633.0</ele>
        <time>2015-08-02T12:37:18Z</time>
      </trkpt>
      <trkpt lat="40.324283" lon="-4.734833">
        <ele>1632.0</ele>
        <time>2015-08-02T12:37:20Z</time>
      </trkpt>
      <trkpt lat="40.324350" lon="-4.734583">
        <ele>1631.0</ele>
        <time>2015-08-02T12:37:22Z</time>
      </trkpt>
      <trkpt lat="40.324433" lon="-4.734333">
        <ele>1628.0</ele>
        <time>2015-08-02T12:37:24Z</time>
      </trkpt>
      <trkpt lat="40.324500" lon="-4.734083">
        <ele>1624.0</ele>
        <time>2015-08-02T12:37:26Z</time>
      </trkpt>
      <trkpt lat="40.324550" lon="-4.733817">
        <ele>1622.0</ele>
        <time>2015-08-02T12:37:28Z</time>
      </trkpt>
      <trkpt lat="40.324617" lon="-4.733567">
        <ele>1619.0</ele>
        <time>2015-08-02T12:37:30Z</time>
      </trkpt>
      <trkpt lat="40.324667" lon="-4.733300">
        <ele>1615.0</ele>
        <time>2015-08-02T12:37:32Z</time>
      </trkpt>
      <trkpt lat="40.324700" lon="-4.733017">
        <ele>1612.0</ele>
        <time>2015-08-02T12:37:34Z</time>
      </trkpt>
      <trkpt lat="40.324733" lon="-4.732750">
        <ele>1609.0</ele>
        <time>2015-08-02T12:37:36Z</time>
      </trkpt>
      <trkpt lat="40.324750" lon="-4.732467">
        <ele>1606.0</ele>
        <time>2015-08-02T12:37:38Z</time>
      </trkpt>
      <trkpt lat="40.324767" lon="-4.732217">
        <ele>1604.0</ele>
        <time>2015-08-02T12:37:40Z</time>
      </trkpt>
      <trkpt lat="40.324767" lon="-4.731967">
        <ele>1599.0</ele>
        <time>2015-08-02T12:37:42Z</time>
      </trkpt>
      <trkpt lat="40.324733" lon="-4.731717">
        <ele>1594.0</ele>
        <time>2015-08-02T12:37:44Z</time>
      </trkpt>
      <trkpt lat="40.324700" lon="-4.731467">
        <ele>1590.0</ele>
        <time>2015-08-02T12:37:46Z</time>
      </trkpt>
      <trkpt lat="40.324667" lon="-4.731217">
        <ele>1584.0</ele>
        <time>2015-08-02T12:37:48Z</time>
      </trkpt>
      <trkpt lat="40.324633" lon="-4.730967">
        <ele>1580.0</ele>
        <time>2015-08-02T12:37:50Z</time>
      </trkpt>
      <trkpt lat="40.324633" lon="-4.730717">
        <ele>1578.0</ele>
        <time>2015-08-02T12:37:52Z</time>
      </trkpt>
      <trkpt lat="40.324617" lon="-4.730483">
        <ele>1573.0</ele>
        <time>2015-08-02T12:37:54Z</time>
      </trkpt>
      <trkpt lat="40.324600" lon="-4.730233">
        <ele>1568.0</ele>
        <time>2015-08-02T12:37:56Z</time>
      </trkpt>
      <trkpt lat="40.324567" lon="-4.729967">
        <ele>1564.0</ele>
        <time>2015-08-02T12:37:58Z</time>
      </trkpt>
      <trkpt lat="40.324533" lon="-4.729700">
        <ele>1561.0</ele>
        <time>2015-08-02T12:38:00Z</time>
      </trkpt>
      <trkpt lat="40.324483" lon="-4.729433">
        <ele>1559.0</ele>
        <time>2015-08-02T12:38:02Z</time>
      </trkpt>
      <trkpt lat="40.324433" lon="-4.729167">
        <ele>1559.0</ele>
        <time>2015-08-02T12:38:04Z</time>
      </trkpt>
      <trkpt lat="40.324400" lon="-4.728917">
        <ele>1561.0</ele>
        <time>2015-08-02T12:38:06Z</time>
      </trkpt>
      <trkpt lat="40.324350" lon="-4.728733">
        <ele>1563.0</ele>
        <time>2015-08-02T12:38:08Z</time>
      </trkpt>
      <trkpt lat="40.324267" lon="-4.728550">
        <ele>1564.0</ele>
        <time>2015-08-02T12:38:10Z</time>
      </trkpt>
      <trkpt lat="40.324200" lon="-4.728333">
        <ele>1567.0</ele>
        <time>2015-08-02T12:38:12Z</time>
      </trkpt>
      <trkpt lat="40.324200" lon="-4.728133">
        <ele>1570.0</ele>
        <time>2015-08-02T12:38:14Z</time>
      </trkpt>
      <trkpt lat="40.324233" lon="-4.727900">
        <ele>1570.0</ele>
        <time>2015-08-02T12:38:16Z</time>
      </trkpt>
      <trkpt lat="40.324317" lon="-4.727683">
        <ele>1571.0</ele>
        <time>2015-08-02T12:38:18Z</time>
      </trkpt>
      <trkpt lat="40.324467" lon="-4.727533">
        <ele>1571.0</ele>
        <time>2015-08-02T12:38:20Z</time>
      </trkpt>
      <trkpt lat="40.324633" lon="-4.727367">
        <ele>1569.0</ele>
        <time>2015-08-02T12:38:22Z</time>
      </trkpt>
      <trkpt lat="40.324767" lon="-4.727117">
        <ele>1566.0</ele>
        <time>2015-08-02T12:38:24Z</time>
      </trkpt>
      <trkpt lat="40.324817" lon="-4.726850">
        <ele>1566.0</ele>
        <time>2015-08-02T12:38:26Z</time>
      </trkpt>
      <trkpt lat="40.324817" lon="-4.726633">
        <ele>1566.0</ele>
        <time>2015-08-02T12:38:28Z</time>
      </trkpt>
      <trkpt lat="40.324767" lon="-4.726433">
        <ele>1562.0</ele>
        <time>2015-08-02T12:38:30Z</time>
      </trkpt>
      <trkpt lat="40.324683" lon="-4.726167">
        <ele>1559.0</ele>
        <time>2015-08-02T12:38:32Z</time>
      </trkpt>
      <trkpt lat="40.324617" lon="-4.725933">
        <ele>1561.0</ele>
        <time>2015-08-02T12:38:34Z</time>
      </trkpt>
      <trkpt lat="40.324583" lon="-4.725733">
        <ele>1561.0</ele>
        <time>2015-08-02T12:38:36Z</time>
      </trkpt>
      <trkpt lat="40.324517" lon="-4.725517">
        <ele>1558.0</ele>
        <time>2015-08-02T12:38:38Z</time>
      </trkpt>
      <trkpt lat="40.324450" lon="-4.725283">
        <ele>1557.0</ele>
        <time>2015-08-02T12:38:40Z</time>
      </trkpt>
      <trkpt lat="40.324400" lon="-4.725067">
        <ele>1556.0</ele>
        <time>2015-08-02T12:38:42Z</time>
      </trkpt>
      <trkpt lat="40.324383" lon="-4.724850">
        <ele>1553.0</ele>
        <time>2015-08-02T12:38:44Z</time>
      </trkpt>
      <trkpt lat="40.324367" lon="-4.724600">
        <ele>1549.0</ele>
        <time>2015-08-02T12:38:46Z</time>
      </trkpt>
      <trkpt lat="40.324367" lon="-4.724333">
        <ele>1544.0</ele>
        <time>2015-08-02T12:38:48Z</time>
      </trkpt>
      <trkpt lat="40.324333" lon="-4.724067">
        <ele>1541.0</ele>
        <time>2015-08-02T12:38:50Z</time>
      </trkpt>
      <trkpt lat="40.324333" lon="-4.723800">
        <ele>1538.0</ele>
        <time>2015-08-02T12:38:52Z</time>
      </trkpt>
      <trkpt lat="40.324350" lon="-4.723550">
        <ele>1535.0</ele>
        <time>2015-08-02T12:38:54Z</time>
      </trkpt>
      <trkpt lat="40.324367" lon="-4.723300">
        <ele>1530.0</ele>
        <time>2015-08-02T12:38:56Z</time>
      </trkpt>
      <trkpt lat="40.324367" lon="-4.723017">
        <ele>1525.0</ele>
        <time>2015-08-02T12:38:58Z</time>
      </trkpt>
      <trkpt lat="40.324367" lon="-4.722750">
        <ele>1521.0</ele>
        <time>2015-08-02T12:39:00Z</time>
      </trkpt>
      <trkpt lat="40.324367" lon="-4.722483">
        <ele>1518.0</ele>
        <time>2015-08-02T12:39:02Z</time>
      </trkpt>
      <trkpt lat="40.324383" lon="-4.722200">
        <ele>1513.0</ele>
        <time>2015-08-02T12:39:04Z</time>
      </trkpt>
      <trkpt lat="40.324417" lon="-4.721917">
        <ele>1510.0</ele>
        <time>2015-08-02T12:39:06Z</time>
      </trkpt>
      <trkpt lat="40.324467" lon="-4.721650">
        <ele>1506.0</ele>
        <time>2015-08-02T12:39:08Z</time>
      </trkpt>
      <trkpt lat="40.324533" lon="-4.721383">
        <ele>1501.0</ele>
        <time>2015-08-02T12:39:10Z</time>
      </trkpt>
      <trkpt lat="40.324583" lon="-4.721083">
        <ele>1497.0</ele>
        <time>2015-08-02T12:39:12Z</time>
      </trkpt>
      <trkpt lat="40.324633" lon="-4.720800">
        <ele>1494.0</ele>
        <time>2015-08-02T12:39:14Z</time>
      </trkpt>
      <trkpt lat="40.324650" lon="-4.720517">
        <ele>1490.0</ele>
        <time>2015-08-02T12:39:16Z</time>
      </trkpt>
      <trkpt lat="40.324650" lon="-4.720233">
        <ele>1485.0</ele>
        <time>2015-08-02T12:39:18Z</time>
      </trkpt>
      <trkpt lat="40.324650" lon="-4.719950">
        <ele>1480.0</ele>
        <time>2015-08-02T12:39:20Z</time>
      </trkpt>
      <trkpt lat="40.324633" lon="-4.719667">
        <ele>1476.0</ele>
        <time>2015-08-02T12:39:22Z</time>
      </trkpt>
      <trkpt lat="40.324617" lon="-4.719383">
        <ele>1471.0</ele>
        <time>2015-08-02T12:39:24Z</time>
      </trkpt>
      <trkpt lat="40.324583" lon="-4.719083">
        <ele>1465.0</ele>
        <time>2015-08-02T12:39:26Z</time>
      </trkpt>
      <trkpt lat="40.324550" lon="-4.718767">
        <ele>1460.0</ele>
        <time>2015-08-02T12:39:28Z</time>
      </trkpt>
      <trkpt lat="40.324517" lon="-4.718417">
        <ele>1456.0</ele>
        <time>2015-08-02T12:39:30Z</time>
      </trkpt>
      <trkpt lat="40.324517" lon="-4.718083">
        <ele>1454.0</ele>
        <time>2015-08-02T12:39:32Z</time>
      </trkpt>
      <trkpt lat="40.324550" lon="-4.717767">
        <ele>1448.0</ele>
        <time>2015-08-02T12:39:34Z</time>
      </trkpt>
      <trkpt lat="40.324583" lon="-4.717400">
        <ele>1442.0</ele>
        <time>2015-08-02T12:39:36Z</time>
      </trkpt>
      <trkpt lat="40.324617" lon="-4.717083">
        <ele>1438.0</ele>
        <time>2015-08-02T12:39:38Z</time>
      </trkpt>
      <trkpt lat="40.324650" lon="-4.716767">
        <ele>1432.0</ele>
        <time>2015-08-02T12:39:40Z</time>
      </trkpt>
      <trkpt lat="40.324700" lon="-4.716417">
        <ele>1429.0</ele>
        <time>2015-08-02T12:39:42Z</time>
      </trkpt>
      <trkpt lat="40.324717" lon="-4.716067">
        <ele>1428.0</ele>
        <time>2015-08-02T12:39:44Z</time>
      </trkpt>
      <trkpt lat="40.324683" lon="-4.715767">
        <ele>1427.0</ele>
        <time>2015-08-02T12:39:46Z</time>
      </trkpt>
      <trkpt lat="40.324600" lon="-4.715533">
        <ele>1427.0</ele>
        <time>2015-08-02T12:39:48Z</time>
      </trkpt>
      <trkpt lat="40.324517" lon="-4.715367">
        <ele>1426.0</ele>
        <time>2015-08-02T12:39:50Z</time>
      </trkpt>
      <trkpt lat="40.324400" lon="-4.715233">
        <ele>1421.0</ele>
        <time>2015-08-02T12:39:52Z</time>
      </trkpt>
      <trkpt lat="40.324200" lon="-4.715133">
        <ele>1423.0</ele>
        <time>2015-08-02T12:39:54Z</time>
      </trkpt>
      <trkpt lat="40.324067" lon="-4.715050">
        <ele>1433.0</ele>
        <time>2015-08-02T12:39:56Z</time>
      </trkpt>
      <trkpt lat="40.323983" lon="-4.714983">
        <ele>1441.0</ele>
        <time>2015-08-02T12:39:58Z</time>
      </trkpt>
      <trkpt lat="40.323917" lon="-4.715050">
        <ele>1445.0</ele>
        <time>2015-08-02T12:40:00Z</time>
      </trkpt>
      <trkpt lat="40.323967" lon="-4.715217">
        <ele>1448.0</ele>
        <time>2015-08-02T12:40:02Z</time>
      </trkpt>
      <trkpt lat="40.324117" lon="-4.715300">
        <ele>1455.0</ele>
        <time>2015-08-02T12:40:04Z</time>
      </trkpt>
      <trkpt lat="40.324300" lon="-4.715267">
        <ele>1457.0</ele>
        <time>2015-08-02T12:40:06Z</time>
      </trkpt>
      <trkpt lat="40.324550" lon="-4.715133">
        <ele>1458.0</ele>
        <time>2015-08-02T12:40:08Z</time>
      </trkpt>
      <trkpt lat="40.324783" lon="-4.714850">
        <ele>1459.0</ele>
        <time>2015-08-02T12:40:10Z</time>
      </trkpt>
      <trkpt lat="40.324900" lon="-4.714533">
        <ele>1463.0</ele>
        <time>2015-08-02T12:40:12Z</time>
      </trkpt>
      <trkpt lat="40.324933" lon="-4.714267">
        <ele>1464.0</ele>
        <time>2015-08-02T12:40:14Z</time>
      </trkpt>
      <trkpt lat="40.324883" lon="-4.714000">
        <ele>1463.0</ele>
        <time>2015-08-02T12:40:16Z</time>
      </trkpt>
      <trkpt lat="40.324800" lon="-4.713767">
        <ele>1464.0</ele>
        <time>2015-08-02T12:40:18Z</time>
      </trkpt>
      <trkpt lat="40.324667" lon="-4.713633">
        <ele>1467.0</ele>
        <time>2015-08-02T12:40:20Z</time>
      </trkpt>
      <trkpt lat="40.324517" lon="-4.713600">
        <ele>1473.0</ele>
        <time>2015-08-02T12:40:22Z</time>
      </trkpt>
      <trkpt lat="40.324400" lon="-4.713633">
        <ele>1479.0</ele>
        <time>2015-08-02T12:40:24Z</time>
      </trkpt>
      <trkpt lat="40.324350" lon="-4.713700">
        <ele>1484.0</ele>
        <time>2015-08-02T12:40:26Z</time>
      </trkpt>
      <trkpt lat="40.324367" lon="-4.713817">
        <ele>1486.0</ele>
        <time>2015-08-02T12:40:28Z</time>
      </trkpt>
      <trkpt lat="40.324450" lon="-4.713917">
        <ele>1490.0</ele>
        <time>2015-08-02T12:40:30Z</time>
      </trkpt>
      <trkpt lat="40.324633" lon="-4.713950">
        <ele>1491.0</ele>
        <time>2015-08-02T12:40:32Z</time>
      </trkpt>
      <trkpt lat="40.324883" lon="-4.713833">
        <ele>1493.0</ele>
        <time>2015-08-02T12:40:34Z</time>
      </trkpt>
      <trkpt lat="40.325067" lon="-4.713567">
        <ele>1497.0</ele>
        <time>2015-08-02T12:40:36Z</time>
      </trkpt>
      <trkpt lat="40.325150" lon="-4.713283">
        <ele>1504.0</ele>
        <time>2015-08-02T12:40:38Z</time>
      </trkpt>
      <trkpt lat="40.325150" lon="-4.713000">
        <ele>1509.0</ele>
        <time>2015-08-02T12:40:40Z</time>
      </trkpt>
      <trkpt lat="40.325083" lon="-4.712733">
        <ele>1513.0</ele>
        <time>2015-08-02T12:40:42Z</time>
      </trkpt>
      <trkpt lat="40.324950" lon="-4.712583">
        <ele>1516.0</ele>
        <time>2015-08-02T12:40:44Z</time>
      </trkpt>
      <trkpt lat="40.324850" lon="-4.712650">
        <ele>1517.0</ele>
        <time>2015-08-02T12:40:46Z</time>
      </trkpt>
      <trkpt lat="40.324800" lon="-4.712700">
        <ele>1522.0</ele>
        <time>2015-08-02T12:40:48Z</time>
      </trkpt>
      <trkpt lat="40.324817" lon="-4.712733">
        <ele>1523.0</ele>
        <time>2015-08-02T12:40:50Z</time>
      </trkpt>
      <trkpt lat="40.324900" lon="-4.712850">
        <ele>1522.0</ele>
        <time>2015-08-02T12:40:52Z</time>
      </trkpt>
      <trkpt lat="40.325100" lon="-4.712917">
        <ele>1525.0</ele>
        <time>2015-08-02T12:40:54Z</time>
      </trkpt>
      <trkpt lat="40.325300" lon="-4.712850">
        <ele>1528.0</ele>
        <time>2015-08-02T12:40:56Z</time>
      </trkpt>
      <trkpt lat="40.325500" lon="-4.712700">
        <ele>1528.0</ele>
        <time>2015-08-02T12:40:58Z</time>
      </trkpt>
      <trkpt lat="40.325733" lon="-4.712433">
        <ele>1527.0</ele>
        <time>2015-08-02T12:41:00Z</time>
      </trkpt>
      <trkpt lat="40.325867" lon="-4.712100">
        <ele>1533.0</ele>
        <time>2015-08-02T12:41:02Z</time>
      </trkpt>
      <trkpt lat="40.325950" lon="-4.711817">
        <ele>1537.0</ele>
        <time>2015-08-02T12:41:04Z</time>
      </trkpt>
      <trkpt lat="40.326000" lon="-4.711500">
        <ele>1538.0</ele>
        <time>2015-08-02T12:41:06Z</time>
      </trkpt>
      <trkpt lat="40.325950" lon="-4.711183">
        <ele>1540.0</ele>
        <time>2015-08-02T12:41:08Z</time>
      </trkpt>
      <trkpt lat="40.325833" lon="-4.711000">
        <ele>1547.0</ele>
        <time>2015-08-02T12:41:10Z</time>
      </trkpt>
      <trkpt lat="40.325750" lon="-4.710883">
        <ele>1554.0</ele>
        <time>2015-08-02T12:41:12Z</time>
      </trkpt>
      <trkpt lat="40.325683" lon="-4.710750">
        <ele>1559.0</ele>
        <time>2015-08-02T12:41:14Z</time>
      </trkpt>
      <trkpt lat="40.325600" lon="-4.710800">
        <ele>1561.0</ele>
        <time>2015-08-02T12:41:16Z</time>
      </trkpt>
      <trkpt lat="40.325583" lon="-4.710883">
        <ele>1566.0</ele>
        <time>2015-08-02T12:41:18Z</time>
      </trkpt>
      <trkpt lat="40.325617" lon="-4.710950">
        <ele>1569.0</ele>
        <time>2015-08-02T12:41:20Z</time>
      </trkpt>
      <trkpt lat="40.325717" lon="-4.711050">
        <ele>1568.0</ele>
        <time>2015-08-02T12:41:22Z</time>
      </trkpt>
      <trkpt lat="40.325933" lon="-4.711083">
        <ele>1571.0</ele>
        <time>2015-08-02T12:41:24Z</time>
      </trkpt>
      <trkpt lat="40.326150" lon="-4.711067">
        <ele>1577.0</ele>
        <time>2015-08-02T12:41:26Z</time>
      </trkpt>
      <trkpt lat="40.326367" lon="-4.711033">
        <ele>1579.0</ele>
        <time>2015-08-02T12:41:28Z</time>
      </trkpt>
      <trkpt lat="40.326633" lon="-4.710850">
        <ele>1580.0</ele>
        <time>2015-08-02T12:41:30Z</time>
      </trkpt>
      <trkpt lat="40.326850" lon="-4.710550">
        <ele>1585.0</ele>
        <time>2015-08-02T12:41:32Z</time>
      </trkpt>
      <trkpt lat="40.327017" lon="-4.710300">
        <ele>1587.0</ele>
        <time>2015-08-02T12:41:34Z</time>
      </trkpt>
      <trkpt lat="40.327133" lon="-4.709933">
        <ele>1585.0</ele>
        <time>2015-08-02T12:41:36Z</time>
      </trkpt>
      <trkpt lat="40.327150" lon="-4.709533">
        <ele>1587.0</ele>
        <time>2015-08-02T12:41:38Z</time>
      </trkpt>
      <trkpt lat="40.327150" lon="-4.709233">
        <ele>1591.0</ele>
        <time>2015-08-02T12:41:40Z</time>
      </trkpt>
      <trkpt lat="40.327150" lon="-4.708950">
        <ele>1589.0</ele>
        <time>2015-08-02T12:41:42Z</time>
      </trkpt>
      <trkpt lat="40.327050" lon="-4.708683">
        <ele>1586.0</ele>
        <time>2015-08-02T12:41:44Z</time>
      </trkpt>
      <trkpt lat="40.326933" lon="-4.708500">
        <ele>1590.0</ele>
        <time>2015-08-02T12:41:46Z</time>
      </trkpt>
      <trkpt lat="40.326833" lon="-4.708383">
        <ele>1595.0</ele>
        <time>2015-08-02T12:41:48Z</time>
      </trkpt>
      <trkpt lat="40.326717" lon="-4.708283">
        <ele>1598.0</ele>
        <time>2015-08-02T12:41:50Z</time>
      </trkpt>
      <trkpt lat="40.326600" lon="-4.708267">
        <ele>1603.0</ele>
        <time>2015-08-02T12:41:52Z</time>
      </trkpt>
      <trkpt lat="40.326500" lon="-4.708250">
        <ele>1609.0</ele>
        <time>2015-08-02T12:41:54Z</time>
      </trkpt>
      <trkpt lat="40.326433" lon="-4.708217">
        <ele>1613.0</ele>
        <time>2015-08-02T12:41:56Z</time>
      </trkpt>
      <trkpt lat="40.326417" lon="-4.708300">
        <ele>1616.0</ele>
        <time>2015-08-02T12:41:58Z</time>
      </trkpt>
      <trkpt lat="40.326467" lon="-4.708400">
        <ele>1621.0</ele>
        <time>2015-08-02T12:42:00Z</time>
      </trkpt>
      <trkpt lat="40.326617" lon="-4.708467">
        <ele>1628.0</ele>
        <time>2015-08-02T12:42:02Z</time>
      </trkpt>
      <trkpt lat="40.326783" lon="-4.708483">
        <ele>1635.0</ele>
        <time>2015-08-02T12:42:04Z</time>
      </trkpt>
      <trkpt lat="40.326967" lon="-4.708467">
        <ele>1640.0</ele>
        <time>2015-08-02T12:42:06Z</time>
      </trkpt>
      <trkpt lat="40.327250" lon="-4.708417">
        <ele>1641.0</ele>
        <time>2015-08-02T12:42:08Z</time>
      </trkpt>
      <trkpt lat="40.327533" lon="-4.708250">
        <ele>1647.0</ele>
        <time>2015-08-02T12:42:10Z</time>
      </trkpt>
      <trkpt lat="40.327733" lon="-4.708033">
        <ele>1651.0</ele>
        <time>2015-08-02T12:42:12Z</time>
      </trkpt>
      <trkpt lat="40.327933" lon="-4.707817">
        <ele>1651.0</ele>
        <time>2015-08-02T12:42:14Z</time>
      </trkpt>
      <trkpt lat="40.328067" lon="-4.707467">
        <ele>1649.0</ele>
        <time>2015-08-02T12:42:16Z</time>
      </trkpt>
      <trkpt lat="40.328050" lon="-4.707133">
        <ele>1651.0</ele>
        <time>2015-08-02T12:42:18Z</time>
      </trkpt>
      <trkpt lat="40.328000" lon="-4.706917">
        <ele>1652.0</ele>
        <time>2015-08-02T12:42:20Z</time>
      </trkpt>
      <trkpt lat="40.327917" lon="-4.706767">
        <ele>1653.0</ele>
        <time>2015-08-02T12:42:22Z</time>
      </trkpt>
      <trkpt lat="40.327817" lon="-4.706650">
        <ele>1654.0</ele>
        <time>2015-08-02T12:42:24Z</time>
      </trkpt>
      <trkpt lat="40.327733" lon="-4.706517">
        <ele>1655.0</ele>
        <time>2015-08-02T12:42:26Z</time>
      </trkpt>
      <trkpt lat="40.327633" lon="-4.706350">
        <ele>1656.0</ele>
        <time>2015-08-02T12:42:28Z</time>
      </trkpt>
      <trkpt lat="40.327500" lon="-4.706183">
        <ele>1657.0</ele>
        <time>2015-08-02T12:42:30Z</time>
      </trkpt>
      <trkpt lat="40.327367" lon="-4.706050">
        <ele>1661.0</ele>
        <time>2015-08-02T12:42:32Z</time>
      </trkpt>
      <trkpt lat="40.327233" lon="-4.705917">
        <ele>1667.0</ele>
        <time>2015-08-02T12:42:34Z</time>
      </trkpt>
      <trkpt lat="40.327117" lon="-4.705750">
        <ele>1673.0</ele>
        <time>2015-08-02T12:42:36Z</time>
      </trkpt>
      <trkpt lat="40.327000" lon="-4.705567">
        <ele>1680.0</ele>
        <time>2015-08-02T12:42:38Z</time>
      </trkpt>
      <trkpt lat="40.326917" lon="-4.705400">
        <ele>1685.0</ele>
        <time>2015-08-02T12:42:40Z</time>
      </trkpt>
      <trkpt lat="40.326800" lon="-4.705283">
        <ele>1686.0</ele>
        <time>2015-08-02T12:42:42Z</time>
      </trkpt>
      <trkpt lat="40.326667" lon="-4.705300">
        <ele>1684.0</ele>
        <time>2015-08-02T12:42:44Z</time>
      </trkpt>
      <trkpt lat="40.326550" lon="-4.705367">
        <ele>1687.0</ele>
        <time>2015-08-02T12:42:46Z</time>
      </trkpt>
      <trkpt lat="40.326533" lon="-4.705467">
        <ele>1686.0</ele>
        <time>2015-08-02T12:42:48Z</time>
      </trkpt>
      <trkpt lat="40.326550" lon="-4.705600">
        <ele>1682.0</ele>
        <time>2015-08-02T12:42:50Z</time>
      </trkpt>
      <trkpt lat="40.326500" lon="-4.705767">
        <ele>1678.0</ele>
        <time>2015-08-02T12:42:52Z</time>
      </trkpt>
      <trkpt lat="40.326450" lon="-4.705933">
        <ele>1676.0</ele>
        <time>2015-08-02T12:42:54Z</time>
      </trkpt>
      <trkpt lat="40.326450" lon="-4.706117">
        <ele>1674.0</ele>
        <time>2015-08-02T12:42:56Z</time>
      </trkpt>
      <trkpt lat="40.326533" lon="-4.706300">
        <ele>1672.0</ele>
        <time>2015-08-02T12:42:58Z</time>
      </trkpt>
      <trkpt lat="40.326683" lon="-4.706433">
        <ele>1670.0</ele>
        <time>2015-08-02T12:43:00Z</time>
      </trkpt>
      <trkpt lat="40.326883" lon="-4.706467">
        <ele>1668.0</ele>
        <time>2015-08-02T12:43:02Z</time>
      </trkpt>
      <trkpt lat="40.327083" lon="-4.706383">
        <ele>1665.0</ele>
        <time>2015-08-02T12:43:04Z</time>
      </trkpt>
      <trkpt lat="40.327317" lon="-4.706183">
        <ele>1663.0</ele>
        <time>2015-08-02T12:43:06Z</time>
      </trkpt>
      <trkpt lat="40.327517" lon="-4.706017">
        <ele>1668.0</ele>
        <time>2015-08-02T12:43:08Z</time>
      </trkpt>
      <trkpt lat="40.327667" lon="-4.705850">
        <ele>1669.0</ele>
        <time>2015-08-02T12:43:10Z</time>
      </trkpt>
      <trkpt lat="40.327867" lon="-4.705617">
        <ele>1669.0</ele>
        <time>2015-08-02T12:43:12Z</time>
      </trkpt>
      <trkpt lat="40.328083" lon="-4.705300">
        <ele>1677.0</ele>
        <time>2015-08-02T12:43:14Z</time>
      </trkpt>
      <trkpt lat="40.328200" lon="-4.705067">
        <ele>1691.0</ele>
        <time>2015-08-02T12:43:16Z</time>
      </trkpt>
      <trkpt lat="40.328317" lon="-4.704900">
        <ele>1695.0</ele>
        <time>2015-08-02T12:43:18Z</time>
      </trkpt>
      <trkpt lat="40.328417" lon="-4.704617">
        <ele>1698.0</ele>
        <time>2015-08-02T12:43:20Z</time>
      </trkpt>
      <trkpt lat="40.328383" lon="-4.704333">
        <ele>1701.0</ele>
        <time>2015-08-02T12:43:22Z</time>
      </trkpt>
      <trkpt lat="40.328267" lon="-4.704133">
        <ele>1709.0</ele>
        <time>2015-08-02T12:43:24Z</time>
      </trkpt>
      <trkpt lat="40.328183" lon="-4.703950">
        <ele>1714.0</ele>
        <time>2015-08-02T12:43:26Z</time>
      </trkpt>
      <trkpt lat="40.328067" lon="-4.703767">
        <ele>1718.0</ele>
        <time>2015-08-02T12:43:28Z</time>
      </trkpt>
      <trkpt lat="40.327933" lon="-4.703817">
        <ele>1720.0</ele>
        <time>2015-08-02T12:43:30Z</time>
      </trkpt>
      <trkpt lat="40.327900" lon="-4.703917">
        <ele>1730.0</ele>
        <time>2015-08-02T12:43:32Z</time>
      </trkpt>
      <trkpt lat="40.327933" lon="-4.703967">
        <ele>1739.0</ele>
        <time>2015-08-02T12:43:34Z</time>
      </trkpt>
      <trkpt lat="40.328000" lon="-4.704050">
        <ele>1741.0</ele>
        <time>2015-08-02T12:43:36Z</time>
      </trkpt>
      <trkpt lat="40.328133" lon="-4.704200">
        <ele>1743.0</ele>
        <time>2015-08-02T12:43:38Z</time>
      </trkpt>
      <trkpt lat="40.328317" lon="-4.704317">
        <ele>1755.0</ele>
        <time>2015-08-02T12:43:40Z</time>
      </trkpt>
      <trkpt lat="40.328450" lon="-4.704333">
        <ele>1767.0</ele>
        <time>2015-08-02T12:43:42Z</time>
      </trkpt>
      <trkpt lat="40.328600" lon="-4.704350">
        <ele>1773.0</ele>
        <time>2015-08-02T12:43:44Z</time>
      </trkpt>
      <trkpt lat="40.328833" lon="-4.704400">
        <ele>1776.0</ele>
        <time>2015-08-02T12:43:46Z</time>
      </trkpt>
      <trkpt lat="40.329100" lon="-4.704283">
        <ele>1781.0</ele>
        <time>2015-08-02T12:43:48Z</time>
      </trkpt>
      <trkpt lat="40.329283" lon="-4.704000">
        <ele>1788.0</ele>
        <time>2015-08-02T12:43:50Z</time>
      </trkpt>
      <trkpt lat="40.329367" lon="-4.703733">
        <ele>1794.0</ele>
        <time>2015-08-02T12:43:52Z</time>
      </trkpt>
      <trkpt lat="40.329417" lon="-4.703433">
        <ele>1797.0</ele>
        <time>2015-08-02T12:43:54Z</time>
      </trkpt>
      <trkpt lat="40.329367" lon="-4.703100">
        <ele>1800.0</ele>
        <time>2015-08-02T12:43:56Z</time>
      </trkpt>
      <trkpt lat="40.329300" lon="-4.702800">
        <ele>1808.0</ele>
        <time>2015-08-02T12:43:58Z</time>
      </trkpt>
      <trkpt lat="40.329217" lon="-4.702567">
        <ele>1813.0</ele>
        <time>2015-08-02T12:44:00Z</time>
      </trkpt>
      <trkpt lat="40.329067" lon="-4.702383">
        <ele>1815.0</ele>
        <time>2015-08-02T12:44:02Z</time>
      </trkpt>
      <trkpt lat="40.328917" lon="-4.702200">
        <ele>1821.0</ele>
        <time>2015-08-02T12:44:04Z</time>
      </trkpt>
      <trkpt lat="40.328800" lon="-4.702100">
        <ele>1828.0</ele>
        <time>2015-08-02T12:44:06Z</time>
      </trkpt>
      <trkpt lat="40.328667" lon="-4.702100">
        <ele>1832.0</ele>
        <time>2015-08-02T12:44:08Z</time>
      </trkpt>
      <trkpt lat="40.328567" lon="-4.702183">
        <ele>1839.0</ele>
        <time>2015-08-02T12:44:10Z</time>
      </trkpt>
      <trkpt lat="40.328583" lon="-4.702317">
        <ele>1845.0</ele>
        <time>2015-08-02T12:44:12Z</time>
      </trkpt>
      <trkpt lat="40.328650" lon="-4.702467">
        <ele>1846.0</ele>
        <time>2015-08-02T12:44:14Z</time>
      </trkpt>
      <trkpt lat="40.328767" lon="-4.702617">
        <ele>1848.0</ele>
        <time>2015-08-02T12:44:16Z</time>
      </trkpt>
      <trkpt lat="40.328933" lon="-4.702733">
        <ele>1852.0</ele>
        <time>2015-08-02T12:44:18Z</time>
      </trkpt>
      <trkpt lat="40.329167" lon="-4.702767">
        <ele>1853.0</ele>
        <time>2015-08-02T12:44:20Z</time>
      </trkpt>
      <trkpt lat="40.329450" lon="-4.702683">
        <ele>1857.0</ele>
        <time>2015-08-02T12:44:22Z</time>
      </trkpt>
      <trkpt lat="40.329683" lon="-4.702550">
        <ele>1868.0</ele>
        <time>2015-08-02T12:44:24Z</time>
      </trkpt>
      <trkpt lat="40.329833" lon="-4.702367">
        <ele>1876.0</ele>
        <time>2015-08-02T12:44:26Z</time>
      </trkpt>
      <trkpt lat="40.329983" lon="-4.702117">
        <ele>1879.0</ele>
        <time>2015-08-02T12:44:28Z</time>
      </trkpt>
      <trkpt lat="40.330017" lon="-4.701800">
        <ele>1885.0</ele>
        <time>2015-08-02T12:44:30Z</time>
      </trkpt>
      <trkpt lat="40.329950" lon="-4.701583">
        <ele>1889.0</ele>
        <time>2015-08-02T12:44:32Z</time>
      </trkpt>
      <trkpt lat="40.329867" lon="-4.701367">
        <ele>1894.0</ele>
        <time>2015-08-02T12:44:34Z</time>
      </trkpt>
      <trkpt lat="40.329783" lon="-4.701117">
        <ele>1900.0</ele>
        <time>2015-08-02T12:44:36Z</time>
      </trkpt>
      <trkpt lat="40.329700" lon="-4.700900">
        <ele>1906.0</ele>
        <time>2015-08-02T12:44:38Z</time>
      </trkpt>
      <trkpt lat="40.329567" lon="-4.700717">
        <ele>1909.0</ele>
        <time>2015-08-02T12:44:40Z</time>
      </trkpt>
      <trkpt lat="40.329400" lon="-4.700650">
        <ele>1914.0</ele>
        <time>2015-08-02T12:44:42Z</time>
      </trkpt>
      <trkpt lat="40.329250" lon="-4.700683">
        <ele>1919.0</ele>
        <time>2015-08-02T12:44:44Z</time>
      </trkpt>
      <trkpt lat="40.329133" lon="-4.700750">
        <ele>1927.0</ele>
        <time>2015-08-02T12:44:46Z</time>
      </trkpt>
      <trkpt lat="40.329083" lon="-4.700867">
        <ele>1933.0</ele>
        <time>2015-08-02T12:44:48Z</time>
      </trkpt>
      <trkpt lat="40.329083" lon="-4.701017">
        <ele>1939.0</ele>
        <time>2015-08-02T12:44:50Z</time>
      </trkpt>
      <trkpt lat="40.329117" lon="-4.701183">
        <ele>1944.0</ele>
        <time>2015-08-02T12:44:52Z</time>
      </trkpt>
      <trkpt lat="40.329217" lon="-4.701333">
        <ele>1947.0</ele>
        <time>2015-08-02T12:44:54Z</time>
      </trkpt>
      <trkpt lat="40.329383" lon="-4.701467">
        <ele>1947.0</ele>
        <time>2015-08-02T12:44:56Z</time>
      </trkpt>
      <trkpt lat="40.329617" lon="-4.701583">
        <ele>1950.0</ele>
        <time>2015-08-02T12:44:58Z</time>
      </trkpt>
      <trkpt lat="40.329867" lon="-4.701567">
        <ele>1956.0</ele>
        <time>2015-08-02T12:45:00Z</time>
      </trkpt>
      <trkpt lat="40.330050" lon="-4.701400">
        <ele>1960.0</ele>
        <time>2015-08-02T12:45:02Z</time>
      </trkpt>
      <trkpt lat="40.330217" lon="-4.701150">
        <ele>1965.0</ele>
        <time>2015-08-02T12:45:04Z</time>
      </trkpt>
      <trkpt lat="40.330350" lon="-4.700883">
        <ele>1970.0</ele>
        <time>2015-08-02T12:45:06Z</time>
      </trkpt>
      <trkpt lat="40.330433" lon="-4.700567">
        <ele>1974.0</ele>
        <time>2015-08-02T12:45:08Z</time>
      </trkpt>
      <trkpt lat="40.330400" lon="-4.700250">
        <ele>1977.0</ele>
        <time>2015-08-02T12:45:10Z</time>
      </trkpt>
      <trkpt lat="40.330283" lon="-4.699967">
        <ele>1982.0</ele>
        <time>2015-08-02T12:45:12Z</time>
      </trkpt>
      <trkpt lat="40.330133" lon="-4.699767">
        <ele>1988.0</ele>
        <time>2015-08-02T12:45:14Z</time>
      </trkpt>
      <trkpt lat="40.329967" lon="-4.699667">
        <ele>1995.0</ele>
        <time>2015-08-02T12:45:16Z</time>
      </trkpt>
      <trkpt lat="40.329783" lon="-4.699667">
        <ele>2001.0</ele>
        <time>2015-08-02T12:45:18Z</time>
      </trkpt>
      <trkpt lat="40.329617" lon="-4.699700">
        <ele>2007.0</ele>
        <time>2015-08-02T12:45:20Z</time>
      </trkpt>
      <trkpt lat="40.329500" lon="-4.699783">
        <ele>2010.0</ele>
        <time>2015-08-02T12:45:22Z</time>
      </trkpt>
      <trkpt lat="40.329417" lon="-4.699917">
        <ele>2014.0</ele>
        <time>2015-08-02T12:45:24Z</time>
      </trkpt>
      <trkpt lat="40.329383" lon="-4.700050">
        <ele>2016.0</ele>
        <time>2015-08-02T12:45:26Z</time>
      </trkpt>
      <trkpt lat="40.329433" lon="-4.700200">
        <ele>2010.0</ele>
        <time>2015-08-02T12:45:28Z</time>
      </trkpt>
      <trkpt lat="40.329567" lon="-4.700383">
        <ele>2004.0</ele>
        <time>2015-08-02T12:45:30Z</time>
      </trkpt>
      <trkpt lat="40.329767" lon="-4.700483">
        <ele>2002.0</ele>
        <time>2015-08-02T12:45:32Z</time>
      </trkpt>
      <trkpt lat="40.329983" lon="-4.700467">
        <ele>2004.0</ele>
        <time>2015-08-02T12:45:34Z</time>
      </trkpt>
      <trkpt lat="40.330200" lon="-4.700417">
        <ele>2005.0</ele>
        <time>2015-08-02T12:45:36Z</time>
      </trkpt>
      <trkpt lat="40.330400" lon="-4.700283">
        <ele>2008.0</ele>
        <time>2015-08-02T12:45:38Z</time>
      </trkpt>
      <trkpt lat="40.330583" lon="-4.700150">
        <ele>2014.0</ele>
        <time>2015-08-02T12:45:40Z</time>
      </trkpt>
      <trkpt lat="40.330750" lon="-4.699983">
        <ele>2018.0</ele>
        <time>2015-08-02T12:45:42Z</time>
      </trkpt>
      <trkpt lat="40.330867" lon="-4.699767">
        <ele>2021.0</ele>
        <time>2015-08-02T12:45:44Z</time>
      </trkpt>
      <trkpt lat="40.330917" lon="-4.699467">
        <ele>2023.0</ele>
        <time>2015-08-02T12:45:46Z</time>
      </trkpt>
      <trkpt lat="40.330900" lon="-4.699167">
        <ele>2025.0</ele>
        <time>2015-08-02T12:45:48Z</time>
      </trkpt>
      <trkpt lat="40.330817" lon="-4.698900">
        <ele>2031.0</ele>
        <time>2015-08-02T12:45:50Z</time>
      </trkpt>
      <trkpt lat="40.330683" lon="-4.698750">
        <ele>2037.0</ele>
        <time>2015-08-02T12:45:52Z</time>
      </trkpt>
      <trkpt lat="40.330517" lon="-4.698667">
        <ele>2042.0</ele>
        <time>2015-08-02T12:45:54Z</time>
      </trkpt>
      <trkpt lat="40.330367" lon="-4.698717">
        <ele>2046.0</ele>
        <time>2015-08-02T12:45:56Z</time>
      </trkpt>
      <trkpt lat="40.330283" lon="-4.698850">
        <ele>2049.0</ele>
        <time>2015-08-02T12:45:58Z</time>
      </trkpt>
      <trkpt lat="40.330300" lon="-4.699017">
        <ele>2051.0</ele>
        <time>2015-08-02T12:46:00Z</time>
      </trkpt>
      <trkpt lat="40.330417" lon="-4.699133">
        <ele>2055.0</ele>
        <time>2015-08-02T12:46:02Z</time>
      </trkpt>
      <trkpt lat="40.330567" lon="-4.699133">
        <ele>2057.0</ele>
        <time>2015-08-02T12:46:04Z</time>
      </trkpt>
      <trkpt lat="40.330750" lon="-4.699033">
        <ele>2058.0</ele>
        <time>2015-08-02T12:46:06Z</time>
      </trkpt>
      <trkpt lat="40.330900" lon="-4.698767">
        <ele>2059.0</ele>
        <time>2015-08-02T12:46:08Z</time>
      </trkpt>
      <trkpt lat="40.330933" lon="-4.698483">
        <ele>2068.0</ele>
        <time>2015-08-02T12:46:10Z</time>
      </trkpt>
      <trkpt lat="40.330917" lon="-4.698283">
        <ele>2075.0</ele>
        <time>2015-08-02T12:46:12Z</time>
      </trkpt>
      <trkpt lat="40.330833" lon="-4.698100">
        <ele>2078.0</ele>
        <time>2015-08-02T12:46:14Z</time>
      </trkpt>
      <trkpt lat="40.330650" lon="-4.698000">
        <ele>2081.0</ele>
        <time>2015-08-02T12:46:16Z</time>
      </trkpt>
      <trkpt lat="40.330467" lon="-4.698083">
        <ele>2087.0</ele>
        <time>2015-08-02T12:46:18Z</time>
      </trkpt>
      <trkpt lat="40.330383" lon="-4.698250">
        <ele>2093.0</ele>
        <time>2015-08-02T12:46:20Z</time>
      </trkpt>
      <trkpt lat="40.330417" lon="-4.698400">
        <ele>2094.0</ele>
        <time>2015-08-02T12:46:22Z</time>
      </trkpt>
      <trkpt lat="40.330533" lon="-4.698500">
        <ele>2092.0</ele>
        <time>2015-08-02T12:46:24Z</time>
      </trkpt>
      <trkpt lat="40.330750" lon="-4.698483">
        <ele>2087.0</ele>
        <time>2015-08-02T12:46:26Z</time>
      </trkpt>
      <trkpt lat="40.331000" lon="-4.698350">
        <ele>2088.0</ele>
        <time>2015-08-02T12:46:28Z</time>
      </trkpt>
      <trkpt lat="40.331167" lon="-4.698150">
        <ele>2093.0</ele>
        <time>2015-08-02T12:46:30Z</time>
      </trkpt>
      <trkpt lat="40.331233" lon="-4.697900">
        <ele>2096.0</ele>
        <time>2015-08-02T12:46:32Z</time>
      </trkpt>
      <trkpt lat="40.331183" lon="-4.697667">
        <ele>2097.0</ele>
        <time>2015-08-02T12:46:34Z</time>
      </trkpt>
      <trkpt lat="40.331083" lon="-4.697483">
        <ele>2100.0</ele>
        <time>2015-08-02T12:46:36Z</time>
      </trkpt>
      <trkpt lat="40.330900" lon="-4.697383">
        <ele>2104.0</ele>
        <time>2015-08-02T12:46:38Z</time>
      </trkpt>
      <trkpt lat="40.330733" lon="-4.697417">
        <ele>2109.0</ele>
        <time>2015-08-02T12:46:40Z</time>
      </trkpt>
      <trkpt lat="40.330567" lon="-4.697533">
        <ele>2113.0</ele>
        <time>2015-08-02T12:46:42Z</time>
      </trkpt>
      <trkpt lat="40.330483" lon="-4.697733">
        <ele>2119.0</ele>
        <time>2015-08-02T12:46:44Z</time>
      </trkpt>
      <trkpt lat="40.330517" lon="-4.697900">
        <ele>2122.0</ele>
        <time>2015-08-02T12:46:46Z</time>
      </trkpt>
      <trkpt lat="40.330683" lon="-4.698017">
        <ele>2119.0</ele>
        <time>2015-08-02T12:46:48Z</time>
      </trkpt>
      <trkpt lat="40.330933" lon="-4.698050">
        <ele>2119.0</ele>
        <time>2015-08-02T12:46:50Z</time>
      </trkpt>
      <trkpt lat="40.331150" lon="-4.697983">
        <ele>2123.0</ele>
        <time>2015-08-02T12:46:52Z</time>
      </trkpt>
      <trkpt lat="40.331317" lon="-4.697833">
        <ele>2123.0</ele>
        <time>2015-08-02T12:46:54Z</time>
      </trkpt>
      <trkpt lat="40.331450" lon="-4.697583">
        <ele>2121.0</ele>
        <time>2015-08-02T12:46:56Z</time>
      </trkpt>
      <trkpt lat="40.331533" lon="-4.697300">
        <ele>2122.0</ele>
        <time>2015-08-02T12:46:58Z</time>
      </trkpt>
      <trkpt lat="40.331483" lon="-4.697050">
        <ele>2127.0</ele>
        <time>2015-08-02T12:47:00Z</time>
      </trkpt>
      <trkpt lat="40.331400" lon="-4.696917">
        <ele>2131.0</ele>
        <time>2015-08-02T12:47:02Z</time>
      </trkpt>
      <trkpt lat="40.331283" lon="-4.696783">
        <ele>2133.0</ele>
        <time>2015-08-02T12:47:04Z</time>
      </trkpt>
      <trkpt lat="40.331100" lon="-4.696717">
        <ele>2133.0</ele>
        <time>2015-08-02T12:47:06Z</time>
      </trkpt>
      <trkpt lat="40.330900" lon="-4.696833">
        <ele>2135.0</ele>
        <time>2015-08-02T12:47:08Z</time>
      </trkpt>
      <trkpt lat="40.330817" lon="-4.697050">
        <ele>2141.0</ele>
        <time>2015-08-02T12:47:10Z</time>
      </trkpt>
      <trkpt lat="40.330850" lon="-4.697250">
        <ele>2144.0</ele>
        <time>2015-08-02T12:47:12Z</time>
      </trkpt>
      <trkpt lat="40.330933" lon="-4.697450">
        <ele>2145.0</ele>
        <time>2015-08-02T12:47:14Z</time>
      </trkpt>
      <trkpt lat="40.331100" lon="-4.697583">
        <ele>2148.0</ele>
        <time>2015-08-02T12:47:16Z</time>
      </trkpt>
      <trkpt lat="40.331350" lon="-4.697550">
        <ele>2149.0</ele>
        <time>2015-08-02T12:47:18Z</time>
      </trkpt>
      <trkpt lat="40.331567" lon="-4.697383">
        <ele>2154.0</ele>
        <time>2015-08-02T12:47:20Z</time>
      </trkpt>
      <trkpt lat="40.331667" lon="-4.697183">
        <ele>2156.0</ele>
        <time>2015-08-02T12:47:22Z</time>
      </trkpt>
      <trkpt lat="40.331667" lon="-4.696933">
        <ele>2158.0</ele>
        <time>2015-08-02T12:47:24Z</time>
      </trkpt>
      <trkpt lat="40.331617" lon="-4.696750">
        <ele>2161.0</ele>
        <time>2015-08-02T12:47:26Z</time>
      </trkpt>
      <trkpt lat="40.331483" lon="-4.696633">
        <ele>2161.0</ele>
        <time>2015-08-02T12:47:28Z</time>
      </trkpt>
      <trkpt lat="40.331300" lon="-4.696550">
        <ele>2164.0</ele>
        <time>2015-08-02T12:47:30Z</time>
      </trkpt>
      <trkpt lat="40.331133" lon="-4.696517">
        <ele>2169.0</ele>
        <time>2015-08-02T12:47:32Z</time>
      </trkpt>
      <trkpt lat="40.330967" lon="-4.696550">
        <ele>2170.0</ele>
        <time>2015-08-02T12:47:34Z</time>
      </trkpt>
      <trkpt lat="40.330817" lon="-4.696717">
        <ele>2170.0</ele>
        <time>2015-08-02T12:47:36Z</time>
      </trkpt>
      <trkpt lat="40.330733" lon="-4.696983">
        <ele>2174.0</ele>
        <time>2015-08-02T12:47:38Z</time>
      </trkpt>
      <trkpt lat="40.330733" lon="-4.697217">
        <ele>2178.0</ele>
        <time>2015-08-02T12:47:40Z</time>
      </trkpt>
      <trkpt lat="40.330817" lon="-4.697417">
        <ele>2179.0</ele>
        <time>2015-08-02T12:47:42Z</time>
      </trkpt>
      <trkpt lat="40.330983" lon="-4.697517">
        <ele>2177.0</ele>
        <time>2015-08-02T12:47:44Z</time>
      </trkpt>
      <trkpt lat="40.331217" lon="-4.697517">
        <ele>2175.0</ele>
        <time>2015-08-02T12:47:46Z</time>
      </trkpt>
      <trkpt lat="40.331433" lon="-4.697367">
        <ele>2173.0</ele>
        <time>2015-08-02T12:47:48Z</time>
      </trkpt>
      <trkpt lat="40.331583" lon="-4.697117">
        <ele>2175.0</ele>
        <time>2015-08-02T12:47:50Z</time>
      </trkpt>
      <trkpt lat="40.331667" lon="-4.696867">
        <ele>2180.0</ele>
        <time>2015-08-02T12:47:52Z</time>
      </trkpt>
      <trkpt lat="40.331717" lon="-4.696667">
        <ele>2183.0</ele>
        <time>2015-08-02T12:47:54Z</time>
      </trkpt>
      <trkpt lat="40.331700" lon="-4.696467">
        <ele>2183.0</ele>
        <time>2015-08-02T12:47:56Z</time>
      </trkpt>
      <trkpt lat="40.331617" lon="-4.696283">
        <ele>2184.0</ele>
        <time>2015-08-02T12:47:58Z</time>
      </trkpt>
      <trkpt lat="40.331500" lon="-4.696150">
        <ele>2186.0</ele>
        <time>2015-08-02T12:48:00Z</time>
      </trkpt>
      <trkpt lat="40.331350" lon="-4.696100">
        <ele>2186.0</ele>
        <time>2015-08-02T12:48:02Z</time>
      </trkpt>
      <trkpt lat="40.331167" lon="-4.696133">
        <ele>2187.0</ele>
        <time>2015-08-02T12:48:04Z</time>
      </trkpt>
      <trkpt lat="40.331000" lon="-4.696217">
        <ele>2191.0</ele>
        <time>2015-08-02T12:48:06Z</time>
      </trkpt>
      <trkpt lat="40.330850" lon="-4.696383">
        <ele>2193.0</ele>
        <time>2015-08-02T12:48:08Z</time>
      </trkpt>
      <trkpt lat="40.330817" lon="-4.696633">
        <ele>2194.0</ele>
        <time>2015-08-02T12:48:10Z</time>
      </trkpt>
      <trkpt lat="40.330883" lon="-4.696867">
        <ele>2198.0</ele>
        <time>2015-08-02T12:48:12Z</time>
      </trkpt>
      <trkpt lat="40.330950" lon="-4.696983">
        <ele>2200.0</ele>
        <time>2015-08-02T12:48:14Z</time>
      </trkpt>
      <trkpt lat="40.331050" lon="-4.697083">
        <ele>2196.0</ele>
        <time>2015-08-02T12:48:16Z</time>
      </trkpt>
      <trkpt lat="40.331250" lon="-4.697133">
        <ele>2192.0</ele>
        <time>2015-08-02T12:48:18Z</time>
      </trkpt>
      <trkpt lat="40.331433" lon="-4.697050">
        <ele>2192.0</ele>
        <time>2015-08-02T12:48:20Z</time>
      </trkpt>
      <trkpt lat="40.331583" lon="-4.696867">
        <ele>2190.0</ele>
        <time>2015-08-02T12:48:22Z</time>
      </trkpt>
      <trkpt lat="40.331700" lon="-4.696617">
        <ele>2190.0</ele>
        <time>2015-08-02T12:48:24Z</time>
      </trkpt>
      <trkpt lat="40.331750" lon="-4.696400">
        <ele>2192.0</ele>
        <time>2015-08-02T12:48:26Z</time>
      </trkpt>
      <trkpt lat="40.331783" lon="-4.696200">
        <ele>2193.0</ele>
        <time>2015-08-02T12:48:28Z</time>
      </trkpt>
      <trkpt lat="40.331783" lon="-4.695983">
        <ele>2196.0</ele>
        <time>2015-08-02T12:48:30Z</time>
      </trkpt>
      <trkpt lat="40.331850" lon="-4.695817">
        <ele>2200.0</ele>
        <time>2015-08-02T12:48:32Z</time>
      </trkpt>
      <trkpt lat="40.331983" lon="-4.695750">
        <ele>2201.0</ele>
        <time>2015-08-02T12:48:34Z</time>
      </trkpt>
      <trkpt lat="40.332133" lon="-4.695767">
        <ele>2201.0</ele>
        <time>2015-08-02T12:48:36Z</time>
      </trkpt>
      <trkpt lat="40.332283" lon="-4.695933">
        <ele>2199.0</ele>
        <time>2015-08-02T12:48:38Z</time>
      </trkpt>
      <trkpt lat="40.332367" lon="-4.696183">
        <ele>2200.0</ele>
        <time>2015-08-02T12:48:40Z</time>
      </trkpt>
      <trkpt lat="40.332367" lon="-4.696383">
        <ele>2202.0</ele>
        <time>2015-08-02T12:48:42Z</time>
      </trkpt>
      <trkpt lat="40.332317" lon="-4.696533">
        <ele>2201.0</ele>
        <time>2015-08-02T12:48:44Z</time>
      </trkpt>
      <trkpt lat="40.332200" lon="-4.696633">
        <ele>2198.0</ele>
        <time>2015-08-02T12:48:46Z</time>
      </trkpt>
      <trkpt lat="40.332033" lon="-4.696717">
        <ele>2195.0</ele>
        <time>2015-08-02T12:48:48Z</time>
      </trkpt>
      <trkpt lat="40.331900" lon="-4.696850">
        <ele>2197.0</ele>
        <time>2015-08-02T12:48:50Z</time>
      </trkpt>
      <trkpt lat="40.331800" lon="-4.696983">
        <ele>2199.0</ele>
        <time>2015-08-02T12:48:52Z</time>
      </trkpt>
      <trkpt lat="40.331683" lon="-4.697100">
        <ele>2197.0</ele>
        <time>2015-08-02T12:48:54Z</time>
      </trkpt>
      <trkpt lat="40.331533" lon="-4.697233">
        <ele>2197.0</ele>
        <time>2015-08-02T12:48:56Z</time>
      </trkpt>
      <trkpt lat="40.331417" lon="-4.697367">
        <ele>2197.0</ele>
        <time>2015-08-02T12:48:58Z</time>
      </trkpt>
      <trkpt lat="40.331300" lon="-4.697483">
        <ele>2195.0</ele>
        <time>2015-08-02T12:49:00Z</time>
      </trkpt>
      <trkpt lat="40.331150" lon="-4.697600">
        <ele>2193.0</ele>
        <time>2015-08-02T12:49:02Z</time>
      </trkpt>
      <trkpt lat="40.331000" lon="-4.697683">
        <ele>2192.0</ele>
        <time>2015-08-02T12:49:04Z</time>
      </trkpt>
      <trkpt lat="40.330867" lon="-4.697767">
        <ele>2188.0</ele>
        <time>2015-08-02T12:49:06Z</time>
      </trkpt>
      <trkpt lat="40.330700" lon="-4.697850">
        <ele>2184.0</ele>
        <time>2015-08-02T12:49:08Z</time>
      </trkpt>
      <trkpt lat="40.330550" lon="-4.697900">
        <ele>2182.0</ele>
        <time>2015-08-02T12:49:10Z</time>
      </trkpt>
      <trkpt lat="40.330417" lon="-4.697883">
        <ele>2181.0</ele>
        <time>2015-08-02T12:49:12Z</time>
      </trkpt>
      <trkpt lat="40.330300" lon="-4.697783">
        <ele>2181.0</ele>
        <time>2015-08-02T12:49:14Z</time>
      </trkpt>
      <trkpt lat="40.330200" lon="-4.697683">
        <ele>2180.0</ele>
        <time>2015-08-02T12:49:16Z</time>
      </trkpt>
      <trkpt lat="40.330117" lon="-4.697500">
        <ele>2179.0</ele>
        <time>2015-08-02T12:49:18Z</time>
      </trkpt>
      <trkpt lat="40.330033" lon="-4.697367">
        <ele>2179.0</ele>
        <time>2015-08-02T12:49:20Z</time>
      </trkpt>
      <trkpt lat="40.329900" lon="-4.697300">
        <ele>2176.0</ele>
        <time>2015-08-02T12:49:22Z</time>
      </trkpt>
      <trkpt lat="40.329750" lon="-4.697233">
        <ele>2175.0</ele>
        <time>2015-08-02T12:49:24Z</time>
      </trkpt>
      <trkpt lat="40.329633" lon="-4.697150">
        <ele>2176.0</ele>
        <time>2015-08-02T12:49:26Z</time>
      </trkpt>
      <trkpt lat="40.329550" lon="-4.697017">
        <ele>2175.0</ele>
        <time>2015-08-02T12:49:28Z</time>
      </trkpt>
      <trkpt lat="40.329450" lon="-4.696867">
        <ele>2172.0</ele>
        <time>2015-08-02T12:49:30Z</time>
      </trkpt>
      <trkpt lat="40.329350" lon="-4.696683">
        <ele>2169.0</ele>
        <time>2015-08-02T12:49:32Z</time>
      </trkpt>
      <trkpt lat="40.329267" lon="-4.696533">
        <ele>2166.0</ele>
        <time>2015-08-02T12:49:34Z</time>
      </trkpt>
      <trkpt lat="40.329167" lon="-4.696367">
        <ele>2162.0</ele>
        <time>2015-08-02T12:49:36Z</time>
      </trkpt>
      <trkpt lat="40.329083" lon="-4.696200">
        <ele>2158.0</ele>
        <time>2015-08-02T12:49:38Z</time>
      </trkpt>
      <trkpt lat="40.329000" lon="-4.696017">
        <ele>2153.0</ele>
        <time>2015-08-02T12:49:40Z</time>
      </trkpt>
      <trkpt lat="40.328933" lon="-4.695817">
        <ele>2148.0</ele>
        <time>2015-08-02T12:49:42Z</time>
      </trkpt>
      <trkpt lat="40.328850" lon="-4.695633">
        <ele>2143.0</ele>
        <time>2015-08-02T12:49:44Z</time>
      </trkpt>
      <trkpt lat="40.328767" lon="-4.695467">
        <ele>2139.0</ele>
        <time>2015-08-02T12:49:46Z</time>
      </trkpt>
      <trkpt lat="40.328717" lon="-4.695267">
        <ele>2134.0</ele>
        <time>2015-08-02T12:49:48Z</time>
      </trkpt>
      <trkpt lat="40.328617" lon="-4.695083">
        <ele>2127.0</ele>
        <time>2015-08-02T12:49:50Z</time>
      </trkpt>
      <trkpt lat="40.328517" lon="-4.694933">
        <ele>2124.0</ele>
        <time>2015-08-02T12:49:52Z</time>
      </trkpt>
      <trkpt lat="40.328450" lon="-4.694800">
        <ele>2119.0</ele>
        <time>2015-08-02T12:49:54Z</time>
      </trkpt>
      <trkpt lat="40.328333" lon="-4.694650">
        <ele>2111.0</ele>
        <time>2015-08-02T12:49:56Z</time>
      </trkpt>
      <trkpt lat="40.328217" lon="-4.694517">
        <ele>2105.0</ele>
        <time>2015-08-02T12:49:58Z</time>
      </trkpt>
      <trkpt lat="40.328133" lon="-4.694383">
        <ele>2101.0</ele>
        <time>2015-08-02T12:50:00Z</time>
      </trkpt>
      <trkpt lat="40.328033" lon="-4.694250">
        <ele>2095.0</ele>
        <time>2015-08-02T12:50:02Z</time>
      </trkpt>
      <trkpt lat="40.327933" lon="-4.694083">
        <ele>2088.0</ele>
        <time>2015-08-02T12:50:04Z</time>
      </trkpt>
      <trkpt lat="40.327833" lon="-4.693917">
        <ele>2081.0</ele>
        <time>2015-08-02T12:50:06Z</time>
      </trkpt>
      <trkpt lat="40.327717" lon="-4.693750">
        <ele>2073.0</ele>
        <time>2015-08-02T12:50:08Z</time>
      </trkpt>
      <trkpt lat="40.327617" lon="-4.693583">
        <ele>2067.0</ele>
        <time>2015-08-02T12:50:10Z</time>
      </trkpt>
      <trkpt lat="40.327550" lon="-4.693450">
        <ele>2063.0</ele>
        <time>2015-08-02T12:50:12Z</time>
      </trkpt>
      <trkpt lat="40.327450" lon="-4.693317">
        <ele>2057.0</ele>
        <time>2015-08-02T12:50:14Z</time>
      </trkpt>
      <trkpt lat="40.327350" lon="-4.693133">
        <ele>2053.0</ele>
        <time>2015-08-02T12:50:16Z</time>
      </trkpt>
      <trkpt lat="40.327267" lon="-4.692967">
        <ele>2051.0</ele>
        <time>2015-08-02T12:50:18Z</time>
      </trkpt>
      <trkpt lat="40.327200" lon="-4.692767">
        <ele>2048.0</ele>
        <time>2015-08-02T12:50:20Z</time>
      </trkpt>
      <trkpt lat="40.327117" lon="-4.692583">
        <ele>2046.0</ele>
        <time>2015-08-02T12:50:22Z</time>
      </trkpt>
      <trkpt lat="40.327050" lon="-4.692400">
        <ele>2043.0</ele>
        <time>2015-08-02T12:50:24Z</time>
      </trkpt>
      <trkpt lat="40.327000" lon="-4.692200">
        <ele>2039.0</ele>
        <time>2015-08-02T12:50:26Z</time>
      </trkpt>
      <trkpt lat="40.326883" lon="-4.692050">
        <ele>2036.0</ele>
        <time>2015-08-02T12:50:28Z</time>
      </trkpt>
      <trkpt lat="40.326800" lon="-4.691917">
        <ele>2035.0</ele>
        <time>2015-08-02T12:50:30Z</time>
      </trkpt>
      <trkpt lat="40.326717" lon="-4.691800">
        <ele>2031.0</ele>
        <time>2015-08-02T12:50:32Z</time>
      </trkpt>
      <trkpt lat="40.326600" lon="-4.691667">
        <ele>2024.0</ele>
        <time>2015-08-02T12:50:34Z</time>
      </trkpt>
      <trkpt lat="40.326450" lon="-4.691567">
        <ele>2022.0</ele>
        <time>2015-08-02T12:50:36Z</time>
      </trkpt>
      <trkpt lat="40.326300" lon="-4.691500">
        <ele>2023.0</ele>
        <time>2015-08-02T12:50:38Z</time>
      </trkpt>
      <trkpt lat="40.326167" lon="-4.691417">
        <ele>2024.0</ele>
        <time>2015-08-02T12:50:40Z</time>
      </trkpt>
      <trkpt lat="40.326017" lon="-4.691350">
        <ele>2025.0</ele>
        <time>2015-08-02T12:50:42Z</time>
      </trkpt>
      <trkpt lat="40.325883" lon="-4.691367">
        <ele>2024.0</ele>
        <time>2015-08-02T12:50:44Z</time>
      </trkpt>
      <trkpt lat="40.325733" lon="-4.691367">
        <ele>2020.0</ele>
        <time>2015-08-02T12:50:46Z</time>
      </trkpt>
      <trkpt lat="40.325567" lon="-4.691383">
        <ele>2017.0</ele>
        <time>2015-08-02T12:50:48Z</time>
      </trkpt>
      <trkpt lat="40.325400" lon="-4.691400">
        <ele>2016.0</ele>
        <time>2015-08-02T12:50:50Z</time>
      </trkpt>
      <trkpt lat="40.325267" lon="-4.691383">
        <ele>2014.0</ele>
        <time>2015-08-02T12:50:52Z</time>
      </trkpt>
      <trkpt lat="40.325117" lon="-4.691350">
        <ele>2012.0</ele>
        <time>2015-08-02T12:50:54Z</time>
      </trkpt>
      <trkpt lat="40.324967" lon="-4.691300">
        <ele>2012.0</ele>
        <time>2015-08-02T12:50:56Z</time>
      </trkpt>
      <trkpt lat="40.324833" lon="-4.691283">
        <ele>2013.0</ele>
        <time>2015-08-02T12:50:58Z</time>
      </trkpt>
      <trkpt lat="40.324700" lon="-4.691250">
        <ele>2013.0</ele>
        <time>2015-08-02T12:51:00Z</time>
      </trkpt>
      <trkpt lat="40.324583" lon="-4.691200">
        <ele>2013.0</ele>
        <time>2015-08-02T12:51:02Z</time>
      </trkpt>
      <trkpt lat="40.324450" lon="-4.691183">
        <ele>2013.0</ele>
        <time>2015-08-02T12:51:04Z</time>
      </trkpt>
      <trkpt lat="40.324317" lon="-4.691167">
        <ele>2016.0</ele>
        <time>2015-08-02T12:51:06Z</time>
      </trkpt>
      <trkpt lat="40.324217" lon="-4.691150">
        <ele>2020.0</ele>
        <time>2015-08-02T12:51:08Z</time>
      </trkpt>
      <trkpt lat="40.324183" lon="-4.691183">
        <ele>2023.0</ele>
        <time>2015-08-02T12:51:10Z</time>
      </trkpt>
      <trkpt lat="40.324183" lon="-4.691317">
        <ele>2021.0</ele>
        <time>2015-08-02T12:51:12Z</time>
      </trkpt>
      <trkpt lat="40.324267" lon="-4.691533">
        <ele>2020.0</ele>
        <time>2015-08-02T12:51:14Z</time>
      </trkpt>
      <trkpt lat="40.324433" lon="-4.691717">
        <ele>2021.0</ele>
        <time>2015-08-02T12:51:16Z</time>
      </trkpt>
      <trkpt lat="40.324683" lon="-4.691767">
        <ele>2023.0</ele>
        <time>2015-08-02T12:51:18Z</time>
      </trkpt>
      <trkpt lat="40.324917" lon="-4.691733">
        <ele>2027.0</ele>
        <time>2015-08-02T12:51:20Z</time>
      </trkpt>
      <trkpt lat="40.325133" lon="-4.691600">
        <ele>2028.0</ele>
        <time>2015-08-02T12:51:22Z</time>
      </trkpt>
      <trkpt lat="40.325283" lon="-4.691317">
        <ele>2028.0</ele>
        <time>2015-08-02T12:51:24Z</time>
      </trkpt>
      <trkpt lat="40.325300" lon="-4.691067">
        <ele>2031.0</ele>
        <time>2015-08-02T12:51:26Z</time>
      </trkpt>
      <trkpt lat="40.325267" lon="-4.690883">
        <ele>2034.0</ele>
        <time>2015-08-02T12:51:28Z</time>
      </trkpt>
      <trkpt lat="40.325183" lon="-4.690750">
        <ele>2034.0</ele>
        <time>2015-08-02T12:51:30Z</time>
      </trkpt>
      <trkpt lat="40.325100" lon="-4.690683">
        <ele>2035.0</ele>
        <time>2015-08-02T12:51:32Z</time>
      </trkpt>
      <trkpt lat="40.325017" lon="-4.690700">
        <ele>2034.0</ele>
        <time>2015-08-02T12:51:34Z</time>
      </trkpt>
      <trkpt lat="40.324917" lon="-4.690767">
        <ele>2035.0</ele>
        <time>2015-08-02T12:51:36Z</time>
      </trkpt>
      <trkpt lat="40.324867" lon="-4.690850">
        <ele>2039.0</ele>
        <time>2015-08-02T12:51:38Z</time>
      </trkpt>
      <trkpt lat="40.324867" lon="-4.690983">
        <ele>2041.0</ele>
        <time>2015-08-02T12:51:40Z</time>
      </trkpt>
      <trkpt lat="40.324917" lon="-4.691183">
        <ele>2041.0</ele>
        <time>2015-08-02T12:51:42Z</time>
      </trkpt>
      <trkpt lat="40.325100" lon="-4.691350">
        <ele>2042.0</ele>
        <time>2015-08-02T12:51:44Z</time>
      </trkpt>
      <trkpt lat="40.325350" lon="-4.691400">
        <ele>2044.0</ele>
        <time>2015-08-02T12:51:46Z</time>
      </trkpt>
      <trkpt lat="40.325600" lon="-4.691333">
        <ele>2045.0</ele>
        <time>2015-08-02T12:51:48Z</time>
      </trkpt>
      <trkpt lat="40.325817" lon="-4.691167">
        <ele>2044.0</ele>
        <time>2015-08-02T12:51:50Z</time>
      </trkpt>
      <trkpt lat="40.325967" lon="-4.690917">
        <ele>2044.0</ele>
        <time>2015-08-02T12:51:52Z</time>
      </trkpt>
      <trkpt lat="40.326000" lon="-4.690667">
        <ele>2045.0</ele>
        <time>2015-08-02T12:51:54Z</time>
      </trkpt>
      <trkpt lat="40.325967" lon="-4.690450">
        <ele>2044.0</ele>
        <time>2015-08-02T12:51:56Z</time>
      </trkpt>
      <trkpt lat="40.325883" lon="-4.690283">
        <ele>2044.0</ele>
        <time>2015-08-02T12:51:58Z</time>
      </trkpt>
      <trkpt lat="40.325750" lon="-4.690200">
        <ele>2046.0</ele>
        <time>2015-08-02T12:52:00Z</time>
      </trkpt>
      <trkpt lat="40.325650" lon="-4.690200">
        <ele>2049.0</ele>
        <time>2015-08-02T12:52:02Z</time>
      </trkpt>
      <trkpt lat="40.325550" lon="-4.690267">
        <ele>2052.0</ele>
        <time>2015-08-02T12:52:04Z</time>
      </trkpt>
      <trkpt lat="40.325467" lon="-4.690383">
        <ele>2054.0</ele>
        <time>2015-08-02T12:52:06Z</time>
      </trkpt>
      <trkpt lat="40.325467" lon="-4.690567">
        <ele>2055.0</ele>
        <time>2015-08-02T12:52:08Z</time>
      </trkpt>
      <trkpt lat="40.325517" lon="-4.690750">
        <ele>2057.0</ele>
        <time>2015-08-02T12:52:10Z</time>
      </trkpt>
      <trkpt lat="40.325633" lon="-4.690917">
        <ele>2058.0</ele>
        <time>2015-08-02T12:52:12Z</time>
      </trkpt>
      <trkpt lat="40.325817" lon="-4.691000">
        <ele>2061.0</ele>
        <time>2015-08-02T12:52:14Z</time>
      </trkpt>
      <trkpt lat="40.326033" lon="-4.691033">
        <ele>2065.0</ele>
        <time>2015-08-02T12:52:16Z</time>
      </trkpt>
      <trkpt lat="40.326300" lon="-4.690933">
        <ele>2067.0</ele>
        <time>2015-08-02T12:52:18Z</time>
      </trkpt>
      <trkpt lat="40.326517" lon="-4.690717">
        <ele>2071.0</ele>
        <time>2015-08-02T12:52:20Z</time>
      </trkpt>
      <trkpt lat="40.326633" lon="-4.690467">
        <ele>2072.0</ele>
        <time>2015-08-02T12:52:22Z</time>
      </trkpt>
      <trkpt lat="40.326683" lon="-4.690183">
        <ele>2071.0</ele>
        <time>2015-08-02T12:52:24Z</time>
      </trkpt>
      <trkpt lat="40.326617" lon="-4.689917">
        <ele>2069.0</ele>
        <time>2015-08-02T12:52:26Z</time>
      </trkpt>
      <trkpt lat="40.326533" lon="-4.689750">
        <ele>2072.0</ele>
        <time>2015-08-02T12:52:28Z</time>
      </trkpt>
      <trkpt lat="40.326433" lon="-4.689650">
        <ele>2073.0</ele>
        <time>2015-08-02T12:52:30Z</time>
      </trkpt>
      <trkpt lat="40.326300" lon="-4.689617">
        <ele>2074.0</ele>
        <time>2015-08-02T12:52:32Z</time>
      </trkpt>
      <trkpt lat="40.326200" lon="-4.689683">
        <ele>2075.0</ele>
        <time>2015-08-02T12:52:34Z</time>
      </trkpt>
      <trkpt lat="40.326150" lon="-4.689833">
        <ele>2076.0</ele>
        <time>2015-08-02T12:52:36Z</time>
      </trkpt>
      <trkpt lat="40.326200" lon="-4.690000">
        <ele>2076.0</ele>
        <time>2015-08-02T12:52:38Z</time>
      </trkpt>
      <trkpt lat="40.326350" lon="-4.690183">
        <ele>2075.0</ele>
        <time>2015-08-02T12:52:40Z</time>
      </trkpt>
      <trkpt lat="40.326567" lon="-4.690300">
        <ele>2078.0</ele>
        <time>2015-08-02T12:52:42Z</time>
      </trkpt>
      <trkpt lat="40.326800" lon="-4.690300">
        <ele>2080.0</ele>
        <time>2015-08-02T12:52:44Z</time>
      </trkpt>
      <trkpt lat="40.327083" lon="-4.690183">
        <ele>2080.0</ele>
        <time>2015-08-02T12:52:46Z</time>
      </trkpt>
      <trkpt lat="40.327333" lon="-4.689950">
        <ele>2084.0</ele>
        <time>2015-08-02T12:52:48Z</time>
      </trkpt>
      <trkpt lat="40.327467" lon="-4.689683">
        <ele>2088.0</ele>
        <time>2015-08-02T12:52:50Z</time>
      </trkpt>
      <trkpt lat="40.327533" lon="-4.689400">
        <ele>2088.0</ele>
        <time>2015-08-02T12:52:52Z</time>
      </trkpt>
      <trkpt lat="40.327533" lon="-4.689133">
        <ele>2088.0</ele>
        <time>2015-08-02T12:52:54Z</time>
      </trkpt>
      <trkpt lat="40.327450" lon="-4.688950">
        <ele>2089.0</ele>
        <time>2015-08-02T12:52:56Z</time>
      </trkpt>
      <trkpt lat="40.327350" lon="-4.688850">
        <ele>2092.0</ele>
        <time>2015-08-02T12:52:58Z</time>
      </trkpt>
      <trkpt lat="40.327267" lon="-4.688833">
        <ele>2095.0</ele>
        <time>2015-08-02T12:53:00Z</time>
      </trkpt>
      <trkpt lat="40.327200" lon="-4.688883">
        <ele>2096.0</ele>
        <time>2015-08-02T12:53:02Z</time>
      </trkpt>
      <trkpt lat="40.327183" lon="-4.689017">
        <ele>2097.0</ele>
        <time>2015-08-02T12:53:04Z</time>
      </trkpt>
      <trkpt lat="40.327300" lon="-4.689167">
        <ele>2097.0</ele>
        <time>2015-08-02T12:53:06Z</time>
      </trkpt>
      <trkpt lat="40.327500" lon="-4.689267">
        <ele>2096.0</ele>
        <time>2015-08-02T12:53:08Z</time>
      </trkpt>
      <trkpt lat="40.327717" lon="-4.689333">
        <ele>2098.0</ele>
        <time>2015-08-02T12:53:10Z</time>
      </trkpt>
      <trkpt lat="40.327967" lon="-4.689267">
        <ele>2104.0</ele>
        <time>2015-08-02T12:53:12Z</time>
      </trkpt>
      <trkpt lat="40.328150" lon="-4.689150">
        <ele>2107.0</ele>
        <time>2015-08-02T12:53:14Z</time>
      </trkpt>
      <trkpt lat="40.328333" lon="-4.689000">
        <ele>2108.0</ele>
        <time>2015-08-02T12:53:16Z</time>
      </trkpt>
      <trkpt lat="40.328483" lon="-4.688733">
        <ele>2109.0</ele>
        <time>2015-08-02T12:53:18Z</time>
      </trkpt>
      <trkpt lat="40.328500" lon="-4.688450">
        <ele>2112.0</ele>
        <time>2015-08-02T12:53:20Z</time>
      </trkpt>
      <trkpt lat="40.328467" lon="-4.688250">
        <ele>2114.0</ele>
        <time>2015-08-02T12:53:22Z</time>
      </trkpt>
      <trkpt lat="40.328417" lon="-4.688100">
        <ele>2115.0</ele>
        <time>2015-08-02T12:53:24Z</time>
      </trkpt>
      <trkpt lat="40.328333" lon="-4.688050">
        <ele>2114.0</ele>
        <time>2015-08-02T12:53:26Z</time>
      </trkpt>
      <trkpt lat="40.328267" lon="-4.688150">
        <ele>2114.0</ele>
        <time>2015-08-02T12:53:28Z</time>
      </trkpt>
      <trkpt lat="40.328250" lon="-4.688283">
        <ele>2117.0</ele>
        <time>2015-08-02T12:53:30Z</time>
      </trkpt>
      <trkpt lat="40.328317" lon="-4.688400">
        <ele>2119.0</ele>
        <time>2015-08-02T12:53:32Z</time>
      </trkpt>
      <trkpt lat="40.328417" lon="-4.688550">
        <ele>2119.0</ele>
        <time>2015-08-02T12:53:34Z</time>
      </trkpt>
      <trkpt lat="40.328600" lon="-4.688633">
        <ele>2121.0</ele>
        <time>2015-08-02T12:53:36Z</time>
      </trkpt>
      <trkpt lat="40.328833" lon="-4.688583">
        <ele>2123.0</ele>
        <time>2015-08-02T12:53:38Z</time>
      </trkpt>
      <trkpt lat="40.329017" lon="-4.688417">
        <ele>2125.0</ele>
        <time>2015-08-02T12:53:40Z</time>
      </trkpt>
      <trkpt lat="40.329150" lon="-4.688167">
        <ele>2126.0</ele>
        <time>2015-08-02T12:53:42Z</time>
      </trkpt>
      <trkpt lat="40.329183" lon="-4.687867">
        <ele>2128.0</ele>
        <time>2015-08-02T12:53:44Z</time>
      </trkpt>
      <trkpt lat="40.329117" lon="-4.687633">
        <ele>2132.0</ele>
        <time>2015-08-02T12:53:46Z</time>
      </trkpt>
      <trkpt lat="40.329067" lon="-4.687450">
        <ele>2137.0</ele>
        <time>2015-08-02T12:53:48Z</time>
      </trkpt>
      <trkpt lat="40.328983" lon="-4.687317">
        <ele>2136.0</ele>
        <time>2015-08-02T12:53:50Z</time>
      </trkpt>
      <trkpt lat="40.328850" lon="-4.687250">
        <ele>2134.0</ele>
        <time>2015-08-02T12:53:52Z</time>
      </trkpt>
      <trkpt lat="40.328700" lon="-4.687200">
        <ele>2137.0</ele>
        <time>2015-08-02T12:53:54Z</time>
      </trkpt>
      <trkpt lat="40.328600" lon="-4.687217">
        <ele>2141.0</ele>
        <time>2015-08-02T12:53:56Z</time>
      </trkpt>
      <trkpt lat="40.328550" lon="-4.687333">
        <ele>2140.0</ele>
        <time>2015-08-02T12:53:58Z</time>
      </trkpt>
      <trkpt lat="40.328583" lon="-4.687500">
        <ele>2140.0</ele>
        <time>2015-08-02T12:54:00Z</time>
      </trkpt>
      <trkpt lat="40.328717" lon="-4.687667">
        <ele>2142.0</ele>
        <time>2015-08-02T12:54:02Z</time>
      </trkpt>
      <trkpt lat="40.328917" lon="-4.687733">
        <ele>2144.0</ele>
        <time>2015-08-02T12:54:04Z</time>
      </trkpt>
      <trkpt lat="40.329167" lon="-4.687717">
        <ele>2146.0</ele>
        <time>2015-08-02T12:54:06Z</time>
      </trkpt>
      <trkpt lat="40.329417" lon="-4.687583">
        <ele>2149.0</ele>
        <time>2015-08-02T12:54:08Z</time>
      </trkpt>
      <trkpt lat="40.329633" lon="-4.687400">
        <ele>2151.0</ele>
        <time>2015-08-02T12:54:10Z</time>
      </trkpt>
      <trkpt lat="40.329817" lon="-4.687167">
        <ele>2153.0</ele>
        <time>2015-08-02T12:54:12Z</time>
      </trkpt>
      <trkpt lat="40.329950" lon="-4.686867">
        <ele>2155.0</ele>
        <time>2015-08-02T12:54:14Z</time>
      </trkpt>
      <trkpt lat="40.329950" lon="-4.686567">
        <ele>2156.0</ele>
        <time>2015-08-02T12:54:16Z</time>
      </trkpt>
      <trkpt lat="40.329883" lon="-4.686333">
        <ele>2159.0</ele>
        <time>2015-08-02T12:54:18Z</time>
      </trkpt>
      <trkpt lat="40.329817" lon="-4.686183">
        <ele>2159.0</ele>
        <time>2015-08-02T12:54:20Z</time>
      </trkpt>
      <trkpt lat="40.329683" lon="-4.686067">
        <ele>2156.0</ele>
        <time>2015-08-02T12:54:22Z</time>
      </trkpt>
      <trkpt lat="40.329517" lon="-4.686050">
        <ele>2155.0</ele>
        <time>2015-08-02T12:54:24Z</time>
      </trkpt>
      <trkpt lat="40.329417" lon="-4.686133">
        <ele>2157.0</ele>
        <time>2015-08-02T12:54:26Z</time>
      </trkpt>
      <trkpt lat="40.329383" lon="-4.686267">
        <ele>2158.0</ele>
        <time>2015-08-02T12:54:28Z</time>
      </trkpt>
      <trkpt lat="40.329400" lon="-4.686433">
        <ele>2158.0</ele>
        <time>2015-08-02T12:54:30Z</time>
      </trkpt>
      <trkpt lat="40.329550" lon="-4.686583">
        <ele>2158.0</ele>
        <time>2015-08-02T12:54:32Z</time>
      </trkpt>
      <trkpt lat="40.329783" lon="-4.686667">
        <ele>2160.0</ele>
        <time>2015-08-02T12:54:34Z</time>
      </trkpt>
      <trkpt lat="40.330017" lon="-4.686650">
        <ele>2165.0</ele>
        <time>2015-08-02T12:54:36Z</time>
      </trkpt>
      <trkpt lat="40.330250" lon="-4.686583">
        <ele>2168.0</ele>
        <time>2015-08-02T12:54:38Z</time>
      </trkpt>
      <trkpt lat="40.330467" lon="-4.686400">
        <ele>2168.0</ele>
        <time>2015-08-02T12:54:40Z</time>
      </trkpt>
      <trkpt lat="40.330617" lon="-4.686100">
        <ele>2169.0</ele>
        <time>2015-08-02T12:54:42Z</time>
      </trkpt>
      <trkpt lat="40.330650" lon="-4.685817">
        <ele>2171.0</ele>
        <time>2015-08-02T12:54:44Z</time>
      </trkpt>
      <trkpt lat="40.330617" lon="-4.685617">
        <ele>2169.0</ele>
        <time>2015-08-02T12:54:46Z</time>
      </trkpt>
      <trkpt lat="40.330483" lon="-4.685467">
        <ele>2165.0</ele>
        <time>2015-08-02T12:54:48Z</time>
      </trkpt>
      <trkpt lat="40.330317" lon="-4.685433">
        <ele>2165.0</ele>
        <time>2015-08-02T12:54:50Z</time>
      </trkpt>
      <trkpt lat="40.330217" lon="-4.685450">
        <ele>2169.0</ele>
        <time>2015-08-02T12:54:52Z</time>
      </trkpt>
      <trkpt lat="40.330183" lon="-4.685517">
        <ele>2170.0</ele>
        <time>2015-08-02T12:54:54Z</time>
      </trkpt>
      <trkpt lat="40.330183" lon="-4.685650">
        <ele>2170.0</ele>
        <time>2015-08-02T12:54:56Z</time>
      </trkpt>
      <trkpt lat="40.330217" lon="-4.685850">
        <ele>2169.0</ele>
        <time>2015-08-02T12:54:58Z</time>
      </trkpt>
      <trkpt lat="40.330350" lon="-4.686050">
        <ele>2169.0</ele>
        <time>2015-08-02T12:55:00Z</time>
      </trkpt>
      <trkpt lat="40.330567" lon="-4.686167">
        <ele>2170.0</ele>
        <time>2015-08-02T12:55:02Z</time>
      </trkpt>
      <trkpt lat="40.330800" lon="-4.686233">
        <ele>2173.0</ele>
        <time>2015-08-02T12:55:04Z</time>
      </trkpt>
      <trkpt lat="40.331017" lon="-4.686283">
        <ele>2174.0</ele>
        <time>2015-08-02T12:55:06Z</time>
      </trkpt>
      <trkpt lat="40.331283" lon="-4.686233">
        <ele>2174.0</ele>
        <time>2015-08-02T12:55:08Z</time>
      </trkpt>
      <trkpt lat="40.331550" lon="-4.686033">
        <ele>2177.0</ele>
        <time>2015-08-02T12:55:10Z</time>
      </trkpt>
      <trkpt lat="40.331700" lon="-4.685767">
        <ele>2179.0</ele>
        <time>2015-08-02T12:55:12Z</time>
      </trkpt>
      <trkpt lat="40.331767" lon="-4.685500">
        <ele>2179.0</ele>
        <time>2015-08-02T12:55:14Z</time>
      </trkpt>
      <trkpt lat="40.331733" lon="-4.685250">
        <ele>2178.0</ele>
        <time>2015-08-02T12:55:16Z</time>
      </trkpt>
      <trkpt lat="40.331633" lon="-4.685083">
        <ele>2178.0</ele>
        <time>2015-08-02T12:55:18Z</time>
      </trkpt>
      <trkpt lat="40.331533" lon="-4.684983">
        <ele>2181.0</ele>
        <time>2015-08-02T12:55:20Z</time>
      </trkpt>
      <trkpt lat="40.331433" lon="-4.684950">
        <ele>2180.0</ele>
        <time>2015-08-02T12:55:22Z</time>
      </trkpt>
      <trkpt lat="40.331333" lon="-4.685033">
        <ele>2178.0</ele>
        <time>2015-08-02T12:55:24Z</time>
      </trkpt>
      <trkpt lat="40.331300" lon="-4.685183">
        <ele>2179.0</ele>
        <time>2015-08-02T12:55:26Z</time>
      </trkpt>
      <trkpt lat="40.331383" lon="-4.685367">
        <ele>2179.0</ele>
        <time>2015-08-02T12:55:28Z</time>
      </trkpt>
      <trkpt lat="40.331517" lon="-4.685533">
        <ele>2179.0</ele>
        <time>2015-08-02T12:55:30Z</time>
      </trkpt>
      <trkpt lat="40.331700" lon="-4.685650">
        <ele>2180.0</ele>
        <time>2015-08-02T12:55:32Z</time>
      </trkpt>
      <trkpt lat="40.331933" lon="-4.685717">
        <ele>2183.0</ele>
        <time>2015-08-02T12:55:34Z</time>
      </trkpt>
      <trkpt lat="40.332167" lon="-4.685817">
        <ele>2185.0</ele>
        <time>2015-08-02T12:55:36Z</time>
      </trkpt>
      <trkpt lat="40.332417" lon="-4.685900">
        <ele>2187.0</ele>
        <time>2015-08-02T12:55:38Z</time>
      </trkpt>
      <trkpt lat="40.332683" lon="-4.685933">
        <ele>2191.0</ele>
        <time>2015-08-02T12:55:40Z</time>
      </trkpt>
      <trkpt lat="40.332933" lon="-4.685900">
        <ele>2195.0</ele>
        <time>2015-08-02T12:55:42Z</time>
      </trkpt>
      <trkpt lat="40.333167" lon="-4.685733">
        <ele>2195.0</ele>
        <time>2015-08-02T12:55:44Z</time>
      </trkpt>
      <trkpt lat="40.333317" lon="-4.685500">
        <ele>2193.0</ele>
        <time>2015-08-02T12:55:46Z</time>
      </trkpt>
      <trkpt lat="40.333383" lon="-4.685217">
        <ele>2191.0</ele>
        <time>2015-08-02T12:55:48Z</time>
      </trkpt>
      <trkpt lat="40.333317" lon="-4.684983">
        <ele>2189.0</ele>
        <time>2015-08-02T12:55:50Z</time>
      </trkpt>
      <trkpt lat="40.333233" lon="-4.684833">
        <ele>2189.0</ele>
        <time>2015-08-02T12:55:52Z</time>
      </trkpt>
      <trkpt lat="40.333150" lon="-4.684750">
        <ele>2188.0</ele>
        <time>2015-08-02T12:55:54Z</time>
      </trkpt>
      <trkpt lat="40.333033" lon="-4.684700">
        <ele>2186.0</ele>
        <time>2015-08-02T12:55:56Z</time>
      </trkpt>
      <trkpt lat="40.332900" lon="-4.684633">
        <ele>2186.0</ele>
        <time>2015-08-02T12:55:58Z</time>
      </trkpt>
      <trkpt lat="40.332800" lon="-4.684550">
        <ele>2188.0</ele>
        <time>2015-08-02T12:56:00Z</time>
      </trkpt>
      <trkpt lat="40.332700" lon="-4.684467">
        <ele>2187.0</ele>
        <time>2015-08-02T12:56:02Z</time>
      </trkpt>
      <trkpt lat="40.332583" lon="-4.684383">
        <ele>2186.0</ele>
        <time>2015-08-02T12:56:04Z</time>
      </trkpt>
      <trkpt lat="40.332450" lon="-4.684283">
        <ele>2184.0</ele>
        <time>2015-08-02T12:56:06Z</time>
      </trkpt>
      <trkpt lat="40.332317" lon="-4.684200">
        <ele>2184.0</ele>
        <time>2015-08-02T12:56:08Z</time>
      </trkpt>
      <trkpt lat="40.332200" lon="-4.684167">
        <ele>2187.0</ele>
        <time>2015-08-02T12:56:10Z</time>
      </trkpt>
      <trkpt lat="40.332083" lon="-4.684117">
        <ele>2190.0</ele>
        <time>2015-08-02T12:56:12Z</time>
      </trkpt>
      <trkpt lat="40.331983" lon="-4.684100">
        <ele>2192.0</ele>
        <time>2015-08-02T12:56:14Z</time>
      </trkpt>
      <trkpt lat="40.331900" lon="-4.684167">
        <ele>2193.0</ele>
        <time>2015-08-02T12:56:16Z</time>
      </trkpt>
      <trkpt lat="40.331833" lon="-4.684250">
        <ele>2195.0</ele>
        <time>2015-08-02T12:56:18Z</time>
      </trkpt>
      <trkpt lat="40.331817" lon="-4.684400">
        <ele>2196.0</ele>
        <time>2015-08-02T12:56:20Z</time>
      </trkpt>
      <trkpt lat="40.331900" lon="-4.684583">
        <ele>2198.0</ele>
        <time>2015-08-02T12:56:22Z</time>
      </trkpt>
      <trkpt lat="40.332050" lon="-4.684717">
        <ele>2202.0</ele>
        <time>2015-08-02T12:56:24Z</time>
      </trkpt>
      <trkpt lat="40.332250" lon="-4.684800">
        <ele>2202.0</ele>
        <time>2015-08-02T12:56:26Z</time>
      </trkpt>
      <trkpt lat="40.332500" lon="-4.684800">
        <ele>2203.0</ele>
        <time>2015-08-02T12:56:28Z</time>
      </trkpt>
      <trkpt lat="40.332717" lon="-4.684650">
        <ele>2204.0</ele>
        <time>2015-08-02T12:56:30Z</time>
      </trkpt>
      <trkpt lat="40.332883" lon="-4.684400">
        <ele>2205.0</ele>
        <time>2015-08-02T12:56:32Z</time>
      </trkpt>
      <trkpt lat="40.332950" lon="-4.684083">
        <ele>2205.0</ele>
        <time>2015-08-02T12:56:34Z</time>
      </trkpt>
      <trkpt lat="40.332933" lon="-4.683800">
        <ele>2209.0</ele>
        <time>2015-08-02T12:56:36Z</time>
      </trkpt>
      <trkpt lat="40.332883" lon="-4.683617">
        <ele>2212.0</ele>
        <time>2015-08-02T12:56:38Z</time>
      </trkpt>
      <trkpt lat="40.332817" lon="-4.683467">
        <ele>2212.0</ele>
        <time>2015-08-02T12:56:40Z</time>
      </trkpt>
      <trkpt lat="40.332717" lon="-4.683383">
        <ele>2214.0</ele>
        <time>2015-08-02T12:56:42Z</time>
      </trkpt>
      <trkpt lat="40.332617" lon="-4.683400">
        <ele>2216.0</ele>
        <time>2015-08-02T12:56:44Z</time>
      </trkpt>
      <trkpt lat="40.332533" lon="-4.683417">
        <ele>2220.0</ele>
        <time>2015-08-02T12:56:46Z</time>
      </trkpt>
      <trkpt lat="40.332467" lon="-4.683467">
        <ele>2223.0</ele>
        <time>2015-08-02T12:56:48Z</time>
      </trkpt>
      <trkpt lat="40.332467" lon="-4.683617">
        <ele>2223.0</ele>
        <time>2015-08-02T12:56:50Z</time>
      </trkpt>
      <trkpt lat="40.332517" lon="-4.683867">
        <ele>2226.0</ele>
        <time>2015-08-02T12:56:52Z</time>
      </trkpt>
      <trkpt lat="40.332567" lon="-4.684017">
        <ele>2232.0</ele>
        <time>2015-08-02T12:56:54Z</time>
      </trkpt>
      <trkpt lat="40.332617" lon="-4.684167">
        <ele>2232.0</ele>
        <time>2015-08-02T12:56:56Z</time>
      </trkpt>
      <trkpt lat="40.332733" lon="-4.684333">
        <ele>2231.0</ele>
        <time>2015-08-02T12:56:58Z</time>
      </trkpt>
      <trkpt lat="40.332933" lon="-4.684433">
        <ele>2233.0</ele>
        <time>2015-08-02T12:57:00Z</time>
      </trkpt>
      <trkpt lat="40.333117" lon="-4.684500">
        <ele>2234.0</ele>
        <time>2015-08-02T12:57:02Z</time>
      </trkpt>
      <trkpt lat="40.333367" lon="-4.684500">
        <ele>2234.0</ele>
        <time>2015-08-02T12:57:04Z</time>
      </trkpt>
      <trkpt lat="40.333633" lon="-4.684400">
        <ele>2235.0</ele>
        <time>2015-08-02T12:57:06Z</time>
      </trkpt>
      <trkpt lat="40.333833" lon="-4.684200">
        <ele>2238.0</ele>
        <time>2015-08-02T12:57:08Z</time>
      </trkpt>
      <trkpt lat="40.333983" lon="-4.683917">
        <ele>2240.0</ele>
        <time>2015-08-02T12:57:10Z</time>
      </trkpt>
      <trkpt lat="40.334033" lon="-4.683617">
        <ele>2242.0</ele>
        <time>2015-08-02T12:57:12Z</time>
      </trkpt>
      <trkpt lat="40.333983" lon="-4.683383">
        <ele>2243.0</ele>
        <time>2015-08-02T12:57:14Z</time>
      </trkpt>
      <trkpt lat="40.333867" lon="-4.683250">
        <ele>2243.0</ele>
        <time>2015-08-02T12:57:16Z</time>
      </trkpt>
      <trkpt lat="40.333750" lon="-4.683233">
        <ele>2245.0</ele>
        <time>2015-08-02T12:57:18Z</time>
      </trkpt>
      <trkpt lat="40.333650" lon="-4.683217">
        <ele>2247.0</ele>
        <time>2015-08-02T12:57:20Z</time>
      </trkpt>
      <trkpt lat="40.333533" lon="-4.683183">
        <ele>2248.0</ele>
        <time>2015-08-02T12:57:22Z</time>
      </trkpt>
      <trkpt lat="40.333417" lon="-4.683150">
        <ele>2251.0</ele>
        <time>2015-08-02T12:57:24Z</time>
      </trkpt>
      <trkpt lat="40.333317" lon="-4.683150">
        <ele>2253.0</ele>
        <time>2015-08-02T12:57:26Z</time>
      </trkpt>
      <trkpt lat="40.333200" lon="-4.683183">
        <ele>2255.0</ele>
        <time>2015-08-02T12:57:28Z</time>
      </trkpt>
      <trkpt lat="40.333083" lon="-4.683250">
        <ele>2262.0</ele>
        <time>2015-08-02T12:57:30Z</time>
      </trkpt>
      <trkpt lat="40.333033" lon="-4.683267">
        <ele>2270.0</ele>
        <time>2015-08-02T12:57:32Z</time>
      </trkpt>
      <trkpt lat="40.332933" lon="-4.683267">
        <ele>2272.0</ele>
        <time>2015-08-02T12:57:34Z</time>
      </trkpt>
      <trkpt lat="40.332833" lon="-4.683317">
        <ele>2274.0</ele>
        <time>2015-08-02T12:57:36Z</time>
      </trkpt>
      <trkpt lat="40.332750" lon="-4.683333">
        <ele>2277.0</ele>
        <time>2015-08-02T12:57:38Z</time>
      </trkpt>
      <trkpt lat="40.332633" lon="-4.683350">
        <ele>2278.0</ele>
        <time>2015-08-02T12:57:40Z</time>
      </trkpt>
      <trkpt lat="40.332500" lon="-4.683350">
        <ele>2278.0</ele>
        <time>2015-08-02T12:57:42Z</time>
      </trkpt>
      <trkpt lat="40.332350" lon="-4.683333">
        <ele>2278.0</ele>
        <time>2015-08-02T12:57:44Z</time>
      </trkpt>
      <trkpt lat="40.332217" lon="-4.683333">
        <ele>2277.0</ele>
        <time>2015-08-02T12:57:46Z</time>
      </trkpt>
      <trkpt lat="40.332067" lon="-4.683333">
        <ele>2276.0</ele>
        <time>2015-08-02T12:57:48Z</time>
      </trkpt>
      <trkpt lat="40.331917" lon="-4.683333">
        <ele>2276.0</ele>
        <time>2015-08-02T12:57:50Z</time>
      </trkpt>
      <trkpt lat="40.331800" lon="-4.683367">
        <ele>2276.0</ele>
        <time>2015-08-02T12:57:52Z</time>
      </trkpt>
      <trkpt lat="40.331667" lon="-4.683383">
        <ele>2274.0</ele>
        <time>2015-08-02T12:57:54Z</time>
      </trkpt>
      <trkpt lat="40.331533" lon="-4.683383">
        <ele>2275.0</ele>
        <time>2015-08-02T12:57:56Z</time>
      </trkpt>
      <trkpt lat="40.331417" lon="-4.683383">
        <ele>2276.0</ele>
        <time>2015-08-02T12:57:58Z</time>
      </trkpt>
      <trkpt lat="40.331300" lon="-4.683400">
        <ele>2275.0</ele>
        <time>2015-08-02T12:58:00Z</time>
      </trkpt>
      <trkpt lat="40.331167" lon="-4.683383">
        <ele>2274.0</ele>
        <time>2015-08-02T12:58:02Z</time>
      </trkpt>
      <trkpt lat="40.331050" lon="-4.683400">
        <ele>2274.0</ele>
        <time>2015-08-02T12:58:04Z</time>
      </trkpt>
      <trkpt lat="40.330917" lon="-4.683433">
        <ele>2272.0</ele>
        <time>2015-08-02T12:58:06Z</time>
      </trkpt>
      <trkpt lat="40.330783" lon="-4.683450">
        <ele>2270.0</ele>
        <time>2015-08-02T12:58:08Z</time>
      </trkpt>
      <trkpt lat="40.330633" lon="-4.683450">
        <ele>2267.0</ele>
        <time>2015-08-02T12:58:10Z</time>
      </trkpt>
      <trkpt lat="40.330500" lon="-4.683450">
        <ele>2266.0</ele>
        <time>2015-08-02T12:58:12Z</time>
      </trkpt>
      <trkpt lat="40.330350" lon="-4.683417">
        <ele>2264.0</ele>
        <time>2015-08-02T12:58:14Z</time>
      </trkpt>
      <trkpt lat="40.330183" lon="-4.683400">
        <ele>2263.0</ele>
        <time>2015-08-02T12:58:16Z</time>
      </trkpt>
      <trkpt lat="40.330033" lon="-4.683383">
        <ele>2262.0</ele>
        <time>2015-08-02T12:58:18Z</time>
      </trkpt>
      <trkpt lat="40.329883" lon="-4.683367">
        <ele>2258.0</ele>
        <time>2015-08-02T12:58:20Z</time>
      </trkpt>
      <trkpt lat="40.329733" lon="-4.683367">
        <ele>2250.0</ele>
        <time>2015-08-02T12:58:22Z</time>
      </trkpt>
      <trkpt lat="40.329550" lon="-4.683350">
        <ele>2246.0</ele>
        <time>2015-08-02T12:58:24Z</time>
      </trkpt>
      <trkpt lat="40.329417" lon="-4.683317">
        <ele>2242.0</ele>
        <time>2015-08-02T12:58:26Z</time>
      </trkpt>
      <trkpt lat="40.329267" lon="-4.683267">
        <ele>2233.0</ele>
        <time>2015-08-02T12:58:28Z</time>
      </trkpt>
      <trkpt lat="40.329083" lon="-4.683233">
        <ele>2225.0</ele>
        <time>2015-08-02T12:58:30Z</time>
      </trkpt>
      <trkpt lat="40.328917" lon="-4.683200">
        <ele>2222.0</ele>
        <time>2015-08-02T12:58:32Z</time>
      </trkpt>
      <trkpt lat="40.328767" lon="-4.683217">
        <ele>2220.0</ele>
        <time>2015-08-02T12:58:34Z</time>
      </trkpt>
      <trkpt lat="40.328600" lon="-4.683233">
        <ele>2216.0</ele>
        <time>2015-08-02T12:58:36Z</time>
      </trkpt>
      <trkpt lat="40.328433" lon="-4.683200">
        <ele>2214.0</ele>
        <time>2015-08-02T12:58:38Z</time>
      </trkpt>
      <trkpt lat="40.328317" lon="-4.683200">
        <ele>2211.0</ele>
        <time>2015-08-02T12:58:40Z</time>
      </trkpt>
      <trkpt lat="40.328183" lon="-4.683233">
        <ele>2204.0</ele>
        <time>2015-08-02T12:58:42Z</time>
      </trkpt>
      <trkpt lat="40.328033" lon="-4.683267">
        <ele>2196.0</ele>
        <time>2015-08-02T12:58:44Z</time>
      </trkpt>
      <trkpt lat="40.327883" lon="-4.683300">
        <ele>2189.0</ele>
        <time>2015-08-02T12:58:46Z</time>
      </trkpt>
      <trkpt lat="40.327717" lon="-4.683317">
        <ele>2183.0</ele>
        <time>2015-08-02T12:58:48Z</time>
      </trkpt>
      <trkpt lat="40.327567" lon="-4.683283">
        <ele>2178.0</ele>
        <time>2015-08-02T12:58:50Z</time>
      </trkpt>
      <trkpt lat="40.327433" lon="-4.683283">
        <ele>2173.0</ele>
        <time>2015-08-02T12:58:52Z</time>
      </trkpt>
      <trkpt lat="40.327300" lon="-4.683283">
        <ele>2164.0</ele>
        <time>2015-08-02T12:58:54Z</time>
      </trkpt>
      <trkpt lat="40.327117" lon="-4.683267">
        <ele>2157.0</ele>
        <time>2015-08-02T12:58:56Z</time>
      </trkpt>
      <trkpt lat="40.326967" lon="-4.683233">
        <ele>2155.0</ele>
        <time>2015-08-02T12:58:58Z</time>
      </trkpt>
      <trkpt lat="40.326833" lon="-4.683200">
        <ele>2150.0</ele>
        <time>2015-08-02T12:59:00Z</time>
      </trkpt>
      <trkpt lat="40.326667" lon="-4.683133">
        <ele>2144.0</ele>
        <time>2015-08-02T12:59:02Z</time>
      </trkpt>
      <trkpt lat="40.326500" lon="-4.683100">
        <ele>2141.0</ele>
        <time>2015-08-02T12:59:04Z</time>
      </trkpt>
      <trkpt lat="40.326383" lon="-4.683083">
        <ele>2138.0</ele>
        <time>2015-08-02T12:59:06Z</time>
      </trkpt>
      <trkpt lat="40.326250" lon="-4.683033">
        <ele>2132.0</ele>
        <time>2015-08-02T12:59:08Z</time>
      </trkpt>
      <trkpt lat="40.326117" lon="-4.683000">
        <ele>2126.0</ele>
        <time>2015-08-02T12:59:10Z</time>
      </trkpt>
      <trkpt lat="40.325967" lon="-4.682983">
        <ele>2120.0</ele>
        <time>2015-08-02T12:59:12Z</time>
      </trkpt>
      <trkpt lat="40.325817" lon="-4.682950">
        <ele>2115.0</ele>
        <time>2015-08-02T12:59:14Z</time>
      </trkpt>
      <trkpt lat="40.325683" lon="-4.682950">
        <ele>2110.0</ele>
        <time>2015-08-02T12:59:16Z</time>
      </trkpt>
      <trkpt lat="40.325533" lon="-4.682967">
        <ele>2106.0</ele>
        <time>2015-08-02T12:59:18Z</time>
      </trkpt>
      <trkpt lat="40.325400" lon="-4.682967">
        <ele>2103.0</ele>
        <time>2015-08-02T12:59:20Z</time>
      </trkpt>
      <trkpt lat="40.325267" lon="-4.682983">
        <ele>2100.0</ele>
        <time>2015-08-02T12:59:22Z</time>
      </trkpt>
      <trkpt lat="40.325150" lon="-4.683017">
        <ele>2097.0</ele>
        <time>2015-08-02T12:59:24Z</time>
      </trkpt>
      <trkpt lat="40.325033" lon="-4.683050">
        <ele>2095.0</ele>
        <time>2015-08-02T12:59:26Z</time>
      </trkpt>
      <trkpt lat="40.324917" lon="-4.683067">
        <ele>2092.0</ele>
        <time>2015-08-02T12:59:28Z</time>
      </trkpt>
      <trkpt lat="40.324817" lon="-4.683100">
        <ele>2088.0</ele>
        <time>2015-08-02T12:59:30Z</time>
      </trkpt>
      <trkpt lat="40.324717" lon="-4.683133">
        <ele>2085.0</ele>
        <time>2015-08-02T12:59:32Z</time>
      </trkpt>
      <trkpt lat="40.324600" lon="-4.683133">
        <ele>2082.0</ele>
        <time>2015-08-02T12:59:34Z</time>
      </trkpt>
      <trkpt lat="40.324483" lon="-4.683150">
        <ele>2079.0</ele>
        <time>2015-08-02T12:59:36Z</time>
      </trkpt>
      <trkpt lat="40.324367" lon="-4.683167">
        <ele>2075.0</ele>
        <time>2015-08-02T12:59:38Z</time>
      </trkpt>
      <trkpt lat="40.324250" lon="-4.683183">
        <ele>2071.0</ele>
        <time>2015-08-02T12:59:40Z</time>
      </trkpt>
      <trkpt lat="40.324133" lon="-4.683217">
        <ele>2067.0</ele>
        <time>2015-08-02T12:59:42Z</time>
      </trkpt>
      <trkpt lat="40.324017" lon="-4.683233">
        <ele>2064.0</ele>
        <time>2015-08-02T12:59:44Z</time>
      </trkpt>
      <trkpt lat="40.323900" lon="-4.683250">
        <ele>2061.0</ele>
        <time>2015-08-02T12:59:46Z</time>
      </trkpt>
      <trkpt lat="40.323783" lon="-4.683267">
        <ele>2057.0</ele>
        <time>2015-08-02T12:59:48Z</time>
      </trkpt>
      <trkpt lat="40.323667" lon="-4.683267">
        <ele>2055.0</ele>
        <time>2015-08-02T12:59:50Z</time>
      </trkpt>
      <trkpt lat="40.323550" lon="-4.683283">
        <ele>2052.0</ele>
        <time>2015-08-02T12:59:52Z</time>
      </trkpt>
      <trkpt lat="40.323433" lon="-4.683317">
        <ele>2048.0</ele>
        <time>2015-08-02T12:59:54Z</time>
      </trkpt>
      <trkpt lat="40.323317" lon="-4.683383">
        <ele>2045.0</ele>
        <time>2015-08-02T12:59:56Z</time>
      </trkpt>
      <trkpt lat="40.323217" lon="-4.683450">
        <ele>2043.0</ele>
        <time>2015-08-02T12:59:58Z</time>
      </trkpt>
      <trkpt lat="40.323100" lon="-4.683500">
        <ele>2039.0</ele>
        <time>2015-08-02T13:00:00Z</time>
      </trkpt>
      <trkpt lat="40.322983" lon="-4.683567">
        <ele>2035.0</ele>
        <time>2015-08-02T13:00:02Z</time>
      </trkpt>
      <trkpt lat="40.322867" lon="-4.683633">
        <ele>2033.0</ele>
        <time>2015-08-02T13:00:04Z</time>
      </trkpt>
      <trkpt lat="40.322750" lon="-4.683667">
        <ele>2029.0</ele>
        <time>2015-08-02T13:00:06Z</time>
      </trkpt>
      <trkpt lat="40.322633" lon="-4.683700">
        <ele>2025.0</ele>
        <time>2015-08-02T13:00:08Z</time>
      </trkpt>
      <trkpt lat="40.322500" lon="-4.683717">
        <ele>2021.0</ele>
        <time>2015-08-02T13:00:10Z</time>
      </trkpt>
      <trkpt lat="40.322383" lon="-4.683717">
        <ele>2017.0</ele>
        <time>2015-08-02T13:00:12Z</time>
      </trkpt>
      <trkpt lat="40.322250" lon="-4.683733">
        <ele>2012.0</ele>
        <time>2015-08-02T13:00:14Z</time>
      </trkpt>
      <trkpt lat="40.322117" lon="-4.683733">
        <ele>2008.0</ele>
        <time>2015-08-02T13:00:16Z</time>
      </trkpt>
      <trkpt lat="40.322000" lon="-4.683717">
        <ele>2004.0</ele>
        <time>2015-08-02T13:00:18Z</time>
      </trkpt>
      <trkpt lat="40.321900" lon="-4.683717">
        <ele>1999.0</ele>
        <time>2015-08-02T13:00:20Z</time>
      </trkpt>
      <trkpt lat="40.321767" lon="-4.683767">
        <ele>1994.0</ele>
        <time>2015-08-02T13:00:22Z</time>
      </trkpt>
      <trkpt lat="40.321650" lon="-4.683783">
        <ele>1991.0</ele>
        <time>2015-08-02T13:00:24Z</time>
      </trkpt>
      <trkpt lat="40.321533" lon="-4.683817">
        <ele>1986.0</ele>
        <time>2015-08-02T13:00:26Z</time>
      </trkpt>
      <trkpt lat="40.321417" lon="-4.683850">
        <ele>1981.0</ele>
        <time>2015-08-02T13:00:28Z</time>
      </trkpt>
      <trkpt lat="40.321317" lon="-4.683900">
        <ele>1975.0</ele>
        <time>2015-08-02T13:00:30Z</time>
      </trkpt>
      <trkpt lat="40.321200" lon="-4.683950">
        <ele>1969.0</ele>
        <time>2015-08-02T13:00:32Z</time>
      </trkpt>
      <trkpt lat="40.321067" lon="-4.683983">
        <ele>1964.0</ele>
        <time>2015-08-02T13:00:34Z</time>
      </trkpt>
      <trkpt lat="40.320950" lon="-4.684017">
        <ele>1958.0</ele>
        <time>2015-08-02T13:00:36Z</time>
      </trkpt>
      <trkpt lat="40.320833" lon="-4.684033">
        <ele>1952.0</ele>
        <time>2015-08-02T13:00:38Z</time>
      </trkpt>
      <trkpt lat="40.320717" lon="-4.684033">
        <ele>1946.0</ele>
        <time>2015-08-02T13:00:40Z</time>
      </trkpt>
      <trkpt lat="40.320600" lon="-4.684050">
        <ele>1939.0</ele>
        <time>2015-08-02T13:00:42Z</time>
      </trkpt>
      <trkpt lat="40.320483" lon="-4.684050">
        <ele>1932.0</ele>
        <time>2015-08-02T13:00:44Z</time>
      </trkpt>
      <trkpt lat="40.320367" lon="-4.684050">
        <ele>1927.0</ele>
        <time>2015-08-02T13:00:46Z</time>
      </trkpt>
      <trkpt lat="40.320267" lon="-4.684083">
        <ele>1920.0</ele>
        <time>2015-08-02T13:00:48Z</time>
      </trkpt>
      <trkpt lat="40.320150" lon="-4.684083">
        <ele>1912.0</ele>
        <time>2015-08-02T13:00:50Z</time>
      </trkpt>
      <trkpt lat="40.320017" lon="-4.684083">
        <ele>1907.0</ele>
        <time>2015-08-02T13:00:52Z</time>
      </trkpt>
      <trkpt lat="40.319917" lon="-4.684133">
        <ele>1901.0</ele>
        <time>2015-08-02T13:00:54Z</time>
      </trkpt>
      <trkpt lat="40.319817" lon="-4.684167">
        <ele>1895.0</ele>
        <time>2015-08-02T13:00:56Z</time>
      </trkpt>
      <trkpt lat="40.319700" lon="-4.684233">
        <ele>1890.0</ele>
        <time>2015-08-02T13:00:58Z</time>
      </trkpt>
      <trkpt lat="40.319600" lon="-4.684267">
        <ele>1887.0</ele>
        <time>2015-08-02T13:01:00Z</time>
      </trkpt>
      <trkpt lat="40.319517" lon="-4.684300">
        <ele>1883.0</ele>
        <time>2015-08-02T13:01:02Z</time>
      </trkpt>
      <trkpt lat="40.319417" lon="-4.684350">
        <ele>1877.0</ele>
        <time>2015-08-02T13:01:04Z</time>
      </trkpt>
      <trkpt lat="40.319333" lon="-4.684433">
        <ele>1872.0</ele>
        <time>2015-08-02T13:01:06Z</time>
      </trkpt>
      <trkpt lat="40.319250" lon="-4.684500">
        <ele>1866.0</ele>
        <time>2015-08-02T13:01:08Z</time>
      </trkpt>
      <trkpt lat="40.319150" lon="-4.684567">
        <ele>1860.0</ele>
        <time>2015-08-02T13:01:10Z</time>
      </trkpt>
      <trkpt lat="40.319033" lon="-4.684650">
        <ele>1857.0</ele>
        <time>2015-08-02T13:01:12Z</time>
      </trkpt>
      <trkpt lat="40.318950" lon="-4.684717">
        <ele>1856.0</ele>
        <time>2015-08-02T13:01:14Z</time>
      </trkpt>
      <trkpt lat="40.318850" lon="-4.684783">
        <ele>1853.0</ele>
        <time>2015-08-02T13:01:16Z</time>
      </trkpt>
      <trkpt lat="40.318750" lon="-4.684883">
        <ele>1850.0</ele>
        <time>2015-08-02T13:01:18Z</time>
      </trkpt>
      <trkpt lat="40.318667" lon="-4.684983">
        <ele>1849.0</ele>
        <time>2015-08-02T13:01:20Z</time>
      </trkpt>
      <trkpt lat="40.318583" lon="-4.685050">
        <ele>1848.0</ele>
        <time>2015-08-02T13:01:22Z</time>
      </trkpt>
      <trkpt lat="40.318483" lon="-4.685100">
        <ele>1845.0</ele>
        <time>2015-08-02T13:01:24Z</time>
      </trkpt>
      <trkpt lat="40.318383" lon="-4.685167">
        <ele>1842.0</ele>
        <time>2015-08-02T13:01:26Z</time>
      </trkpt>
      <trkpt lat="40.318300" lon="-4.685217">
        <ele>1841.0</ele>
        <time>2015-08-02T13:01:28Z</time>
      </trkpt>
      <trkpt lat="40.318217" lon="-4.685267">
        <ele>1838.0</ele>
        <time>2015-08-02T13:01:30Z</time>
      </trkpt>
      <trkpt lat="40.318133" lon="-4.685367">
        <ele>1834.0</ele>
        <time>2015-08-02T13:01:32Z</time>
      </trkpt>
      <trkpt lat="40.318033" lon="-4.685450">
        <ele>1833.0</ele>
        <time>2015-08-02T13:01:34Z</time>
      </trkpt>
      <trkpt lat="40.317950" lon="-4.685533">
        <ele>1831.0</ele>
        <time>2015-08-02T13:01:36Z</time>
      </trkpt>
      <trkpt lat="40.317867" lon="-4.685633">
        <ele>1828.0</ele>
        <time>2015-08-02T13:01:38Z</time>
      </trkpt>
      <trkpt lat="40.317767" lon="-4.685733">
        <ele>1828.0</ele>
        <time>2015-08-02T13:01:40Z</time>
      </trkpt>
      <trkpt lat="40.317683" lon="-4.685817">
        <ele>1825.0</ele>
        <time>2015-08-02T13:01:42Z</time>
      </trkpt>
      <trkpt lat="40.317583" lon="-4.685917">
        <ele>1822.0</ele>
        <time>2015-08-02T13:01:44Z</time>
      </trkpt>
      <trkpt lat="40.317483" lon="-4.686000">
        <ele>1820.0</ele>
        <time>2015-08-02T13:01:46Z</time>
      </trkpt>
      <trkpt lat="40.317383" lon="-4.686067">
        <ele>1816.0</ele>
        <time>2015-08-02T13:01:48Z</time>
      </trkpt>
      <trkpt lat="40.317283" lon="-4.686167">
        <ele>1811.0</ele>
        <time>2015-08-02T13:01:50Z</time>
      </trkpt>
      <trkpt lat="40.317183" lon="-4.686267">
        <ele>1806.0</ele>
        <time>2015-08-02T13:01:52Z</time>
      </trkpt>
      <trkpt lat="40.317100" lon="-4.686383">
        <ele>1802.0</ele>
        <time>2015-08-02T13:01:54Z</time>
      </trkpt>
      <trkpt lat="40.317000" lon="-4.686483">
        <ele>1799.0</ele>
        <time>2015-08-02T13:01:56Z</time>
      </trkpt>
      <trkpt lat="40.316900" lon="-4.686550">
        <ele>1793.0</ele>
        <time>2015-08-02T13:01:58Z</time>
      </trkpt>
      <trkpt lat="40.316783" lon="-4.686633">
        <ele>1788.0</ele>
        <time>2015-08-02T13:02:00Z</time>
      </trkpt>
      <trkpt lat="40.316683" lon="-4.686700">
        <ele>1783.0</ele>
        <time>2015-08-02T13:02:02Z</time>
      </trkpt>
      <trkpt lat="40.316583" lon="-4.686767">
        <ele>1778.0</ele>
        <time>2015-08-02T13:02:04Z</time>
      </trkpt>
      <trkpt lat="40.316467" lon="-4.686833">
        <ele>1773.0</ele>
        <time>2015-08-02T13:02:06Z</time>
      </trkpt>
      <trkpt lat="40.316367" lon="-4.686883">
        <ele>1768.0</ele>
        <time>2015-08-02T13:02:08Z</time>
      </trkpt>
      <trkpt lat="40.316267" lon="-4.686967">
        <ele>1762.0</ele>
        <time>2015-08-02T13:02:10Z</time>
      </trkpt>
      <trkpt lat="40.316183" lon="-4.687050">
        <ele>1755.0</ele>
        <time>2015-08-02T13:02:12Z</time>
      </trkpt>
      <trkpt lat="40.316067" lon="-4.687150">
        <ele>1749.0</ele>
        <time>2015-08-02T13:02:14Z</time>
      </trkpt>
      <trkpt lat="40.315983" lon="-4.687250">
        <ele>1744.0</ele>
        <time>2015-08-02T13:02:16Z</time>
      </trkpt>
      <trkpt lat="40.315883" lon="-4.687367">
        <ele>1739.0</ele>
        <time>2015-08-02T13:02:18Z</time>
      </trkpt>
      <trkpt lat="40.315783" lon="-4.687500">
        <ele>1735.0</ele>
        <time>2015-08-02T13:02:20Z</time>
      </trkpt>
      <trkpt lat="40.315667" lon="-4.687617">
        <ele>1732.0</ele>
        <time>2015-08-02T13:02:22Z</time>
      </trkpt>
      <trkpt lat="40.315567" lon="-4.687750">
        <ele>1729.0</ele>
        <time>2015-08-02T13:02:24Z</time>
      </trkpt>
      <trkpt lat="40.315450" lon="-4.687850">
        <ele>1725.0</ele>
        <time>2015-08-02T13:02:26Z</time>
      </trkpt>
      <trkpt lat="40.315300" lon="-4.687933">
        <ele>1722.0</ele>
        <time>2015-08-02T13:02:28Z</time>
      </trkpt>
      <trkpt lat="40.315167" lon="-4.688033">
        <ele>1718.0</ele>
        <time>2015-08-02T13:02:30Z</time>
      </trkpt>
      <trkpt lat="40.315033" lon="-4.688133">
        <ele>1715.0</ele>
        <time>2015-08-02T13:02:32Z</time>
      </trkpt>
      <trkpt lat="40.314867" lon="-4.688217">
        <ele>1713.0</ele>
        <time>2015-08-02T13:02:34Z</time>
      </trkpt>
      <trkpt lat="40.314717" lon="-4.688300">
        <ele>1712.0</ele>
        <time>2015-08-02T13:02:36Z</time>
      </trkpt>
      <trkpt lat="40.314567" lon="-4.688367">
        <ele>1711.0</ele>
        <time>2015-08-02T13:02:38Z</time>
      </trkpt>
      <trkpt lat="40.314417" lon="-4.688450">
        <ele>1710.0</ele>
        <time>2015-08-02T13:02:40Z</time>
      </trkpt>
      <trkpt lat="40.314267" lon="-4.688550">
        <ele>1709.0</ele>
        <time>2015-08-02T13:02:42Z</time>
      </trkpt>
      <trkpt lat="40.314133" lon="-4.688650">
        <ele>1709.0</ele>
        <time>2015-08-02T13:02:44Z</time>
      </trkpt>
      <trkpt lat="40.314000" lon="-4.688733">
        <ele>1710.0</ele>
        <time>2015-08-02T13:02:46Z</time>
      </trkpt>
      <trkpt lat="40.313867" lon="-4.688783">
        <ele>1710.0</ele>
        <time>2015-08-02T13:02:48Z</time>
      </trkpt>
      <trkpt lat="40.313717" lon="-4.688833">
        <ele>1709.0</ele>
        <time>2015-08-02T13:02:50Z</time>
      </trkpt>
      <trkpt lat="40.313600" lon="-4.688883">
        <ele>1711.0</ele>
        <time>2015-08-02T13:02:52Z</time>
      </trkpt>
      <trkpt lat="40.313483" lon="-4.688983">
        <ele>1712.0</ele>
        <time>2015-08-02T13:02:54Z</time>
      </trkpt>
      <trkpt lat="40.313400" lon="-4.689100">
        <ele>1713.0</ele>
        <time>2015-08-02T13:02:56Z</time>
      </trkpt>
      <trkpt lat="40.313333" lon="-4.689267">
        <ele>1712.0</ele>
        <time>2015-08-02T13:02:58Z</time>
      </trkpt>
      <trkpt lat="40.313283" lon="-4.689450">
        <ele>1712.0</ele>
        <time>2015-08-02T13:03:00Z</time>
      </trkpt>
      <trkpt lat="40.313217" lon="-4.689633">
        <ele>1714.0</ele>
        <time>2015-08-02T13:03:02Z</time>
      </trkpt>
      <trkpt lat="40.313100" lon="-4.689717">
        <ele>1714.0</ele>
        <time>2015-08-02T13:03:04Z</time>
      </trkpt>
      <trkpt lat="40.312967" lon="-4.689783">
        <ele>1715.0</ele>
        <time>2015-08-02T13:03:06Z</time>
      </trkpt>
      <trkpt lat="40.312833" lon="-4.689850">
        <ele>1717.0</ele>
        <time>2015-08-02T13:03:08Z</time>
      </trkpt>
      <trkpt lat="40.312733" lon="-4.689933">
        <ele>1719.0</ele>
        <time>2015-08-02T13:03:10Z</time>
      </trkpt>
      <trkpt lat="40.312683" lon="-4.690083">
        <ele>1719.0</ele>
        <time>2015-08-02T13:03:12Z</time>
      </trkpt>
      <trkpt lat="40.312717" lon="-4.690300">
        <ele>1717.0</ele>
        <time>2015-08-02T13:03:14Z</time>
      </trkpt>
      <trkpt lat="40.312817" lon="-4.690500">
        <ele>1716.0</ele>
        <time>2015-08-02T13:03:16Z</time>
      </trkpt>
      <trkpt lat="40.312967" lon="-4.690667">
        <ele>1716.0</ele>
        <time>2015-08-02T13:03:18Z</time>
      </trkpt>
      <trkpt lat="40.313117" lon="-4.690750">
        <ele>1716.0</ele>
        <time>2015-08-02T13:03:20Z</time>
      </trkpt>
      <trkpt lat="40.313317" lon="-4.690767">
        <ele>1714.0</ele>
        <time>2015-08-02T13:03:22Z</time>
      </trkpt>
      <trkpt lat="40.313500" lon="-4.690633">
        <ele>1711.0</ele>
        <time>2015-08-02T13:03:24Z</time>
      </trkpt>
      <trkpt lat="40.313617" lon="-4.690400">
        <ele>1712.0</ele>
        <time>2015-08-02T13:03:26Z</time>
      </trkpt>
      <trkpt lat="40.313617" lon="-4.690133">
        <ele>1715.0</ele>
        <time>2015-08-02T13:03:28Z</time>
      </trkpt>
      <trkpt lat="40.313567" lon="-4.689983">
        <ele>1718.0</ele>
        <time>2015-08-02T13:03:30Z</time>
      </trkpt>
      <trkpt lat="40.313483" lon="-4.689883">
        <ele>1716.0</ele>
        <time>2015-08-02T13:03:32Z</time>
      </trkpt>
      <trkpt lat="40.313350" lon="-4.689800">
        <ele>1712.0</ele>
        <time>2015-08-02T13:03:34Z</time>
      </trkpt>
      <trkpt lat="40.313183" lon="-4.689817">
        <ele>1710.0</ele>
        <time>2015-08-02T13:03:36Z</time>
      </trkpt>
      <trkpt lat="40.313017" lon="-4.689883">
        <ele>1711.0</ele>
        <time>2015-08-02T13:03:38Z</time>
      </trkpt>
      <trkpt lat="40.312883" lon="-4.690000">
        <ele>1716.0</ele>
        <time>2015-08-02T13:03:40Z</time>
      </trkpt>
      <trkpt lat="40.312783" lon="-4.690133">
        <ele>1719.0</ele>
        <time>2015-08-02T13:03:42Z</time>
      </trkpt>
      <trkpt lat="40.312667" lon="-4.690300">
        <ele>1722.0</ele>
        <time>2015-08-02T13:03:44Z</time>
      </trkpt>
      <trkpt lat="40.312567" lon="-4.690450">
        <ele>1727.0</ele>
        <time>2015-08-02T13:03:46Z</time>
      </trkpt>
      <trkpt lat="40.312483" lon="-4.690583">
        <ele>1730.0</ele>
        <time>2015-08-02T13:03:48Z</time>
      </trkpt>
      <trkpt lat="40.312467" lon="-4.690800">
        <ele>1732.0</ele>
        <time>2015-08-02T13:03:50Z</time>
      </trkpt>
      <trkpt lat="40.312517" lon="-4.691067">
        <ele>1734.0</ele>
        <time>2015-08-02T13:03:52Z</time>
      </trkpt>
      <trkpt lat="40.312650" lon="-4.691267">
        <ele>1735.0</ele>
        <time>2015-08-02T13:03:54Z</time>
      </trkpt>
      <trkpt lat="40.312850" lon="-4.691350">
        <ele>1738.0</ele>
        <time>2015-08-02T13:03:56Z</time>
      </trkpt>
      <trkpt lat="40.313050" lon="-4.691333">
        <ele>1743.0</ele>
        <time>2015-08-02T13:03:58Z</time>
      </trkpt>
      <trkpt lat="40.313217" lon="-4.691200">
        <ele>1743.0</ele>
        <time>2015-08-02T13:04:00Z</time>
      </trkpt>
      <trkpt lat="40.313267" lon="-4.691000">
        <ele>1741.0</ele>
        <time>2015-08-02T13:04:02Z</time>
      </trkpt>
      <trkpt lat="40.313200" lon="-4.690800">
        <ele>1739.0</ele>
        <time>2015-08-02T13:04:04Z</time>
      </trkpt>
      <trkpt lat="40.313067" lon="-4.690667">
        <ele>1743.0</ele>
        <time>2015-08-02T13:04:06Z</time>
      </trkpt>
      <trkpt lat="40.312967" lon="-4.690633">
        <ele>1747.0</ele>
        <time>2015-08-02T13:04:08Z</time>
      </trkpt>
      <trkpt lat="40.312883" lon="-4.690650">
        <ele>1746.0</ele>
        <time>2015-08-02T13:04:10Z</time>
      </trkpt>
      <trkpt lat="40.312767" lon="-4.690683">
        <ele>1743.0</ele>
        <time>2015-08-02T13:04:12Z</time>
      </trkpt>
      <trkpt lat="40.312683" lon="-4.690800">
        <ele>1734.0</ele>
        <time>2015-08-02T13:04:14Z</time>
      </trkpt>
      <trkpt lat="40.312583" lon="-4.691033">
        <ele>1725.0</ele>
        <time>2015-08-02T13:04:16Z</time>
      </trkpt>
      <trkpt lat="40.312450" lon="-4.691183">
        <ele>1726.0</ele>
        <time>2015-08-02T13:04:18Z</time>
      </trkpt>
      <trkpt lat="40.312350" lon="-4.691150">
        <ele>1723.0</ele>
        <time>2015-08-02T13:04:20Z</time>
      </trkpt>
      <trkpt lat="40.312233" lon="-4.691150">
        <ele>1716.0</ele>
        <time>2015-08-02T13:04:22Z</time>
      </trkpt>
      <trkpt lat="40.312133" lon="-4.691200">
        <ele>1709.0</ele>
        <time>2015-08-02T13:04:24Z</time>
      </trkpt>
      <trkpt lat="40.312067" lon="-4.691300">
        <ele>1705.0</ele>
        <time>2015-08-02T13:04:26Z</time>
      </trkpt>
      <trkpt lat="40.312033" lon="-4.691450">
        <ele>1701.0</ele>
        <time>2015-08-02T13:04:28Z</time>
      </trkpt>
      <trkpt lat="40.312033" lon="-4.691633">
        <ele>1695.0</ele>
        <time>2015-08-02T13:04:30Z</time>
      </trkpt>
      <trkpt lat="40.312017" lon="-4.691817">
        <ele>1691.0</ele>
        <time>2015-08-02T13:04:32Z</time>
      </trkpt>
      <trkpt lat="40.311933" lon="-4.691917">
        <ele>1686.0</ele>
        <time>2015-08-02T13:04:34Z</time>
      </trkpt>
      <trkpt lat="40.311833" lon="-4.691967">
        <ele>1680.0</ele>
        <time>2015-08-02T13:04:36Z</time>
      </trkpt>
      <trkpt lat="40.311717" lon="-4.691917">
        <ele>1673.0</ele>
        <time>2015-08-02T13:04:38Z</time>
      </trkpt>
      <trkpt lat="40.311617" lon="-4.691800">
        <ele>1667.0</ele>
        <time>2015-08-02T13:04:40Z</time>
      </trkpt>
      <trkpt lat="40.311517" lon="-4.691683">
        <ele>1661.0</ele>
        <time>2015-08-02T13:04:42Z</time>
      </trkpt>
      <trkpt lat="40.311400" lon="-4.691567">
        <ele>1655.0</ele>
        <time>2015-08-02T13:04:44Z</time>
      </trkpt>
      <trkpt lat="40.311300" lon="-4.691467">
        <ele>1650.0</ele>
        <time>2015-08-02T13:04:46Z</time>
      </trkpt>
      <trkpt lat="40.311167" lon="-4.691350">
        <ele>1646.0</ele>
        <time>2015-08-02T13:04:48Z</time>
      </trkpt>
      <trkpt lat="40.311100" lon="-4.691283">
        <ele>1647.0</ele>
        <time>2015-08-02T13:04:50Z</time>
      </trkpt>
      <trkpt lat="40.311033" lon="-4.691183">
        <ele>1643.0</ele>
        <time>2015-08-02T13:04:52Z</time>
      </trkpt>
      <trkpt lat="40.310950" lon="-4.691050">
        <ele>1639.0</ele>
        <time>2015-08-02T13:04:54Z</time>
      </trkpt>
      <trkpt lat="40.310883" lon="-4.690950">
        <ele>1638.0</ele>
        <time>2015-08-02T13:04:56Z</time>
      </trkpt>
      <trkpt lat="40.310833" lon="-4.690817">
        <ele>1635.0</ele>
        <time>2015-08-02T13:04:58Z</time>
      </trkpt>
      <trkpt lat="40.310750" lon="-4.690683">
        <ele>1631.0</ele>
        <time>2015-08-02T13:05:00Z</time>
      </trkpt>
      <trkpt lat="40.310683" lon="-4.690550">
        <ele>1629.0</ele>
        <time>2015-08-02T13:05:02Z</time>
      </trkpt>
      <trkpt lat="40.310650" lon="-4.690367">
        <ele>1625.0</ele>
        <time>2015-08-02T13:05:04Z</time>
      </trkpt>
      <trkpt lat="40.310583" lon="-4.690200">
        <ele>1620.0</ele>
        <time>2015-08-02T13:05:06Z</time>
      </trkpt>
      <trkpt lat="40.310517" lon="-4.690067">
        <ele>1619.0</ele>
        <time>2015-08-02T13:05:08Z</time>
      </trkpt>
      <trkpt lat="40.310467" lon="-4.689917">
        <ele>1617.0</ele>
        <time>2015-08-02T13:05:10Z</time>
      </trkpt>
      <trkpt lat="40.310367" lon="-4.689750">
        <ele>1616.0</ele>
        <time>2015-08-02T13:05:12Z</time>
      </trkpt>
      <trkpt lat="40.310300" lon="-4.689600">
        <ele>1616.0</ele>
        <time>2015-08-02T13:05:14Z</time>
      </trkpt>
      <trkpt lat="40.310233" lon="-4.689450">
        <ele>1614.0</ele>
        <time>2015-08-02T13:05:16Z</time>
      </trkpt>
      <trkpt lat="40.310133" lon="-4.689300">
        <ele>1608.0</ele>
        <time>2015-08-02T13:05:18Z</time>
      </trkpt>
      <trkpt lat="40.310033" lon="-4.689133">
        <ele>1604.0</ele>
        <time>2015-08-02T13:05:20Z</time>
      </trkpt>
      <trkpt lat="40.309933" lon="-4.688967">
        <ele>1604.0</ele>
        <time>2015-08-02T13:05:22Z</time>
      </trkpt>
      <trkpt lat="40.309867" lon="-4.688817">
        <ele>1601.0</ele>
        <time>2015-08-02T13:05:24Z</time>
      </trkpt>
      <trkpt lat="40.309767" lon="-4.688733">
        <ele>1598.0</ele>
        <time>2015-08-02T13:05:26Z</time>
      </trkpt>
      <trkpt lat="40.309667" lon="-4.688633">
        <ele>1595.0</ele>
        <time>2015-08-02T13:05:28Z</time>
      </trkpt>
      <trkpt lat="40.309567" lon="-4.688550">
        <ele>1591.0</ele>
        <time>2015-08-02T13:05:30Z</time>
      </trkpt>
      <trkpt lat="40.309483" lon="-4.688483">
        <ele>1586.0</ele>
        <time>2015-08-02T13:05:32Z</time>
      </trkpt>
      <trkpt lat="40.309367" lon="-4.688350">
        <ele>1582.0</ele>
        <time>2015-08-02T13:05:34Z</time>
      </trkpt>
      <trkpt lat="40.309300" lon="-4.688183">
        <ele>1581.0</ele>
        <time>2015-08-02T13:05:36Z</time>
      </trkpt>
      <trkpt lat="40.309233" lon="-4.688033">
        <ele>1579.0</ele>
        <time>2015-08-02T13:05:38Z</time>
      </trkpt>
      <trkpt lat="40.309150" lon="-4.687867">
        <ele>1576.0</ele>
        <time>2015-08-02T13:05:40Z</time>
      </trkpt>
      <trkpt lat="40.309083" lon="-4.687633">
        <ele>1576.0</ele>
        <time>2015-08-02T13:05:42Z</time>
      </trkpt>
      <trkpt lat="40.309017" lon="-4.687433">
        <ele>1579.0</ele>
        <time>2015-08-02T13:05:44Z</time>
      </trkpt>
      <trkpt lat="40.308967" lon="-4.687267">
        <ele>1578.0</ele>
        <time>2015-08-02T13:05:46Z</time>
      </trkpt>
      <trkpt lat="40.308900" lon="-4.687083">
        <ele>1574.0</ele>
        <time>2015-08-02T13:05:48Z</time>
      </trkpt>
      <trkpt lat="40.308783" lon="-4.686950">
        <ele>1569.0</ele>
        <time>2015-08-02T13:05:50Z</time>
      </trkpt>
      <trkpt lat="40.308667" lon="-4.686833">
        <ele>1565.0</ele>
        <time>2015-08-02T13:05:52Z</time>
      </trkpt>
      <trkpt lat="40.308583" lon="-4.686733">
        <ele>1563.0</ele>
        <time>2015-08-02T13:05:54Z</time>
      </trkpt>
      <trkpt lat="40.308517" lon="-4.686600">
        <ele>1557.0</ele>
        <time>2015-08-02T13:05:56Z</time>
      </trkpt>
      <trkpt lat="40.308400" lon="-4.686467">
        <ele>1551.0</ele>
        <time>2015-08-02T13:05:58Z</time>
      </trkpt>
      <trkpt lat="40.308283" lon="-4.686350">
        <ele>1548.0</ele>
        <time>2015-08-02T13:06:00Z</time>
      </trkpt>
      <trkpt lat="40.308183" lon="-4.686233">
        <ele>1545.0</ele>
        <time>2015-08-02T13:06:02Z</time>
      </trkpt>
      <trkpt lat="40.308083" lon="-4.686083">
        <ele>1539.0</ele>
        <time>2015-08-02T13:06:04Z</time>
      </trkpt>
      <trkpt lat="40.307967" lon="-4.685933">
        <ele>1534.0</ele>
        <time>2015-08-02T13:06:06Z</time>
      </trkpt>
      <trkpt lat="40.307867" lon="-4.685783">
        <ele>1529.0</ele>
        <time>2015-08-02T13:06:08Z</time>
      </trkpt>
      <trkpt lat="40.307767" lon="-4.685633">
        <ele>1523.0</ele>
        <time>2015-08-02T13:06:10Z</time>
      </trkpt>
      <trkpt lat="40.307667" lon="-4.685500">
        <ele>1519.0</ele>
        <time>2015-08-02T13:06:12Z</time>
      </trkpt>
      <trkpt lat="40.307583" lon="-4.685383">
        <ele>1517.0</ele>
        <time>2015-08-02T13:06:14Z</time>
      </trkpt>
      <trkpt lat="40.307483" lon="-4.685317">
        <ele>1514.0</ele>
        <time>2015-08-02T13:06:16Z</time>
      </trkpt>
      <trkpt lat="40.307350" lon="-4.685233">
        <ele>1511.0</ele>
        <time>2015-08-02T13:06:18Z</time>
      </trkpt>
      <trkpt lat="40.307250" lon="-4.685133">
        <ele>1507.0</ele>
        <time>2015-08-02T13:06:20Z</time>
      </trkpt>
      <trkpt lat="40.307150" lon="-4.685033">
        <ele>1501.0</ele>
        <time>2015-08-02T13:06:22Z</time>
      </trkpt>
      <trkpt lat="40.307017" lon="-4.684933">
        <ele>1494.0</ele>
        <time>2015-08-02T13:06:24Z</time>
      </trkpt>
      <trkpt lat="40.306900" lon="-4.684833">
        <ele>1490.0</ele>
        <time>2015-08-02T13:06:26Z</time>
      </trkpt>
      <trkpt lat="40.306783" lon="-4.684717">
        <ele>1487.0</ele>
        <time>2015-08-02T13:06:28Z</time>
      </trkpt>
      <trkpt lat="40.306733" lon="-4.684667">
        <ele>1485.0</ele>
        <time>2015-08-02T13:06:29Z</time>
      </trkpt>
      <trkpt lat="40.306617" lon="-4.684550">
        <ele>1479.0</ele>
        <time>2015-08-02T13:06:31Z</time>
      </trkpt>
      <trkpt lat="40.306500" lon="-4.684417">
        <ele>1473.0</ele>
        <time>2015-08-02T13:06:33Z</time>
      </trkpt>
      <trkpt lat="40.306400" lon="-4.684267">
        <ele>1469.0</ele>
        <time>2015-08-02T13:06:35Z</time>
      </trkpt>
      <trkpt lat="40.306283" lon="-4.684133">
        <ele>1465.0</ele>
        <time>2015-08-02T13:06:37Z</time>
      </trkpt>
      <trkpt lat="40.306183" lon="-4.683950">
        <ele>1460.0</ele>
        <time>2015-08-02T13:06:39Z</time>
      </trkpt>
      <trkpt lat="40.306133" lon="-4.683733">
        <ele>1456.0</ele>
        <time>2015-08-02T13:06:41Z</time>
      </trkpt>
      <trkpt lat="40.306100" lon="-4.683500">
        <ele>1452.0</ele>
        <time>2015-08-02T13:06:43Z</time>
      </trkpt>
      <trkpt lat="40.306083" lon="-4.683250">
        <ele>1448.0</ele>
        <time>2015-08-02T13:06:45Z</time>
      </trkpt>
      <trkpt lat="40.306083" lon="-4.683017">
        <ele>1446.0</ele>
        <time>2015-08-02T13:06:47Z</time>
      </trkpt>
      <trkpt lat="40.306050" lon="-4.682817">
        <ele>1441.0</ele>
        <time>2015-08-02T13:06:49Z</time>
      </trkpt>
      <trkpt lat="40.306017" lon="-4.682600">
        <ele>1435.0</ele>
        <time>2015-08-02T13:06:51Z</time>
      </trkpt>
      <trkpt lat="40.306033" lon="-4.682350">
        <ele>1432.0</ele>
        <time>2015-08-02T13:06:53Z</time>
      </trkpt>
      <trkpt lat="40.306067" lon="-4.682100">
        <ele>1427.0</ele>
        <time>2015-08-02T13:06:55Z</time>
      </trkpt>
      <trkpt lat="40.306100" lon="-4.681817">
        <ele>1421.0</ele>
        <time>2015-08-02T13:06:57Z</time>
      </trkpt>
      <trkpt lat="40.306133" lon="-4.681533">
        <ele>1417.0</ele>
        <time>2015-08-02T13:06:59Z</time>
      </trkpt>
      <trkpt lat="40.306200" lon="-4.681250">
        <ele>1411.0</ele>
        <time>2015-08-02T13:07:01Z</time>
      </trkpt>
      <trkpt lat="40.306233" lon="-4.680967">
        <ele>1405.0</ele>
        <time>2015-08-02T13:07:03Z</time>
      </trkpt>
      <trkpt lat="40.306267" lon="-4.680683">
        <ele>1399.0</ele>
        <time>2015-08-02T13:07:05Z</time>
      </trkpt>
      <trkpt lat="40.306317" lon="-4.680367">
        <ele>1394.0</ele>
        <time>2015-08-02T13:07:07Z</time>
      </trkpt>
      <trkpt lat="40.306383" lon="-4.680067">
        <ele>1390.0</ele>
        <time>2015-08-02T13:07:09Z</time>
      </trkpt>
      <trkpt lat="40.306433" lon="-4.679750">
        <ele>1383.0</ele>
        <time>2015-08-02T13:07:11Z</time>
      </trkpt>
      <trkpt lat="40.306483" lon="-4.679433">
        <ele>1378.0</ele>
        <time>2015-08-02T13:07:13Z</time>
      </trkpt>
      <trkpt lat="40.306567" lon="-4.679133">
        <ele>1375.0</ele>
        <time>2015-08-02T13:07:15Z</time>
      </trkpt>
      <trkpt lat="40.306650" lon="-4.678850">
        <ele>1372.0</ele>
        <time>2015-08-02T13:07:17Z</time>
      </trkpt>
      <trkpt lat="40.306750" lon="-4.678533">
        <ele>1369.0</ele>
        <time>2015-08-02T13:07:19Z</time>
      </trkpt>
      <trkpt lat="40.306850" lon="-4.678233">
        <ele>1367.0</ele>
        <time>2015-08-02T13:07:21Z</time>
      </trkpt>
      <trkpt lat="40.306933" lon="-4.677917">
        <ele>1364.0</ele>
        <time>2015-08-02T13:07:23Z</time>
      </trkpt>
      <trkpt lat="40.307000" lon="-4.677617">
        <ele>1362.0</ele>
        <time>2015-08-02T13:07:25Z</time>
      </trkpt>
      <trkpt lat="40.307067" lon="-4.677283">
        <ele>1361.0</ele>
        <time>2015-08-02T13:07:27Z</time>
      </trkpt>
      <trkpt lat="40.307100" lon="-4.676950">
        <ele>1360.0</ele>
        <time>2015-08-02T13:07:29Z</time>
      </trkpt>
      <trkpt lat="40.307167" lon="-4.676617">
        <ele>1361.0</ele>
        <time>2015-08-02T13:07:31Z</time>
      </trkpt>
      <trkpt lat="40.307267" lon="-4.676267">
        <ele>1363.0</ele>
        <time>2015-08-02T13:07:33Z</time>
      </trkpt>
      <trkpt lat="40.307367" lon="-4.675967">
        <ele>1367.0</ele>
        <time>2015-08-02T13:07:35Z</time>
      </trkpt>
      <trkpt lat="40.307400" lon="-4.675700">
        <ele>1368.0</ele>
        <time>2015-08-02T13:07:37Z</time>
      </trkpt>
      <trkpt lat="40.307383" lon="-4.675467">
        <ele>1372.0</ele>
        <time>2015-08-02T13:07:39Z</time>
      </trkpt>
      <trkpt lat="40.307317" lon="-4.675333">
        <ele>1375.0</ele>
        <time>2015-08-02T13:07:41Z</time>
      </trkpt>
      <trkpt lat="40.307233" lon="-4.675333">
        <ele>1378.0</ele>
        <time>2015-08-02T13:07:43Z</time>
      </trkpt>
      <trkpt lat="40.307233" lon="-4.675467">
        <ele>1380.0</ele>
        <time>2015-08-02T13:07:45Z</time>
      </trkpt>
      <trkpt lat="40.307333" lon="-4.675667">
        <ele>1382.0</ele>
        <time>2015-08-02T13:07:47Z</time>
      </trkpt>
      <trkpt lat="40.307533" lon="-4.675800">
        <ele>1388.0</ele>
        <time>2015-08-02T13:07:49Z</time>
      </trkpt>
      <trkpt lat="40.307750" lon="-4.675783">
        <ele>1388.0</ele>
        <time>2015-08-02T13:07:51Z</time>
      </trkpt>
      <trkpt lat="40.308017" lon="-4.675700">
        <ele>1388.0</ele>
        <time>2015-08-02T13:07:53Z</time>
      </trkpt>
      <trkpt lat="40.308250" lon="-4.675483">
        <ele>1389.0</ele>
        <time>2015-08-02T13:07:55Z</time>
      </trkpt>
      <trkpt lat="40.308433" lon="-4.675200">
        <ele>1391.0</ele>
        <time>2015-08-02T13:07:57Z</time>
      </trkpt>
      <trkpt lat="40.308567" lon="-4.674917">
        <ele>1395.0</ele>
        <time>2015-08-02T13:07:59Z</time>
      </trkpt>
      <trkpt lat="40.308617" lon="-4.674633">
        <ele>1395.0</ele>
        <time>2015-08-02T13:08:01Z</time>
      </trkpt>
      <trkpt lat="40.308583" lon="-4.674383">
        <ele>1398.0</ele>
        <time>2015-08-02T13:08:03Z</time>
      </trkpt>
      <trkpt lat="40.308533" lon="-4.674233">
        <ele>1405.0</ele>
        <time>2015-08-02T13:08:05Z</time>
      </trkpt>
      <trkpt lat="40.308483" lon="-4.674133">
        <ele>1408.0</ele>
        <time>2015-08-02T13:08:07Z</time>
      </trkpt>
      <trkpt lat="40.308383" lon="-4.674133">
        <ele>1409.0</ele>
        <time>2015-08-02T13:08:09Z</time>
      </trkpt>
      <trkpt lat="40.308383" lon="-4.674283">
        <ele>1410.0</ele>
        <time>2015-08-02T13:08:11Z</time>
      </trkpt>
      <trkpt lat="40.308500" lon="-4.674450">
        <ele>1413.0</ele>
        <time>2015-08-02T13:08:13Z</time>
      </trkpt>
      <trkpt lat="40.308650" lon="-4.674600">
        <ele>1417.0</ele>
        <time>2015-08-02T13:08:15Z</time>
      </trkpt>
      <trkpt lat="40.308883" lon="-4.674617">
        <ele>1420.0</ele>
        <time>2015-08-02T13:08:17Z</time>
      </trkpt>
      <trkpt lat="40.309150" lon="-4.674500">
        <ele>1421.0</ele>
        <time>2015-08-02T13:08:19Z</time>
      </trkpt>
      <trkpt lat="40.309383" lon="-4.674283">
        <ele>1423.0</ele>
        <time>2015-08-02T13:08:21Z</time>
      </trkpt>
      <trkpt lat="40.309533" lon="-4.674017">
        <ele>1427.0</ele>
        <time>2015-08-02T13:08:23Z</time>
      </trkpt>
      <trkpt lat="40.309617" lon="-4.673733">
        <ele>1430.0</ele>
        <time>2015-08-02T13:08:25Z</time>
      </trkpt>
      <trkpt lat="40.309617" lon="-4.673517">
        <ele>1434.0</ele>
        <time>2015-08-02T13:08:27Z</time>
      </trkpt>
      <trkpt lat="40.309550" lon="-4.673383">
        <ele>1438.0</ele>
        <time>2015-08-02T13:08:29Z</time>
      </trkpt>
      <trkpt lat="40.309467" lon="-4.673350">
        <ele>1441.0</ele>
        <time>2015-08-02T13:08:31Z</time>
      </trkpt>
      <trkpt lat="40.309433" lon="-4.673433">
        <ele>1445.0</ele>
        <time>2015-08-02T13:08:33Z</time>
      </trkpt>
      <trkpt lat="40.309467" lon="-4.673600">
        <ele>1449.0</ele>
        <time>2015-08-02T13:08:35Z</time>
      </trkpt>
      <trkpt lat="40.309617" lon="-4.673750">
        <ele>1453.0</ele>
        <time>2015-08-02T13:08:37Z</time>
      </trkpt>
      <trkpt lat="40.309833" lon="-4.673800">
        <ele>1456.0</ele>
        <time>2015-08-02T13:08:39Z</time>
      </trkpt>
      <trkpt lat="40.310083" lon="-4.673750">
        <ele>1458.0</ele>
        <time>2015-08-02T13:08:41Z</time>
      </trkpt>
      <trkpt lat="40.310333" lon="-4.673583">
        <ele>1459.0</ele>
        <time>2015-08-02T13:08:43Z</time>
      </trkpt>
      <trkpt lat="40.310517" lon="-4.673317">
        <ele>1463.0</ele>
        <time>2015-08-02T13:08:45Z</time>
      </trkpt>
      <trkpt lat="40.310617" lon="-4.673017">
        <ele>1467.0</ele>
        <time>2015-08-02T13:08:47Z</time>
      </trkpt>
      <trkpt lat="40.310650" lon="-4.672733">
        <ele>1470.0</ele>
        <time>2015-08-02T13:08:49Z</time>
      </trkpt>
      <trkpt lat="40.310600" lon="-4.672483">
        <ele>1475.0</ele>
        <time>2015-08-02T13:08:51Z</time>
      </trkpt>
      <trkpt lat="40.310500" lon="-4.672367">
        <ele>1481.0</ele>
        <time>2015-08-02T13:08:53Z</time>
      </trkpt>
      <trkpt lat="40.310433" lon="-4.672350">
        <ele>1487.0</ele>
        <time>2015-08-02T13:08:55Z</time>
      </trkpt>
      <trkpt lat="40.310400" lon="-4.672417">
        <ele>1490.0</ele>
        <time>2015-08-02T13:08:57Z</time>
      </trkpt>
      <trkpt lat="40.310400" lon="-4.672567">
        <ele>1493.0</ele>
        <time>2015-08-02T13:08:59Z</time>
      </trkpt>
      <trkpt lat="40.310500" lon="-4.672733">
        <ele>1497.0</ele>
        <time>2015-08-02T13:09:01Z</time>
      </trkpt>
      <trkpt lat="40.310683" lon="-4.672850">
        <ele>1500.0</ele>
        <time>2015-08-02T13:09:03Z</time>
      </trkpt>
      <trkpt lat="40.310933" lon="-4.672850">
        <ele>1503.0</ele>
        <time>2015-08-02T13:09:05Z</time>
      </trkpt>
      <trkpt lat="40.311167" lon="-4.672683">
        <ele>1506.0</ele>
        <time>2015-08-02T13:09:07Z</time>
      </trkpt>
      <trkpt lat="40.311367" lon="-4.672450">
        <ele>1511.0</ele>
        <time>2015-08-02T13:09:09Z</time>
      </trkpt>
      <trkpt lat="40.311517" lon="-4.672167">
        <ele>1517.0</ele>
        <time>2015-08-02T13:09:11Z</time>
      </trkpt>
      <trkpt lat="40.311567" lon="-4.671867">
        <ele>1523.0</ele>
        <time>2015-08-02T13:09:13Z</time>
      </trkpt>
      <trkpt lat="40.311567" lon="-4.671600">
        <ele>1527.0</ele>
        <time>2015-08-02T13:09:15Z</time>
      </trkpt>
      <trkpt lat="40.311483" lon="-4.671417">
        <ele>1531.0</ele>
        <time>2015-08-02T13:09:17Z</time>
      </trkpt>
      <trkpt lat="40.311367" lon="-4.671350">
        <ele>1535.0</ele>
        <time>2015-08-02T13:09:19Z</time>
      </trkpt>
      <trkpt lat="40.311300" lon="-4.671417">
        <ele>1539.0</ele>
        <time>2015-08-02T13:09:21Z</time>
      </trkpt>
      <trkpt lat="40.311300" lon="-4.671550">
        <ele>1542.0</ele>
        <time>2015-08-02T13:09:23Z</time>
      </trkpt>
      <trkpt lat="40.311383" lon="-4.671700">
        <ele>1547.0</ele>
        <time>2015-08-02T13:09:25Z</time>
      </trkpt>
      <trkpt lat="40.311533" lon="-4.671800">
        <ele>1550.0</ele>
        <time>2015-08-02T13:09:27Z</time>
      </trkpt>
      <trkpt lat="40.311750" lon="-4.671867">
        <ele>1552.0</ele>
        <time>2015-08-02T13:09:29Z</time>
      </trkpt>
      <trkpt lat="40.312017" lon="-4.671833">
        <ele>1555.0</ele>
        <time>2015-08-02T13:09:31Z</time>
      </trkpt>
      <trkpt lat="40.312250" lon="-4.671633">
        <ele>1557.0</ele>
        <time>2015-08-02T13:09:33Z</time>
      </trkpt>
      <trkpt lat="40.312433" lon="-4.671350">
        <ele>1560.0</ele>
        <time>2015-08-02T13:09:35Z</time>
      </trkpt>
      <trkpt lat="40.312517" lon="-4.671017">
        <ele>1565.0</ele>
        <time>2015-08-02T13:09:37Z</time>
      </trkpt>
      <trkpt lat="40.312517" lon="-4.670733">
        <ele>1572.0</ele>
        <time>2015-08-02T13:09:39Z</time>
      </trkpt>
      <trkpt lat="40.312500" lon="-4.670500">
        <ele>1579.0</ele>
        <time>2015-08-02T13:09:41Z</time>
      </trkpt>
      <trkpt lat="40.312433" lon="-4.670333">
        <ele>1582.0</ele>
        <time>2015-08-02T13:09:43Z</time>
      </trkpt>
      <trkpt lat="40.312350" lon="-4.670283">
        <ele>1584.0</ele>
        <time>2015-08-02T13:09:45Z</time>
      </trkpt>
      <trkpt lat="40.312283" lon="-4.670350">
        <ele>1588.0</ele>
        <time>2015-08-02T13:09:47Z</time>
      </trkpt>
      <trkpt lat="40.312283" lon="-4.670483">
        <ele>1591.0</ele>
        <time>2015-08-02T13:09:49Z</time>
      </trkpt>
      <trkpt lat="40.312400" lon="-4.670617">
        <ele>1594.0</ele>
        <time>2015-08-02T13:09:51Z</time>
      </trkpt>
      <trkpt lat="40.312583" lon="-4.670733">
        <ele>1597.0</ele>
        <time>2015-08-02T13:09:53Z</time>
      </trkpt>
      <trkpt lat="40.312800" lon="-4.670750">
        <ele>1601.0</ele>
        <time>2015-08-02T13:09:55Z</time>
      </trkpt>
      <trkpt lat="40.313033" lon="-4.670600">
        <ele>1602.0</ele>
        <time>2015-08-02T13:09:57Z</time>
      </trkpt>
      <trkpt lat="40.313217" lon="-4.670317">
        <ele>1604.0</ele>
        <time>2015-08-02T13:09:59Z</time>
      </trkpt>
      <trkpt lat="40.313283" lon="-4.670017">
        <ele>1609.0</ele>
        <time>2015-08-02T13:10:01Z</time>
      </trkpt>
      <trkpt lat="40.313267" lon="-4.669767">
        <ele>1613.0</ele>
        <time>2015-08-02T13:10:03Z</time>
      </trkpt>
      <trkpt lat="40.313183" lon="-4.669600">
        <ele>1616.0</ele>
        <time>2015-08-02T13:10:05Z</time>
      </trkpt>
      <trkpt lat="40.313067" lon="-4.669583">
        <ele>1619.0</ele>
        <time>2015-08-02T13:10:07Z</time>
      </trkpt>
      <trkpt lat="40.313017" lon="-4.669700">
        <ele>1622.0</ele>
        <time>2015-08-02T13:10:09Z</time>
      </trkpt>
      <trkpt lat="40.313033" lon="-4.669850">
        <ele>1626.0</ele>
        <time>2015-08-02T13:10:11Z</time>
      </trkpt>
      <trkpt lat="40.313150" lon="-4.670000">
        <ele>1627.0</ele>
        <time>2015-08-02T13:10:13Z</time>
      </trkpt>
      <trkpt lat="40.313350" lon="-4.670133">
        <ele>1629.0</ele>
        <time>2015-08-02T13:10:15Z</time>
      </trkpt>
      <trkpt lat="40.313600" lon="-4.670083">
        <ele>1632.0</ele>
        <time>2015-08-02T13:10:17Z</time>
      </trkpt>
      <trkpt lat="40.313817" lon="-4.669917">
        <ele>1635.0</ele>
        <time>2015-08-02T13:10:19Z</time>
      </trkpt>
      <trkpt lat="40.314000" lon="-4.669667">
        <ele>1637.0</ele>
        <time>2015-08-02T13:10:21Z</time>
      </trkpt>
      <trkpt lat="40.314083" lon="-4.669367">
        <ele>1640.0</ele>
        <time>2015-08-02T13:10:23Z</time>
      </trkpt>
      <trkpt lat="40.314117" lon="-4.669067">
        <ele>1643.0</ele>
        <time>2015-08-02T13:10:25Z</time>
      </trkpt>
      <trkpt lat="40.314083" lon="-4.668817">
        <ele>1646.0</ele>
        <time>2015-08-02T13:10:27Z</time>
      </trkpt>
      <trkpt lat="40.314000" lon="-4.668633">
        <ele>1650.0</ele>
        <time>2015-08-02T13:10:29Z</time>
      </trkpt>
      <trkpt lat="40.313883" lon="-4.668550">
        <ele>1652.0</ele>
        <time>2015-08-02T13:10:31Z</time>
      </trkpt>
      <trkpt lat="40.313783" lon="-4.668567">
        <ele>1656.0</ele>
        <time>2015-08-02T13:10:33Z</time>
      </trkpt>
      <trkpt lat="40.313767" lon="-4.668667">
        <ele>1661.0</ele>
        <time>2015-08-02T13:10:35Z</time>
      </trkpt>
      <trkpt lat="40.313833" lon="-4.668817">
        <ele>1663.0</ele>
        <time>2015-08-02T13:10:37Z</time>
      </trkpt>
      <trkpt lat="40.314000" lon="-4.668967">
        <ele>1663.0</ele>
        <time>2015-08-02T13:10:39Z</time>
      </trkpt>
      <trkpt lat="40.314250" lon="-4.668983">
        <ele>1666.0</ele>
        <time>2015-08-02T13:10:41Z</time>
      </trkpt>
      <trkpt lat="40.314483" lon="-4.668900">
        <ele>1671.0</ele>
        <time>2015-08-02T13:10:43Z</time>
      </trkpt>
      <trkpt lat="40.314700" lon="-4.668700">
        <ele>1675.0</ele>
        <time>2015-08-02T13:10:45Z</time>
      </trkpt>
      <trkpt lat="40.314867" lon="-4.668417">
        <ele>1677.0</ele>
        <time>2015-08-02T13:10:47Z</time>
      </trkpt>
      <trkpt lat="40.314983" lon="-4.668083">
        <ele>1681.0</ele>
        <time>2015-08-02T13:10:49Z</time>
      </trkpt>
      <trkpt lat="40.315000" lon="-4.667783">
        <ele>1685.0</ele>
        <time>2015-08-02T13:10:51Z</time>
      </trkpt>
      <trkpt lat="40.314967" lon="-4.667533">
        <ele>1689.0</ele>
        <time>2015-08-02T13:10:53Z</time>
      </trkpt>
      <trkpt lat="40.314883" lon="-4.667367">
        <ele>1692.0</ele>
        <time>2015-08-02T13:10:55Z</time>
      </trkpt>
      <trkpt lat="40.314767" lon="-4.667333">
        <ele>1695.0</ele>
        <time>2015-08-02T13:10:57Z</time>
      </trkpt>
      <trkpt lat="40.314683" lon="-4.667450">
        <ele>1700.0</ele>
        <time>2015-08-02T13:10:59Z</time>
      </trkpt>
      <trkpt lat="40.314717" lon="-4.667583">
        <ele>1707.0</ele>
        <time>2015-08-02T13:11:01Z</time>
      </trkpt>
      <trkpt lat="40.314850" lon="-4.667683">
        <ele>1709.0</ele>
        <time>2015-08-02T13:11:03Z</time>
      </trkpt>
      <trkpt lat="40.315083" lon="-4.667717">
        <ele>1713.0</ele>
        <time>2015-08-02T13:11:05Z</time>
      </trkpt>
      <trkpt lat="40.315333" lon="-4.667600">
        <ele>1720.0</ele>
        <time>2015-08-02T13:11:07Z</time>
      </trkpt>
      <trkpt lat="40.315517" lon="-4.667333">
        <ele>1727.0</ele>
        <time>2015-08-02T13:11:09Z</time>
      </trkpt>
      <trkpt lat="40.315633" lon="-4.667050">
        <ele>1733.0</ele>
        <time>2015-08-02T13:11:11Z</time>
      </trkpt>
      <trkpt lat="40.315667" lon="-4.666783">
        <ele>1736.0</ele>
        <time>2015-08-02T13:11:13Z</time>
      </trkpt>
      <trkpt lat="40.315633" lon="-4.666483">
        <ele>1739.0</ele>
        <time>2015-08-02T13:11:15Z</time>
      </trkpt>
      <trkpt lat="40.315533" lon="-4.666317">
        <ele>1746.0</ele>
        <time>2015-08-02T13:11:17Z</time>
      </trkpt>
      <trkpt lat="40.315433" lon="-4.666217">
        <ele>1752.0</ele>
        <time>2015-08-02T13:11:19Z</time>
      </trkpt>
      <trkpt lat="40.315317" lon="-4.666233">
        <ele>1756.0</ele>
        <time>2015-08-02T13:11:21Z</time>
      </trkpt>
      <trkpt lat="40.315283" lon="-4.666383">
        <ele>1761.0</ele>
        <time>2015-08-02T13:11:23Z</time>
      </trkpt>
      <trkpt lat="40.315367" lon="-4.666517">
        <ele>1767.0</ele>
        <time>2015-08-02T13:11:25Z</time>
      </trkpt>
      <trkpt lat="40.315517" lon="-4.666617">
        <ele>1772.0</ele>
        <time>2015-08-02T13:11:27Z</time>
      </trkpt>
      <trkpt lat="40.315733" lon="-4.666617">
        <ele>1777.0</ele>
        <time>2015-08-02T13:11:29Z</time>
      </trkpt>
      <trkpt lat="40.315967" lon="-4.666467">
        <ele>1782.0</ele>
        <time>2015-08-02T13:11:31Z</time>
      </trkpt>
      <trkpt lat="40.316167" lon="-4.666217">
        <ele>1790.0</ele>
        <time>2015-08-02T13:11:33Z</time>
      </trkpt>
      <trkpt lat="40.316283" lon="-4.665917">
        <ele>1796.0</ele>
        <time>2015-08-02T13:11:35Z</time>
      </trkpt>
      <trkpt lat="40.316267" lon="-4.665617">
        <ele>1802.0</ele>
        <time>2015-08-02T13:11:37Z</time>
      </trkpt>
      <trkpt lat="40.316183" lon="-4.665417">
        <ele>1809.0</ele>
        <time>2015-08-02T13:11:39Z</time>
      </trkpt>
      <trkpt lat="40.316083" lon="-4.665333">
        <ele>1818.0</ele>
        <time>2015-08-02T13:11:41Z</time>
      </trkpt>
      <trkpt lat="40.315983" lon="-4.665367">
        <ele>1825.0</ele>
        <time>2015-08-02T13:11:43Z</time>
      </trkpt>
      <trkpt lat="40.315983" lon="-4.665483">
        <ele>1830.0</ele>
        <time>2015-08-02T13:11:45Z</time>
      </trkpt>
      <trkpt lat="40.316100" lon="-4.665650">
        <ele>1835.0</ele>
        <time>2015-08-02T13:11:47Z</time>
      </trkpt>
      <trkpt lat="40.316317" lon="-4.665717">
        <ele>1843.0</ele>
        <time>2015-08-02T13:11:49Z</time>
      </trkpt>
      <trkpt lat="40.316550" lon="-4.665633">
        <ele>1852.0</ele>
        <time>2015-08-02T13:11:51Z</time>
      </trkpt>
      <trkpt lat="40.316750" lon="-4.665433">
        <ele>1861.0</ele>
        <time>2015-08-02T13:11:53Z</time>
      </trkpt>
      <trkpt lat="40.316900" lon="-4.665167">
        <ele>1868.0</ele>
        <time>2015-08-02T13:11:55Z</time>
      </trkpt>
      <trkpt lat="40.316950" lon="-4.664867">
        <ele>1874.0</ele>
        <time>2015-08-02T13:11:57Z</time>
      </trkpt>
      <trkpt lat="40.316900" lon="-4.664600">
        <ele>1879.0</ele>
        <time>2015-08-02T13:11:59Z</time>
      </trkpt>
      <trkpt lat="40.316783" lon="-4.664450">
        <ele>1887.0</ele>
        <time>2015-08-02T13:12:01Z</time>
      </trkpt>
      <trkpt lat="40.316683" lon="-4.664450">
        <ele>1893.0</ele>
        <time>2015-08-02T13:12:03Z</time>
      </trkpt>
      <trkpt lat="40.316583" lon="-4.664533">
        <ele>1897.0</ele>
        <time>2015-08-02T13:12:05Z</time>
      </trkpt>
      <trkpt lat="40.316583" lon="-4.664733">
        <ele>1901.0</ele>
        <time>2015-08-02T13:12:07Z</time>
      </trkpt>
      <trkpt lat="40.316733" lon="-4.664900">
        <ele>1909.0</ele>
        <time>2015-08-02T13:12:09Z</time>
      </trkpt>
      <trkpt lat="40.316900" lon="-4.664950">
        <ele>1919.0</ele>
        <time>2015-08-02T13:12:11Z</time>
      </trkpt>
      <trkpt lat="40.317083" lon="-4.664950">
        <ele>1925.0</ele>
        <time>2015-08-02T13:12:13Z</time>
      </trkpt>
      <trkpt lat="40.317300" lon="-4.664817">
        <ele>1929.0</ele>
        <time>2015-08-02T13:12:15Z</time>
      </trkpt>
      <trkpt lat="40.317500" lon="-4.664550">
        <ele>1932.0</ele>
        <time>2015-08-02T13:12:17Z</time>
      </trkpt>
      <trkpt lat="40.317617" lon="-4.664233">
        <ele>1940.0</ele>
        <time>2015-08-02T13:12:19Z</time>
      </trkpt>
      <trkpt lat="40.317650" lon="-4.663950">
        <ele>1947.0</ele>
        <time>2015-08-02T13:12:21Z</time>
      </trkpt>
      <trkpt lat="40.317600" lon="-4.663717">
        <ele>1951.0</ele>
        <time>2015-08-02T13:12:23Z</time>
      </trkpt>
      <trkpt lat="40.317450" lon="-4.663617">
        <ele>1956.0</ele>
        <time>2015-08-02T13:12:25Z</time>
      </trkpt>
      <trkpt lat="40.317350" lon="-4.663667">
        <ele>1964.0</ele>
        <time>2015-08-02T13:12:27Z</time>
      </trkpt>
      <trkpt lat="40.317350" lon="-4.663817">
        <ele>1971.0</ele>
        <time>2015-08-02T13:12:29Z</time>
      </trkpt>
      <trkpt lat="40.317417" lon="-4.663983">
        <ele>1976.0</ele>
        <time>2015-08-02T13:12:31Z</time>
      </trkpt>
      <trkpt lat="40.317550" lon="-4.664117">
        <ele>1982.0</ele>
        <time>2015-08-02T13:12:33Z</time>
      </trkpt>
      <trkpt lat="40.317750" lon="-4.664100">
        <ele>1987.0</ele>
        <time>2015-08-02T13:12:35Z</time>
      </trkpt>
      <trkpt lat="40.317950" lon="-4.664033">
        <ele>1990.0</ele>
        <time>2015-08-02T13:12:37Z</time>
      </trkpt>
      <trkpt lat="40.318167" lon="-4.663867">
        <ele>1992.0</ele>
        <time>2015-08-02T13:12:39Z</time>
      </trkpt>
      <trkpt lat="40.318317" lon="-4.663583">
        <ele>1997.0</ele>
        <time>2015-08-02T13:12:41Z</time>
      </trkpt>
      <trkpt lat="40.318333" lon="-4.663300">
        <ele>2004.0</ele>
        <time>2015-08-02T13:12:43Z</time>
      </trkpt>
      <trkpt lat="40.318267" lon="-4.663067">
        <ele>2010.0</ele>
        <time>2015-08-02T13:12:45Z</time>
      </trkpt>
      <trkpt lat="40.318150" lon="-4.662950">
        <ele>2014.0</ele>
        <time>2015-08-02T13:12:47Z</time>
      </trkpt>
      <trkpt lat="40.318033" lon="-4.662983">
        <ele>2019.0</ele>
        <time>2015-08-02T13:12:49Z</time>
      </trkpt>
      <trkpt lat="40.318000" lon="-4.663133">
        <ele>2025.0</ele>
        <time>2015-08-02T13:12:51Z</time>
      </trkpt>
      <trkpt lat="40.318067" lon="-4.663283">
        <ele>2029.0</ele>
        <time>2015-08-02T13:12:53Z</time>
      </trkpt>
      <trkpt lat="40.318217" lon="-4.663383">
        <ele>2031.0</ele>
        <time>2015-08-02T13:12:55Z</time>
      </trkpt>
      <trkpt lat="40.318383" lon="-4.663483">
        <ele>2033.0</ele>
        <time>2015-08-02T13:12:57Z</time>
      </trkpt>
      <trkpt lat="40.318600" lon="-4.663567">
        <ele>2036.0</ele>
        <time>2015-08-02T13:12:59Z</time>
      </trkpt>
      <trkpt lat="40.318800" lon="-4.663600">
        <ele>2044.0</ele>
        <time>2015-08-02T13:13:01Z</time>
      </trkpt>
      <trkpt lat="40.318983" lon="-4.663633">
        <ele>2051.0</ele>
        <time>2015-08-02T13:13:03Z</time>
      </trkpt>
      <trkpt lat="40.319167" lon="-4.663700">
        <ele>2057.0</ele>
        <time>2015-08-02T13:13:05Z</time>
      </trkpt>
      <trkpt lat="40.319333" lon="-4.663783">
        <ele>2062.0</ele>
        <time>2015-08-02T13:13:07Z</time>
      </trkpt>
      <trkpt lat="40.319533" lon="-4.663833">
        <ele>2067.0</ele>
        <time>2015-08-02T13:13:09Z</time>
      </trkpt>
      <trkpt lat="40.319717" lon="-4.663883">
        <ele>2072.0</ele>
        <time>2015-08-02T13:13:11Z</time>
      </trkpt>
      <trkpt lat="40.319883" lon="-4.663950">
        <ele>2077.0</ele>
        <time>2015-08-02T13:13:13Z</time>
      </trkpt>
      <trkpt lat="40.320033" lon="-4.664067">
        <ele>2082.0</ele>
        <time>2015-08-02T13:13:15Z</time>
      </trkpt>
      <trkpt lat="40.320200" lon="-4.664183">
        <ele>2089.0</ele>
        <time>2015-08-02T13:13:17Z</time>
      </trkpt>
      <trkpt lat="40.320350" lon="-4.664283">
        <ele>2097.0</ele>
        <time>2015-08-02T13:13:19Z</time>
      </trkpt>
      <trkpt lat="40.320483" lon="-4.664383">
        <ele>2101.0</ele>
        <time>2015-08-02T13:13:21Z</time>
      </trkpt>
      <trkpt lat="40.320617" lon="-4.664483">
        <ele>2103.0</ele>
        <time>2015-08-02T13:13:23Z</time>
      </trkpt>
      <trkpt lat="40.320783" lon="-4.664633">
        <ele>2104.0</ele>
        <time>2015-08-02T13:13:25Z</time>
      </trkpt>
      <trkpt lat="40.320967" lon="-4.664767">
        <ele>2108.0</ele>
        <time>2015-08-02T13:13:27Z</time>
      </trkpt>
      <trkpt lat="40.321117" lon="-4.664883">
        <ele>2112.0</ele>
        <time>2015-08-02T13:13:29Z</time>
      </trkpt>
      <trkpt lat="40.321283" lon="-4.665050">
        <ele>2113.0</ele>
        <time>2015-08-02T13:13:31Z</time>
      </trkpt>
      <trkpt lat="40.321417" lon="-4.665217">
        <ele>2116.0</ele>
        <time>2015-08-02T13:13:33Z</time>
      </trkpt>
      <trkpt lat="40.321550" lon="-4.665383">
        <ele>2118.0</ele>
        <time>2015-08-02T13:13:35Z</time>
      </trkpt>
      <trkpt lat="40.321700" lon="-4.665567">
        <ele>2118.0</ele>
        <time>2015-08-02T13:13:37Z</time>
      </trkpt>
      <trkpt lat="40.321850" lon="-4.665767">
        <ele>2119.0</ele>
        <time>2015-08-02T13:13:39Z</time>
      </trkpt>
      <trkpt lat="40.322017" lon="-4.665933">
        <ele>2121.0</ele>
        <time>2015-08-02T13:13:41Z</time>
      </trkpt>
      <trkpt lat="40.322183" lon="-4.666100">
        <ele>2122.0</ele>
        <time>2015-08-02T13:13:43Z</time>
      </trkpt>
      <trkpt lat="40.322383" lon="-4.666283">
        <ele>2124.0</ele>
        <time>2015-08-02T13:13:45Z</time>
      </trkpt>
      <trkpt lat="40.322567" lon="-4.666467">
        <ele>2129.0</ele>
        <time>2015-08-02T13:13:47Z</time>
      </trkpt>
      <trkpt lat="40.322717" lon="-4.666617">
        <ele>2134.0</ele>
        <time>2015-08-02T13:13:49Z</time>
      </trkpt>
      <trkpt lat="40.322867" lon="-4.666767">
        <ele>2136.0</ele>
        <time>2015-08-02T13:13:51Z</time>
      </trkpt>
      <trkpt lat="40.323033" lon="-4.666950">
        <ele>2138.0</ele>
        <time>2015-08-02T13:13:53Z</time>
      </trkpt>
      <trkpt lat="40.323183" lon="-4.667133">
        <ele>2140.0</ele>
        <time>2015-08-02T13:13:55Z</time>
      </trkpt>
      <trkpt lat="40.323317" lon="-4.667317">
        <ele>2141.0</ele>
        <time>2015-08-02T13:13:57Z</time>
      </trkpt>
      <trkpt lat="40.323450" lon="-4.667533">
        <ele>2142.0</ele>
        <time>2015-08-02T13:13:59Z</time>
      </trkpt>
      <trkpt lat="40.323567" lon="-4.667700">
        <ele>2145.0</ele>
        <time>2015-08-02T13:14:01Z</time>
      </trkpt>
      <trkpt lat="40.323683" lon="-4.667867">
        <ele>2146.0</ele>
        <time>2015-08-02T13:14:03Z</time>
      </trkpt>
      <trkpt lat="40.323783" lon="-4.668033">
        <ele>2150.0</ele>
        <time>2015-08-02T13:14:05Z</time>
      </trkpt>
      <trkpt lat="40.323867" lon="-4.668183">
        <ele>2152.0</ele>
        <time>2015-08-02T13:14:07Z</time>
      </trkpt>
      <trkpt lat="40.323917" lon="-4.668383">
        <ele>2150.0</ele>
        <time>2015-08-02T13:14:09Z</time>
      </trkpt>
      <trkpt lat="40.323933" lon="-4.668500">
        <ele>2150.0</ele>
        <time>2015-08-02T13:14:10Z</time>
      </trkpt>
      <trkpt lat="40.323967" lon="-4.668700">
        <ele>2154.0</ele>
        <time>2015-08-02T13:14:12Z</time>
      </trkpt>
      <trkpt lat="40.323967" lon="-4.668850">
        <ele>2157.0</ele>
        <time>2015-08-02T13:14:14Z</time>
      </trkpt>
      <trkpt lat="40.323917" lon="-4.668983">
        <ele>2156.0</ele>
        <time>2015-08-02T13:14:16Z</time>
      </trkpt>
      <trkpt lat="40.323767" lon="-4.669050">
        <ele>2159.0</ele>
        <time>2015-08-02T13:14:18Z</time>
      </trkpt>
      <trkpt lat="40.323633" lon="-4.668967">
        <ele>2163.0</ele>
        <time>2015-08-02T13:14:20Z</time>
      </trkpt>
      <trkpt lat="40.323550" lon="-4.668800">
        <ele>2166.0</ele>
        <time>2015-08-02T13:14:22Z</time>
      </trkpt>
      <trkpt lat="40.323500" lon="-4.668550">
        <ele>2167.0</ele>
        <time>2015-08-02T13:14:24Z</time>
      </trkpt>
      <trkpt lat="40.323533" lon="-4.668267">
        <ele>2169.0</ele>
        <time>2015-08-02T13:14:26Z</time>
      </trkpt>
      <trkpt lat="40.323650" lon="-4.668000">
        <ele>2170.0</ele>
        <time>2015-08-02T13:14:28Z</time>
      </trkpt>
      <trkpt lat="40.323800" lon="-4.667833">
        <ele>2172.0</ele>
        <time>2015-08-02T13:14:30Z</time>
      </trkpt>
      <trkpt lat="40.323983" lon="-4.667733">
        <ele>2172.0</ele>
        <time>2015-08-02T13:14:32Z</time>
      </trkpt>
      <trkpt lat="40.324217" lon="-4.667683">
        <ele>2171.0</ele>
        <time>2015-08-02T13:14:34Z</time>
      </trkpt>
      <trkpt lat="40.324433" lon="-4.667750">
        <ele>2173.0</ele>
        <time>2015-08-02T13:14:36Z</time>
      </trkpt>
      <trkpt lat="40.324550" lon="-4.667900">
        <ele>2177.0</ele>
        <time>2015-08-02T13:14:38Z</time>
      </trkpt>
      <trkpt lat="40.324633" lon="-4.668067">
        <ele>2179.0</ele>
        <time>2015-08-02T13:14:40Z</time>
      </trkpt>
      <trkpt lat="40.324617" lon="-4.668233">
        <ele>2181.0</ele>
        <time>2015-08-02T13:14:42Z</time>
      </trkpt>
      <trkpt lat="40.324533" lon="-4.668333">
        <ele>2184.0</ele>
        <time>2015-08-02T13:14:44Z</time>
      </trkpt>
      <trkpt lat="40.324417" lon="-4.668383">
        <ele>2187.0</ele>
        <time>2015-08-02T13:14:46Z</time>
      </trkpt>
      <trkpt lat="40.324283" lon="-4.668350">
        <ele>2189.0</ele>
        <time>2015-08-02T13:14:48Z</time>
      </trkpt>
      <trkpt lat="40.324167" lon="-4.668183">
        <ele>2191.0</ele>
        <time>2015-08-02T13:14:50Z</time>
      </trkpt>
      <trkpt lat="40.324083" lon="-4.667967">
        <ele>2193.0</ele>
        <time>2015-08-02T13:14:52Z</time>
      </trkpt>
      <trkpt lat="40.324050" lon="-4.667700">
        <ele>2195.0</ele>
        <time>2015-08-02T13:14:54Z</time>
      </trkpt>
      <trkpt lat="40.324100" lon="-4.667417">
        <ele>2195.0</ele>
        <time>2015-08-02T13:14:56Z</time>
      </trkpt>
      <trkpt lat="40.324183" lon="-4.667167">
        <ele>2196.0</ele>
        <time>2015-08-02T13:14:58Z</time>
      </trkpt>
      <trkpt lat="40.324350" lon="-4.666950">
        <ele>2198.0</ele>
        <time>2015-08-02T13:15:00Z</time>
      </trkpt>
      <trkpt lat="40.324550" lon="-4.666800">
        <ele>2200.0</ele>
        <time>2015-08-02T13:15:02Z</time>
      </trkpt>
      <trkpt lat="40.324750" lon="-4.666733">
        <ele>2204.0</ele>
        <time>2015-08-02T13:15:04Z</time>
      </trkpt>
      <trkpt lat="40.324950" lon="-4.666767">
        <ele>2206.0</ele>
        <time>2015-08-02T13:15:06Z</time>
      </trkpt>
      <trkpt lat="40.325133" lon="-4.666883">
        <ele>2209.0</ele>
        <time>2015-08-02T13:15:08Z</time>
      </trkpt>
      <trkpt lat="40.325217" lon="-4.667083">
        <ele>2211.0</ele>
        <time>2015-08-02T13:15:10Z</time>
      </trkpt>
      <trkpt lat="40.325217" lon="-4.667250">
        <ele>2215.0</ele>
        <time>2015-08-02T13:15:12Z</time>
      </trkpt>
      <trkpt lat="40.325183" lon="-4.667367">
        <ele>2216.0</ele>
        <time>2015-08-02T13:15:14Z</time>
      </trkpt>
      <trkpt lat="40.325050" lon="-4.667417">
        <ele>2215.0</ele>
        <time>2015-08-02T13:15:16Z</time>
      </trkpt>
      <trkpt lat="40.324900" lon="-4.667317">
        <ele>2217.0</ele>
        <time>2015-08-02T13:15:18Z</time>
      </trkpt>
      <trkpt lat="40.324817" lon="-4.667133">
        <ele>2220.0</ele>
        <time>2015-08-02T13:15:20Z</time>
      </trkpt>
      <trkpt lat="40.324750" lon="-4.666933">
        <ele>2220.0</ele>
        <time>2015-08-02T13:15:22Z</time>
      </trkpt>
      <trkpt lat="40.324717" lon="-4.666633">
        <ele>2218.0</ele>
        <time>2015-08-02T13:15:24Z</time>
      </trkpt>
      <trkpt lat="40.324667" lon="-4.666317">
        <ele>2220.0</ele>
        <time>2015-08-02T13:15:26Z</time>
      </trkpt>
      <trkpt lat="40.324617" lon="-4.666017">
        <ele>2224.0</ele>
        <time>2015-08-02T13:15:28Z</time>
      </trkpt>
      <trkpt lat="40.324567" lon="-4.665733">
        <ele>2228.0</ele>
        <time>2015-08-02T13:15:30Z</time>
      </trkpt>
      <trkpt lat="40.324517" lon="-4.665450">
        <ele>2227.0</ele>
        <time>2015-08-02T13:15:32Z</time>
      </trkpt>
      <trkpt lat="40.324450" lon="-4.665133">
        <ele>2226.0</ele>
        <time>2015-08-02T13:15:34Z</time>
      </trkpt>
      <trkpt lat="40.324417" lon="-4.664833">
        <ele>2227.0</ele>
        <time>2015-08-02T13:15:36Z</time>
      </trkpt>
      <trkpt lat="40.324367" lon="-4.664583">
        <ele>2231.0</ele>
        <time>2015-08-02T13:15:38Z</time>
      </trkpt>
      <trkpt lat="40.324333" lon="-4.664350">
        <ele>2231.0</ele>
        <time>2015-08-02T13:15:40Z</time>
      </trkpt>
      <trkpt lat="40.324283" lon="-4.664050">
        <ele>2228.0</ele>
        <time>2015-08-02T13:15:42Z</time>
      </trkpt>
      <trkpt lat="40.324233" lon="-4.663800">
        <ele>2231.0</ele>
        <time>2015-08-02T13:15:44Z</time>
      </trkpt>
      <trkpt lat="40.324200" lon="-4.663600">
        <ele>2231.0</ele>
        <time>2015-08-02T13:15:46Z</time>
      </trkpt>
      <trkpt lat="40.324150" lon="-4.663367">
        <ele>2228.0</ele>
        <time>2015-08-02T13:15:48Z</time>
      </trkpt>
      <trkpt lat="40.324100" lon="-4.663117">
        <ele>2227.0</ele>
        <time>2015-08-02T13:15:50Z</time>
      </trkpt>
      <trkpt lat="40.324050" lon="-4.662900">
        <ele>2226.0</ele>
        <time>2015-08-02T13:15:52Z</time>
      </trkpt>
      <trkpt lat="40.324017" lon="-4.662633">
        <ele>2222.0</ele>
        <time>2015-08-02T13:15:54Z</time>
      </trkpt>
      <trkpt lat="40.323967" lon="-4.662333">
        <ele>2223.0</ele>
        <time>2015-08-02T13:15:56Z</time>
      </trkpt>
      <trkpt lat="40.323917" lon="-4.662100">
        <ele>2229.0</ele>
        <time>2015-08-02T13:15:58Z</time>
      </trkpt>
      <trkpt lat="40.323867" lon="-4.661867">
        <ele>2233.0</ele>
        <time>2015-08-02T13:16:00Z</time>
      </trkpt>
      <trkpt lat="40.323750" lon="-4.661717">
        <ele>2239.0</ele>
        <time>2015-08-02T13:16:02Z</time>
      </trkpt>
      <trkpt lat="40.323617" lon="-4.661683">
        <ele>2247.0</ele>
        <time>2015-08-02T13:16:04Z</time>
      </trkpt>
      <trkpt lat="40.323517" lon="-4.661717">
        <ele>2254.0</ele>
        <time>2015-08-02T13:16:06Z</time>
      </trkpt>
      <trkpt lat="40.323450" lon="-4.661867">
        <ele>2256.0</ele>
        <time>2015-08-02T13:16:08Z</time>
      </trkpt>
      <trkpt lat="40.323483" lon="-4.662050">
        <ele>2257.0</ele>
        <time>2015-08-02T13:16:10Z</time>
      </trkpt>
      <trkpt lat="40.323633" lon="-4.662117">
        <ele>2256.0</ele>
        <time>2015-08-02T13:16:12Z</time>
      </trkpt>
      <trkpt lat="40.323833" lon="-4.662083">
        <ele>2252.0</ele>
        <time>2015-08-02T13:16:14Z</time>
      </trkpt>
      <trkpt lat="40.324017" lon="-4.661867">
        <ele>2248.0</ele>
        <time>2015-08-02T13:16:16Z</time>
      </trkpt>
      <trkpt lat="40.324150" lon="-4.661550">
        <ele>2250.0</ele>
        <time>2015-08-02T13:16:18Z</time>
      </trkpt>
      <trkpt lat="40.324217" lon="-4.661267">
        <ele>2255.0</ele>
        <time>2015-08-02T13:16:20Z</time>
      </trkpt>
      <trkpt lat="40.324217" lon="-4.661000">
        <ele>2258.0</ele>
        <time>2015-08-02T13:16:22Z</time>
      </trkpt>
      <trkpt lat="40.324167" lon="-4.660750">
        <ele>2265.0</ele>
        <time>2015-08-02T13:16:24Z</time>
      </trkpt>
      <trkpt lat="40.324150" lon="-4.660550">
        <ele>2271.0</ele>
        <time>2015-08-02T13:16:26Z</time>
      </trkpt>
      <trkpt lat="40.324083" lon="-4.660333">
        <ele>2275.0</ele>
        <time>2015-08-02T13:16:28Z</time>
      </trkpt>
      <trkpt lat="40.323967" lon="-4.660250">
        <ele>2278.0</ele>
        <time>2015-08-02T13:16:30Z</time>
      </trkpt>
      <trkpt lat="40.323833" lon="-4.660317">
        <ele>2279.0</ele>
        <time>2015-08-02T13:16:32Z</time>
      </trkpt>
      <trkpt lat="40.323750" lon="-4.660467">
        <ele>2280.0</ele>
        <time>2015-08-02T13:16:34Z</time>
      </trkpt>
      <trkpt lat="40.323783" lon="-4.660667">
        <ele>2281.0</ele>
        <time>2015-08-02T13:16:36Z</time>
      </trkpt>
      <trkpt lat="40.323900" lon="-4.660783">
        <ele>2285.0</ele>
        <time>2015-08-02T13:16:38Z</time>
      </trkpt>
      <trkpt lat="40.324050" lon="-4.660767">
        <ele>2286.0</ele>
        <time>2015-08-02T13:16:40Z</time>
      </trkpt>
      <trkpt lat="40.324267" lon="-4.660667">
        <ele>2284.0</ele>
        <time>2015-08-02T13:16:42Z</time>
      </trkpt>
      <trkpt lat="40.324450" lon="-4.660433">
        <ele>2285.0</ele>
        <time>2015-08-02T13:16:44Z</time>
      </trkpt>
      <trkpt lat="40.324550" lon="-4.660167">
        <ele>2289.0</ele>
        <time>2015-08-02T13:16:46Z</time>
      </trkpt>
      <trkpt lat="40.324583" lon="-4.659950">
        <ele>2292.0</ele>
        <time>2015-08-02T13:16:48Z</time>
      </trkpt>
      <trkpt lat="40.324583" lon="-4.659683">
        <ele>2294.0</ele>
        <time>2015-08-02T13:16:50Z</time>
      </trkpt>
      <trkpt lat="40.324533" lon="-4.659450">
        <ele>2297.0</ele>
        <time>2015-08-02T13:16:52Z</time>
      </trkpt>
      <trkpt lat="40.324483" lon="-4.659217">
        <ele>2298.0</ele>
        <time>2015-08-02T13:16:54Z</time>
      </trkpt>
      <trkpt lat="40.324383" lon="-4.659017">
        <ele>2298.0</ele>
        <time>2015-08-02T13:16:56Z</time>
      </trkpt>
      <trkpt lat="40.324233" lon="-4.658817">
        <ele>2300.0</ele>
        <time>2015-08-02T13:16:58Z</time>
      </trkpt>
      <trkpt lat="40.324050" lon="-4.658750">
        <ele>2305.0</ele>
        <time>2015-08-02T13:17:00Z</time>
      </trkpt>
      <trkpt lat="40.323917" lon="-4.658800">
        <ele>2310.0</ele>
        <time>2015-08-02T13:17:02Z</time>
      </trkpt>
      <trkpt lat="40.323867" lon="-4.658917">
        <ele>2312.0</ele>
        <time>2015-08-02T13:17:04Z</time>
      </trkpt>
      <trkpt lat="40.323883" lon="-4.659033">
        <ele>2312.0</ele>
        <time>2015-08-02T13:17:06Z</time>
      </trkpt>
      <trkpt lat="40.324000" lon="-4.659150">
        <ele>2312.0</ele>
        <time>2015-08-02T13:17:08Z</time>
      </trkpt>
      <trkpt lat="40.324200" lon="-4.659150">
        <ele>2313.0</ele>
        <time>2015-08-02T13:17:10Z</time>
      </trkpt>
      <trkpt lat="40.324383" lon="-4.658983">
        <ele>2312.0</ele>
        <time>2015-08-02T13:17:12Z</time>
      </trkpt>
      <trkpt lat="40.324483" lon="-4.658700">
        <ele>2314.0</ele>
        <time>2015-08-02T13:17:14Z</time>
      </trkpt>
      <trkpt lat="40.324483" lon="-4.658417">
        <ele>2318.0</ele>
        <time>2015-08-02T13:17:16Z</time>
      </trkpt>
      <trkpt lat="40.324417" lon="-4.658167">
        <ele>2319.0</ele>
        <time>2015-08-02T13:17:18Z</time>
      </trkpt>
      <trkpt lat="40.324267" lon="-4.657883">
        <ele>2318.0</ele>
        <time>2015-08-02T13:17:20Z</time>
      </trkpt>
      <trkpt lat="40.324150" lon="-4.657633">
        <ele>2323.0</ele>
        <time>2015-08-02T13:17:22Z</time>
      </trkpt>
      <trkpt lat="40.324050" lon="-4.657417">
        <ele>2323.0</ele>
        <time>2015-08-02T13:17:24Z</time>
      </trkpt>
      <trkpt lat="40.323950" lon="-4.657150">
        <ele>2318.0</ele>
        <time>2015-08-02T13:17:26Z</time>
      </trkpt>
      <trkpt lat="40.323817" lon="-4.656867">
        <ele>2314.0</ele>
        <time>2015-08-02T13:17:28Z</time>
      </trkpt>
      <trkpt lat="40.323717" lon="-4.656617">
        <ele>2312.0</ele>
        <time>2015-08-02T13:17:30Z</time>
      </trkpt>
      <trkpt lat="40.323633" lon="-4.656350">
        <ele>2306.0</ele>
        <time>2015-08-02T13:17:32Z</time>
      </trkpt>
      <trkpt lat="40.323533" lon="-4.656050">
        <ele>2300.0</ele>
        <time>2015-08-02T13:17:34Z</time>
      </trkpt>
      <trkpt lat="40.323433" lon="-4.655800">
        <ele>2299.0</ele>
        <time>2015-08-02T13:17:36Z</time>
      </trkpt>
      <trkpt lat="40.323367" lon="-4.655633">
        <ele>2295.0</ele>
        <time>2015-08-02T13:17:38Z</time>
      </trkpt>
      <trkpt lat="40.323283" lon="-4.655400">
        <ele>2282.0</ele>
        <time>2015-08-02T13:17:40Z</time>
      </trkpt>
      <trkpt lat="40.323167" lon="-4.655133">
        <ele>2273.0</ele>
        <time>2015-08-02T13:17:42Z</time>
      </trkpt>
      <trkpt lat="40.323067" lon="-4.654967">
        <ele>2271.0</ele>
        <time>2015-08-02T13:17:44Z</time>
      </trkpt>
      <trkpt lat="40.323017" lon="-4.654783">
        <ele>2265.0</ele>
        <time>2015-08-02T13:17:46Z</time>
      </trkpt>
      <trkpt lat="40.322933" lon="-4.654550">
        <ele>2258.0</ele>
        <time>2015-08-02T13:17:48Z</time>
      </trkpt>
      <trkpt lat="40.322850" lon="-4.654350">
        <ele>2257.0</ele>
        <time>2015-08-02T13:17:50Z</time>
      </trkpt>
      <trkpt lat="40.322817" lon="-4.654167">
        <ele>2252.0</ele>
        <time>2015-08-02T13:17:52Z</time>
      </trkpt>
      <trkpt lat="40.322767" lon="-4.653933">
        <ele>2241.0</ele>
        <time>2015-08-02T13:17:54Z</time>
      </trkpt>
      <trkpt lat="40.322700" lon="-4.653617">
        <ele>2237.0</ele>
        <time>2015-08-02T13:17:56Z</time>
      </trkpt>
      <trkpt lat="40.322650" lon="-4.653367">
        <ele>2238.0</ele>
        <time>2015-08-02T13:17:58Z</time>
      </trkpt>
      <trkpt lat="40.322583" lon="-4.653150">
        <ele>2235.0</ele>
        <time>2015-08-02T13:18:00Z</time>
      </trkpt>
      <trkpt lat="40.322517" lon="-4.652900">
        <ele>2231.0</ele>
        <time>2015-08-02T13:18:02Z</time>
      </trkpt>
      <trkpt lat="40.322417" lon="-4.652667">
        <ele>2228.0</ele>
        <time>2015-08-02T13:18:04Z</time>
      </trkpt>
      <trkpt lat="40.322333" lon="-4.652433">
        <ele>2226.0</ele>
        <time>2015-08-02T13:18:06Z</time>
      </trkpt>
      <trkpt lat="40.322250" lon="-4.652217">
        <ele>2221.0</ele>
        <time>2015-08-02T13:18:08Z</time>
      </trkpt>
      <trkpt lat="40.322167" lon="-4.652017">
        <ele>2213.0</ele>
        <time>2015-08-02T13:18:10Z</time>
      </trkpt>
      <trkpt lat="40.322100" lon="-4.651800">
        <ele>2205.0</ele>
        <time>2015-08-02T13:18:12Z</time>
      </trkpt>
      <trkpt lat="40.321967" lon="-4.651600">
        <ele>2198.0</ele>
        <time>2015-08-02T13:18:14Z</time>
      </trkpt>
      <trkpt lat="40.321867" lon="-4.651400">
        <ele>2195.0</ele>
        <time>2015-08-02T13:18:16Z</time>
      </trkpt>
      <trkpt lat="40.321767" lon="-4.651183">
        <ele>2190.0</ele>
        <time>2015-08-02T13:18:18Z</time>
      </trkpt>
      <trkpt lat="40.321650" lon="-4.650967">
        <ele>2188.0</ele>
        <time>2015-08-02T13:18:20Z</time>
      </trkpt>
      <trkpt lat="40.321567" lon="-4.650750">
        <ele>2189.0</ele>
        <time>2015-08-02T13:18:22Z</time>
      </trkpt>
      <trkpt lat="40.321500" lon="-4.650533">
        <ele>2186.0</ele>
        <time>2015-08-02T13:18:24Z</time>
      </trkpt>
      <trkpt lat="40.321400" lon="-4.650300">
        <ele>2182.0</ele>
        <time>2015-08-02T13:18:26Z</time>
      </trkpt>
      <trkpt lat="40.321300" lon="-4.650050">
        <ele>2180.0</ele>
        <time>2015-08-02T13:18:28Z</time>
      </trkpt>
      <trkpt lat="40.321217" lon="-4.649783">
        <ele>2176.0</ele>
        <time>2015-08-02T13:18:30Z</time>
      </trkpt>
      <trkpt lat="40.321167" lon="-4.649517">
        <ele>2172.0</ele>
        <time>2015-08-02T13:18:32Z</time>
      </trkpt>
      <trkpt lat="40.321117" lon="-4.649283">
        <ele>2169.0</ele>
        <time>2015-08-02T13:18:34Z</time>
      </trkpt>
      <trkpt lat="40.321050" lon="-4.649050">
        <ele>2161.0</ele>
        <time>2015-08-02T13:18:36Z</time>
      </trkpt>
      <trkpt lat="40.321000" lon="-4.648833">
        <ele>2150.0</ele>
        <time>2015-08-02T13:18:38Z</time>
      </trkpt>
      <trkpt lat="40.320917" lon="-4.648650">
        <ele>2138.0</ele>
        <time>2015-08-02T13:18:40Z</time>
      </trkpt>
      <trkpt lat="40.320850" lon="-4.648433">
        <ele>2128.0</ele>
        <time>2015-08-02T13:18:42Z</time>
      </trkpt>
      <trkpt lat="40.320783" lon="-4.648233">
        <ele>2120.0</ele>
        <time>2015-08-02T13:18:44Z</time>
      </trkpt>
      <trkpt lat="40.320700" lon="-4.648017">
        <ele>2112.0</ele>
        <time>2015-08-02T13:18:46Z</time>
      </trkpt>
      <trkpt lat="40.320617" lon="-4.647800">
        <ele>2105.0</ele>
        <time>2015-08-02T13:18:48Z</time>
      </trkpt>
      <trkpt lat="40.320550" lon="-4.647617">
        <ele>2100.0</ele>
        <time>2015-08-02T13:18:50Z</time>
      </trkpt>
      <trkpt lat="40.320483" lon="-4.647417">
        <ele>2094.0</ele>
        <time>2015-08-02T13:18:52Z</time>
      </trkpt>
      <trkpt lat="40.320433" lon="-4.647200">
        <ele>2085.0</ele>
        <time>2015-08-02T13:18:54Z</time>
      </trkpt>
      <trkpt lat="40.320383" lon="-4.646983">
        <ele>2078.0</ele>
        <time>2015-08-02T13:18:56Z</time>
      </trkpt>
      <trkpt lat="40.320333" lon="-4.646783">
        <ele>2069.0</ele>
        <time>2015-08-02T13:18:58Z</time>
      </trkpt>
      <trkpt lat="40.320267" lon="-4.646567">
        <ele>2060.0</ele>
        <time>2015-08-02T13:19:00Z</time>
      </trkpt>
      <trkpt lat="40.320167" lon="-4.646333">
        <ele>2052.0</ele>
        <time>2015-08-02T13:19:02Z</time>
      </trkpt>
      <trkpt lat="40.320083" lon="-4.646100">
        <ele>2047.0</ele>
        <time>2015-08-02T13:19:04Z</time>
      </trkpt>
      <trkpt lat="40.320033" lon="-4.645850">
        <ele>2043.0</ele>
        <time>2015-08-02T13:19:06Z</time>
      </trkpt>
      <trkpt lat="40.320000" lon="-4.645567">
        <ele>2036.0</ele>
        <time>2015-08-02T13:19:08Z</time>
      </trkpt>
      <trkpt lat="40.319933" lon="-4.645300">
        <ele>2030.0</ele>
        <time>2015-08-02T13:19:10Z</time>
      </trkpt>
      <trkpt lat="40.319883" lon="-4.645033">
        <ele>2025.0</ele>
        <time>2015-08-02T13:19:12Z</time>
      </trkpt>
      <trkpt lat="40.319817" lon="-4.644767">
        <ele>2016.0</ele>
        <time>2015-08-02T13:19:14Z</time>
      </trkpt>
      <trkpt lat="40.319750" lon="-4.644483">
        <ele>2010.0</ele>
        <time>2015-08-02T13:19:16Z</time>
      </trkpt>
      <trkpt lat="40.319683" lon="-4.644200">
        <ele>2004.0</ele>
        <time>2015-08-02T13:19:18Z</time>
      </trkpt>
      <trkpt lat="40.319633" lon="-4.643917">
        <ele>1998.0</ele>
        <time>2015-08-02T13:19:20Z</time>
      </trkpt>
      <trkpt lat="40.319567" lon="-4.643617">
        <ele>1988.0</ele>
        <time>2015-08-02T13:19:22Z</time>
      </trkpt>
      <trkpt lat="40.319467" lon="-4.643367">
        <ele>1979.0</ele>
        <time>2015-08-02T13:19:24Z</time>
      </trkpt>
      <trkpt lat="40.319350" lon="-4.643100">
        <ele>1969.0</ele>
        <time>2015-08-02T13:19:26Z</time>
      </trkpt>
      <trkpt lat="40.319217" lon="-4.642833">
        <ele>1963.0</ele>
        <time>2015-08-02T13:19:28Z</time>
      </trkpt>
      <trkpt lat="40.319100" lon="-4.642650">
        <ele>1957.0</ele>
        <time>2015-08-02T13:19:30Z</time>
      </trkpt>
      <trkpt lat="40.318950" lon="-4.642433">
        <ele>1951.0</ele>
        <time>2015-08-02T13:19:32Z</time>
      </trkpt>
      <trkpt lat="40.318817" lon="-4.642217">
        <ele>1944.0</ele>
        <time>2015-08-02T13:19:34Z</time>
      </trkpt>
      <trkpt lat="40.318667" lon="-4.641983">
        <ele>1936.0</ele>
        <time>2015-08-02T13:19:36Z</time>
      </trkpt>
      <trkpt lat="40.318500" lon="-4.641717">
        <ele>1932.0</ele>
        <time>2015-08-02T13:19:38Z</time>
      </trkpt>
      <trkpt lat="40.318367" lon="-4.641450">
        <ele>1933.0</ele>
        <time>2015-08-02T13:19:40Z</time>
      </trkpt>
      <trkpt lat="40.318233" lon="-4.641250">
        <ele>1937.0</ele>
        <time>2015-08-02T13:19:42Z</time>
      </trkpt>
      <trkpt lat="40.318117" lon="-4.641033">
        <ele>1935.0</ele>
        <time>2015-08-02T13:19:44Z</time>
      </trkpt>
      <trkpt lat="40.317983" lon="-4.640800">
        <ele>1930.0</ele>
        <time>2015-08-02T13:19:46Z</time>
      </trkpt>
      <trkpt lat="40.317817" lon="-4.640517">
        <ele>1926.0</ele>
        <time>2015-08-02T13:19:48Z</time>
      </trkpt>
      <trkpt lat="40.317700" lon="-4.640267">
        <ele>1924.0</ele>
        <time>2015-08-02T13:19:50Z</time>
      </trkpt>
      <trkpt lat="40.317583" lon="-4.640017">
        <ele>1920.0</ele>
        <time>2015-08-02T13:19:52Z</time>
      </trkpt>
      <trkpt lat="40.317450" lon="-4.639750">
        <ele>1916.0</ele>
        <time>2015-08-02T13:19:54Z</time>
      </trkpt>
      <trkpt lat="40.317350" lon="-4.639450">
        <ele>1913.0</ele>
        <time>2015-08-02T13:19:56Z</time>
      </trkpt>
      <trkpt lat="40.317317" lon="-4.639183">
        <ele>1910.0</ele>
        <time>2015-08-02T13:19:58Z</time>
      </trkpt>
      <trkpt lat="40.317283" lon="-4.638933">
        <ele>1901.0</ele>
        <time>2015-08-02T13:20:00Z</time>
      </trkpt>
      <trkpt lat="40.317217" lon="-4.638650">
        <ele>1889.0</ele>
        <time>2015-08-02T13:20:02Z</time>
      </trkpt>
      <trkpt lat="40.317117" lon="-4.638350">
        <ele>1883.0</ele>
        <time>2015-08-02T13:20:04Z</time>
      </trkpt>
      <trkpt lat="40.317067" lon="-4.638083">
        <ele>1881.0</ele>
        <time>2015-08-02T13:20:06Z</time>
      </trkpt>
      <trkpt lat="40.316983" lon="-4.637867">
        <ele>1875.0</ele>
        <time>2015-08-02T13:20:08Z</time>
      </trkpt>
      <trkpt lat="40.316883" lon="-4.637617">
        <ele>1868.0</ele>
        <time>2015-08-02T13:20:10Z</time>
      </trkpt>
      <trkpt lat="40.316783" lon="-4.637367">
        <ele>1862.0</ele>
        <time>2015-08-02T13:20:12Z</time>
      </trkpt>
      <trkpt lat="40.316700" lon="-4.637117">
        <ele>1854.0</ele>
        <time>2015-08-02T13:20:14Z</time>
      </trkpt>
      <trkpt lat="40.316600" lon="-4.636817">
        <ele>1846.0</ele>
        <time>2015-08-02T13:20:16Z</time>
      </trkpt>
      <trkpt lat="40.316500" lon="-4.636583">
        <ele>1845.0</ele>
        <time>2015-08-02T13:20:18Z</time>
      </trkpt>
      <trkpt lat="40.316450" lon="-4.636400">
        <ele>1839.0</ele>
        <time>2015-08-02T13:20:20Z</time>
      </trkpt>
      <trkpt lat="40.316367" lon="-4.636133">
        <ele>1828.0</ele>
        <time>2015-08-02T13:20:22Z</time>
      </trkpt>
      <trkpt lat="40.316250" lon="-4.635867">
        <ele>1827.0</ele>
        <time>2015-08-02T13:20:24Z</time>
      </trkpt>
      <trkpt lat="40.316217" lon="-4.635683">
        <ele>1827.0</ele>
        <time>2015-08-02T13:20:26Z</time>
      </trkpt>
      <trkpt lat="40.316183" lon="-4.635483">
        <ele>1821.0</ele>
        <time>2015-08-02T13:20:28Z</time>
      </trkpt>
      <trkpt lat="40.316117" lon="-4.635217">
        <ele>1813.0</ele>
        <time>2015-08-02T13:20:30Z</time>
      </trkpt>
      <trkpt lat="40.316050" lon="-4.634950">
        <ele>1808.0</ele>
        <time>2015-08-02T13:20:32Z</time>
      </trkpt>
      <trkpt lat="40.315983" lon="-4.634717">
        <ele>1805.0</ele>
        <time>2015-08-02T13:20:34Z</time>
      </trkpt>
      <trkpt lat="40.315933" lon="-4.634467">
        <ele>1799.0</ele>
        <time>2015-08-02T13:20:36Z</time>
      </trkpt>
      <trkpt lat="40.315850" lon="-4.634200">
        <ele>1793.0</ele>
        <time>2015-08-02T13:20:38Z</time>
      </trkpt>
      <trkpt lat="40.315783" lon="-4.633917">
        <ele>1790.0</ele>
        <time>2015-08-02T13:20:40Z</time>
      </trkpt>
      <trkpt lat="40.315733" lon="-4.633667">
        <ele>1788.0</ele>
        <time>2015-08-02T13:20:42Z</time>
      </trkpt>
      <trkpt lat="40.315683" lon="-4.633433">
        <ele>1786.0</ele>
        <time>2015-08-02T13:20:44Z</time>
      </trkpt>
      <trkpt lat="40.315617" lon="-4.633183">
        <ele>1783.0</ele>
        <time>2015-08-02T13:20:46Z</time>
      </trkpt>
      <trkpt lat="40.315583" lon="-4.632933">
        <ele>1782.0</ele>
        <time>2015-08-02T13:20:48Z</time>
      </trkpt>
      <trkpt lat="40.315550" lon="-4.632767">
        <ele>1780.0</ele>
        <time>2015-08-02T13:20:50Z</time>
      </trkpt>
      <trkpt lat="40.315483" lon="-4.632633">
        <ele>1774.0</ele>
        <time>2015-08-02T13:20:52Z</time>
      </trkpt>
      <trkpt lat="40.315400" lon="-4.632433">
        <ele>1770.0</ele>
        <time>2015-08-02T13:20:54Z</time>
      </trkpt>
      <trkpt lat="40.315267" lon="-4.632250">
        <ele>1770.0</ele>
        <time>2015-08-02T13:20:56Z</time>
      </trkpt>
      <trkpt lat="40.315200" lon="-4.632067">
        <ele>1775.0</ele>
        <time>2015-08-02T13:20:58Z</time>
      </trkpt>
      <trkpt lat="40.315133" lon="-4.631917">
        <ele>1779.0</ele>
        <time>2015-08-02T13:21:00Z</time>
      </trkpt>
      <trkpt lat="40.315017" lon="-4.631917">
        <ele>1781.0</ele>
        <time>2015-08-02T13:21:02Z</time>
      </trkpt>
      <trkpt lat="40.314967" lon="-4.632050">
        <ele>1783.0</ele>
        <time>2015-08-02T13:21:04Z</time>
      </trkpt>
      <trkpt lat="40.315000" lon="-4.632200">
        <ele>1784.0</ele>
        <time>2015-08-02T13:21:06Z</time>
      </trkpt>
      <trkpt lat="40.315067" lon="-4.632300">
        <ele>1782.0</ele>
        <time>2015-08-02T13:21:08Z</time>
      </trkpt>
      <trkpt lat="40.315217" lon="-4.632400">
        <ele>1777.0</ele>
        <time>2015-08-02T13:21:10Z</time>
      </trkpt>
      <trkpt lat="40.315433" lon="-4.632450">
        <ele>1776.0</ele>
        <time>2015-08-02T13:21:12Z</time>
      </trkpt>
      <trkpt lat="40.315650" lon="-4.632333">
        <ele>1771.0</ele>
        <time>2015-08-02T13:21:14Z</time>
      </trkpt>
      <trkpt lat="40.315800" lon="-4.632033">
        <ele>1764.0</ele>
        <time>2015-08-02T13:21:16Z</time>
      </trkpt>
      <trkpt lat="40.315817" lon="-4.631700">
        <ele>1763.0</ele>
        <time>2015-08-02T13:21:18Z</time>
      </trkpt>
      <trkpt lat="40.315817" lon="-4.631417">
        <ele>1766.0</ele>
        <time>2015-08-02T13:21:20Z</time>
      </trkpt>
      <trkpt lat="40.315800" lon="-4.631167">
        <ele>1768.0</ele>
        <time>2015-08-02T13:21:22Z</time>
      </trkpt>
      <trkpt lat="40.315717" lon="-4.630950">
        <ele>1767.0</ele>
        <time>2015-08-02T13:21:24Z</time>
      </trkpt>
      <trkpt lat="40.315583" lon="-4.630733">
        <ele>1768.0</ele>
        <time>2015-08-02T13:21:26Z</time>
      </trkpt>
      <trkpt lat="40.315450" lon="-4.630567">
        <ele>1774.0</ele>
        <time>2015-08-02T13:21:28Z</time>
      </trkpt>
      <trkpt lat="40.315333" lon="-4.630433">
        <ele>1777.0</ele>
        <time>2015-08-02T13:21:30Z</time>
      </trkpt>
      <trkpt lat="40.315167" lon="-4.630367">
        <ele>1777.0</ele>
        <time>2015-08-02T13:21:32Z</time>
      </trkpt>
      <trkpt lat="40.314983" lon="-4.630367">
        <ele>1780.0</ele>
        <time>2015-08-02T13:21:34Z</time>
      </trkpt>
      <trkpt lat="40.314867" lon="-4.630467">
        <ele>1782.0</ele>
        <time>2015-08-02T13:21:36Z</time>
      </trkpt>
      <trkpt lat="40.314833" lon="-4.630667">
        <ele>1782.0</ele>
        <time>2015-08-02T13:21:38Z</time>
      </trkpt>
      <trkpt lat="40.314917" lon="-4.630867">
        <ele>1784.0</ele>
        <time>2015-08-02T13:21:40Z</time>
      </trkpt>
      <trkpt lat="40.315100" lon="-4.630900">
        <ele>1783.0</ele>
        <time>2015-08-02T13:21:42Z</time>
      </trkpt>
      <trkpt lat="40.315300" lon="-4.630817">
        <ele>1781.0</ele>
        <time>2015-08-02T13:21:44Z</time>
      </trkpt>
      <trkpt lat="40.315483" lon="-4.630600">
        <ele>1778.0</ele>
        <time>2015-08-02T13:21:46Z</time>
      </trkpt>
      <trkpt lat="40.315550" lon="-4.630300">
        <ele>1779.0</ele>
        <time>2015-08-02T13:21:48Z</time>
      </trkpt>
      <trkpt lat="40.315500" lon="-4.630100">
        <ele>1784.0</ele>
        <time>2015-08-02T13:21:50Z</time>
      </trkpt>
      <trkpt lat="40.315433" lon="-4.629933">
        <ele>1783.0</ele>
        <time>2015-08-02T13:21:52Z</time>
      </trkpt>
      <trkpt lat="40.315333" lon="-4.629750">
        <ele>1780.0</ele>
        <time>2015-08-02T13:21:54Z</time>
      </trkpt>
      <trkpt lat="40.315167" lon="-4.629533">
        <ele>1778.0</ele>
        <time>2015-08-02T13:21:56Z</time>
      </trkpt>
      <trkpt lat="40.315033" lon="-4.629317">
        <ele>1781.0</ele>
        <time>2015-08-02T13:21:58Z</time>
      </trkpt>
      <trkpt lat="40.314917" lon="-4.629100">
        <ele>1785.0</ele>
        <time>2015-08-02T13:22:00Z</time>
      </trkpt>
      <trkpt lat="40.314767" lon="-4.628917">
        <ele>1789.0</ele>
        <time>2015-08-02T13:22:02Z</time>
      </trkpt>
      <trkpt lat="40.314567" lon="-4.628800">
        <ele>1795.0</ele>
        <time>2015-08-02T13:22:04Z</time>
      </trkpt>
      <trkpt lat="40.314450" lon="-4.628700">
        <ele>1805.0</ele>
        <time>2015-08-02T13:22:06Z</time>
      </trkpt>
      <trkpt lat="40.314350" lon="-4.628633">
        <ele>1809.0</ele>
        <time>2015-08-02T13:22:08Z</time>
      </trkpt>
      <trkpt lat="40.314183" lon="-4.628683">
        <ele>1812.0</ele>
        <time>2015-08-02T13:22:10Z</time>
      </trkpt>
      <trkpt lat="40.314150" lon="-4.628883">
        <ele>1815.0</ele>
        <time>2015-08-02T13:22:12Z</time>
      </trkpt>
      <trkpt lat="40.314300" lon="-4.629050">
        <ele>1817.0</ele>
        <time>2015-08-02T13:22:14Z</time>
      </trkpt>
      <trkpt lat="40.314417" lon="-4.629167">
        <ele>1823.0</ele>
        <time>2015-08-02T13:22:16Z</time>
      </trkpt>
      <trkpt lat="40.314567" lon="-4.629183">
        <ele>1825.0</ele>
        <time>2015-08-02T13:22:18Z</time>
      </trkpt>
      <trkpt lat="40.314717" lon="-4.629083">
        <ele>1826.0</ele>
        <time>2015-08-02T13:22:20Z</time>
      </trkpt>
      <trkpt lat="40.314783" lon="-4.628833">
        <ele>1828.0</ele>
        <time>2015-08-02T13:22:22Z</time>
      </trkpt>
      <trkpt lat="40.314717" lon="-4.628567">
        <ele>1831.0</ele>
        <time>2015-08-02T13:22:24Z</time>
      </trkpt>
      <trkpt lat="40.314617" lon="-4.628400">
        <ele>1835.0</ele>
        <time>2015-08-02T13:22:26Z</time>
      </trkpt>
      <trkpt lat="40.314467" lon="-4.628283">
        <ele>1838.0</ele>
        <time>2015-08-02T13:22:28Z</time>
      </trkpt>
      <trkpt lat="40.314300" lon="-4.628250">
        <ele>1839.0</ele>
        <time>2015-08-02T13:22:30Z</time>
      </trkpt>
      <trkpt lat="40.314167" lon="-4.628300">
        <ele>1839.0</ele>
        <time>2015-08-02T13:22:32Z</time>
      </trkpt>
      <trkpt lat="40.314067" lon="-4.628467">
        <ele>1842.0</ele>
        <time>2015-08-02T13:22:34Z</time>
      </trkpt>
      <trkpt lat="40.314017" lon="-4.628650">
        <ele>1847.0</ele>
        <time>2015-08-02T13:22:36Z</time>
      </trkpt>
      <trkpt lat="40.314083" lon="-4.628817">
        <ele>1848.0</ele>
        <time>2015-08-02T13:22:38Z</time>
      </trkpt>
      <trkpt lat="40.314200" lon="-4.628950">
        <ele>1848.0</ele>
        <time>2015-08-02T13:22:40Z</time>
      </trkpt>
      <trkpt lat="40.314383" lon="-4.628950">
        <ele>1849.0</ele>
        <time>2015-08-02T13:22:42Z</time>
      </trkpt>
      <trkpt lat="40.314550" lon="-4.628817">
        <ele>1850.0</ele>
        <time>2015-08-02T13:22:44Z</time>
      </trkpt>
      <trkpt lat="40.314583" lon="-4.628600">
        <ele>1850.0</ele>
        <time>2015-08-02T13:22:46Z</time>
      </trkpt>
      <trkpt lat="40.314517" lon="-4.628383">
        <ele>1849.0</ele>
        <time>2015-08-02T13:22:48Z</time>
      </trkpt>
      <trkpt lat="40.314383" lon="-4.628250">
        <ele>1850.0</ele>
        <time>2015-08-02T13:22:50Z</time>
      </trkpt>
      <trkpt lat="40.314233" lon="-4.628100">
        <ele>1853.0</ele>
        <time>2015-08-02T13:22:52Z</time>
      </trkpt>
      <trkpt lat="40.314133" lon="-4.628000">
        <ele>1857.0</ele>
        <time>2015-08-02T13:22:54Z</time>
      </trkpt>
      <trkpt lat="40.314033" lon="-4.628000">
        <ele>1856.0</ele>
        <time>2015-08-02T13:22:56Z</time>
      </trkpt>
      <trkpt lat="40.313917" lon="-4.628083">
        <ele>1853.0</ele>
        <time>2015-08-02T13:22:58Z</time>
      </trkpt>
      <trkpt lat="40.313900" lon="-4.628267">
        <ele>1850.0</ele>
        <time>2015-08-02T13:23:00Z</time>
      </trkpt>
      <trkpt lat="40.313983" lon="-4.628467">
        <ele>1847.0</ele>
        <time>2015-08-02T13:23:02Z</time>
      </trkpt>
      <trkpt lat="40.314167" lon="-4.628550">
        <ele>1844.0</ele>
        <time>2015-08-02T13:23:04Z</time>
      </trkpt>
      <trkpt lat="40.314383" lon="-4.628517">
        <ele>1841.0</ele>
        <time>2015-08-02T13:23:06Z</time>
      </trkpt>
      <trkpt lat="40.314567" lon="-4.628367">
        <ele>1839.0</ele>
        <time>2015-08-02T13:23:08Z</time>
      </trkpt>
      <trkpt lat="40.314650" lon="-4.628117">
        <ele>1836.0</ele>
        <time>2015-08-02T13:23:10Z</time>
      </trkpt>
      <trkpt lat="40.314617" lon="-4.627883">
        <ele>1832.0</ele>
        <time>2015-08-02T13:23:12Z</time>
      </trkpt>
      <trkpt lat="40.314533" lon="-4.627683">
        <ele>1828.0</ele>
        <time>2015-08-02T13:23:14Z</time>
      </trkpt>
      <trkpt lat="40.314383" lon="-4.627483">
        <ele>1823.0</ele>
        <time>2015-08-02T13:23:16Z</time>
      </trkpt>
      <trkpt lat="40.314233" lon="-4.627283">
        <ele>1822.0</ele>
        <time>2015-08-02T13:23:18Z</time>
      </trkpt>
      <trkpt lat="40.314117" lon="-4.627067">
        <ele>1822.0</ele>
        <time>2015-08-02T13:23:20Z</time>
      </trkpt>
      <trkpt lat="40.313967" lon="-4.626850">
        <ele>1826.0</ele>
        <time>2015-08-02T13:23:22Z</time>
      </trkpt>
      <trkpt lat="40.313850" lon="-4.626667">
        <ele>1831.0</ele>
        <time>2015-08-02T13:23:24Z</time>
      </trkpt>
      <trkpt lat="40.313750" lon="-4.626483">
        <ele>1833.0</ele>
        <time>2015-08-02T13:23:26Z</time>
      </trkpt>
      <trkpt lat="40.313633" lon="-4.626267">
        <ele>1835.0</ele>
        <time>2015-08-02T13:23:28Z</time>
      </trkpt>
      <trkpt lat="40.313517" lon="-4.626067">
        <ele>1841.0</ele>
        <time>2015-08-02T13:23:30Z</time>
      </trkpt>
      <trkpt lat="40.313383" lon="-4.625900">
        <ele>1848.0</ele>
        <time>2015-08-02T13:23:32Z</time>
      </trkpt>
      <trkpt lat="40.313267" lon="-4.625717">
        <ele>1856.0</ele>
        <time>2015-08-02T13:23:34Z</time>
      </trkpt>
      <trkpt lat="40.313150" lon="-4.625617">
        <ele>1866.0</ele>
        <time>2015-08-02T13:23:36Z</time>
      </trkpt>
      <trkpt lat="40.313000" lon="-4.625617">
        <ele>1875.0</ele>
        <time>2015-08-02T13:23:38Z</time>
      </trkpt>
      <trkpt lat="40.312883" lon="-4.625767">
        <ele>1883.0</ele>
        <time>2015-08-02T13:23:40Z</time>
      </trkpt>
      <trkpt lat="40.312817" lon="-4.625933">
        <ele>1889.0</ele>
        <time>2015-08-02T13:23:42Z</time>
      </trkpt>
      <trkpt lat="40.312833" lon="-4.626100">
        <ele>1890.0</ele>
        <time>2015-08-02T13:23:44Z</time>
      </trkpt>
      <trkpt lat="40.312933" lon="-4.626250">
        <ele>1890.0</ele>
        <time>2015-08-02T13:23:46Z</time>
      </trkpt>
      <trkpt lat="40.313100" lon="-4.626267">
        <ele>1891.0</ele>
        <time>2015-08-02T13:23:48Z</time>
      </trkpt>
      <trkpt lat="40.313267" lon="-4.626167">
        <ele>1891.0</ele>
        <time>2015-08-02T13:23:50Z</time>
      </trkpt>
      <trkpt lat="40.313333" lon="-4.625900">
        <ele>1895.0</ele>
        <time>2015-08-02T13:23:52Z</time>
      </trkpt>
      <trkpt lat="40.313350" lon="-4.625667">
        <ele>1906.0</ele>
        <time>2015-08-02T13:23:54Z</time>
      </trkpt>
      <trkpt lat="40.313400" lon="-4.625500">
        <ele>1916.0</ele>
        <time>2015-08-02T13:23:56Z</time>
      </trkpt>
      <trkpt lat="40.313333" lon="-4.625350">
        <ele>1921.0</ele>
        <time>2015-08-02T13:23:58Z</time>
      </trkpt>
      <trkpt lat="40.313183" lon="-4.625250">
        <ele>1929.0</ele>
        <time>2015-08-02T13:24:00Z</time>
      </trkpt>
      <trkpt lat="40.313050" lon="-4.625300">
        <ele>1938.0</ele>
        <time>2015-08-02T13:24:02Z</time>
      </trkpt>
      <trkpt lat="40.312950" lon="-4.625417">
        <ele>1942.0</ele>
        <time>2015-08-02T13:24:04Z</time>
      </trkpt>
      <trkpt lat="40.312867" lon="-4.625600">
        <ele>1943.0</ele>
        <time>2015-08-02T13:24:06Z</time>
      </trkpt>
      <trkpt lat="40.312883" lon="-4.625800">
        <ele>1946.0</ele>
        <time>2015-08-02T13:24:08Z</time>
      </trkpt>
      <trkpt lat="40.313017" lon="-4.625917">
        <ele>1945.0</ele>
        <time>2015-08-02T13:24:10Z</time>
      </trkpt>
      <trkpt lat="40.313183" lon="-4.625900">
        <ele>1946.0</ele>
        <time>2015-08-02T13:24:12Z</time>
      </trkpt>
      <trkpt lat="40.313350" lon="-4.625767">
        <ele>1949.0</ele>
        <time>2015-08-02T13:24:14Z</time>
      </trkpt>
      <trkpt lat="40.313417" lon="-4.625533">
        <ele>1951.0</ele>
        <time>2015-08-02T13:24:16Z</time>
      </trkpt>
      <trkpt lat="40.313383" lon="-4.625267">
        <ele>1954.0</ele>
        <time>2015-08-02T13:24:18Z</time>
      </trkpt>
      <trkpt lat="40.313333" lon="-4.625033">
        <ele>1964.0</ele>
        <time>2015-08-02T13:24:20Z</time>
      </trkpt>
      <trkpt lat="40.313300" lon="-4.624867">
        <ele>1972.0</ele>
        <time>2015-08-02T13:24:22Z</time>
      </trkpt>
      <trkpt lat="40.313283" lon="-4.624650">
        <ele>1976.0</ele>
        <time>2015-08-02T13:24:24Z</time>
      </trkpt>
      <trkpt lat="40.313200" lon="-4.624433">
        <ele>1980.0</ele>
        <time>2015-08-02T13:24:26Z</time>
      </trkpt>
      <trkpt lat="40.313083" lon="-4.624367">
        <ele>1989.0</ele>
        <time>2015-08-02T13:24:28Z</time>
      </trkpt>
      <trkpt lat="40.312950" lon="-4.624400">
        <ele>1997.0</ele>
        <time>2015-08-02T13:24:30Z</time>
      </trkpt>
      <trkpt lat="40.312850" lon="-4.624517">
        <ele>2004.0</ele>
        <time>2015-08-02T13:24:32Z</time>
      </trkpt>
      <trkpt lat="40.312800" lon="-4.624683">
        <ele>2011.0</ele>
        <time>2015-08-02T13:24:34Z</time>
      </trkpt>
      <trkpt lat="40.312833" lon="-4.624867">
        <ele>2016.0</ele>
        <time>2015-08-02T13:24:36Z</time>
      </trkpt>
      <trkpt lat="40.312933" lon="-4.625000">
        <ele>2019.0</ele>
        <time>2015-08-02T13:24:38Z</time>
      </trkpt>
      <trkpt lat="40.313100" lon="-4.625017">
        <ele>2021.0</ele>
        <time>2015-08-02T13:24:40Z</time>
      </trkpt>
      <trkpt lat="40.313283" lon="-4.624900">
        <ele>2024.0</ele>
        <time>2015-08-02T13:24:42Z</time>
      </trkpt>
      <trkpt lat="40.313417" lon="-4.624683">
        <ele>2028.0</ele>
        <time>2015-08-02T13:24:44Z</time>
      </trkpt>
      <trkpt lat="40.313417" lon="-4.624450">
        <ele>2034.0</ele>
        <time>2015-08-02T13:24:46Z</time>
      </trkpt>
      <trkpt lat="40.313350" lon="-4.624283">
        <ele>2039.0</ele>
        <time>2015-08-02T13:24:48Z</time>
      </trkpt>
      <trkpt lat="40.313283" lon="-4.624117">
        <ele>2046.0</ele>
        <time>2015-08-02T13:24:50Z</time>
      </trkpt>
      <trkpt lat="40.313233" lon="-4.623917">
        <ele>2050.0</ele>
        <time>2015-08-02T13:24:52Z</time>
      </trkpt>
      <trkpt lat="40.313167" lon="-4.623717">
        <ele>2054.0</ele>
        <time>2015-08-02T13:24:54Z</time>
      </trkpt>
      <trkpt lat="40.313083" lon="-4.623517">
        <ele>2064.0</ele>
        <time>2015-08-02T13:24:56Z</time>
      </trkpt>
      <trkpt lat="40.313033" lon="-4.623350">
        <ele>2075.0</ele>
        <time>2015-08-02T13:24:58Z</time>
      </trkpt>
      <trkpt lat="40.313000" lon="-4.623183">
        <ele>2084.0</ele>
        <time>2015-08-02T13:25:00Z</time>
      </trkpt>
      <trkpt lat="40.312917" lon="-4.623033">
        <ele>2093.0</ele>
        <time>2015-08-02T13:25:02Z</time>
      </trkpt>
      <trkpt lat="40.312833" lon="-4.622867">
        <ele>2103.0</ele>
        <time>2015-08-02T13:25:04Z</time>
      </trkpt>
      <trkpt lat="40.312750" lon="-4.622700">
        <ele>2112.0</ele>
        <time>2015-08-02T13:25:06Z</time>
      </trkpt>
      <trkpt lat="40.312650" lon="-4.622517">
        <ele>2119.0</ele>
        <time>2015-08-02T13:25:08Z</time>
      </trkpt>
      <trkpt lat="40.312533" lon="-4.622333">
        <ele>2127.0</ele>
        <time>2015-08-02T13:25:10Z</time>
      </trkpt>
      <trkpt lat="40.312433" lon="-4.622183">
        <ele>2135.0</ele>
        <time>2015-08-02T13:25:12Z</time>
      </trkpt>
      <trkpt lat="40.312350" lon="-4.622017">
        <ele>2143.0</ele>
        <time>2015-08-02T13:25:14Z</time>
      </trkpt>
      <trkpt lat="40.312233" lon="-4.621867">
        <ele>2151.0</ele>
        <time>2015-08-02T13:25:16Z</time>
      </trkpt>
      <trkpt lat="40.312133" lon="-4.621733">
        <ele>2158.0</ele>
        <time>2015-08-02T13:25:18Z</time>
      </trkpt>
      <trkpt lat="40.312033" lon="-4.621583">
        <ele>2164.0</ele>
        <time>2015-08-02T13:25:20Z</time>
      </trkpt>
      <trkpt lat="40.311900" lon="-4.621433">
        <ele>2172.0</ele>
        <time>2015-08-02T13:25:22Z</time>
      </trkpt>
      <trkpt lat="40.311783" lon="-4.621267">
        <ele>2182.0</ele>
        <time>2015-08-02T13:25:24Z</time>
      </trkpt>
      <trkpt lat="40.311683" lon="-4.621100">
        <ele>2191.0</ele>
        <time>2015-08-02T13:25:26Z</time>
      </trkpt>
      <trkpt lat="40.311583" lon="-4.620917">
        <ele>2196.0</ele>
        <time>2015-08-02T13:25:28Z</time>
      </trkpt>
      <trkpt lat="40.311500" lon="-4.620700">
        <ele>2202.0</ele>
        <time>2015-08-02T13:25:30Z</time>
      </trkpt>
      <trkpt lat="40.311450" lon="-4.620533">
        <ele>2207.0</ele>
        <time>2015-08-02T13:25:32Z</time>
      </trkpt>
      <trkpt lat="40.311367" lon="-4.620367">
        <ele>2207.0</ele>
        <time>2015-08-02T13:25:34Z</time>
      </trkpt>
      <trkpt lat="40.311300" lon="-4.620150">
        <ele>2208.0</ele>
        <time>2015-08-02T13:25:36Z</time>
      </trkpt>
      <trkpt lat="40.311250" lon="-4.619950">
        <ele>2209.0</ele>
        <time>2015-08-02T13:25:38Z</time>
      </trkpt>
      <trkpt lat="40.311200" lon="-4.619750">
        <ele>2210.0</ele>
        <time>2015-08-02T13:25:40Z</time>
      </trkpt>
      <trkpt lat="40.311150" lon="-4.619500">
        <ele>2210.0</ele>
        <time>2015-08-02T13:25:42Z</time>
      </trkpt>
      <trkpt lat="40.311100" lon="-4.619267">
        <ele>2211.0</ele>
        <time>2015-08-02T13:25:44Z</time>
      </trkpt>
      <trkpt lat="40.311050" lon="-4.619067">
        <ele>2213.0</ele>
        <time>2015-08-02T13:25:46Z</time>
      </trkpt>
      <trkpt lat="40.310983" lon="-4.618867">
        <ele>2216.0</ele>
        <time>2015-08-02T13:25:48Z</time>
      </trkpt>
      <trkpt lat="40.310917" lon="-4.618683">
        <ele>2219.0</ele>
        <time>2015-08-02T13:25:50Z</time>
      </trkpt>
      <trkpt lat="40.310867" lon="-4.618483">
        <ele>2225.0</ele>
        <time>2015-08-02T13:25:52Z</time>
      </trkpt>
      <trkpt lat="40.310850" lon="-4.618300">
        <ele>2229.0</ele>
        <time>2015-08-02T13:25:54Z</time>
      </trkpt>
      <trkpt lat="40.310817" lon="-4.618150">
        <ele>2229.0</ele>
        <time>2015-08-02T13:25:56Z</time>
      </trkpt>
      <trkpt lat="40.310733" lon="-4.617950">
        <ele>2227.0</ele>
        <time>2015-08-02T13:25:58Z</time>
      </trkpt>
      <trkpt lat="40.310667" lon="-4.617767">
        <ele>2228.0</ele>
        <time>2015-08-02T13:26:00Z</time>
      </trkpt>
      <trkpt lat="40.310600" lon="-4.617600">
        <ele>2232.0</ele>
        <time>2015-08-02T13:26:02Z</time>
      </trkpt>
      <trkpt lat="40.310517" lon="-4.617450">
        <ele>2235.0</ele>
        <time>2015-08-02T13:26:04Z</time>
      </trkpt>
      <trkpt lat="40.310433" lon="-4.617283">
        <ele>2240.0</ele>
        <time>2015-08-02T13:26:06Z</time>
      </trkpt>
      <trkpt lat="40.310367" lon="-4.617117">
        <ele>2245.0</ele>
        <time>2015-08-02T13:26:08Z</time>
      </trkpt>
      <trkpt lat="40.310300" lon="-4.616950">
        <ele>2250.0</ele>
        <time>2015-08-02T13:26:10Z</time>
      </trkpt>
      <trkpt lat="40.310250" lon="-4.616733">
        <ele>2254.0</ele>
        <time>2015-08-02T13:26:12Z</time>
      </trkpt>
      <trkpt lat="40.310200" lon="-4.616517">
        <ele>2260.0</ele>
        <time>2015-08-02T13:26:14Z</time>
      </trkpt>
      <trkpt lat="40.310133" lon="-4.616283">
        <ele>2265.0</ele>
        <time>2015-08-02T13:26:16Z</time>
      </trkpt>
      <trkpt lat="40.310100" lon="-4.616083">
        <ele>2270.0</ele>
        <time>2015-08-02T13:26:18Z</time>
      </trkpt>
      <trkpt lat="40.310033" lon="-4.615917">
        <ele>2271.0</ele>
        <time>2015-08-02T13:26:20Z</time>
      </trkpt>
      <trkpt lat="40.309933" lon="-4.615700">
        <ele>2272.0</ele>
        <time>2015-08-02T13:26:22Z</time>
      </trkpt>
      <trkpt lat="40.309850" lon="-4.615500">
        <ele>2277.0</ele>
        <time>2015-08-02T13:26:24Z</time>
      </trkpt>
      <trkpt lat="40.309783" lon="-4.615317">
        <ele>2279.0</ele>
        <time>2015-08-02T13:26:26Z</time>
      </trkpt>
      <trkpt lat="40.309683" lon="-4.615100">
        <ele>2278.0</ele>
        <time>2015-08-02T13:26:28Z</time>
      </trkpt>
      <trkpt lat="40.309583" lon="-4.614900">
        <ele>2280.0</ele>
        <time>2015-08-02T13:26:30Z</time>
      </trkpt>
      <trkpt lat="40.309500" lon="-4.614733">
        <ele>2281.0</ele>
        <time>2015-08-02T13:26:32Z</time>
      </trkpt>
      <trkpt lat="40.309400" lon="-4.614567">
        <ele>2278.0</ele>
        <time>2015-08-02T13:26:34Z</time>
      </trkpt>
      <trkpt lat="40.309283" lon="-4.614400">
        <ele>2277.0</ele>
        <time>2015-08-02T13:26:36Z</time>
      </trkpt>
      <trkpt lat="40.309183" lon="-4.614250">
        <ele>2276.0</ele>
        <time>2015-08-02T13:26:38Z</time>
      </trkpt>
      <trkpt lat="40.309083" lon="-4.614083">
        <ele>2273.0</ele>
        <time>2015-08-02T13:26:40Z</time>
      </trkpt>
      <trkpt lat="40.308950" lon="-4.613917">
        <ele>2269.0</ele>
        <time>2015-08-02T13:26:42Z</time>
      </trkpt>
      <trkpt lat="40.308817" lon="-4.613717">
        <ele>2268.0</ele>
        <time>2015-08-02T13:26:44Z</time>
      </trkpt>
      <trkpt lat="40.308733" lon="-4.613550">
        <ele>2267.0</ele>
        <time>2015-08-02T13:26:46Z</time>
      </trkpt>
      <trkpt lat="40.308633" lon="-4.613383">
        <ele>2262.0</ele>
        <time>2015-08-02T13:26:48Z</time>
      </trkpt>
      <trkpt lat="40.308500" lon="-4.613233">
        <ele>2256.0</ele>
        <time>2015-08-02T13:26:50Z</time>
      </trkpt>
      <trkpt lat="40.308367" lon="-4.613067">
        <ele>2254.0</ele>
        <time>2015-08-02T13:26:52Z</time>
      </trkpt>
      <trkpt lat="40.308267" lon="-4.612917">
        <ele>2251.0</ele>
        <time>2015-08-02T13:26:54Z</time>
      </trkpt>
      <trkpt lat="40.308133" lon="-4.612817">
        <ele>2246.0</ele>
        <time>2015-08-02T13:26:56Z</time>
      </trkpt>
      <trkpt lat="40.307983" lon="-4.612683">
        <ele>2241.0</ele>
        <time>2015-08-02T13:26:58Z</time>
      </trkpt>
      <trkpt lat="40.307850" lon="-4.612517">
        <ele>2240.0</ele>
        <time>2015-08-02T13:27:00Z</time>
      </trkpt>
      <trkpt lat="40.307733" lon="-4.612367">
        <ele>2235.0</ele>
        <time>2015-08-02T13:27:02Z</time>
      </trkpt>
      <trkpt lat="40.307583" lon="-4.612217">
        <ele>2229.0</ele>
        <time>2015-08-02T13:27:04Z</time>
      </trkpt>
      <trkpt lat="40.307417" lon="-4.612050">
        <ele>2224.0</ele>
        <time>2015-08-02T13:27:06Z</time>
      </trkpt>
      <trkpt lat="40.307283" lon="-4.611883">
        <ele>2219.0</ele>
        <time>2015-08-02T13:27:08Z</time>
      </trkpt>
      <trkpt lat="40.307150" lon="-4.611733">
        <ele>2212.0</ele>
        <time>2015-08-02T13:27:10Z</time>
      </trkpt>
      <trkpt lat="40.306967" lon="-4.611550">
        <ele>2206.0</ele>
        <time>2015-08-02T13:27:12Z</time>
      </trkpt>
      <trkpt lat="40.306783" lon="-4.611400">
        <ele>2204.0</ele>
        <time>2015-08-02T13:27:14Z</time>
      </trkpt>
      <trkpt lat="40.306650" lon="-4.611267">
        <ele>2201.0</ele>
        <time>2015-08-02T13:27:16Z</time>
      </trkpt>
      <trkpt lat="40.306467" lon="-4.611150">
        <ele>2197.0</ele>
        <time>2015-08-02T13:27:18Z</time>
      </trkpt>
      <trkpt lat="40.306283" lon="-4.611067">
        <ele>2196.0</ele>
        <time>2015-08-02T13:27:20Z</time>
      </trkpt>
      <trkpt lat="40.306100" lon="-4.611033">
        <ele>2198.0</ele>
        <time>2015-08-02T13:27:22Z</time>
      </trkpt>
      <trkpt lat="40.305917" lon="-4.610933">
        <ele>2196.0</ele>
        <time>2015-08-02T13:27:24Z</time>
      </trkpt>
      <trkpt lat="40.305733" lon="-4.610733">
        <ele>2198.0</ele>
        <time>2015-08-02T13:27:26Z</time>
      </trkpt>
      <trkpt lat="40.305583" lon="-4.610617">
        <ele>2205.0</ele>
        <time>2015-08-02T13:27:28Z</time>
      </trkpt>
      <trkpt lat="40.305450" lon="-4.610567">
        <ele>2207.0</ele>
        <time>2015-08-02T13:27:30Z</time>
      </trkpt>
      <trkpt lat="40.305250" lon="-4.610467">
        <ele>2207.0</ele>
        <time>2015-08-02T13:27:32Z</time>
      </trkpt>
      <trkpt lat="40.305067" lon="-4.610333">
        <ele>2214.0</ele>
        <time>2015-08-02T13:27:34Z</time>
      </trkpt>
      <trkpt lat="40.304917" lon="-4.610233">
        <ele>2219.0</ele>
        <time>2015-08-02T13:27:36Z</time>
      </trkpt>
      <trkpt lat="40.304750" lon="-4.610100">
        <ele>2217.0</ele>
        <time>2015-08-02T13:27:38Z</time>
      </trkpt>
      <trkpt lat="40.304567" lon="-4.609933">
        <ele>2213.0</ele>
        <time>2015-08-02T13:27:40Z</time>
      </trkpt>
      <trkpt lat="40.304400" lon="-4.609800">
        <ele>2213.0</ele>
        <time>2015-08-02T13:27:42Z</time>
      </trkpt>
      <trkpt lat="40.304217" lon="-4.609650">
        <ele>2210.0</ele>
        <time>2015-08-02T13:27:44Z</time>
      </trkpt>
      <trkpt lat="40.304017" lon="-4.609500">
        <ele>2206.0</ele>
        <time>2015-08-02T13:27:46Z</time>
      </trkpt>
      <trkpt lat="40.303817" lon="-4.609333">
        <ele>2205.0</ele>
        <time>2015-08-02T13:27:48Z</time>
      </trkpt>
      <trkpt lat="40.303633" lon="-4.609183">
        <ele>2208.0</ele>
        <time>2015-08-02T13:27:50Z</time>
      </trkpt>
      <trkpt lat="40.303500" lon="-4.609067">
        <ele>2206.0</ele>
        <time>2015-08-02T13:27:52Z</time>
      </trkpt>
      <trkpt lat="40.303333" lon="-4.608933">
        <ele>2199.0</ele>
        <time>2015-08-02T13:27:54Z</time>
      </trkpt>
      <trkpt lat="40.303150" lon="-4.608733">
        <ele>2192.0</ele>
        <time>2015-08-02T13:27:56Z</time>
      </trkpt>
      <trkpt lat="40.302983" lon="-4.608533">
        <ele>2187.0</ele>
        <time>2015-08-02T13:27:58Z</time>
      </trkpt>
      <trkpt lat="40.302783" lon="-4.608367">
        <ele>2182.0</ele>
        <time>2015-08-02T13:28:00Z</time>
      </trkpt>
      <trkpt lat="40.302617" lon="-4.608200">
        <ele>2178.0</ele>
        <time>2015-08-02T13:28:02Z</time>
      </trkpt>
      <trkpt lat="40.302450" lon="-4.608033">
        <ele>2172.0</ele>
        <time>2015-08-02T13:28:04Z</time>
      </trkpt>
      <trkpt lat="40.302267" lon="-4.607867">
        <ele>2166.0</ele>
        <time>2015-08-02T13:28:06Z</time>
      </trkpt>
      <trkpt lat="40.302067" lon="-4.607683">
        <ele>2161.0</ele>
        <time>2015-08-02T13:28:08Z</time>
      </trkpt>
      <trkpt lat="40.301850" lon="-4.607533">
        <ele>2161.0</ele>
        <time>2015-08-02T13:28:10Z</time>
      </trkpt>
      <trkpt lat="40.301667" lon="-4.607383">
        <ele>2161.0</ele>
        <time>2015-08-02T13:28:12Z</time>
      </trkpt>
      <trkpt lat="40.301483" lon="-4.607217">
        <ele>2159.0</ele>
        <time>2015-08-02T13:28:14Z</time>
      </trkpt>
      <trkpt lat="40.301283" lon="-4.607067">
        <ele>2156.0</ele>
        <time>2015-08-02T13:28:16Z</time>
      </trkpt>
      <trkpt lat="40.301083" lon="-4.606900">
        <ele>2159.0</ele>
        <time>2015-08-02T13:28:18Z</time>
      </trkpt>
      <trkpt lat="40.300933" lon="-4.606750">
        <ele>2159.0</ele>
        <time>2015-08-02T13:28:20Z</time>
      </trkpt>
      <trkpt lat="40.300783" lon="-4.606617">
        <ele>2156.0</ele>
        <time>2015-08-02T13:28:22Z</time>
      </trkpt>
      <trkpt lat="40.300617" lon="-4.606517">
        <ele>2152.0</ele>
        <time>2015-08-02T13:28:24Z</time>
      </trkpt>
      <trkpt lat="40.300450" lon="-4.606417">
        <ele>2148.0</ele>
        <time>2015-08-02T13:28:26Z</time>
      </trkpt>
      <trkpt lat="40.300317" lon="-4.606317">
        <ele>2146.0</ele>
        <time>2015-08-02T13:28:28Z</time>
      </trkpt>
      <trkpt lat="40.300217" lon="-4.606200">
        <ele>2144.0</ele>
        <time>2015-08-02T13:28:30Z</time>
      </trkpt>
      <trkpt lat="40.300067" lon="-4.606050">
        <ele>2139.0</ele>
        <time>2015-08-02T13:28:32Z</time>
      </trkpt>
      <trkpt lat="40.299933" lon="-4.605917">
        <ele>2138.0</ele>
        <time>2015-08-02T13:28:34Z</time>
      </trkpt>
      <trkpt lat="40.299800" lon="-4.605800">
        <ele>2136.0</ele>
        <time>2015-08-02T13:28:36Z</time>
      </trkpt>
      <trkpt lat="40.299667" lon="-4.605667">
        <ele>2130.0</ele>
        <time>2015-08-02T13:28:38Z</time>
      </trkpt>
      <trkpt lat="40.299517" lon="-4.605500">
        <ele>2124.0</ele>
        <time>2015-08-02T13:28:40Z</time>
      </trkpt>
      <trkpt lat="40.299367" lon="-4.605317">
        <ele>2120.0</ele>
        <time>2015-08-02T13:28:42Z</time>
      </trkpt>
      <trkpt lat="40.299217" lon="-4.605167">
        <ele>2120.0</ele>
        <time>2015-08-02T13:28:44Z</time>
      </trkpt>
      <trkpt lat="40.299083" lon="-4.605033">
        <ele>2124.0</ele>
        <time>2015-08-02T13:28:46Z</time>
      </trkpt>
      <trkpt lat="40.298983" lon="-4.604900">
        <ele>2128.0</ele>
        <time>2015-08-02T13:28:48Z</time>
      </trkpt>
      <trkpt lat="40.298867" lon="-4.604767">
        <ele>2129.0</ele>
        <time>2015-08-02T13:28:50Z</time>
      </trkpt>
      <trkpt lat="40.298717" lon="-4.604667">
        <ele>2132.0</ele>
        <time>2015-08-02T13:28:52Z</time>
      </trkpt>
      <trkpt lat="40.298583" lon="-4.604617">
        <ele>2135.0</ele>
        <time>2015-08-02T13:28:54Z</time>
      </trkpt>
      <trkpt lat="40.298433" lon="-4.604567">
        <ele>2138.0</ele>
        <time>2015-08-02T13:28:56Z</time>
      </trkpt>
      <trkpt lat="40.298300" lon="-4.604517">
        <ele>2143.0</ele>
        <time>2015-08-02T13:28:58Z</time>
      </trkpt>
      <trkpt lat="40.298183" lon="-4.604417">
        <ele>2145.0</ele>
        <time>2015-08-02T13:29:00Z</time>
      </trkpt>
      <trkpt lat="40.298050" lon="-4.604317">
        <ele>2147.0</ele>
        <time>2015-08-02T13:29:02Z</time>
      </trkpt>
      <trkpt lat="40.297917" lon="-4.604217">
        <ele>2150.0</ele>
        <time>2015-08-02T13:29:04Z</time>
      </trkpt>
      <trkpt lat="40.297800" lon="-4.604050">
        <ele>2151.0</ele>
        <time>2015-08-02T13:29:06Z</time>
      </trkpt>
      <trkpt lat="40.297683" lon="-4.603867">
        <ele>2151.0</ele>
        <time>2015-08-02T13:29:08Z</time>
      </trkpt>
      <trkpt lat="40.297550" lon="-4.603700">
        <ele>2154.0</ele>
        <time>2015-08-02T13:29:10Z</time>
      </trkpt>
      <trkpt lat="40.297450" lon="-4.603583">
        <ele>2157.0</ele>
        <time>2015-08-02T13:29:12Z</time>
      </trkpt>
      <trkpt lat="40.297350" lon="-4.603467">
        <ele>2158.0</ele>
        <time>2015-08-02T13:29:14Z</time>
      </trkpt>
      <trkpt lat="40.297233" lon="-4.603367">
        <ele>2159.0</ele>
        <time>2015-08-02T13:29:16Z</time>
      </trkpt>
      <trkpt lat="40.297117" lon="-4.603250">
        <ele>2160.0</ele>
        <time>2015-08-02T13:29:18Z</time>
      </trkpt>
      <trkpt lat="40.297000" lon="-4.603067">
        <ele>2160.0</ele>
        <time>2015-08-02T13:29:20Z</time>
      </trkpt>
      <trkpt lat="40.296900" lon="-4.602900">
        <ele>2163.0</ele>
        <time>2015-08-02T13:29:22Z</time>
      </trkpt>
      <trkpt lat="40.296783" lon="-4.602733">
        <ele>2166.0</ele>
        <time>2015-08-02T13:29:24Z</time>
      </trkpt>
      <trkpt lat="40.296683" lon="-4.602533">
        <ele>2172.0</ele>
        <time>2015-08-02T13:29:26Z</time>
      </trkpt>
      <trkpt lat="40.296617" lon="-4.602383">
        <ele>2179.0</ele>
        <time>2015-08-02T13:29:28Z</time>
      </trkpt>
      <trkpt lat="40.296550" lon="-4.602267">
        <ele>2180.0</ele>
        <time>2015-08-02T13:29:30Z</time>
      </trkpt>
      <trkpt lat="40.296433" lon="-4.602117">
        <ele>2177.0</ele>
        <time>2015-08-02T13:29:32Z</time>
      </trkpt>
      <trkpt lat="40.296300" lon="-4.601983">
        <ele>2179.0</ele>
        <time>2015-08-02T13:29:34Z</time>
      </trkpt>
      <trkpt lat="40.296200" lon="-4.601867">
        <ele>2181.0</ele>
        <time>2015-08-02T13:29:36Z</time>
      </trkpt>
      <trkpt lat="40.296117" lon="-4.601750">
        <ele>2180.0</ele>
        <time>2015-08-02T13:29:38Z</time>
      </trkpt>
      <trkpt lat="40.296000" lon="-4.601633">
        <ele>2179.0</ele>
        <time>2015-08-02T13:29:40Z</time>
      </trkpt>
      <trkpt lat="40.295883" lon="-4.601533">
        <ele>2179.0</ele>
        <time>2015-08-02T13:29:42Z</time>
      </trkpt>
      <trkpt lat="40.295783" lon="-4.601417">
        <ele>2178.0</ele>
        <time>2015-08-02T13:29:44Z</time>
      </trkpt>
      <trkpt lat="40.295617" lon="-4.601267">
        <ele>2178.0</ele>
        <time>2015-08-02T13:29:46Z</time>
      </trkpt>
      <trkpt lat="40.295450" lon="-4.601083">
        <ele>2185.0</ele>
        <time>2015-08-02T13:29:48Z</time>
      </trkpt>
      <trkpt lat="40.295333" lon="-4.600900">
        <ele>2191.0</ele>
        <time>2015-08-02T13:29:50Z</time>
      </trkpt>
      <trkpt lat="40.295200" lon="-4.600733">
        <ele>2195.0</ele>
        <time>2015-08-02T13:29:52Z</time>
      </trkpt>
      <trkpt lat="40.295083" lon="-4.600550">
        <ele>2198.0</ele>
        <time>2015-08-02T13:29:54Z</time>
      </trkpt>
      <trkpt lat="40.294967" lon="-4.600367">
        <ele>2200.0</ele>
        <time>2015-08-02T13:29:56Z</time>
      </trkpt>
      <trkpt lat="40.294850" lon="-4.600217">
        <ele>2202.0</ele>
        <time>2015-08-02T13:29:58Z</time>
      </trkpt>
      <trkpt lat="40.294717" lon="-4.600067">
        <ele>2205.0</ele>
        <time>2015-08-02T13:30:00Z</time>
      </trkpt>
      <trkpt lat="40.294617" lon="-4.599950">
        <ele>2206.0</ele>
        <time>2015-08-02T13:30:02Z</time>
      </trkpt>
      <trkpt lat="40.294483" lon="-4.599817">
        <ele>2206.0</ele>
        <time>2015-08-02T13:30:04Z</time>
      </trkpt>
      <trkpt lat="40.294367" lon="-4.599717">
        <ele>2208.0</ele>
        <time>2015-08-02T13:30:06Z</time>
      </trkpt>
      <trkpt lat="40.294267" lon="-4.599633">
        <ele>2207.0</ele>
        <time>2015-08-02T13:30:08Z</time>
      </trkpt>
      <trkpt lat="40.294133" lon="-4.599567">
        <ele>2202.0</ele>
        <time>2015-08-02T13:30:10Z</time>
      </trkpt>
      <trkpt lat="40.294000" lon="-4.599500">
        <ele>2201.0</ele>
        <time>2015-08-02T13:30:12Z</time>
      </trkpt>
      <trkpt lat="40.293900" lon="-4.599417">
        <ele>2202.0</ele>
        <time>2015-08-02T13:30:14Z</time>
      </trkpt>
      <trkpt lat="40.293783" lon="-4.599350">
        <ele>2201.0</ele>
        <time>2015-08-02T13:30:16Z</time>
      </trkpt>
      <trkpt lat="40.293667" lon="-4.599300">
        <ele>2200.0</ele>
        <time>2015-08-02T13:30:18Z</time>
      </trkpt>
      <trkpt lat="40.293567" lon="-4.599250">
        <ele>2200.0</ele>
        <time>2015-08-02T13:30:20Z</time>
      </trkpt>
      <trkpt lat="40.293450" lon="-4.599217">
        <ele>2197.0</ele>
        <time>2015-08-02T13:30:22Z</time>
      </trkpt>
      <trkpt lat="40.293317" lon="-4.599183">
        <ele>2196.0</ele>
        <time>2015-08-02T13:30:24Z</time>
      </trkpt>
      <trkpt lat="40.293217" lon="-4.599167">
        <ele>2199.0</ele>
        <time>2015-08-02T13:30:26Z</time>
      </trkpt>
      <trkpt lat="40.293117" lon="-4.599100">
        <ele>2195.0</ele>
        <time>2015-08-02T13:30:28Z</time>
      </trkpt>
      <trkpt lat="40.292983" lon="-4.599050">
        <ele>2191.0</ele>
        <time>2015-08-02T13:30:30Z</time>
      </trkpt>
      <trkpt lat="40.292850" lon="-4.599017">
        <ele>2191.0</ele>
        <time>2015-08-02T13:30:32Z</time>
      </trkpt>
      <trkpt lat="40.292733" lon="-4.598933">
        <ele>2190.0</ele>
        <time>2015-08-02T13:30:34Z</time>
      </trkpt>
      <trkpt lat="40.292617" lon="-4.598833">
        <ele>2188.0</ele>
        <time>2015-08-02T13:30:36Z</time>
      </trkpt>
      <trkpt lat="40.292500" lon="-4.598700">
        <ele>2189.0</ele>
        <time>2015-08-02T13:30:38Z</time>
      </trkpt>
      <trkpt lat="40.292433" lon="-4.598550">
        <ele>2190.0</ele>
        <time>2015-08-02T13:30:40Z</time>
      </trkpt>
      <trkpt lat="40.292383" lon="-4.598383">
        <ele>2187.0</ele>
        <time>2015-08-02T13:30:42Z</time>
      </trkpt>
      <trkpt lat="40.292317" lon="-4.598183">
        <ele>2183.0</ele>
        <time>2015-08-02T13:30:44Z</time>
      </trkpt>
      <trkpt lat="40.292267" lon="-4.597967">
        <ele>2184.0</ele>
        <time>2015-08-02T13:30:46Z</time>
      </trkpt>
      <trkpt lat="40.292217" lon="-4.597750">
        <ele>2183.0</ele>
        <time>2015-08-02T13:30:48Z</time>
      </trkpt>
      <trkpt lat="40.292167" lon="-4.597550">
        <ele>2184.0</ele>
        <time>2015-08-02T13:30:50Z</time>
      </trkpt>
      <trkpt lat="40.292117" lon="-4.597367">
        <ele>2186.0</ele>
        <time>2015-08-02T13:30:52Z</time>
      </trkpt>
      <trkpt lat="40.292067" lon="-4.597133">
        <ele>2186.0</ele>
        <time>2015-08-02T13:30:54Z</time>
      </trkpt>
      <trkpt lat="40.292017" lon="-4.596900">
        <ele>2187.0</ele>
        <time>2015-08-02T13:30:56Z</time>
      </trkpt>
      <trkpt lat="40.291983" lon="-4.596667">
        <ele>2189.0</ele>
        <time>2015-08-02T13:30:58Z</time>
      </trkpt>
      <trkpt lat="40.291967" lon="-4.596417">
        <ele>2191.0</ele>
        <time>2015-08-02T13:31:00Z</time>
      </trkpt>
      <trkpt lat="40.291967" lon="-4.596167">
        <ele>2191.0</ele>
        <time>2015-08-02T13:31:02Z</time>
      </trkpt>
      <trkpt lat="40.291983" lon="-4.595883">
        <ele>2189.0</ele>
        <time>2015-08-02T13:31:04Z</time>
      </trkpt>
      <trkpt lat="40.292000" lon="-4.595583">
        <ele>2189.0</ele>
        <time>2015-08-02T13:31:06Z</time>
      </trkpt>
      <trkpt lat="40.292000" lon="-4.595267">
        <ele>2191.0</ele>
        <time>2015-08-02T13:31:08Z</time>
      </trkpt>
      <trkpt lat="40.292017" lon="-4.594967">
        <ele>2195.0</ele>
        <time>2015-08-02T13:31:10Z</time>
      </trkpt>
      <trkpt lat="40.292067" lon="-4.594667">
        <ele>2197.0</ele>
        <time>2015-08-02T13:31:12Z</time>
      </trkpt>
      <trkpt lat="40.292117" lon="-4.594333">
        <ele>2197.0</ele>
        <time>2015-08-02T13:31:14Z</time>
      </trkpt>
      <trkpt lat="40.292183" lon="-4.594017">
        <ele>2202.0</ele>
        <time>2015-08-02T13:31:16Z</time>
      </trkpt>
      <trkpt lat="40.292250" lon="-4.593767">
        <ele>2204.0</ele>
        <time>2015-08-02T13:31:18Z</time>
      </trkpt>
      <trkpt lat="40.292333" lon="-4.593467">
        <ele>2202.0</ele>
        <time>2015-08-02T13:31:20Z</time>
      </trkpt>
      <trkpt lat="40.292433" lon="-4.593150">
        <ele>2201.0</ele>
        <time>2015-08-02T13:31:22Z</time>
      </trkpt>
      <trkpt lat="40.292533" lon="-4.592850">
        <ele>2200.0</ele>
        <time>2015-08-02T13:31:24Z</time>
      </trkpt>
      <trkpt lat="40.292650" lon="-4.592550">
        <ele>2196.0</ele>
        <time>2015-08-02T13:31:26Z</time>
      </trkpt>
      <trkpt lat="40.292700" lon="-4.592217">
        <ele>2194.0</ele>
        <time>2015-08-02T13:31:28Z</time>
      </trkpt>
      <trkpt lat="40.292700" lon="-4.591950">
        <ele>2192.0</ele>
        <time>2015-08-02T13:31:30Z</time>
      </trkpt>
      <trkpt lat="40.292583" lon="-4.591717">
        <ele>2188.0</ele>
        <time>2015-08-02T13:31:32Z</time>
      </trkpt>
      <trkpt lat="40.292450" lon="-4.591533">
        <ele>2185.0</ele>
        <time>2015-08-02T13:31:34Z</time>
      </trkpt>
      <trkpt lat="40.292317" lon="-4.591367">
        <ele>2184.0</ele>
        <time>2015-08-02T13:31:36Z</time>
      </trkpt>
      <trkpt lat="40.292200" lon="-4.591267">
        <ele>2181.0</ele>
        <time>2015-08-02T13:31:38Z</time>
      </trkpt>
      <trkpt lat="40.292067" lon="-4.591200">
        <ele>2174.0</ele>
        <time>2015-08-02T13:31:40Z</time>
      </trkpt>
      <trkpt lat="40.291900" lon="-4.591083">
        <ele>2173.0</ele>
        <time>2015-08-02T13:31:42Z</time>
      </trkpt>
      <trkpt lat="40.291783" lon="-4.591000">
        <ele>2173.0</ele>
        <time>2015-08-02T13:31:44Z</time>
      </trkpt>
      <trkpt lat="40.291667" lon="-4.590917">
        <ele>2169.0</ele>
        <time>2015-08-02T13:31:46Z</time>
      </trkpt>
      <trkpt lat="40.291533" lon="-4.590817">
        <ele>2166.0</ele>
        <time>2015-08-02T13:31:48Z</time>
      </trkpt>
      <trkpt lat="40.291383" lon="-4.590733">
        <ele>2164.0</ele>
        <time>2015-08-02T13:31:50Z</time>
      </trkpt>
      <trkpt lat="40.291267" lon="-4.590633">
        <ele>2162.0</ele>
        <time>2015-08-02T13:31:52Z</time>
      </trkpt>
      <trkpt lat="40.291150" lon="-4.590533">
        <ele>2158.0</ele>
        <time>2015-08-02T13:31:54Z</time>
      </trkpt>
      <trkpt lat="40.291017" lon="-4.590433">
        <ele>2155.0</ele>
        <time>2015-08-02T13:31:56Z</time>
      </trkpt>
      <trkpt lat="40.290883" lon="-4.590300">
        <ele>2155.0</ele>
        <time>2015-08-02T13:31:58Z</time>
      </trkpt>
      <trkpt lat="40.290767" lon="-4.590217">
        <ele>2155.0</ele>
        <time>2015-08-02T13:32:00Z</time>
      </trkpt>
      <trkpt lat="40.290667" lon="-4.590133">
        <ele>2153.0</ele>
        <time>2015-08-02T13:32:02Z</time>
      </trkpt>
      <trkpt lat="40.290517" lon="-4.590033">
        <ele>2150.0</ele>
        <time>2015-08-02T13:32:04Z</time>
      </trkpt>
      <trkpt lat="40.290367" lon="-4.589933">
        <ele>2150.0</ele>
        <time>2015-08-02T13:32:06Z</time>
      </trkpt>
      <trkpt lat="40.290233" lon="-4.589833">
        <ele>2150.0</ele>
        <time>2015-08-02T13:32:08Z</time>
      </trkpt>
      <trkpt lat="40.290083" lon="-4.589717">
        <ele>2149.0</ele>
        <time>2015-08-02T13:32:10Z</time>
      </trkpt>
      <trkpt lat="40.289933" lon="-4.589617">
        <ele>2150.0</ele>
        <time>2015-08-02T13:32:12Z</time>
      </trkpt>
      <trkpt lat="40.289800" lon="-4.589550">
        <ele>2150.0</ele>
        <time>2015-08-02T13:32:14Z</time>
      </trkpt>
      <trkpt lat="40.289650" lon="-4.589450">
        <ele>2148.0</ele>
        <time>2015-08-02T13:32:16Z</time>
      </trkpt>
      <trkpt lat="40.289500" lon="-4.589317">
        <ele>2148.0</ele>
        <time>2015-08-02T13:32:18Z</time>
      </trkpt>
      <trkpt lat="40.289367" lon="-4.589200">
        <ele>2148.0</ele>
        <time>2015-08-02T13:32:20Z</time>
      </trkpt>
      <trkpt lat="40.289233" lon="-4.589100">
        <ele>2145.0</ele>
        <time>2015-08-02T13:32:22Z</time>
      </trkpt>
      <trkpt lat="40.289083" lon="-4.589000">
        <ele>2142.0</ele>
        <time>2015-08-02T13:32:24Z</time>
      </trkpt>
      <trkpt lat="40.288950" lon="-4.588933">
        <ele>2140.0</ele>
        <time>2015-08-02T13:32:26Z</time>
      </trkpt>
      <trkpt lat="40.288800" lon="-4.588867">
        <ele>2136.0</ele>
        <time>2015-08-02T13:32:28Z</time>
      </trkpt>
      <trkpt lat="40.288650" lon="-4.588833">
        <ele>2133.0</ele>
        <time>2015-08-02T13:32:30Z</time>
      </trkpt>
      <trkpt lat="40.288500" lon="-4.588767">
        <ele>2131.0</ele>
        <time>2015-08-02T13:32:32Z</time>
      </trkpt>
      <trkpt lat="40.288350" lon="-4.588700">
        <ele>2129.0</ele>
        <time>2015-08-02T13:32:34Z</time>
      </trkpt>
      <trkpt lat="40.288200" lon="-4.588633">
        <ele>2126.0</ele>
        <time>2015-08-02T13:32:36Z</time>
      </trkpt>
      <trkpt lat="40.288050" lon="-4.588533">
        <ele>2123.0</ele>
        <time>2015-08-02T13:32:38Z</time>
      </trkpt>
      <trkpt lat="40.287883" lon="-4.588383">
        <ele>2121.0</ele>
        <time>2015-08-02T13:32:40Z</time>
      </trkpt>
      <trkpt lat="40.287717" lon="-4.588233">
        <ele>2122.0</ele>
        <time>2015-08-02T13:32:42Z</time>
      </trkpt>
      <trkpt lat="40.287583" lon="-4.588100">
        <ele>2123.0</ele>
        <time>2015-08-02T13:32:44Z</time>
      </trkpt>
      <trkpt lat="40.287467" lon="-4.587967">
        <ele>2120.0</ele>
        <time>2015-08-02T13:32:46Z</time>
      </trkpt>
      <trkpt lat="40.287300" lon="-4.587800">
        <ele>2117.0</ele>
        <time>2015-08-02T13:32:48Z</time>
      </trkpt>
      <trkpt lat="40.287183" lon="-4.587567">
        <ele>2117.0</ele>
        <time>2015-08-02T13:32:50Z</time>
      </trkpt>
      <trkpt lat="40.287083" lon="-4.587350">
        <ele>2116.0</ele>
        <time>2015-08-02T13:32:52Z</time>
      </trkpt>
      <trkpt lat="40.286967" lon="-4.587117">
        <ele>2111.0</ele>
        <time>2015-08-02T13:32:54Z</time>
      </trkpt>
      <trkpt lat="40.286817" lon="-4.586933">
        <ele>2108.0</ele>
        <time>2015-08-02T13:32:56Z</time>
      </trkpt>
      <trkpt lat="40.286650" lon="-4.586850">
        <ele>2107.0</ele>
        <time>2015-08-02T13:32:58Z</time>
      </trkpt>
      <trkpt lat="40.286500" lon="-4.586750">
        <ele>2106.0</ele>
        <time>2015-08-02T13:33:00Z</time>
      </trkpt>
      <trkpt lat="40.286317" lon="-4.586667">
        <ele>2102.0</ele>
        <time>2015-08-02T13:33:02Z</time>
      </trkpt>
      <trkpt lat="40.286150" lon="-4.586583">
        <ele>2100.0</ele>
        <time>2015-08-02T13:33:04Z</time>
      </trkpt>
      <trkpt lat="40.285967" lon="-4.586517">
        <ele>2098.0</ele>
        <time>2015-08-02T13:33:06Z</time>
      </trkpt>
      <trkpt lat="40.285800" lon="-4.586433">
        <ele>2096.0</ele>
        <time>2015-08-02T13:33:08Z</time>
      </trkpt>
      <trkpt lat="40.285633" lon="-4.586300">
        <ele>2096.0</ele>
        <time>2015-08-02T13:33:10Z</time>
      </trkpt>
      <trkpt lat="40.285467" lon="-4.586183">
        <ele>2095.0</ele>
        <time>2015-08-02T13:33:12Z</time>
      </trkpt>
      <trkpt lat="40.285300" lon="-4.586067">
        <ele>2093.0</ele>
        <time>2015-08-02T13:33:14Z</time>
      </trkpt>
      <trkpt lat="40.285117" lon="-4.585967">
        <ele>2092.0</ele>
        <time>2015-08-02T13:33:16Z</time>
      </trkpt>
      <trkpt lat="40.284967" lon="-4.585867">
        <ele>2092.0</ele>
        <time>2015-08-02T13:33:18Z</time>
      </trkpt>
      <trkpt lat="40.284817" lon="-4.585800">
        <ele>2089.0</ele>
        <time>2015-08-02T13:33:20Z</time>
      </trkpt>
      <trkpt lat="40.284633" lon="-4.585700">
        <ele>2086.0</ele>
        <time>2015-08-02T13:33:22Z</time>
      </trkpt>
      <trkpt lat="40.284467" lon="-4.585550">
        <ele>2088.0</ele>
        <time>2015-08-02T13:33:24Z</time>
      </trkpt>
      <trkpt lat="40.284350" lon="-4.585417">
        <ele>2089.0</ele>
        <time>2015-08-02T13:33:26Z</time>
      </trkpt>
      <trkpt lat="40.284217" lon="-4.585333">
        <ele>2084.0</ele>
        <time>2015-08-02T13:33:28Z</time>
      </trkpt>
      <trkpt lat="40.284017" lon="-4.585233">
        <ele>2081.0</ele>
        <time>2015-08-02T13:33:30Z</time>
      </trkpt>
      <trkpt lat="40.283850" lon="-4.585100">
        <ele>2082.0</ele>
        <time>2015-08-02T13:33:32Z</time>
      </trkpt>
      <trkpt lat="40.283700" lon="-4.584983">
        <ele>2081.0</ele>
        <time>2015-08-02T13:33:34Z</time>
      </trkpt>
      <trkpt lat="40.283517" lon="-4.584867">
        <ele>2076.0</ele>
        <time>2015-08-02T13:33:36Z</time>
      </trkpt>
      <trkpt lat="40.283333" lon="-4.584750">
        <ele>2076.0</ele>
        <time>2015-08-02T13:33:38Z</time>
      </trkpt>
      <trkpt lat="40.283200" lon="-4.584633">
        <ele>2076.0</ele>
        <time>2015-08-02T13:33:40Z</time>
      </trkpt>
      <trkpt lat="40.283050" lon="-4.584567">
        <ele>2071.0</ele>
        <time>2015-08-02T13:33:42Z</time>
      </trkpt>
      <trkpt lat="40.282867" lon="-4.584500">
        <ele>2066.0</ele>
        <time>2015-08-02T13:33:44Z</time>
      </trkpt>
      <trkpt lat="40.282700" lon="-4.584417">
        <ele>2065.0</ele>
        <time>2015-08-02T13:33:46Z</time>
      </trkpt>
      <trkpt lat="40.282550" lon="-4.584317">
        <ele>2063.0</ele>
        <time>2015-08-02T13:33:48Z</time>
      </trkpt>
      <trkpt lat="40.282383" lon="-4.584183">
        <ele>2058.0</ele>
        <time>2015-08-02T13:33:50Z</time>
      </trkpt>
      <trkpt lat="40.282217" lon="-4.584083">
        <ele>2056.0</ele>
        <time>2015-08-02T13:33:52Z</time>
      </trkpt>
      <trkpt lat="40.282067" lon="-4.584000">
        <ele>2053.0</ele>
        <time>2015-08-02T13:33:54Z</time>
      </trkpt>
      <trkpt lat="40.281900" lon="-4.583933">
        <ele>2047.0</ele>
        <time>2015-08-02T13:33:56Z</time>
      </trkpt>
      <trkpt lat="40.281717" lon="-4.583867">
        <ele>2042.0</ele>
        <time>2015-08-02T13:33:58Z</time>
      </trkpt>
      <trkpt lat="40.281550" lon="-4.583783">
        <ele>2038.0</ele>
        <time>2015-08-02T13:34:00Z</time>
      </trkpt>
      <trkpt lat="40.281383" lon="-4.583683">
        <ele>2034.0</ele>
        <time>2015-08-02T13:34:02Z</time>
      </trkpt>
      <trkpt lat="40.281217" lon="-4.583600">
        <ele>2027.0</ele>
        <time>2015-08-02T13:34:04Z</time>
      </trkpt>
      <trkpt lat="40.281050" lon="-4.583533">
        <ele>2019.0</ele>
        <time>2015-08-02T13:34:06Z</time>
      </trkpt>
      <trkpt lat="40.280883" lon="-4.583467">
        <ele>2012.0</ele>
        <time>2015-08-02T13:34:08Z</time>
      </trkpt>
      <trkpt lat="40.280700" lon="-4.583383">
        <ele>2005.0</ele>
        <time>2015-08-02T13:34:10Z</time>
      </trkpt>
      <trkpt lat="40.280517" lon="-4.583300">
        <ele>2000.0</ele>
        <time>2015-08-02T13:34:12Z</time>
      </trkpt>
      <trkpt lat="40.280333" lon="-4.583200">
        <ele>1996.0</ele>
        <time>2015-08-02T13:34:14Z</time>
      </trkpt>
      <trkpt lat="40.280150" lon="-4.583083">
        <ele>1994.0</ele>
        <time>2015-08-02T13:34:16Z</time>
      </trkpt>
      <trkpt lat="40.279967" lon="-4.582967">
        <ele>1991.0</ele>
        <time>2015-08-02T13:34:18Z</time>
      </trkpt>
      <trkpt lat="40.279800" lon="-4.582900">
        <ele>1988.0</ele>
        <time>2015-08-02T13:34:20Z</time>
      </trkpt>
      <trkpt lat="40.279650" lon="-4.582817">
        <ele>1986.0</ele>
        <time>2015-08-02T13:34:22Z</time>
      </trkpt>
      <trkpt lat="40.279500" lon="-4.582717">
        <ele>1983.0</ele>
        <time>2015-08-02T13:34:24Z</time>
      </trkpt>
      <trkpt lat="40.279317" lon="-4.582617">
        <ele>1977.0</ele>
        <time>2015-08-02T13:34:26Z</time>
      </trkpt>
      <trkpt lat="40.279100" lon="-4.582467">
        <ele>1977.0</ele>
        <time>2015-08-02T13:34:28Z</time>
      </trkpt>
      <trkpt lat="40.278933" lon="-4.582350">
        <ele>1977.0</ele>
        <time>2015-08-02T13:34:30Z</time>
      </trkpt>
      <trkpt lat="40.278783" lon="-4.582233">
        <ele>1973.0</ele>
        <time>2015-08-02T13:34:32Z</time>
      </trkpt>
      <trkpt lat="40.278617" lon="-4.582150">
        <ele>1968.0</ele>
        <time>2015-08-02T13:34:34Z</time>
      </trkpt>
      <trkpt lat="40.278450" lon="-4.582067">
        <ele>1962.0</ele>
        <time>2015-08-02T13:34:36Z</time>
      </trkpt>
      <trkpt lat="40.278267" lon="-4.582000">
        <ele>1954.0</ele>
        <time>2015-08-02T13:34:38Z</time>
      </trkpt>
      <trkpt lat="40.278100" lon="-4.581917">
        <ele>1948.0</ele>
        <time>2015-08-02T13:34:40Z</time>
      </trkpt>
      <trkpt lat="40.277933" lon="-4.581833">
        <ele>1943.0</ele>
        <time>2015-08-02T13:34:42Z</time>
      </trkpt>
      <trkpt lat="40.277783" lon="-4.581750">
        <ele>1935.0</ele>
        <time>2015-08-02T13:34:44Z</time>
      </trkpt>
      <trkpt lat="40.277617" lon="-4.581667">
        <ele>1926.0</ele>
        <time>2015-08-02T13:34:46Z</time>
      </trkpt>
      <trkpt lat="40.277433" lon="-4.581550">
        <ele>1919.0</ele>
        <time>2015-08-02T13:34:48Z</time>
      </trkpt>
      <trkpt lat="40.277267" lon="-4.581433">
        <ele>1913.0</ele>
        <time>2015-08-02T13:34:50Z</time>
      </trkpt>
      <trkpt lat="40.277100" lon="-4.581333">
        <ele>1906.0</ele>
        <time>2015-08-02T13:34:52Z</time>
      </trkpt>
      <trkpt lat="40.276933" lon="-4.581217">
        <ele>1901.0</ele>
        <time>2015-08-02T13:34:54Z</time>
      </trkpt>
      <trkpt lat="40.276750" lon="-4.581100">
        <ele>1897.0</ele>
        <time>2015-08-02T13:34:56Z</time>
      </trkpt>
      <trkpt lat="40.276600" lon="-4.580983">
        <ele>1894.0</ele>
        <time>2015-08-02T13:34:58Z</time>
      </trkpt>
      <trkpt lat="40.276433" lon="-4.580883">
        <ele>1889.0</ele>
        <time>2015-08-02T13:35:00Z</time>
      </trkpt>
      <trkpt lat="40.276283" lon="-4.580783">
        <ele>1886.0</ele>
        <time>2015-08-02T13:35:02Z</time>
      </trkpt>
      <trkpt lat="40.276133" lon="-4.580667">
        <ele>1883.0</ele>
        <time>2015-08-02T13:35:04Z</time>
      </trkpt>
      <trkpt lat="40.275983" lon="-4.580550">
        <ele>1878.0</ele>
        <time>2015-08-02T13:35:06Z</time>
      </trkpt>
      <trkpt lat="40.275833" lon="-4.580433">
        <ele>1874.0</ele>
        <time>2015-08-02T13:35:08Z</time>
      </trkpt>
      <trkpt lat="40.275683" lon="-4.580300">
        <ele>1871.0</ele>
        <time>2015-08-02T13:35:10Z</time>
      </trkpt>
      <trkpt lat="40.275550" lon="-4.580200">
        <ele>1867.0</ele>
        <time>2015-08-02T13:35:12Z</time>
      </trkpt>
      <trkpt lat="40.275417" lon="-4.580100">
        <ele>1862.0</ele>
        <time>2015-08-02T13:35:14Z</time>
      </trkpt>
      <trkpt lat="40.275267" lon="-4.580000">
        <ele>1857.0</ele>
        <time>2015-08-02T13:35:16Z</time>
      </trkpt>
      <trkpt lat="40.275117" lon="-4.579917">
        <ele>1855.0</ele>
        <time>2015-08-02T13:35:18Z</time>
      </trkpt>
      <trkpt lat="40.275000" lon="-4.579817">
        <ele>1854.0</ele>
        <time>2015-08-02T13:35:20Z</time>
      </trkpt>
      <trkpt lat="40.274867" lon="-4.579717">
        <ele>1850.0</ele>
        <time>2015-08-02T13:35:22Z</time>
      </trkpt>
      <trkpt lat="40.274733" lon="-4.579633">
        <ele>1847.0</ele>
        <time>2015-08-02T13:35:24Z</time>
      </trkpt>
      <trkpt lat="40.274600" lon="-4.579533">
        <ele>1847.0</ele>
        <time>2015-08-02T13:35:26Z</time>
      </trkpt>
      <trkpt lat="40.274483" lon="-4.579450">
        <ele>1845.0</ele>
        <time>2015-08-02T13:35:28Z</time>
      </trkpt>
      <trkpt lat="40.274350" lon="-4.579383">
        <ele>1841.0</ele>
        <time>2015-08-02T13:35:30Z</time>
      </trkpt>
      <trkpt lat="40.274233" lon="-4.579317">
        <ele>1840.0</ele>
        <time>2015-08-02T13:35:32Z</time>
      </trkpt>
      <trkpt lat="40.274133" lon="-4.579250">
        <ele>1838.0</ele>
        <time>2015-08-02T13:35:34Z</time>
      </trkpt>
      <trkpt lat="40.274017" lon="-4.579167">
        <ele>1833.0</ele>
        <time>2015-08-02T13:35:36Z</time>
      </trkpt>
      <trkpt lat="40.273900" lon="-4.579100">
        <ele>1829.0</ele>
        <time>2015-08-02T13:35:38Z</time>
      </trkpt>
      <trkpt lat="40.273800" lon="-4.579050">
        <ele>1825.0</ele>
        <time>2015-08-02T13:35:40Z</time>
      </trkpt>
      <trkpt lat="40.273717" lon="-4.578967">
        <ele>1819.0</ele>
        <time>2015-08-02T13:35:42Z</time>
      </trkpt>
      <trkpt lat="40.273617" lon="-4.578900">
        <ele>1812.0</ele>
        <time>2015-08-02T13:35:44Z</time>
      </trkpt>
      <trkpt lat="40.273517" lon="-4.578817">
        <ele>1806.0</ele>
        <time>2015-08-02T13:35:46Z</time>
      </trkpt>
      <trkpt lat="40.273433" lon="-4.578717">
        <ele>1799.0</ele>
        <time>2015-08-02T13:35:48Z</time>
      </trkpt>
      <trkpt lat="40.273300" lon="-4.578583">
        <ele>1791.0</ele>
        <time>2015-08-02T13:35:50Z</time>
      </trkpt>
      <trkpt lat="40.273217" lon="-4.578417">
        <ele>1788.0</ele>
        <time>2015-08-02T13:35:52Z</time>
      </trkpt>
      <trkpt lat="40.273150" lon="-4.578200">
        <ele>1784.0</ele>
        <time>2015-08-02T13:35:54Z</time>
      </trkpt>
      <trkpt lat="40.273083" lon="-4.578067">
        <ele>1778.0</ele>
        <time>2015-08-02T13:35:56Z</time>
      </trkpt>
      <trkpt lat="40.272967" lon="-4.577983">
        <ele>1772.0</ele>
        <time>2015-08-02T13:35:58Z</time>
      </trkpt>
      <trkpt lat="40.272867" lon="-4.577950">
        <ele>1769.0</ele>
        <time>2015-08-02T13:36:00Z</time>
      </trkpt>
      <trkpt lat="40.272783" lon="-4.577950">
        <ele>1764.0</ele>
        <time>2015-08-02T13:36:02Z</time>
      </trkpt>
      <trkpt lat="40.272700" lon="-4.577900">
        <ele>1759.0</ele>
        <time>2015-08-02T13:36:04Z</time>
      </trkpt>
      <trkpt lat="40.272583" lon="-4.577867">
        <ele>1754.0</ele>
        <time>2015-08-02T13:36:06Z</time>
      </trkpt>
      <trkpt lat="40.272483" lon="-4.577833">
        <ele>1749.0</ele>
        <time>2015-08-02T13:36:08Z</time>
      </trkpt>
      <trkpt lat="40.272383" lon="-4.577767">
        <ele>1746.0</ele>
        <time>2015-08-02T13:36:10Z</time>
      </trkpt>
      <trkpt lat="40.272267" lon="-4.577700">
        <ele>1742.0</ele>
        <time>2015-08-02T13:36:12Z</time>
      </trkpt>
      <trkpt lat="40.272133" lon="-4.577617">
        <ele>1738.0</ele>
        <time>2015-08-02T13:36:14Z</time>
      </trkpt>
      <trkpt lat="40.272033" lon="-4.577517">
        <ele>1735.0</ele>
        <time>2015-08-02T13:36:16Z</time>
      </trkpt>
      <trkpt lat="40.271933" lon="-4.577417">
        <ele>1730.0</ele>
        <time>2015-08-02T13:36:18Z</time>
      </trkpt>
      <trkpt lat="40.271817" lon="-4.577333">
        <ele>1724.0</ele>
        <time>2015-08-02T13:36:20Z</time>
      </trkpt>
      <trkpt lat="40.271700" lon="-4.577250">
        <ele>1719.0</ele>
        <time>2015-08-02T13:36:22Z</time>
      </trkpt>
      <trkpt lat="40.271600" lon="-4.577150">
        <ele>1716.0</ele>
        <time>2015-08-02T13:36:24Z</time>
      </trkpt>
      <trkpt lat="40.271500" lon="-4.577067">
        <ele>1711.0</ele>
        <time>2015-08-02T13:36:26Z</time>
      </trkpt>
      <trkpt lat="40.271400" lon="-4.576983">
        <ele>1705.0</ele>
        <time>2015-08-02T13:36:28Z</time>
      </trkpt>
      <trkpt lat="40.271317" lon="-4.576950">
        <ele>1698.0</ele>
        <time>2015-08-02T13:36:30Z</time>
      </trkpt>
      <trkpt lat="40.271200" lon="-4.576967">
        <ele>1691.0</ele>
        <time>2015-08-02T13:36:32Z</time>
      </trkpt>
      <trkpt lat="40.271100" lon="-4.576950">
        <ele>1685.0</ele>
        <time>2015-08-02T13:36:34Z</time>
      </trkpt>
      <trkpt lat="40.271000" lon="-4.576933">
        <ele>1680.0</ele>
        <time>2015-08-02T13:36:36Z</time>
      </trkpt>
      <trkpt lat="40.270917" lon="-4.576917">
        <ele>1673.0</ele>
        <time>2015-08-02T13:36:38Z</time>
      </trkpt>
      <trkpt lat="40.270817" lon="-4.576917">
        <ele>1666.0</ele>
        <time>2015-08-02T13:36:40Z</time>
      </trkpt>
      <trkpt lat="40.270717" lon="-4.576917">
        <ele>1660.0</ele>
        <time>2015-08-02T13:36:42Z</time>
      </trkpt>
      <trkpt lat="40.270633" lon="-4.576867">
        <ele>1653.0</ele>
        <time>2015-08-02T13:36:44Z</time>
      </trkpt>
      <trkpt lat="40.270533" lon="-4.576850">
        <ele>1645.0</ele>
        <time>2015-08-02T13:36:46Z</time>
      </trkpt>
      <trkpt lat="40.270417" lon="-4.576817">
        <ele>1638.0</ele>
        <time>2015-08-02T13:36:48Z</time>
      </trkpt>
      <trkpt lat="40.270300" lon="-4.576767">
        <ele>1632.0</ele>
        <time>2015-08-02T13:36:50Z</time>
      </trkpt>
      <trkpt lat="40.270183" lon="-4.576700">
        <ele>1626.0</ele>
        <time>2015-08-02T13:36:52Z</time>
      </trkpt>
      <trkpt lat="40.270083" lon="-4.576633">
        <ele>1619.0</ele>
        <time>2015-08-02T13:36:54Z</time>
      </trkpt>
      <trkpt lat="40.269983" lon="-4.576567">
        <ele>1612.0</ele>
        <time>2015-08-02T13:36:56Z</time>
      </trkpt>
      <trkpt lat="40.269867" lon="-4.576500">
        <ele>1605.0</ele>
        <time>2015-08-02T13:36:58Z</time>
      </trkpt>
      <trkpt lat="40.269783" lon="-4.576417">
        <ele>1600.0</ele>
        <time>2015-08-02T13:37:00Z</time>
      </trkpt>
      <trkpt lat="40.269683" lon="-4.576300">
        <ele>1594.0</ele>
        <time>2015-08-02T13:37:02Z</time>
      </trkpt>
      <trkpt lat="40.269583" lon="-4.576183">
        <ele>1588.0</ele>
        <time>2015-08-02T13:37:04Z</time>
      </trkpt>
      <trkpt lat="40.269467" lon="-4.576050">
        <ele>1583.0</ele>
        <time>2015-08-02T13:37:06Z</time>
      </trkpt>
      <trkpt lat="40.269383" lon="-4.575900">
        <ele>1578.0</ele>
        <time>2015-08-02T13:37:08Z</time>
      </trkpt>
      <trkpt lat="40.269300" lon="-4.575750">
        <ele>1571.0</ele>
        <time>2015-08-02T13:37:10Z</time>
      </trkpt>
      <trkpt lat="40.269183" lon="-4.575583">
        <ele>1565.0</ele>
        <time>2015-08-02T13:37:12Z</time>
      </trkpt>
      <trkpt lat="40.269067" lon="-4.575400">
        <ele>1561.0</ele>
        <time>2015-08-02T13:37:14Z</time>
      </trkpt>
      <trkpt lat="40.268950" lon="-4.575267">
        <ele>1559.0</ele>
        <time>2015-08-02T13:37:16Z</time>
      </trkpt>
      <trkpt lat="40.268867" lon="-4.575100">
        <ele>1553.0</ele>
        <time>2015-08-02T13:37:18Z</time>
      </trkpt>
      <trkpt lat="40.268750" lon="-4.574833">
        <ele>1548.0</ele>
        <time>2015-08-02T13:37:20Z</time>
      </trkpt>
      <trkpt lat="40.268650" lon="-4.574600">
        <ele>1552.0</ele>
        <time>2015-08-02T13:37:22Z</time>
      </trkpt>
      <trkpt lat="40.268600" lon="-4.574350">
        <ele>1552.0</ele>
        <time>2015-08-02T13:37:24Z</time>
      </trkpt>
      <trkpt lat="40.268500" lon="-4.574100">
        <ele>1551.0</ele>
        <time>2015-08-02T13:37:26Z</time>
      </trkpt>
      <trkpt lat="40.268383" lon="-4.573900">
        <ele>1552.0</ele>
        <time>2015-08-02T13:37:28Z</time>
      </trkpt>
      <trkpt lat="40.268283" lon="-4.573733">
        <ele>1551.0</ele>
        <time>2015-08-02T13:37:30Z</time>
      </trkpt>
      <trkpt lat="40.268150" lon="-4.573583">
        <ele>1547.0</ele>
        <time>2015-08-02T13:37:32Z</time>
      </trkpt>
      <trkpt lat="40.268067" lon="-4.573533">
        <ele>1544.0</ele>
        <time>2015-08-02T13:37:33Z</time>
      </trkpt>
      <trkpt lat="40.267900" lon="-4.573417">
        <ele>1538.0</ele>
        <time>2015-08-02T13:37:35Z</time>
      </trkpt>
      <trkpt lat="40.267700" lon="-4.573350">
        <ele>1532.0</ele>
        <time>2015-08-02T13:37:37Z</time>
      </trkpt>
      <trkpt lat="40.267583" lon="-4.573517">
        <ele>1526.0</ele>
        <time>2015-08-02T13:37:39Z</time>
      </trkpt>
      <trkpt lat="40.267750" lon="-4.573683">
        <ele>1515.0</ele>
        <time>2015-08-02T13:37:41Z</time>
      </trkpt>
      <trkpt lat="40.267950" lon="-4.573633">
        <ele>1511.0</ele>
        <time>2015-08-02T13:37:43Z</time>
      </trkpt>
      <trkpt lat="40.268100" lon="-4.573500">
        <ele>1507.0</ele>
        <time>2015-08-02T13:37:45Z</time>
      </trkpt>
      <trkpt lat="40.268183" lon="-4.573233">
        <ele>1500.0</ele>
        <time>2015-08-02T13:37:47Z</time>
      </trkpt>
      <trkpt lat="40.268183" lon="-4.572917">
        <ele>1499.0</ele>
        <time>2015-08-02T13:37:49Z</time>
      </trkpt>
      <trkpt lat="40.268117" lon="-4.572683">
        <ele>1499.0</ele>
        <time>2015-08-02T13:37:51Z</time>
      </trkpt>
      <trkpt lat="40.268000" lon="-4.572467">
        <ele>1494.0</ele>
        <time>2015-08-02T13:37:53Z</time>
      </trkpt>
      <trkpt lat="40.267833" lon="-4.572300">
        <ele>1489.0</ele>
        <time>2015-08-02T13:37:55Z</time>
      </trkpt>
      <trkpt lat="40.267683" lon="-4.572300">
        <ele>1483.0</ele>
        <time>2015-08-02T13:37:57Z</time>
      </trkpt>
      <trkpt lat="40.267600" lon="-4.572417">
        <ele>1476.0</ele>
        <time>2015-08-02T13:37:59Z</time>
      </trkpt>
      <trkpt lat="40.267567" lon="-4.572500">
        <ele>1469.0</ele>
        <time>2015-08-02T13:38:01Z</time>
      </trkpt>
      <trkpt lat="40.267533" lon="-4.572667">
        <ele>1459.0</ele>
        <time>2015-08-02T13:38:03Z</time>
      </trkpt>
      <trkpt lat="40.267467" lon="-4.572867">
        <ele>1458.0</ele>
        <time>2015-08-02T13:38:05Z</time>
      </trkpt>
      <trkpt lat="40.267400" lon="-4.572950">
        <ele>1460.0</ele>
        <time>2015-08-02T13:38:07Z</time>
      </trkpt>
      <trkpt lat="40.267350" lon="-4.573067">
        <ele>1458.0</ele>
        <time>2015-08-02T13:38:09Z</time>
      </trkpt>
      <trkpt lat="40.267350" lon="-4.573250">
        <ele>1455.0</ele>
        <time>2015-08-02T13:38:11Z</time>
      </trkpt>
      <trkpt lat="40.267450" lon="-4.573400">
        <ele>1456.0</ele>
        <time>2015-08-02T13:38:13Z</time>
      </trkpt>
      <trkpt lat="40.267567" lon="-4.573517">
        <ele>1455.0</ele>
        <time>2015-08-02T13:38:15Z</time>
      </trkpt>
      <trkpt lat="40.267667" lon="-4.573700">
        <ele>1451.0</ele>
        <time>2015-08-02T13:38:17Z</time>
      </trkpt>
      <trkpt lat="40.267750" lon="-4.573933">
        <ele>1449.0</ele>
        <time>2015-08-02T13:38:19Z</time>
      </trkpt>
      <trkpt lat="40.267817" lon="-4.574117">
        <ele>1449.0</ele>
        <time>2015-08-02T13:38:21Z</time>
      </trkpt>
      <trkpt lat="40.267883" lon="-4.574300">
        <ele>1446.0</ele>
        <time>2015-08-02T13:38:23Z</time>
      </trkpt>
      <trkpt lat="40.267900" lon="-4.574500">
        <ele>1442.0</ele>
        <time>2015-08-02T13:38:25Z</time>
      </trkpt>
      <trkpt lat="40.267917" lon="-4.574700">
        <ele>1439.0</ele>
        <time>2015-08-02T13:38:27Z</time>
      </trkpt>
      <trkpt lat="40.267867" lon="-4.574867">
        <ele>1435.0</ele>
        <time>2015-08-02T13:38:29Z</time>
      </trkpt>
      <trkpt lat="40.267833" lon="-4.575067">
        <ele>1430.0</ele>
        <time>2015-08-02T13:38:31Z</time>
      </trkpt>
      <trkpt lat="40.267800" lon="-4.575267">
        <ele>1427.0</ele>
        <time>2015-08-02T13:38:33Z</time>
      </trkpt>
      <trkpt lat="40.267750" lon="-4.575433">
        <ele>1425.0</ele>
        <time>2015-08-02T13:38:35Z</time>
      </trkpt>
      <trkpt lat="40.267667" lon="-4.575600">
        <ele>1422.0</ele>
        <time>2015-08-02T13:38:37Z</time>
      </trkpt>
      <trkpt lat="40.267533" lon="-4.575767">
        <ele>1417.0</ele>
        <time>2015-08-02T13:38:39Z</time>
      </trkpt>
      <trkpt lat="40.267417" lon="-4.575900">
        <ele>1414.0</ele>
        <time>2015-08-02T13:38:41Z</time>
      </trkpt>
      <trkpt lat="40.267283" lon="-4.575950">
        <ele>1410.0</ele>
        <time>2015-08-02T13:38:43Z</time>
      </trkpt>
      <trkpt lat="40.267133" lon="-4.575833">
        <ele>1403.0</ele>
        <time>2015-08-02T13:38:45Z</time>
      </trkpt>
      <trkpt lat="40.267133" lon="-4.575533">
        <ele>1396.0</ele>
        <time>2015-08-02T13:38:47Z</time>
      </trkpt>
      <trkpt lat="40.267333" lon="-4.575383">
        <ele>1389.0</ele>
        <time>2015-08-02T13:38:49Z</time>
      </trkpt>
      <trkpt lat="40.267467" lon="-4.575633">
        <ele>1383.0</ele>
        <time>2015-08-02T13:38:51Z</time>
      </trkpt>
      <trkpt lat="40.267300" lon="-4.575833">
        <ele>1379.0</ele>
        <time>2015-08-02T13:38:53Z</time>
      </trkpt>
      <trkpt lat="40.267133" lon="-4.575683">
        <ele>1377.0</ele>
        <time>2015-08-02T13:38:55Z</time>
      </trkpt>
      <trkpt lat="40.267117" lon="-4.575450">
        <ele>1374.0</ele>
        <time>2015-08-02T13:38:57Z</time>
      </trkpt>
      <trkpt lat="40.267200" lon="-4.575233">
        <ele>1369.0</ele>
        <time>2015-08-02T13:38:59Z</time>
      </trkpt>
      <trkpt lat="40.267417" lon="-4.575117">
        <ele>1361.0</ele>
        <time>2015-08-02T13:39:01Z</time>
      </trkpt>
      <trkpt lat="40.267600" lon="-4.575283">
        <ele>1356.0</ele>
        <time>2015-08-02T13:39:03Z</time>
      </trkpt>
      <trkpt lat="40.267483" lon="-4.575500">
        <ele>1349.0</ele>
        <time>2015-08-02T13:39:05Z</time>
      </trkpt>
      <trkpt lat="40.267300" lon="-4.575300">
        <ele>1344.0</ele>
        <time>2015-08-02T13:39:07Z</time>
      </trkpt>
      <trkpt lat="40.267450" lon="-4.575017">
        <ele>1340.0</ele>
        <time>2015-08-02T13:39:09Z</time>
      </trkpt>
      <trkpt lat="40.267683" lon="-4.575000">
        <ele>1340.0</ele>
        <time>2015-08-02T13:39:11Z</time>
      </trkpt>
      <trkpt lat="40.267800" lon="-4.575117">
        <ele>1340.0</ele>
        <time>2015-08-02T13:39:13Z</time>
      </trkpt>
      <trkpt lat="40.267850" lon="-4.575317">
        <ele>1337.0</ele>
        <time>2015-08-02T13:39:15Z</time>
      </trkpt>
      <trkpt lat="40.267750" lon="-4.575517">
        <ele>1333.0</ele>
        <time>2015-08-02T13:39:17Z</time>
      </trkpt>
      <trkpt lat="40.267600" lon="-4.575567">
        <ele>1332.0</ele>
        <time>2015-08-02T13:39:19Z</time>
      </trkpt>
      <trkpt lat="40.267483" lon="-4.575433">
        <ele>1330.0</ele>
        <time>2015-08-02T13:39:21Z</time>
      </trkpt>
      <trkpt lat="40.267467" lon="-4.575200">
        <ele>1328.0</ele>
        <time>2015-08-02T13:39:23Z</time>
      </trkpt>
      <trkpt lat="40.267600" lon="-4.575017">
        <ele>1327.0</ele>
        <time>2015-08-02T13:39:25Z</time>
      </trkpt>
      <trkpt lat="40.267800" lon="-4.575000">
        <ele>1325.0</ele>
        <time>2015-08-02T13:39:27Z</time>
      </trkpt>
      <trkpt lat="40.267933" lon="-4.575167">
        <ele>1321.0</ele>
        <time>2015-08-02T13:39:29Z</time>
      </trkpt>
      <trkpt lat="40.267850" lon="-4.575400">
        <ele>1315.0</ele>
        <time>2015-08-02T13:39:31Z</time>
      </trkpt>
      <trkpt lat="40.267667" lon="-4.575317">
        <ele>1310.0</ele>
        <time>2015-08-02T13:39:33Z</time>
      </trkpt>
      <trkpt lat="40.267717" lon="-4.575033">
        <ele>1304.0</ele>
        <time>2015-08-02T13:39:35Z</time>
      </trkpt>
      <trkpt lat="40.267967" lon="-4.575083">
        <ele>1297.0</ele>
        <time>2015-08-02T13:39:37Z</time>
      </trkpt>
      <trkpt lat="40.267950" lon="-4.575417">
        <ele>1294.0</ele>
        <time>2015-08-02T13:39:39Z</time>
      </trkpt>
      <trkpt lat="40.267750" lon="-4.575417">
        <ele>1289.0</ele>
        <time>2015-08-02T13:39:41Z</time>
      </trkpt>
      <trkpt lat="40.267950" lon="-4.575200">
        <ele>1271.0</ele>
        <time>2015-08-02T13:39:43Z</time>
      </trkpt>
      <trkpt lat="40.268150" lon="-4.575533">
        <ele>1267.0</ele>
        <time>2015-08-02T13:39:45Z</time>
      </trkpt>
      <trkpt lat="40.268033" lon="-4.575717">
        <ele>1280.0</ele>
        <time>2015-08-02T13:39:47Z</time>
      </trkpt>
      <trkpt lat="40.267983" lon="-4.575750">
        <ele>1284.0</ele>
        <time>2015-08-02T13:39:49Z</time>
      </trkpt>
      <trkpt lat="40.267917" lon="-4.575850">
        <ele>1279.0</ele>
        <time>2015-08-02T13:39:51Z</time>
      </trkpt>
      <trkpt lat="40.267750" lon="-4.575867">
        <ele>1271.0</ele>
        <time>2015-08-02T13:39:53Z</time>
      </trkpt>
      <trkpt lat="40.267600" lon="-4.575867">
        <ele>1271.0</ele>
        <time>2015-08-02T13:39:55Z</time>
      </trkpt>
      <trkpt lat="40.267467" lon="-4.575917">
        <ele>1270.0</ele>
        <time>2015-08-02T13:39:57Z</time>
      </trkpt>
      <trkpt lat="40.267333" lon="-4.576000">
        <ele>1269.0</ele>
        <time>2015-08-02T13:39:59Z</time>
      </trkpt>
      <trkpt lat="40.267217" lon="-4.576117">
        <ele>1269.0</ele>
        <time>2015-08-02T13:40:01Z</time>
      </trkpt>
      <trkpt lat="40.267117" lon="-4.576267">
        <ele>1267.0</ele>
        <time>2015-08-02T13:40:03Z</time>
      </trkpt>
      <trkpt lat="40.267000" lon="-4.576383">
        <ele>1265.0</ele>
        <time>2015-08-02T13:40:05Z</time>
      </trkpt>
      <trkpt lat="40.266883" lon="-4.576417">
        <ele>1264.0</ele>
        <time>2015-08-02T13:40:07Z</time>
      </trkpt>
      <trkpt lat="40.266800" lon="-4.576333">
        <ele>1263.0</ele>
        <time>2015-08-02T13:40:09Z</time>
      </trkpt>
      <trkpt lat="40.266783" lon="-4.576083">
        <ele>1264.0</ele>
        <time>2015-08-02T13:40:11Z</time>
      </trkpt>
      <trkpt lat="40.266867" lon="-4.575817">
        <ele>1267.0</ele>
        <time>2015-08-02T13:40:13Z</time>
      </trkpt>
      <trkpt lat="40.267033" lon="-4.575650">
        <ele>1265.0</ele>
        <time>2015-08-02T13:40:15Z</time>
      </trkpt>
      <trkpt lat="40.267250" lon="-4.575550">
        <ele>1263.0</ele>
        <time>2015-08-02T13:40:17Z</time>
      </trkpt>
      <trkpt lat="40.267483" lon="-4.575567">
        <ele>1261.0</ele>
        <time>2015-08-02T13:40:19Z</time>
      </trkpt>
      <trkpt lat="40.267683" lon="-4.575667">
        <ele>1260.0</ele>
        <time>2015-08-02T13:40:21Z</time>
      </trkpt>
      <trkpt lat="40.267833" lon="-4.575833">
        <ele>1258.0</ele>
        <time>2015-08-02T13:40:23Z</time>
      </trkpt>
      <trkpt lat="40.267950" lon="-4.576033">
        <ele>1255.0</ele>
        <time>2015-08-02T13:40:25Z</time>
      </trkpt>
      <trkpt lat="40.268033" lon="-4.576267">
        <ele>1251.0</ele>
        <time>2015-08-02T13:40:27Z</time>
      </trkpt>
      <trkpt lat="40.268117" lon="-4.576517">
        <ele>1249.0</ele>
        <time>2015-08-02T13:40:29Z</time>
      </trkpt>
      <trkpt lat="40.268217" lon="-4.576717">
        <ele>1248.0</ele>
        <time>2015-08-02T13:40:31Z</time>
      </trkpt>
      <trkpt lat="40.268383" lon="-4.576850">
        <ele>1245.0</ele>
        <time>2015-08-02T13:40:33Z</time>
      </trkpt>
      <trkpt lat="40.268600" lon="-4.576850">
        <ele>1241.0</ele>
        <time>2015-08-02T13:40:35Z</time>
      </trkpt>
      <trkpt lat="40.268750" lon="-4.576683">
        <ele>1236.0</ele>
        <time>2015-08-02T13:40:37Z</time>
      </trkpt>
      <trkpt lat="40.268850" lon="-4.576400">
        <ele>1228.0</ele>
        <time>2015-08-02T13:40:39Z</time>
      </trkpt>
      <trkpt lat="40.268833" lon="-4.576117">
        <ele>1224.0</ele>
        <time>2015-08-02T13:40:41Z</time>
      </trkpt>
      <trkpt lat="40.268767" lon="-4.575933">
        <ele>1223.0</ele>
        <time>2015-08-02T13:40:43Z</time>
      </trkpt>
      <trkpt lat="40.268667" lon="-4.575850">
        <ele>1220.0</ele>
        <time>2015-08-02T13:40:45Z</time>
      </trkpt>
      <trkpt lat="40.268533" lon="-4.575767">
        <ele>1214.0</ele>
        <time>2015-08-02T13:40:47Z</time>
      </trkpt>
      <trkpt lat="40.268417" lon="-4.575783">
        <ele>1211.0</ele>
        <time>2015-08-02T13:40:49Z</time>
      </trkpt>
      <trkpt lat="40.268333" lon="-4.575850">
        <ele>1206.0</ele>
        <time>2015-08-02T13:40:51Z</time>
      </trkpt>
      <trkpt lat="40.268200" lon="-4.575867">
        <ele>1196.0</ele>
        <time>2015-08-02T13:40:53Z</time>
      </trkpt>
      <trkpt lat="40.268033" lon="-4.575950">
        <ele>1193.0</ele>
        <time>2015-08-02T13:40:55Z</time>
      </trkpt>
      <trkpt lat="40.267933" lon="-4.576050">
        <ele>1193.0</ele>
        <time>2015-08-02T13:40:57Z</time>
      </trkpt>
      <trkpt lat="40.267867" lon="-4.576183">
        <ele>1189.0</ele>
        <time>2015-08-02T13:40:59Z</time>
      </trkpt>
      <trkpt lat="40.267783" lon="-4.576367">
        <ele>1183.0</ele>
        <time>2015-08-02T13:41:01Z</time>
      </trkpt>
      <trkpt lat="40.267700" lon="-4.576567">
        <ele>1182.0</ele>
        <time>2015-08-02T13:41:03Z</time>
      </trkpt>
      <trkpt lat="40.267600" lon="-4.576650">
        <ele>1180.0</ele>
        <time>2015-08-02T13:41:05Z</time>
      </trkpt>
      <trkpt lat="40.267483" lon="-4.576683">
        <ele>1174.0</ele>
        <time>2015-08-02T13:41:07Z</time>
      </trkpt>
      <trkpt lat="40.267350" lon="-4.576733">
        <ele>1171.0</ele>
        <time>2015-08-02T13:41:09Z</time>
      </trkpt>
      <trkpt lat="40.267217" lon="-4.576683">
        <ele>1169.0</ele>
        <time>2015-08-02T13:41:11Z</time>
      </trkpt>
      <trkpt lat="40.267050" lon="-4.576433">
        <ele>1164.0</ele>
        <time>2015-08-02T13:41:13Z</time>
      </trkpt>
      <trkpt lat="40.266983" lon="-4.576117">
        <ele>1168.0</ele>
        <time>2015-08-02T13:41:15Z</time>
      </trkpt>
      <trkpt lat="40.267000" lon="-4.575917">
        <ele>1175.0</ele>
        <time>2015-08-02T13:41:17Z</time>
      </trkpt>
      <trkpt lat="40.267067" lon="-4.575717">
        <ele>1174.0</ele>
        <time>2015-08-02T13:41:19Z</time>
      </trkpt>
      <trkpt lat="40.267183" lon="-4.575433">
        <ele>1171.0</ele>
        <time>2015-08-02T13:41:21Z</time>
      </trkpt>
      <trkpt lat="40.267383" lon="-4.575283">
        <ele>1171.0</ele>
        <time>2015-08-02T13:41:23Z</time>
      </trkpt>
      <trkpt lat="40.267567" lon="-4.575350">
        <ele>1169.0</ele>
        <time>2015-08-02T13:41:25Z</time>
      </trkpt>
      <trkpt lat="40.267617" lon="-4.575500">
        <ele>1167.0</ele>
        <time>2015-08-02T13:41:27Z</time>
      </trkpt>
      <trkpt lat="40.267583" lon="-4.575633">
        <ele>1165.0</ele>
        <time>2015-08-02T13:41:29Z</time>
      </trkpt>
      <trkpt lat="40.267483" lon="-4.575750">
        <ele>1164.0</ele>
        <time>2015-08-02T13:41:31Z</time>
      </trkpt>
      <trkpt lat="40.267367" lon="-4.575767">
        <ele>1164.0</ele>
        <time>2015-08-02T13:41:33Z</time>
      </trkpt>
      <trkpt lat="40.267217" lon="-4.575717">
        <ele>1164.0</ele>
        <time>2015-08-02T13:41:35Z</time>
      </trkpt>
      <trkpt lat="40.267067" lon="-4.575683">
        <ele>1164.0</ele>
        <time>2015-08-02T13:41:37Z</time>
      </trkpt>
      <trkpt lat="40.266900" lon="-4.575700">
        <ele>1164.0</ele>
        <time>2015-08-02T13:41:39Z</time>
      </trkpt>
      <trkpt lat="40.266767" lon="-4.575717">
        <ele>1165.0</ele>
        <time>2015-08-02T13:41:41Z</time>
      </trkpt>
      <trkpt lat="40.266633" lon="-4.575733">
        <ele>1164.0</ele>
        <time>2015-08-02T13:41:43Z</time>
      </trkpt>
      <trkpt lat="40.266483" lon="-4.575767">
        <ele>1162.0</ele>
        <time>2015-08-02T13:41:45Z</time>
      </trkpt>
      <trkpt lat="40.266350" lon="-4.575850">
        <ele>1162.0</ele>
        <time>2015-08-02T13:41:47Z</time>
      </trkpt>
      <trkpt lat="40.266217" lon="-4.575917">
        <ele>1162.0</ele>
        <time>2015-08-02T13:41:49Z</time>
      </trkpt>
      <trkpt lat="40.266083" lon="-4.576017">
        <ele>1161.0</ele>
        <time>2015-08-02T13:41:51Z</time>
      </trkpt>
      <trkpt lat="40.266017" lon="-4.576200">
        <ele>1161.0</ele>
        <time>2015-08-02T13:41:53Z</time>
      </trkpt>
      <trkpt lat="40.266067" lon="-4.576417">
        <ele>1159.0</ele>
        <time>2015-08-02T13:41:55Z</time>
      </trkpt>
      <trkpt lat="40.266167" lon="-4.576617">
        <ele>1157.0</ele>
        <time>2015-08-02T13:41:57Z</time>
      </trkpt>
      <trkpt lat="40.266333" lon="-4.576750">
        <ele>1155.0</ele>
        <time>2015-08-02T13:41:59Z</time>
      </trkpt>
      <trkpt lat="40.266500" lon="-4.576850">
        <ele>1153.0</ele>
        <time>2015-08-02T13:42:01Z</time>
      </trkpt>
      <trkpt lat="40.266650" lon="-4.576917">
        <ele>1151.0</ele>
        <time>2015-08-02T13:42:03Z</time>
      </trkpt>
      <trkpt lat="40.266833" lon="-4.576967">
        <ele>1146.0</ele>
        <time>2015-08-02T13:42:05Z</time>
      </trkpt>
      <trkpt lat="40.267000" lon="-4.577033">
        <ele>1144.0</ele>
        <time>2015-08-02T13:42:07Z</time>
      </trkpt>
      <trkpt lat="40.267150" lon="-4.577100">
        <ele>1144.0</ele>
        <time>2015-08-02T13:42:09Z</time>
      </trkpt>
      <trkpt lat="40.267300" lon="-4.577150">
        <ele>1142.0</ele>
        <time>2015-08-02T13:42:11Z</time>
      </trkpt>
      <trkpt lat="40.267467" lon="-4.577233">
        <ele>1139.0</ele>
        <time>2015-08-02T13:42:13Z</time>
      </trkpt>
      <trkpt lat="40.267617" lon="-4.577317">
        <ele>1138.0</ele>
        <time>2015-08-02T13:42:15Z</time>
      </trkpt>
      <trkpt lat="40.267750" lon="-4.577383">
        <ele>1134.0</ele>
        <time>2015-08-02T13:42:17Z</time>
      </trkpt>
      <trkpt lat="40.267933" lon="-4.577467">
        <ele>1130.0</ele>
        <time>2015-08-02T13:42:19Z</time>
      </trkpt>
      <trkpt lat="40.268083" lon="-4.577567">
        <ele>1128.0</ele>
        <time>2015-08-02T13:42:21Z</time>
      </trkpt>
      <trkpt lat="40.268217" lon="-4.577650">
        <ele>1125.0</ele>
        <time>2015-08-02T13:42:23Z</time>
      </trkpt>
      <trkpt lat="40.268400" lon="-4.577650">
        <ele>1120.0</ele>
        <time>2015-08-02T13:42:25Z</time>
      </trkpt>
      <trkpt lat="40.268600" lon="-4.577583">
        <ele>1117.0</ele>
        <time>2015-08-02T13:42:27Z</time>
      </trkpt>
      <trkpt lat="40.268800" lon="-4.577483">
        <ele>1115.0</ele>
        <time>2015-08-02T13:42:29Z</time>
      </trkpt>
      <trkpt lat="40.268983" lon="-4.577383">
        <ele>1113.0</ele>
        <time>2015-08-02T13:42:31Z</time>
      </trkpt>
      <trkpt lat="40.269183" lon="-4.577250">
        <ele>1109.0</ele>
        <time>2015-08-02T13:42:33Z</time>
      </trkpt>
      <trkpt lat="40.269367" lon="-4.577100">
        <ele>1108.0</ele>
        <time>2015-08-02T13:42:35Z</time>
      </trkpt>
      <trkpt lat="40.269533" lon="-4.576933">
        <ele>1105.0</ele>
        <time>2015-08-02T13:42:37Z</time>
      </trkpt>
      <trkpt lat="40.269700" lon="-4.576767">
        <ele>1104.0</ele>
        <time>2015-08-02T13:42:39Z</time>
      </trkpt>
      <trkpt lat="40.269867" lon="-4.576583">
        <ele>1104.0</ele>
        <time>2015-08-02T13:42:41Z</time>
      </trkpt>
      <trkpt lat="40.270017" lon="-4.576433">
        <ele>1102.0</ele>
        <time>2015-08-02T13:42:43Z</time>
      </trkpt>
      <trkpt lat="40.270167" lon="-4.576283">
        <ele>1100.0</ele>
        <time>2015-08-02T13:42:45Z</time>
      </trkpt>
      <trkpt lat="40.270333" lon="-4.576117">
        <ele>1099.0</ele>
        <time>2015-08-02T13:42:47Z</time>
      </trkpt>
      <trkpt lat="40.270483" lon="-4.575967">
        <ele>1100.0</ele>
        <time>2015-08-02T13:42:49Z</time>
      </trkpt>
      <trkpt lat="40.270667" lon="-4.575850">
        <ele>1099.0</ele>
        <time>2015-08-02T13:42:51Z</time>
      </trkpt>
      <trkpt lat="40.270833" lon="-4.575717">
        <ele>1098.0</ele>
        <time>2015-08-02T13:42:53Z</time>
      </trkpt>
      <trkpt lat="40.271033" lon="-4.575583">
        <ele>1098.0</ele>
        <time>2015-08-02T13:42:55Z</time>
      </trkpt>
      <trkpt lat="40.271250" lon="-4.575500">
        <ele>1101.0</ele>
        <time>2015-08-02T13:42:57Z</time>
      </trkpt>
      <trkpt lat="40.271417" lon="-4.575350">
        <ele>1102.0</ele>
        <time>2015-08-02T13:42:59Z</time>
      </trkpt>
      <trkpt lat="40.271567" lon="-4.575133">
        <ele>1100.0</ele>
        <time>2015-08-02T13:43:01Z</time>
      </trkpt>
      <trkpt lat="40.271700" lon="-4.574833">
        <ele>1100.0</ele>
        <time>2015-08-02T13:43:03Z</time>
      </trkpt>
      <trkpt lat="40.271833" lon="-4.574533">
        <ele>1103.0</ele>
        <time>2015-08-02T13:43:05Z</time>
      </trkpt>
      <trkpt lat="40.271933" lon="-4.574250">
        <ele>1107.0</ele>
        <time>2015-08-02T13:43:07Z</time>
      </trkpt>
      <trkpt lat="40.272033" lon="-4.573933">
        <ele>1107.0</ele>
        <time>2015-08-02T13:43:09Z</time>
      </trkpt>
      <trkpt lat="40.272100" lon="-4.573617">
        <ele>1105.0</ele>
        <time>2015-08-02T13:43:11Z</time>
      </trkpt>
      <trkpt lat="40.272117" lon="-4.573283">
        <ele>1105.0</ele>
        <time>2015-08-02T13:43:13Z</time>
      </trkpt>
      <trkpt lat="40.272100" lon="-4.572933">
        <ele>1107.0</ele>
        <time>2015-08-02T13:43:15Z</time>
      </trkpt>
      <trkpt lat="40.272067" lon="-4.572617">
        <ele>1111.0</ele>
        <time>2015-08-02T13:43:17Z</time>
      </trkpt>
      <trkpt lat="40.272000" lon="-4.572333">
        <ele>1113.0</ele>
        <time>2015-08-02T13:43:19Z</time>
      </trkpt>
      <trkpt lat="40.271917" lon="-4.572067">
        <ele>1113.0</ele>
        <time>2015-08-02T13:43:21Z</time>
      </trkpt>
      <trkpt lat="40.271817" lon="-4.571800">
        <ele>1113.0</ele>
        <time>2015-08-02T13:43:23Z</time>
      </trkpt>
      <trkpt lat="40.271783" lon="-4.571550">
        <ele>1110.0</ele>
        <time>2015-08-02T13:43:25Z</time>
      </trkpt>
      <trkpt lat="40.271767" lon="-4.571217">
        <ele>1103.0</ele>
        <time>2015-08-02T13:43:27Z</time>
      </trkpt>
      <trkpt lat="40.271750" lon="-4.570867">
        <ele>1100.0</ele>
        <time>2015-08-02T13:43:29Z</time>
      </trkpt>
      <trkpt lat="40.271733" lon="-4.570533">
        <ele>1097.0</ele>
        <time>2015-08-02T13:43:31Z</time>
      </trkpt>
      <trkpt lat="40.271700" lon="-4.570217">
        <ele>1094.0</ele>
        <time>2015-08-02T13:43:33Z</time>
      </trkpt>
      <trkpt lat="40.271650" lon="-4.569900">
        <ele>1091.0</ele>
        <time>2015-08-02T13:43:35Z</time>
      </trkpt>
      <trkpt lat="40.271583" lon="-4.569600">
        <ele>1088.0</ele>
        <time>2015-08-02T13:43:37Z</time>
      </trkpt>
      <trkpt lat="40.271483" lon="-4.569383">
        <ele>1085.0</ele>
        <time>2015-08-02T13:43:39Z</time>
      </trkpt>
      <trkpt lat="40.271333" lon="-4.569417">
        <ele>1079.0</ele>
        <time>2015-08-02T13:43:41Z</time>
      </trkpt>
      <trkpt lat="40.271333" lon="-4.569633">
        <ele>1076.0</ele>
        <time>2015-08-02T13:43:43Z</time>
      </trkpt>
      <trkpt lat="40.271483" lon="-4.569700">
        <ele>1076.0</ele>
        <time>2015-08-02T13:43:45Z</time>
      </trkpt>
      <trkpt lat="40.271617" lon="-4.569717">
        <ele>1074.0</ele>
        <time>2015-08-02T13:43:47Z</time>
      </trkpt>
      <trkpt lat="40.271783" lon="-4.569767">
        <ele>1068.0</ele>
        <time>2015-08-02T13:43:49Z</time>
      </trkpt>
      <trkpt lat="40.271967" lon="-4.569800">
        <ele>1067.0</ele>
        <time>2015-08-02T13:43:51Z</time>
      </trkpt>
      <trkpt lat="40.272083" lon="-4.569817">
        <ele>1064.0</ele>
        <time>2015-08-02T13:43:53Z</time>
      </trkpt>
      <trkpt lat="40.272150" lon="-4.569950">
        <ele>1057.0</ele>
        <time>2015-08-02T13:43:55Z</time>
      </trkpt>
      <trkpt lat="40.272117" lon="-4.570117">
        <ele>1052.0</ele>
        <time>2015-08-02T13:43:57Z</time>
      </trkpt>
      <trkpt lat="40.271983" lon="-4.570133">
        <ele>1048.0</ele>
        <time>2015-08-02T13:43:59Z</time>
      </trkpt>
      <trkpt lat="40.271833" lon="-4.570000">
        <ele>1044.0</ele>
        <time>2015-08-02T13:44:01Z</time>
      </trkpt>
      <trkpt lat="40.271700" lon="-4.569867">
        <ele>1040.0</ele>
        <time>2015-08-02T13:44:03Z</time>
      </trkpt>
      <trkpt lat="40.271583" lon="-4.569667">
        <ele>1039.0</ele>
        <time>2015-08-02T13:44:05Z</time>
      </trkpt>
      <trkpt lat="40.271600" lon="-4.569400">
        <ele>1036.0</ele>
        <time>2015-08-02T13:44:07Z</time>
      </trkpt>
      <trkpt lat="40.271700" lon="-4.569183">
        <ele>1034.0</ele>
        <time>2015-08-02T13:44:09Z</time>
      </trkpt>
      <trkpt lat="40.271883" lon="-4.569067">
        <ele>1032.0</ele>
        <time>2015-08-02T13:44:11Z</time>
      </trkpt>
      <trkpt lat="40.272067" lon="-4.569033">
        <ele>1031.0</ele>
        <time>2015-08-02T13:44:13Z</time>
      </trkpt>
      <trkpt lat="40.272233" lon="-4.569050">
        <ele>1031.0</ele>
        <time>2015-08-02T13:44:15Z</time>
      </trkpt>
      <trkpt lat="40.272400" lon="-4.569083">
        <ele>1028.0</ele>
        <time>2015-08-02T13:44:17Z</time>
      </trkpt>
      <trkpt lat="40.272550" lon="-4.569200">
        <ele>1025.0</ele>
        <time>2015-08-02T13:44:19Z</time>
      </trkpt>
      <trkpt lat="40.272667" lon="-4.569350">
        <ele>1024.0</ele>
        <time>2015-08-02T13:44:21Z</time>
      </trkpt>
      <trkpt lat="40.272683" lon="-4.569500">
        <ele>1024.0</ele>
        <time>2015-08-02T13:44:23Z</time>
      </trkpt>
      <trkpt lat="40.272650" lon="-4.569617">
        <ele>1022.0</ele>
        <time>2015-08-02T13:44:25Z</time>
      </trkpt>
      <trkpt lat="40.272550" lon="-4.569700">
        <ele>1018.0</ele>
        <time>2015-08-02T13:44:27Z</time>
      </trkpt>
      <trkpt lat="40.272350" lon="-4.569667">
        <ele>1015.0</ele>
        <time>2015-08-02T13:44:29Z</time>
      </trkpt>
      <trkpt lat="40.272200" lon="-4.569533">
        <ele>1016.0</ele>
        <time>2015-08-02T13:44:31Z</time>
      </trkpt>
      <trkpt lat="40.272050" lon="-4.569483">
        <ele>1017.0</ele>
        <time>2015-08-02T13:44:33Z</time>
      </trkpt>
      <trkpt lat="40.271933" lon="-4.569517">
        <ele>1016.0</ele>
        <time>2015-08-02T13:44:35Z</time>
      </trkpt>
      <trkpt lat="40.271883" lon="-4.569717">
        <ele>1012.0</ele>
        <time>2015-08-02T13:44:37Z</time>
      </trkpt>
      <trkpt lat="40.271917" lon="-4.569933">
        <ele>1014.0</ele>
        <time>2015-08-02T13:44:39Z</time>
      </trkpt>
      <trkpt lat="40.271967" lon="-4.570083">
        <ele>1018.0</ele>
        <time>2015-08-02T13:44:41Z</time>
      </trkpt>
      <trkpt lat="40.272033" lon="-4.570233">
        <ele>1018.0</ele>
        <time>2015-08-02T13:44:43Z</time>
      </trkpt>
      <trkpt lat="40.272167" lon="-4.570400">
        <ele>1019.0</ele>
        <time>2015-08-02T13:44:45Z</time>
      </trkpt>
      <trkpt lat="40.272267" lon="-4.570517">
        <ele>1024.0</ele>
        <time>2015-08-02T13:44:47Z</time>
      </trkpt>
      <trkpt lat="40.272200" lon="-4.570617">
        <ele>1022.0</ele>
        <time>2015-08-02T13:44:49Z</time>
      </trkpt>
      <trkpt lat="40.272000" lon="-4.570600">
        <ele>1021.0</ele>
        <time>2015-08-02T13:44:51Z</time>
      </trkpt>
      <trkpt lat="40.271833" lon="-4.570417">
        <ele>1025.0</ele>
        <time>2015-08-02T13:44:53Z</time>
      </trkpt>
      <trkpt lat="40.271767" lon="-4.570200">
        <ele>1029.0</ele>
        <time>2015-08-02T13:44:55Z</time>
      </trkpt>
      <trkpt lat="40.271650" lon="-4.570000">
        <ele>1028.0</ele>
        <time>2015-08-02T13:44:57Z</time>
      </trkpt>
      <trkpt lat="40.271550" lon="-4.569717">
        <ele>1029.0</ele>
        <time>2015-08-02T13:44:59Z</time>
      </trkpt>
      <trkpt lat="40.271467" lon="-4.569500">
        <ele>1034.0</ele>
        <time>2015-08-02T13:45:01Z</time>
      </trkpt>
      <trkpt lat="40.271333" lon="-4.569400">
        <ele>1034.0</ele>
        <time>2015-08-02T13:45:03Z</time>
      </trkpt>
      <trkpt lat="40.271167" lon="-4.569333">
        <ele>1033.0</ele>
        <time>2015-08-02T13:45:05Z</time>
      </trkpt>
      <trkpt lat="40.271017" lon="-4.569350">
        <ele>1035.0</ele>
        <time>2015-08-02T13:45:07Z</time>
      </trkpt>
      <trkpt lat="40.270917" lon="-4.569417">
        <ele>1036.0</ele>
        <time>2015-08-02T13:45:09Z</time>
      </trkpt>
      <trkpt lat="40.270817" lon="-4.569517">
        <ele>1038.0</ele>
        <time>2015-08-02T13:45:11Z</time>
      </trkpt>
      <trkpt lat="40.270783" lon="-4.569717">
        <ele>1036.0</ele>
        <time>2015-08-02T13:45:13Z</time>
      </trkpt>
      <trkpt lat="40.270733" lon="-4.569950">
        <ele>1039.0</ele>
        <time>2015-08-02T13:45:15Z</time>
      </trkpt>
      <trkpt lat="40.270683" lon="-4.570100">
        <ele>1044.0</ele>
        <time>2015-08-02T13:45:17Z</time>
      </trkpt>
      <trkpt lat="40.270667" lon="-4.570283">
        <ele>1044.0</ele>
        <time>2015-08-02T13:45:19Z</time>
      </trkpt>
      <trkpt lat="40.270633" lon="-4.570483">
        <ele>1048.0</ele>
        <time>2015-08-02T13:45:21Z</time>
      </trkpt>
      <trkpt lat="40.270600" lon="-4.570583">
        <ele>1054.0</ele>
        <time>2015-08-02T13:45:23Z</time>
      </trkpt>
      <trkpt lat="40.270550" lon="-4.570717">
        <ele>1055.0</ele>
        <time>2015-08-02T13:45:25Z</time>
      </trkpt>
      <trkpt lat="40.270433" lon="-4.570833">
        <ele>1057.0</ele>
        <time>2015-08-02T13:45:27Z</time>
      </trkpt>
      <trkpt lat="40.270300" lon="-4.570917">
        <ele>1061.0</ele>
        <time>2015-08-02T13:45:29Z</time>
      </trkpt>
      <trkpt lat="40.270150" lon="-4.570933">
        <ele>1064.0</ele>
        <time>2015-08-02T13:45:31Z</time>
      </trkpt>
      <trkpt lat="40.269983" lon="-4.570833">
        <ele>1068.0</ele>
        <time>2015-08-02T13:45:33Z</time>
      </trkpt>
      <trkpt lat="40.269867" lon="-4.570683">
        <ele>1069.0</ele>
        <time>2015-08-02T13:45:35Z</time>
      </trkpt>
      <trkpt lat="40.269750" lon="-4.570500">
        <ele>1066.0</ele>
        <time>2015-08-02T13:45:37Z</time>
      </trkpt>
      <trkpt lat="40.269617" lon="-4.570267">
        <ele>1065.0</ele>
        <time>2015-08-02T13:45:39Z</time>
      </trkpt>
      <trkpt lat="40.269533" lon="-4.570067">
        <ele>1070.0</ele>
        <time>2015-08-02T13:45:41Z</time>
      </trkpt>
      <trkpt lat="40.269500" lon="-4.569917">
        <ele>1070.0</ele>
        <time>2015-08-02T13:45:43Z</time>
      </trkpt>
      <trkpt lat="40.269500" lon="-4.569683">
        <ele>1065.0</ele>
        <time>2015-08-02T13:45:45Z</time>
      </trkpt>
      <trkpt lat="40.269550" lon="-4.569400">
        <ele>1063.0</ele>
        <time>2015-08-02T13:45:47Z</time>
      </trkpt>
      <trkpt lat="40.269617" lon="-4.569167">
        <ele>1068.0</ele>
        <time>2015-08-02T13:45:49Z</time>
      </trkpt>
      <trkpt lat="40.269700" lon="-4.568950">
        <ele>1072.0</ele>
        <time>2015-08-02T13:45:51Z</time>
      </trkpt>
      <trkpt lat="40.269783" lon="-4.568717">
        <ele>1074.0</ele>
        <time>2015-08-02T13:45:53Z</time>
      </trkpt>
      <trkpt lat="40.269933" lon="-4.568517">
        <ele>1076.0</ele>
        <time>2015-08-02T13:45:55Z</time>
      </trkpt>
      <trkpt lat="40.270133" lon="-4.568350">
        <ele>1076.0</ele>
        <time>2015-08-02T13:45:57Z</time>
      </trkpt>
      <trkpt lat="40.270333" lon="-4.568267">
        <ele>1076.0</ele>
        <time>2015-08-02T13:45:59Z</time>
      </trkpt>
      <trkpt lat="40.270533" lon="-4.568183">
        <ele>1074.0</ele>
        <time>2015-08-02T13:46:01Z</time>
      </trkpt>
      <trkpt lat="40.270733" lon="-4.568117">
        <ele>1074.0</ele>
        <time>2015-08-02T13:46:03Z</time>
      </trkpt>
      <trkpt lat="40.270917" lon="-4.568067">
        <ele>1070.0</ele>
        <time>2015-08-02T13:46:05Z</time>
      </trkpt>
      <trkpt lat="40.271133" lon="-4.568000">
        <ele>1065.0</ele>
        <time>2015-08-02T13:46:07Z</time>
      </trkpt>
      <trkpt lat="40.271350" lon="-4.567983">
        <ele>1066.0</ele>
        <time>2015-08-02T13:46:09Z</time>
      </trkpt>
      <trkpt lat="40.271483" lon="-4.568033">
        <ele>1068.0</ele>
        <time>2015-08-02T13:46:11Z</time>
      </trkpt>
      <trkpt lat="40.271667" lon="-4.568067">
        <ele>1066.0</ele>
        <time>2015-08-02T13:46:13Z</time>
      </trkpt>
      <trkpt lat="40.271867" lon="-4.568050">
        <ele>1066.0</ele>
        <time>2015-08-02T13:46:15Z</time>
      </trkpt>
      <trkpt lat="40.272067" lon="-4.568067">
        <ele>1068.0</ele>
        <time>2015-08-02T13:46:17Z</time>
      </trkpt>
      <trkpt lat="40.272217" lon="-4.568133">
        <ele>1068.0</ele>
        <time>2015-08-02T13:46:19Z</time>
      </trkpt>
      <trkpt lat="40.272383" lon="-4.568233">
        <ele>1068.0</ele>
        <time>2015-08-02T13:46:21Z</time>
      </trkpt>
      <trkpt lat="40.272500" lon="-4.568333">
        <ele>1071.0</ele>
        <time>2015-08-02T13:46:23Z</time>
      </trkpt>
      <trkpt lat="40.272550" lon="-4.568467">
        <ele>1072.0</ele>
        <time>2015-08-02T13:46:25Z</time>
      </trkpt>
      <trkpt lat="40.272533" lon="-4.568567">
        <ele>1073.0</ele>
        <time>2015-08-02T13:46:27Z</time>
      </trkpt>
      <trkpt lat="40.272483" lon="-4.568650">
        <ele>1072.0</ele>
        <time>2015-08-02T13:46:29Z</time>
      </trkpt>
      <trkpt lat="40.272333" lon="-4.568617">
        <ele>1068.0</ele>
        <time>2015-08-02T13:46:31Z</time>
      </trkpt>
      <trkpt lat="40.272200" lon="-4.568383">
        <ele>1066.0</ele>
        <time>2015-08-02T13:46:33Z</time>
      </trkpt>
      <trkpt lat="40.272100" lon="-4.568150">
        <ele>1070.0</ele>
        <time>2015-08-02T13:46:35Z</time>
      </trkpt>
      <trkpt lat="40.271983" lon="-4.568000">
        <ele>1071.0</ele>
        <time>2015-08-02T13:46:37Z</time>
      </trkpt>
      <trkpt lat="40.271867" lon="-4.567783">
        <ele>1067.0</ele>
        <time>2015-08-02T13:46:39Z</time>
      </trkpt>
      <trkpt lat="40.271750" lon="-4.567533">
        <ele>1067.0</ele>
        <time>2015-08-02T13:46:41Z</time>
      </trkpt>
      <trkpt lat="40.271617" lon="-4.567350">
        <ele>1069.0</ele>
        <time>2015-08-02T13:46:43Z</time>
      </trkpt>
      <trkpt lat="40.271517" lon="-4.567150">
        <ele>1066.0</ele>
        <time>2015-08-02T13:46:45Z</time>
      </trkpt>
      <trkpt lat="40.271417" lon="-4.566917">
        <ele>1065.0</ele>
        <time>2015-08-02T13:46:47Z</time>
      </trkpt>
      <trkpt lat="40.271300" lon="-4.566733">
        <ele>1065.0</ele>
        <time>2015-08-02T13:46:49Z</time>
      </trkpt>
      <trkpt lat="40.271183" lon="-4.566550">
        <ele>1062.0</ele>
        <time>2015-08-02T13:46:51Z</time>
      </trkpt>
      <trkpt lat="40.271067" lon="-4.566350">
        <ele>1058.0</ele>
        <time>2015-08-02T13:46:53Z</time>
      </trkpt>
      <trkpt lat="40.270933" lon="-4.566133">
        <ele>1055.0</ele>
        <time>2015-08-02T13:46:55Z</time>
      </trkpt>
      <trkpt lat="40.270767" lon="-4.566017">
        <ele>1051.0</ele>
        <time>2015-08-02T13:46:57Z</time>
      </trkpt>
      <trkpt lat="40.270583" lon="-4.566100">
        <ele>1045.0</ele>
        <time>2015-08-02T13:46:59Z</time>
      </trkpt>
      <trkpt lat="40.270550" lon="-4.566317">
        <ele>1042.0</ele>
        <time>2015-08-02T13:47:01Z</time>
      </trkpt>
      <trkpt lat="40.270667" lon="-4.566467">
        <ele>1038.0</ele>
        <time>2015-08-02T13:47:03Z</time>
      </trkpt>
      <trkpt lat="40.270833" lon="-4.566483">
        <ele>1035.0</ele>
        <time>2015-08-02T13:47:05Z</time>
      </trkpt>
      <trkpt lat="40.270983" lon="-4.566367">
        <ele>1033.0</ele>
        <time>2015-08-02T13:47:07Z</time>
      </trkpt>
      <trkpt lat="40.271033" lon="-4.566117">
        <ele>1028.0</ele>
        <time>2015-08-02T13:47:09Z</time>
      </trkpt>
      <trkpt lat="40.270933" lon="-4.565883">
        <ele>1022.0</ele>
        <time>2015-08-02T13:47:11Z</time>
      </trkpt>
      <trkpt lat="40.270733" lon="-4.565833">
        <ele>1017.0</ele>
        <time>2015-08-02T13:47:13Z</time>
      </trkpt>
      <trkpt lat="40.270633" lon="-4.566000">
        <ele>1011.0</ele>
        <time>2015-08-02T13:47:15Z</time>
      </trkpt>
      <trkpt lat="40.270717" lon="-4.566167">
        <ele>1007.0</ele>
        <time>2015-08-02T13:47:17Z</time>
      </trkpt>
      <trkpt lat="40.270883" lon="-4.566167">
        <ele>1004.0</ele>
        <time>2015-08-02T13:47:19Z</time>
      </trkpt>
      <trkpt lat="40.271000" lon="-4.565950">
        <ele>999.0</ele>
        <time>2015-08-02T13:47:21Z</time>
      </trkpt>
      <trkpt lat="40.270967" lon="-4.565683">
        <ele>994.0</ele>
        <time>2015-08-02T13:47:23Z</time>
      </trkpt>
      <trkpt lat="40.270783" lon="-4.565550">
        <ele>990.0</ele>
        <time>2015-08-02T13:47:25Z</time>
      </trkpt>
      <trkpt lat="40.270617" lon="-4.565633">
        <ele>984.0</ele>
        <time>2015-08-02T13:47:27Z</time>
      </trkpt>
      <trkpt lat="40.270600" lon="-4.565833">
        <ele>979.0</ele>
        <time>2015-08-02T13:47:29Z</time>
      </trkpt>
      <trkpt lat="40.270750" lon="-4.565917">
        <ele>972.0</ele>
        <time>2015-08-02T13:47:31Z</time>
      </trkpt>
      <trkpt lat="40.270900" lon="-4.565733">
        <ele>965.0</ele>
        <time>2015-08-02T13:47:33Z</time>
      </trkpt>
      <trkpt lat="40.270850" lon="-4.565450">
        <ele>959.0</ele>
        <time>2015-08-02T13:47:35Z</time>
      </trkpt>
      <trkpt lat="40.270667" lon="-4.565350">
        <ele>955.0</ele>
        <time>2015-08-02T13:47:37Z</time>
      </trkpt>
      <trkpt lat="40.270567" lon="-4.565433">
        <ele>951.0</ele>
        <time>2015-08-02T13:47:39Z</time>
      </trkpt>
      <trkpt lat="40.270533" lon="-4.565583">
        <ele>944.0</ele>
        <time>2015-08-02T13:47:41Z</time>
      </trkpt>
      <trkpt lat="40.270550" lon="-4.565800">
        <ele>935.0</ele>
        <time>2015-08-02T13:47:43Z</time>
      </trkpt>
      <trkpt lat="40.270617" lon="-4.566067">
        <ele>928.0</ele>
        <time>2015-08-02T13:47:45Z</time>
      </trkpt>
      <trkpt lat="40.270700" lon="-4.566300">
        <ele>924.0</ele>
        <time>2015-08-02T13:47:47Z</time>
      </trkpt>
      <trkpt lat="40.270783" lon="-4.566483">
        <ele>920.0</ele>
        <time>2015-08-02T13:47:49Z</time>
      </trkpt>
      <trkpt lat="40.270883" lon="-4.566683">
        <ele>914.0</ele>
        <time>2015-08-02T13:47:51Z</time>
      </trkpt>
      <trkpt lat="40.270967" lon="-4.566883">
        <ele>909.0</ele>
        <time>2015-08-02T13:47:53Z</time>
      </trkpt>
      <trkpt lat="40.271033" lon="-4.567067">
        <ele>904.0</ele>
        <time>2015-08-02T13:47:55Z</time>
      </trkpt>
      <trkpt lat="40.271133" lon="-4.567300">
        <ele>896.0</ele>
        <time>2015-08-02T13:47:57Z</time>
      </trkpt>
      <trkpt lat="40.271283" lon="-4.567517">
        <ele>895.0</ele>
        <time>2015-08-02T13:47:59Z</time>
      </trkpt>
      <trkpt lat="40.271417" lon="-4.567633">
        <ele>896.0</ele>
        <time>2015-08-02T13:48:01Z</time>
      </trkpt>
      <trkpt lat="40.271550" lon="-4.567717">
        <ele>892.0</ele>
        <time>2015-08-02T13:48:03Z</time>
      </trkpt>
      <trkpt lat="40.271700" lon="-4.567867">
        <ele>886.0</ele>
        <time>2015-08-02T13:48:05Z</time>
      </trkpt>
      <trkpt lat="40.271783" lon="-4.568033">
        <ele>881.0</ele>
        <time>2015-08-02T13:48:07Z</time>
      </trkpt>
      <trkpt lat="40.271817" lon="-4.568200">
        <ele>877.0</ele>
        <time>2015-08-02T13:48:09Z</time>
      </trkpt>
      <trkpt lat="40.271833" lon="-4.568383">
        <ele>872.0</ele>
        <time>2015-08-02T13:48:11Z</time>
      </trkpt>
      <trkpt lat="40.271817" lon="-4.568533">
        <ele>868.0</ele>
        <time>2015-08-02T13:48:13Z</time>
      </trkpt>
      <trkpt lat="40.271800" lon="-4.568683">
        <ele>864.0</ele>
        <time>2015-08-02T13:48:15Z</time>
      </trkpt>
      <trkpt lat="40.271783" lon="-4.568850">
        <ele>861.0</ele>
        <time>2015-08-02T13:48:17Z</time>
      </trkpt>
      <trkpt lat="40.271783" lon="-4.568983">
        <ele>859.0</ele>
        <time>2015-08-02T13:48:19Z</time>
      </trkpt>
      <trkpt lat="40.271767" lon="-4.569133">
        <ele>857.0</ele>
        <time>2015-08-02T13:48:21Z</time>
      </trkpt>
      <trkpt lat="40.271700" lon="-4.569233">
        <ele>855.0</ele>
        <time>2015-08-02T13:48:23Z</time>
      </trkpt>
      <trkpt lat="40.271600" lon="-4.569233">
        <ele>852.0</ele>
        <time>2015-08-02T13:48:25Z</time>
      </trkpt>
      <trkpt lat="40.271517" lon="-4.569067">
        <ele>849.0</ele>
        <time>2015-08-02T13:48:27Z</time>
      </trkpt>
      <trkpt lat="40.271550" lon="-4.568817">
        <ele>846.0</ele>
        <time>2015-08-02T13:48:29Z</time>
      </trkpt>
      <trkpt lat="40.271683" lon="-4.568633">
        <ele>843.0</ele>
        <time>2015-08-02T13:48:31Z</time>
      </trkpt>
      <trkpt lat="40.271917" lon="-4.568600">
        <ele>837.0</ele>
        <time>2015-08-02T13:48:33Z</time>
      </trkpt>
      <trkpt lat="40.272133" lon="-4.568717">
        <ele>832.0</ele>
        <time>2015-08-02T13:48:35Z</time>
      </trkpt>
      <trkpt lat="40.272300" lon="-4.568900">
        <ele>829.0</ele>
        <time>2015-08-02T13:48:37Z</time>
      </trkpt>
      <trkpt lat="40.272417" lon="-4.569067">
        <ele>828.0</ele>
        <time>2015-08-02T13:48:39Z</time>
      </trkpt>
      <trkpt lat="40.272450" lon="-4.569267">
        <ele>825.0</ele>
        <time>2015-08-02T13:48:41Z</time>
      </trkpt>
      <trkpt lat="40.272367" lon="-4.569367">
        <ele>823.0</ele>
        <time>2015-08-02T13:48:43Z</time>
      </trkpt>
      <trkpt lat="40.272283" lon="-4.569350">
        <ele>823.0</ele>
        <time>2015-08-02T13:48:45Z</time>
      </trkpt>
      <trkpt lat="40.272233" lon="-4.569467">
        <ele>823.0</ele>
        <time>2015-08-02T13:48:47Z</time>
      </trkpt>
      <trkpt lat="40.272367" lon="-4.569717">
        <ele>819.0</ele>
        <time>2015-08-02T13:48:49Z</time>
      </trkpt>
      <trkpt lat="40.272550" lon="-4.569883">
        <ele>832.0</ele>
        <time>2015-08-02T13:48:51Z</time>
      </trkpt>
      <trkpt lat="40.272550" lon="-4.570017">
        <ele>839.0</ele>
        <time>2015-08-02T13:48:53Z</time>
      </trkpt>
      <trkpt lat="40.272450" lon="-4.570133">
        <ele>841.0</ele>
        <time>2015-08-02T13:48:55Z</time>
      </trkpt>
      <trkpt lat="40.272317" lon="-4.570067">
        <ele>845.0</ele>
        <time>2015-08-02T13:48:57Z</time>
      </trkpt>
      <trkpt lat="40.272250" lon="-4.569850">
        <ele>847.0</ele>
        <time>2015-08-02T13:48:59Z</time>
      </trkpt>
      <trkpt lat="40.272200" lon="-4.569683">
        <ele>850.0</ele>
        <time>2015-08-02T13:49:01Z</time>
      </trkpt>
      <trkpt lat="40.272117" lon="-4.569533">
        <ele>848.0</ele>
        <time>2015-08-02T13:49:03Z</time>
      </trkpt>
      <trkpt lat="40.272050" lon="-4.569350">
        <ele>845.0</ele>
        <time>2015-08-02T13:49:05Z</time>
      </trkpt>
      <trkpt lat="40.271983" lon="-4.569200">
        <ele>843.0</ele>
        <time>2015-08-02T13:49:07Z</time>
      </trkpt>
      <trkpt lat="40.271900" lon="-4.569100">
        <ele>841.0</ele>
        <time>2015-08-02T13:49:09Z</time>
      </trkpt>
      <trkpt lat="40.271817" lon="-4.569050">
        <ele>838.0</ele>
        <time>2015-08-02T13:49:11Z</time>
      </trkpt>
      <trkpt lat="40.271683" lon="-4.569050">
        <ele>834.0</ele>
        <time>2015-08-02T13:49:13Z</time>
      </trkpt>
      <trkpt lat="40.271600" lon="-4.569150">
        <ele>833.0</ele>
        <time>2015-08-02T13:49:15Z</time>
      </trkpt>
      <trkpt lat="40.271583" lon="-4.569333">
        <ele>828.0</ele>
        <time>2015-08-02T13:49:17Z</time>
      </trkpt>
      <trkpt lat="40.271650" lon="-4.569583">
        <ele>823.0</ele>
        <time>2015-08-02T13:49:19Z</time>
      </trkpt>
      <trkpt lat="40.271750" lon="-4.569833">
        <ele>819.0</ele>
        <time>2015-08-02T13:49:21Z</time>
      </trkpt>
      <trkpt lat="40.271850" lon="-4.570067">
        <ele>816.0</ele>
        <time>2015-08-02T13:49:23Z</time>
      </trkpt>
      <trkpt lat="40.271967" lon="-4.570317">
        <ele>813.0</ele>
        <time>2015-08-02T13:49:25Z</time>
      </trkpt>
      <trkpt lat="40.272067" lon="-4.570567">
        <ele>812.0</ele>
        <time>2015-08-02T13:49:27Z</time>
      </trkpt>
      <trkpt lat="40.272050" lon="-4.570800">
        <ele>811.0</ele>
        <time>2015-08-02T13:49:29Z</time>
      </trkpt>
      <trkpt lat="40.271933" lon="-4.570867">
        <ele>807.0</ele>
        <time>2015-08-02T13:49:31Z</time>
      </trkpt>
      <trkpt lat="40.271850" lon="-4.570783">
        <ele>806.0</ele>
        <time>2015-08-02T13:49:33Z</time>
      </trkpt>
      <trkpt lat="40.271800" lon="-4.570683">
        <ele>804.0</ele>
        <time>2015-08-02T13:49:35Z</time>
      </trkpt>
      <trkpt lat="40.271717" lon="-4.570600">
        <ele>801.0</ele>
        <time>2015-08-02T13:49:37Z</time>
      </trkpt>
      <trkpt lat="40.271617" lon="-4.570533">
        <ele>798.0</ele>
        <time>2015-08-02T13:49:39Z</time>
      </trkpt>
      <trkpt lat="40.271533" lon="-4.570617">
        <ele>796.0</ele>
        <time>2015-08-02T13:49:41Z</time>
      </trkpt>
      <trkpt lat="40.271500" lon="-4.570850">
        <ele>794.0</ele>
        <time>2015-08-02T13:49:43Z</time>
      </trkpt>
      <trkpt lat="40.271583" lon="-4.571117">
        <ele>796.0</ele>
        <time>2015-08-02T13:49:45Z</time>
      </trkpt>
      <trkpt lat="40.271667" lon="-4.571350">
        <ele>796.0</ele>
        <time>2015-08-02T13:49:47Z</time>
      </trkpt>
      <trkpt lat="40.271717" lon="-4.571633">
        <ele>796.0</ele>
        <time>2015-08-02T13:49:49Z</time>
      </trkpt>
      <trkpt lat="40.271750" lon="-4.571867">
        <ele>799.0</ele>
        <time>2015-08-02T13:49:51Z</time>
      </trkpt>
      <trkpt lat="40.271717" lon="-4.572067">
        <ele>800.0</ele>
        <time>2015-08-02T13:49:53Z</time>
      </trkpt>
      <trkpt lat="40.271600" lon="-4.572183">
        <ele>797.0</ele>
        <time>2015-08-02T13:49:55Z</time>
      </trkpt>
      <trkpt lat="40.271483" lon="-4.572050">
        <ele>796.0</ele>
        <time>2015-08-02T13:49:57Z</time>
      </trkpt>
      <trkpt lat="40.271467" lon="-4.571900">
        <ele>798.0</ele>
        <time>2015-08-02T13:49:59Z</time>
      </trkpt>
      <trkpt lat="40.271383" lon="-4.571850">
        <ele>792.0</ele>
        <time>2015-08-02T13:50:01Z</time>
      </trkpt>
      <trkpt lat="40.271250" lon="-4.571900">
        <ele>787.0</ele>
        <time>2015-08-02T13:50:03Z</time>
      </trkpt>
      <trkpt lat="40.271200" lon="-4.572117">
        <ele>781.0</ele>
        <time>2015-08-02T13:50:05Z</time>
      </trkpt>
      <trkpt lat="40.271183" lon="-4.572383">
        <ele>781.0</ele>
        <time>2015-08-02T13:50:07Z</time>
      </trkpt>
      <trkpt lat="40.271167" lon="-4.572600">
        <ele>780.0</ele>
        <time>2015-08-02T13:50:09Z</time>
      </trkpt>
      <trkpt lat="40.271117" lon="-4.572800">
        <ele>776.0</ele>
        <time>2015-08-02T13:50:11Z</time>
      </trkpt>
      <trkpt lat="40.271017" lon="-4.573000">
        <ele>771.0</ele>
        <time>2015-08-02T13:50:13Z</time>
      </trkpt>
      <trkpt lat="40.270933" lon="-4.573200">
        <ele>769.0</ele>
        <time>2015-08-02T13:50:15Z</time>
      </trkpt>
      <trkpt lat="40.270817" lon="-4.573367">
        <ele>766.0</ele>
        <time>2015-08-02T13:50:17Z</time>
      </trkpt>
      <trkpt lat="40.270683" lon="-4.573567">
        <ele>769.0</ele>
        <time>2015-08-02T13:50:19Z</time>
      </trkpt>
      <trkpt lat="40.270583" lon="-4.573750">
        <ele>776.0</ele>
        <time>2015-08-02T13:50:21Z</time>
      </trkpt>
      <trkpt lat="40.270483" lon="-4.573800">
        <ele>778.0</ele>
        <time>2015-08-02T13:50:23Z</time>
      </trkpt>
      <trkpt lat="40.270450" lon="-4.573600">
        <ele>776.0</ele>
        <time>2015-08-02T13:50:25Z</time>
      </trkpt>
      <trkpt lat="40.270650" lon="-4.573517">
        <ele>772.0</ele>
        <time>2015-08-02T13:50:27Z</time>
      </trkpt>
      <trkpt lat="40.270850" lon="-4.573783">
        <ele>770.0</ele>
        <time>2015-08-02T13:50:29Z</time>
      </trkpt>
      <trkpt lat="40.270867" lon="-4.574050">
        <ele>776.0</ele>
        <time>2015-08-02T13:50:31Z</time>
      </trkpt>
      <trkpt lat="40.270800" lon="-4.574233">
        <ele>778.0</ele>
        <time>2015-08-02T13:50:33Z</time>
      </trkpt>
      <trkpt lat="40.270683" lon="-4.574367">
        <ele>777.0</ele>
        <time>2015-08-02T13:50:35Z</time>
      </trkpt>
      <trkpt lat="40.270550" lon="-4.574267">
        <ele>773.0</ele>
        <time>2015-08-02T13:50:37Z</time>
      </trkpt>
      <trkpt lat="40.270550" lon="-4.574067">
        <ele>774.0</ele>
        <time>2015-08-02T13:50:39Z</time>
      </trkpt>
      <trkpt lat="40.270550" lon="-4.573933">
        <ele>774.0</ele>
        <time>2015-08-02T13:50:41Z</time>
      </trkpt>
      <trkpt lat="40.270467" lon="-4.573850">
        <ele>769.0</ele>
        <time>2015-08-02T13:50:43Z</time>
      </trkpt>
      <trkpt lat="40.270283" lon="-4.573867">
        <ele>767.0</ele>
        <time>2015-08-02T13:50:45Z</time>
      </trkpt>
      <trkpt lat="40.270150" lon="-4.573967">
        <ele>773.0</ele>
        <time>2015-08-02T13:50:47Z</time>
      </trkpt>
      <trkpt lat="40.270067" lon="-4.574033">
        <ele>776.0</ele>
        <time>2015-08-02T13:50:49Z</time>
      </trkpt>
      <trkpt lat="40.269950" lon="-4.574133">
        <ele>775.0</ele>
        <time>2015-08-02T13:50:51Z</time>
      </trkpt>
      <trkpt lat="40.269817" lon="-4.574233">
        <ele>776.0</ele>
        <time>2015-08-02T13:50:53Z</time>
      </trkpt>
      <trkpt lat="40.269717" lon="-4.574317">
        <ele>778.0</ele>
        <time>2015-08-02T13:50:55Z</time>
      </trkpt>
      <trkpt lat="40.269633" lon="-4.574433">
        <ele>776.0</ele>
        <time>2015-08-02T13:50:57Z</time>
      </trkpt>
      <trkpt lat="40.269500" lon="-4.574550">
        <ele>772.0</ele>
        <time>2015-08-02T13:50:59Z</time>
      </trkpt>
      <trkpt lat="40.269383" lon="-4.574633">
        <ele>769.0</ele>
        <time>2015-08-02T13:51:01Z</time>
      </trkpt>
      <trkpt lat="40.269267" lon="-4.574733">
        <ele>767.0</ele>
        <time>2015-08-02T13:51:03Z</time>
      </trkpt>
      <trkpt lat="40.269167" lon="-4.574817">
        <ele>767.0</ele>
        <time>2015-08-02T13:51:05Z</time>
      </trkpt>
      <trkpt lat="40.269067" lon="-4.574900">
        <ele>766.0</ele>
        <time>2015-08-02T13:51:07Z</time>
      </trkpt>
      <trkpt lat="40.268967" lon="-4.574950">
        <ele>765.0</ele>
        <time>2015-08-02T13:51:09Z</time>
      </trkpt>
      <trkpt lat="40.268850" lon="-4.574967">
        <ele>764.0</ele>
        <time>2015-08-02T13:51:11Z</time>
      </trkpt>
      <trkpt lat="40.268750" lon="-4.574967">
        <ele>762.0</ele>
        <time>2015-08-02T13:51:13Z</time>
      </trkpt>
      <trkpt lat="40.268633" lon="-4.574983">
        <ele>761.0</ele>
        <time>2015-08-02T13:51:15Z</time>
      </trkpt>
      <trkpt lat="40.268533" lon="-4.575017">
        <ele>763.0</ele>
        <time>2015-08-02T13:51:17Z</time>
      </trkpt>
      <trkpt lat="40.268450" lon="-4.575033">
        <ele>763.0</ele>
        <time>2015-08-02T13:51:19Z</time>
      </trkpt>
      <trkpt lat="40.268400" lon="-4.574883">
        <ele>762.0</ele>
        <time>2015-08-02T13:51:21Z</time>
      </trkpt>
      <trkpt lat="40.268500" lon="-4.574633">
        <ele>759.0</ele>
        <time>2015-08-02T13:51:23Z</time>
      </trkpt>
      <trkpt lat="40.268700" lon="-4.574450">
        <ele>760.0</ele>
        <time>2015-08-02T13:51:25Z</time>
      </trkpt>
      <trkpt lat="40.268883" lon="-4.574383">
        <ele>761.0</ele>
        <time>2015-08-02T13:51:27Z</time>
      </trkpt>
      <trkpt lat="40.269083" lon="-4.574350">
        <ele>759.0</ele>
        <time>2015-08-02T13:51:29Z</time>
      </trkpt>
      <trkpt lat="40.269317" lon="-4.574333">
        <ele>758.0</ele>
        <time>2015-08-02T13:51:31Z</time>
      </trkpt>
      <trkpt lat="40.269533" lon="-4.574333">
        <ele>758.0</ele>
        <time>2015-08-02T13:51:33Z</time>
      </trkpt>
      <trkpt lat="40.269750" lon="-4.574350">
        <ele>756.0</ele>
        <time>2015-08-02T13:51:35Z</time>
      </trkpt>
      <trkpt lat="40.270000" lon="-4.574350">
        <ele>755.0</ele>
        <time>2015-08-02T13:51:37Z</time>
      </trkpt>
      <trkpt lat="40.270217" lon="-4.574267">
        <ele>756.0</ele>
        <time>2015-08-02T13:51:39Z</time>
      </trkpt>
      <trkpt lat="40.270400" lon="-4.574200">
        <ele>758.0</ele>
        <time>2015-08-02T13:51:41Z</time>
      </trkpt>
      <trkpt lat="40.270583" lon="-4.574100">
        <ele>759.0</ele>
        <time>2015-08-02T13:51:43Z</time>
      </trkpt>
      <trkpt lat="40.270733" lon="-4.573950">
        <ele>759.0</ele>
        <time>2015-08-02T13:51:45Z</time>
      </trkpt>
      <trkpt lat="40.270867" lon="-4.573800">
        <ele>759.0</ele>
        <time>2015-08-02T13:51:47Z</time>
      </trkpt>
      <trkpt lat="40.270950" lon="-4.573617">
        <ele>756.0</ele>
        <time>2015-08-02T13:51:49Z</time>
      </trkpt>
      <trkpt lat="40.270967" lon="-4.573433">
        <ele>755.0</ele>
        <time>2015-08-02T13:51:51Z</time>
      </trkpt>
      <trkpt lat="40.270850" lon="-4.573350">
        <ele>751.0</ele>
        <time>2015-08-02T13:51:53Z</time>
      </trkpt>
      <trkpt lat="40.270700" lon="-4.573383">
        <ele>747.0</ele>
        <time>2015-08-02T13:51:55Z</time>
      </trkpt>
      <trkpt lat="40.270550" lon="-4.573433">
        <ele>745.0</ele>
        <time>2015-08-02T13:51:57Z</time>
      </trkpt>
      <trkpt lat="40.270417" lon="-4.573517">
        <ele>743.0</ele>
        <time>2015-08-02T13:51:59Z</time>
      </trkpt>
      <trkpt lat="40.270317" lon="-4.573617">
        <ele>744.0</ele>
        <time>2015-08-02T13:52:01Z</time>
      </trkpt>
      <trkpt lat="40.270200" lon="-4.573717">
        <ele>743.0</ele>
        <time>2015-08-02T13:52:03Z</time>
      </trkpt>
      <trkpt lat="40.270083" lon="-4.573833">
        <ele>742.0</ele>
        <time>2015-08-02T13:52:05Z</time>
      </trkpt>
      <trkpt lat="40.269917" lon="-4.573833">
        <ele>741.0</ele>
        <time>2015-08-02T13:52:07Z</time>
      </trkpt>
      <trkpt lat="40.269800" lon="-4.573717">
        <ele>746.0</ele>
        <time>2015-08-02T13:52:09Z</time>
      </trkpt>
      <trkpt lat="40.269833" lon="-4.573550">
        <ele>747.0</ele>
        <time>2015-08-02T13:52:11Z</time>
      </trkpt>
      <trkpt lat="40.269967" lon="-4.573400">
        <ele>750.0</ele>
        <time>2015-08-02T13:52:13Z</time>
      </trkpt>
      <trkpt lat="40.270150" lon="-4.573300">
        <ele>751.0</ele>
        <time>2015-08-02T13:52:15Z</time>
      </trkpt>
      <trkpt lat="40.270283" lon="-4.573133">
        <ele>749.0</ele>
        <time>2015-08-02T13:52:17Z</time>
      </trkpt>
      <trkpt lat="40.270283" lon="-4.572917">
        <ele>747.0</ele>
        <time>2015-08-02T13:52:19Z</time>
      </trkpt>
      <trkpt lat="40.270200" lon="-4.572850">
        <ele>748.0</ele>
        <time>2015-08-02T13:52:21Z</time>
      </trkpt>
      <trkpt lat="40.270100" lon="-4.572917">
        <ele>749.0</ele>
        <time>2015-08-02T13:52:23Z</time>
      </trkpt>
      <trkpt lat="40.270000" lon="-4.572983">
        <ele>749.0</ele>
        <time>2015-08-02T13:52:25Z</time>
      </trkpt>
      <trkpt lat="40.269883" lon="-4.573100">
        <ele>748.0</ele>
        <time>2015-08-02T13:52:27Z</time>
      </trkpt>
      <trkpt lat="40.269767" lon="-4.573233">
        <ele>751.0</ele>
        <time>2015-08-02T13:52:29Z</time>
      </trkpt>
      <trkpt lat="40.269650" lon="-4.573317">
        <ele>754.0</ele>
        <time>2015-08-02T13:52:31Z</time>
      </trkpt>
      <trkpt lat="40.269567" lon="-4.573383">
        <ele>757.0</ele>
        <time>2015-08-02T13:52:33Z</time>
      </trkpt>
      <trkpt lat="40.269467" lon="-4.573483">
        <ele>758.0</ele>
        <time>2015-08-02T13:52:35Z</time>
      </trkpt>
      <trkpt lat="40.269367" lon="-4.573617">
        <ele>760.0</ele>
        <time>2015-08-02T13:52:37Z</time>
      </trkpt>
      <trkpt lat="40.269317" lon="-4.573800">
        <ele>762.0</ele>
        <time>2015-08-02T13:52:39Z</time>
      </trkpt>
      <trkpt lat="40.269283" lon="-4.573933">
        <ele>764.0</ele>
        <time>2015-08-02T13:52:41Z</time>
      </trkpt>
      <trkpt lat="40.269200" lon="-4.574000">
        <ele>764.0</ele>
        <time>2015-08-02T13:52:43Z</time>
      </trkpt>
      <trkpt lat="40.269133" lon="-4.574083">
        <ele>765.0</ele>
        <time>2015-08-02T13:52:45Z</time>
      </trkpt>
      <trkpt lat="40.269100" lon="-4.574150">
        <ele>766.0</ele>
        <time>2015-08-02T13:52:47Z</time>
      </trkpt>
      <trkpt lat="40.269050" lon="-4.574267">
        <ele>764.0</ele>
        <time>2015-08-02T13:52:49Z</time>
      </trkpt>
      <trkpt lat="40.268967" lon="-4.574383">
        <ele>764.0</ele>
        <time>2015-08-02T13:52:51Z</time>
      </trkpt>
      <trkpt lat="40.268900" lon="-4.574400">
        <ele>763.0</ele>
        <time>2015-08-02T13:52:53Z</time>
      </trkpt>
      <trkpt lat="40.268800" lon="-4.574417">
        <ele>758.0</ele>
        <time>2015-08-02T13:52:55Z</time>
      </trkpt>
      <trkpt lat="40.268700" lon="-4.574450">
        <ele>753.0</ele>
        <time>2015-08-02T13:52:57Z</time>
      </trkpt>
      <trkpt lat="40.268600" lon="-4.574500">
        <ele>748.0</ele>
        <time>2015-08-02T13:52:59Z</time>
      </trkpt>
      <trkpt lat="40.268467" lon="-4.574517">
        <ele>742.0</ele>
        <time>2015-08-02T13:53:01Z</time>
      </trkpt>
      <trkpt lat="40.268333" lon="-4.574550">
        <ele>739.0</ele>
        <time>2015-08-02T13:53:03Z</time>
      </trkpt>
      <trkpt lat="40.268233" lon="-4.574617">
        <ele>737.0</ele>
        <time>2015-08-02T13:53:05Z</time>
      </trkpt>
      <trkpt lat="40.268117" lon="-4.574567">
        <ele>737.0</ele>
        <time>2015-08-02T13:53:07Z</time>
      </trkpt>
      <trkpt lat="40.268083" lon="-4.574283">
        <ele>732.0</ele>
        <time>2015-08-02T13:53:09Z</time>
      </trkpt>
      <trkpt lat="40.268250" lon="-4.573983">
        <ele>729.0</ele>
        <time>2015-08-02T13:53:11Z</time>
      </trkpt>
      <trkpt lat="40.268500" lon="-4.573917">
        <ele>729.0</ele>
        <time>2015-08-02T13:53:13Z</time>
      </trkpt>
      <trkpt lat="40.268717" lon="-4.573933">
        <ele>727.0</ele>
        <time>2015-08-02T13:53:15Z</time>
      </trkpt>
      <trkpt lat="40.268967" lon="-4.573900">
        <ele>723.0</ele>
        <time>2015-08-02T13:53:17Z</time>
      </trkpt>
      <trkpt lat="40.269200" lon="-4.573900">
        <ele>722.0</ele>
        <time>2015-08-02T13:53:19Z</time>
      </trkpt>
      <trkpt lat="40.269433" lon="-4.573950">
        <ele>720.0</ele>
        <time>2015-08-02T13:53:21Z</time>
      </trkpt>
      <trkpt lat="40.269633" lon="-4.573850">
        <ele>718.0</ele>
        <time>2015-08-02T13:53:23Z</time>
      </trkpt>
      <trkpt lat="40.269683" lon="-4.573600">
        <ele>716.0</ele>
        <time>2015-08-02T13:53:25Z</time>
      </trkpt>
      <trkpt lat="40.269550" lon="-4.573483">
        <ele>716.0</ele>
        <time>2015-08-02T13:53:27Z</time>
      </trkpt>
      <trkpt lat="40.269417" lon="-4.573550">
        <ele>719.0</ele>
        <time>2015-08-02T13:53:29Z</time>
      </trkpt>
      <trkpt lat="40.269300" lon="-4.573583">
        <ele>720.0</ele>
        <time>2015-08-02T13:53:31Z</time>
      </trkpt>
      <trkpt lat="40.269200" lon="-4.573600">
        <ele>719.0</ele>
        <time>2015-08-02T13:53:33Z</time>
      </trkpt>
      <trkpt lat="40.269133" lon="-4.573667">
        <ele>717.0</ele>
        <time>2015-08-02T13:53:35Z</time>
      </trkpt>
      <trkpt lat="40.269050" lon="-4.573750">
        <ele>715.0</ele>
        <time>2015-08-02T13:53:37Z</time>
      </trkpt>
      <trkpt lat="40.268983" lon="-4.573767">
        <ele>712.0</ele>
        <time>2015-08-02T13:53:39Z</time>
      </trkpt>
      <trkpt lat="40.268900" lon="-4.573617">
        <ele>707.0</ele>
        <time>2015-08-02T13:53:41Z</time>
      </trkpt>
      <trkpt lat="40.268900" lon="-4.573333">
        <ele>702.0</ele>
        <time>2015-08-02T13:53:43Z</time>
      </trkpt>
      <trkpt lat="40.268950" lon="-4.573067">
        <ele>700.0</ele>
        <time>2015-08-02T13:53:45Z</time>
      </trkpt>
      <trkpt lat="40.268867" lon="-4.572900">
        <ele>697.0</ele>
        <time>2015-08-02T13:53:47Z</time>
      </trkpt>
      <trkpt lat="40.268750" lon="-4.573017">
        <ele>693.0</ele>
        <time>2015-08-02T13:53:49Z</time>
      </trkpt>
      <trkpt lat="40.268833" lon="-4.573250">
        <ele>693.0</ele>
        <time>2015-08-02T13:53:51Z</time>
      </trkpt>
      <trkpt lat="40.268967" lon="-4.573367">
        <ele>696.0</ele>
        <time>2015-08-02T13:53:53Z</time>
      </trkpt>
      <trkpt lat="40.268933" lon="-4.573433">
        <ele>689.0</ele>
        <time>2015-08-02T13:53:55Z</time>
      </trkpt>
      <trkpt lat="40.268833" lon="-4.573383">
        <ele>687.0</ele>
        <time>2015-08-02T13:53:57Z</time>
      </trkpt>
      <trkpt lat="40.268800" lon="-4.573283">
        <ele>687.0</ele>
        <time>2015-08-02T13:53:59Z</time>
      </trkpt>
      <trkpt lat="40.268750" lon="-4.573233">
        <ele>684.0</ele>
        <time>2015-08-02T13:54:01Z</time>
      </trkpt>
      <trkpt lat="40.268667" lon="-4.573267">
        <ele>680.0</ele>
        <time>2015-08-02T13:54:03Z</time>
      </trkpt>
      <trkpt lat="40.268633" lon="-4.573317">
        <ele>679.0</ele>
        <time>2015-08-02T13:54:05Z</time>
      </trkpt>
      <trkpt lat="40.268600" lon="-4.573300">
        <ele>675.0</ele>
        <time>2015-08-02T13:54:07Z</time>
      </trkpt>
      <trkpt lat="40.268517" lon="-4.573300">
        <ele>670.0</ele>
        <time>2015-08-02T13:54:09Z</time>
      </trkpt>
      <trkpt lat="40.268467" lon="-4.573333">
        <ele>668.0</ele>
        <time>2015-08-02T13:54:11Z</time>
      </trkpt>
      <trkpt lat="40.268417" lon="-4.573383">
        <ele>667.0</ele>
        <time>2015-08-02T13:54:13Z</time>
      </trkpt>
      <trkpt lat="40.268367" lon="-4.573400">
        <ele>665.0</ele>
        <time>2015-08-02T13:54:15Z</time>
      </trkpt>
      <trkpt lat="40.268300" lon="-4.573433">
        <ele>660.0</ele>
        <time>2015-08-02T13:54:17Z</time>
      </trkpt>
      <trkpt lat="40.268217" lon="-4.573500">
        <ele>656.0</ele>
        <time>2015-08-02T13:54:19Z</time>
      </trkpt>
      <trkpt lat="40.268150" lon="-4.573567">
        <ele>654.0</ele>
        <time>2015-08-02T13:54:21Z</time>
      </trkpt>
      <trkpt lat="40.268100" lon="-4.573617">
        <ele>650.0</ele>
        <time>2015-08-02T13:54:23Z</time>
      </trkpt>
      <trkpt lat="40.268050" lon="-4.573650">
        <ele>648.0</ele>
        <time>2015-08-02T13:54:25Z</time>
      </trkpt>
      <trkpt lat="40.268033" lon="-4.573667">
        <ele>647.0</ele>
        <time>2015-08-02T13:54:27Z</time>
      </trkpt>
      <trkpt lat="40.268033" lon="-4.573683">
        <ele>646.0</ele>
        <time>2015-08-02T13:54:29Z</time>
      </trkpt>
      <trkpt lat="40.268050" lon="-4.573667">
        <ele>646.0</ele>
        <time>2015-08-02T13:54:31Z</time>
      </trkpt>
      <trkpt lat="40.268067" lon="-4.573683">
        <ele>646.0</ele>
        <time>2015-08-02T13:54:33Z</time>
      </trkpt>
      <trkpt lat="40.268067" lon="-4.573667">
        <ele>645.0</ele>
        <time>2015-08-02T13:54:35Z</time>
      </trkpt>
      <trkpt lat="40.268067" lon="-4.573667">
        <ele>646.0</ele>
        <time>2015-08-02T13:54:37Z</time>
      </trkpt>
      <trkpt lat="40.268067" lon="-4.573667">
        <ele>646.0</ele>
        <time>2015-08-02T13:54:39Z</time>
      </trkpt>
      <trkpt lat="40.268067" lon="-4.573667">
        <ele>645.0</ele>
        <time>2015-08-02T13:54:41Z</time>
      </trkpt>
      <trkpt lat="40.268067" lon="-4.573667">
        <ele>645.0</ele>
        <time>2015-08-02T13:54:43Z</time>
      </trkpt>
      <trkpt lat="40.268067" lon="-4.573667">
        <ele>646.0</ele>
        <time>2015-08-02T13:54:45Z</time>
      </trkpt>
      <trkpt lat="40.268067" lon="-4.573667">
        <ele>646.0</ele>
        <time>2015-08-02T13:54:47Z</time>
      </trkpt>
      <trkpt lat="40.268067" lon="-4.573667">
        <ele>645.0</ele>
        <time>2015-08-02T13:54:49Z</time>
      </trkpt>
      <trkpt lat="40.268067" lon="-4.573667">
        <ele>646.0</ele>
        <time>2015-08-02T13:54:51Z</time>
      </trkpt>
      <trkpt lat="40.268067" lon="-4.573683">
        <ele>646.0</ele>
        <time>2015-08-02T13:54:53Z</time>
      </trkpt>
      <trkpt lat="40.268067" lon="-4.573683">
        <ele>646.0</ele>
        <time>2015-08-02T13:54:55Z</time>
      </trkpt>
      <trkpt lat="40.268067" lon="-4.573683">
        <ele>646.0</ele>
        <time>2015-08-02T13:54:57Z</time>
      </trkpt>
    </trkseg>
  </trk>
</gpx>
